<?xml version='1.0' encoding='UTF-8'?><gpx version="1.1" creator="JPX - https://github.com/jenetics/jpx" xmlns="http://www.topografix.com/GPX/1/1"><trk><trkseg><trkpt lat="42.704956426914315" lon="2.885050710034709"><ele>31.200000000000003</ele><time>2026-04-04T11:31:44Z</time></trkpt><trkpt lat="42.7048721943033" lon="2.8850983973634903"><ele>31.400000000000002</ele><time>2026-04-04T11:32:10Z</time></trkpt><trkpt lat="42.70479538141869" lon="2.885155206508559"><ele>31.6</ele><time>2026-04-04T11:32:13Z</time></trkpt><trkpt lat="42.704694290398265" lon="2.8852268425752463"><ele>31.8</ele><time>2026-04-04T11:32:15Z</time></trkpt><trkpt lat="42.70459595478202" lon="2.8852794553769203"><ele>32.0</ele><time>2026-04-04T11:32:17Z</time></trkpt><trkpt lat="42.704519435808656" lon="2.8853381499446593"><ele>32.0</ele><time>2026-04-04T11:32:19Z</time></trkpt><trkpt lat="42.70448075875441" lon="2.885434560459764"><ele>32.0</ele><time>2026-04-04T11:32:25Z</time></trkpt><trkpt lat="42.70453475463605" lon="2.8856348501460736"><ele>32.0</ele><time>2026-04-04T11:32:27Z</time></trkpt><trkpt lat="42.70457221225759" lon="2.8857265941739736"><ele>32.0</ele><time>2026-04-04T11:32:28Z</time></trkpt><trkpt lat="42.70460859253104" lon="2.8857996692789225"><ele>32.0</ele><time>2026-04-04T11:32:29Z</time></trkpt><trkpt lat="42.70465196896957" lon="2.885950252069542"><ele>32.0</ele><time>2026-04-04T11:32:31Z</time></trkpt><trkpt lat="42.70468930232095" lon="2.886030022092219"><ele>32.0</ele><time>2026-04-04T11:32:32Z</time></trkpt><trkpt lat="42.704736357463794" lon="2.8861731834044693"><ele>32.0</ele><time>2026-04-04T11:32:34Z</time></trkpt><trkpt lat="42.704768592197645" lon="2.886305706300717"><ele>32.0</ele><time>2026-04-04T11:32:36Z</time></trkpt><trkpt lat="42.70479024287327" lon="2.8864146953921868"><ele>32.0</ele><time>2026-04-04T11:32:38Z</time></trkpt><trkpt lat="42.7048208867482" lon="2.886517959454393"><ele>32.0</ele><time>2026-04-04T11:32:41Z</time></trkpt><trkpt lat="42.70491445839873" lon="2.8864207567764155"><ele>32.0</ele><time>2026-04-04T11:32:42Z</time></trkpt><trkpt lat="42.705022959758374" lon="2.8863554367225404"><ele>32.0</ele><time>2026-04-04T11:32:44Z</time></trkpt><trkpt lat="42.7051589077403" lon="2.886273276253648"><ele>32.0</ele><time>2026-04-04T11:32:46Z</time></trkpt><trkpt lat="42.70524770330207" lon="2.886223768565615"><ele>31.999999999999996</ele><time>2026-04-04T11:32:47Z</time></trkpt><trkpt lat="42.70534495718394" lon="2.8861664726837613"><ele>32.0</ele><time>2026-04-04T11:32:48Z</time></trkpt><trkpt lat="42.70543435749488" lon="2.8861231975956803"><ele>32.0</ele><time>2026-04-04T11:32:49Z</time></trkpt><trkpt lat="42.70551340318112" lon="2.886075234359982"><ele>32.0</ele><time>2026-04-04T11:32:50Z</time></trkpt><trkpt lat="42.7055830465596" lon="2.8860324934395254"><ele>31.999999999999996</ele><time>2026-04-04T11:32:51Z</time></trkpt><trkpt lat="42.7056458481833" lon="2.8859900365081597"><ele>32.0</ele><time>2026-04-04T11:32:52Z</time></trkpt><trkpt lat="42.705756452329304" lon="2.8859313042053722"><ele>32.0</ele><time>2026-04-04T11:32:54Z</time></trkpt><trkpt lat="42.70587440687825" lon="2.8858867118601306"><ele>32.0</ele><time>2026-04-04T11:32:56Z</time></trkpt><trkpt lat="42.70593324692745" lon="2.8858397169219585"><ele>32.0</ele><time>2026-04-04T11:32:57Z</time></trkpt><trkpt lat="42.70602873477194" lon="2.88576847879491"><ele>32.0</ele><time>2026-04-04T11:32:59Z</time></trkpt><trkpt lat="42.706123067283215" lon="2.8857325451433686"><ele>32.0</ele><time>2026-04-04T11:33:00.999Z</time></trkpt><trkpt lat="42.70617606720924" lon="2.885671814594994"><ele>32.0</ele><time>2026-04-04T11:33:04.999Z</time></trkpt><trkpt lat="42.70613394249942" lon="2.8854349845413956"><ele>32.0</ele><time>2026-04-04T11:33:08Z</time></trkpt><trkpt lat="42.70609258058339" lon="2.885256163498293"><ele>32.0</ele><time>2026-04-04T11:33:10Z</time></trkpt><trkpt lat="42.70606529856723" lon="2.8851673426418936"><ele>32.0</ele><time>2026-04-04T11:33:11Z</time></trkpt><trkpt lat="42.70602977031117" lon="2.885085318066003"><ele>31.666666666666664</ele><time>2026-04-04T11:33:12Z</time></trkpt><trkpt lat="42.70599706381968" lon="2.884993506849891"><ele>31.333333333333332</ele><time>2026-04-04T11:33:13Z</time></trkpt><trkpt lat="42.70596720744561" lon="2.884877216806143"><ele>31.0</ele><time>2026-04-04T11:33:14Z</time></trkpt><trkpt lat="42.70594745260092" lon="2.8847764065414654"><ele>30.666666666666664</ele><time>2026-04-04T11:33:15Z</time></trkpt><trkpt lat="42.70593742753772" lon="2.884651894445212"><ele>30.333333333333332</ele><time>2026-04-04T11:33:16Z</time></trkpt><trkpt lat="42.70594710807308" lon="2.884529587558203"><ele>30.0</ele><time>2026-04-04T11:33:17Z</time></trkpt><trkpt lat="42.70598673729873" lon="2.8844016210591117"><ele>30.0</ele><time>2026-04-04T11:33:18Z</time></trkpt><trkpt lat="42.706050867189795" lon="2.884278553201424"><ele>30.0</ele><time>2026-04-04T11:33:19Z</time></trkpt><trkpt lat="42.70613071144646" lon="2.8841670559190646"><ele>30.0</ele><time>2026-04-04T11:33:20Z</time></trkpt><trkpt lat="42.70621872218749" lon="2.8840539167920314"><ele>30.0</ele><time>2026-04-04T11:33:21Z</time></trkpt><trkpt lat="42.706303011968615" lon="2.8839429599661335"><ele>30.75</ele><time>2026-04-04T11:33:22Z</time></trkpt><trkpt lat="42.70638691456224" lon="2.8838282381102456"><ele>31.5</ele><time>2026-04-04T11:33:23Z</time></trkpt><trkpt lat="42.70647110772406" lon="2.8837092482021007"><ele>32.25</ele><time>2026-04-04T11:33:24Z</time></trkpt><trkpt lat="42.70655189468999" lon="2.8835842345871803"><ele>33.0</ele><time>2026-04-04T11:33:25Z</time></trkpt><trkpt lat="42.70663306580431" lon="2.8834576251280137"><ele>32.75</ele><time>2026-04-04T11:33:26Z</time></trkpt><trkpt lat="42.70670949849039" lon="2.8833415169175507"><ele>32.5</ele><time>2026-04-04T11:33:27Z</time></trkpt><trkpt lat="42.706794147398014" lon="2.883214698430731"><ele>32.25</ele><time>2026-04-04T11:33:28Z</time></trkpt><trkpt lat="42.70688182140146" lon="2.883077609099953"><ele>32.0</ele><time>2026-04-04T11:33:29Z</time></trkpt><trkpt lat="42.70696422008115" lon="2.882932044474424"><ele>31.75</ele><time>2026-04-04T11:33:30Z</time></trkpt><trkpt lat="42.70704308458655" lon="2.88277521481988"><ele>31.5</ele><time>2026-04-04T11:33:31Z</time></trkpt><trkpt lat="42.70711877381186" lon="2.8826194626728285"><ele>31.25</ele><time>2026-04-04T11:33:32Z</time></trkpt><trkpt lat="42.70720573455539" lon="2.882431210080464"><ele>31.0</ele><time>2026-04-04T11:33:33Z</time></trkpt><trkpt lat="42.707326763843355" lon="2.882199828854975"><ele>31.0</ele><time>2026-04-04T11:33:34Z</time></trkpt><trkpt lat="42.707420620558594" lon="2.881986298330646"><ele>31.0</ele><time>2026-04-04T11:33:35Z</time></trkpt><trkpt lat="42.70749759786326" lon="2.8818045153394567"><ele>31.0</ele><time>2026-04-04T11:33:37Z</time></trkpt><trkpt lat="42.70755792071614" lon="2.881664022682567"><ele>31.0</ele><time>2026-04-04T11:33:38Z</time></trkpt><trkpt lat="42.70761505221785" lon="2.881523998500872"><ele>31.0</ele><time>2026-04-04T11:33:39Z</time></trkpt><trkpt lat="42.70766844305614" lon="2.8813946322849"><ele>31.0</ele><time>2026-04-04T11:33:40Z</time></trkpt><trkpt lat="42.70771916581174" lon="2.881273558584975"><ele>31.0</ele><time>2026-04-04T11:33:41Z</time></trkpt><trkpt lat="42.70776646542344" lon="2.8811632075846423"><ele>31.0</ele><time>2026-04-04T11:33:42Z</time></trkpt><trkpt lat="42.7078094920481" lon="2.881055425422474"><ele>30.0</ele><time>2026-04-04T11:33:43Z</time></trkpt><trkpt lat="42.707853789870796" lon="2.880926606081554"><ele>29.0</ele><time>2026-04-04T11:33:44Z</time></trkpt><trkpt lat="42.70789766671488" lon="2.880784513669919"><ele>28.0</ele><time>2026-04-04T11:33:45Z</time></trkpt><trkpt lat="42.70794860720977" lon="2.880640383287883"><ele>27.0</ele><time>2026-04-04T11:33:46Z</time></trkpt><trkpt lat="42.70800469506967" lon="2.8804968445319767"><ele>27.0</ele><time>2026-04-04T11:33:47Z</time></trkpt><trkpt lat="42.70805294533656" lon="2.8803576338119043"><ele>27.000000000000004</ele><time>2026-04-04T11:33:48Z</time></trkpt><trkpt lat="42.70809558403076" lon="2.8802270944354764"><ele>27.000000000000004</ele><time>2026-04-04T11:33:49Z</time></trkpt><trkpt lat="42.708118837914505" lon="2.880083275086569"><ele>27.0</ele><time>2026-04-04T11:33:50Z</time></trkpt><trkpt lat="42.70815352551544" lon="2.879943013449055"><ele>27.0</ele><time>2026-04-04T11:33:51Z</time></trkpt><trkpt lat="42.70821554939109" lon="2.8798210646630342"><ele>27.25</ele><time>2026-04-04T11:33:52Z</time></trkpt><trkpt lat="42.70826097694863" lon="2.8796796795992816"><ele>27.5</ele><time>2026-04-04T11:33:53Z</time></trkpt><trkpt lat="42.708312071249594" lon="2.8795295100861984"><ele>27.75</ele><time>2026-04-04T11:33:54Z</time></trkpt><trkpt lat="42.70836304154323" lon="2.879374896976136"><ele>28.0</ele><time>2026-04-04T11:33:55Z</time></trkpt><trkpt lat="42.70840808468769" lon="2.879223603722704"><ele>28.75</ele><time>2026-04-04T11:33:56Z</time></trkpt><trkpt lat="42.70845019403196" lon="2.879079004758664"><ele>29.5</ele><time>2026-04-04T11:33:57Z</time></trkpt><trkpt lat="42.70849525174564" lon="2.8789351108647314"><ele>30.25</ele><time>2026-04-04T11:33:58Z</time></trkpt><trkpt lat="42.70854426189869" lon="2.8787821193157246"><ele>31.0</ele><time>2026-04-04T11:33:59Z</time></trkpt><trkpt lat="42.70858983723105" lon="2.8786244596283437"><ele>31.0</ele><time>2026-04-04T11:34:00Z</time></trkpt><trkpt lat="42.70863548134094" lon="2.878469273635354"><ele>31.0</ele><time>2026-04-04T11:34:01Z</time></trkpt><trkpt lat="42.70869222241208" lon="2.8783137102764833"><ele>31.0</ele><time>2026-04-04T11:34:02Z</time></trkpt><trkpt lat="42.708742964287616" lon="2.878157484921402"><ele>31.0</ele><time>2026-04-04T11:34:03Z</time></trkpt><trkpt lat="42.70879614605535" lon="2.8779909460523454"><ele>31.0</ele><time>2026-04-04T11:34:04Z</time></trkpt><trkpt lat="42.70885050658686" lon="2.8778380337707783"><ele>31.0</ele><time>2026-04-04T11:34:05Z</time></trkpt><trkpt lat="42.70890600779992" lon="2.87768665738077"><ele>31.0</ele><time>2026-04-04T11:34:06Z</time></trkpt><trkpt lat="42.708963882251304" lon="2.877532688585236"><ele>31.0</ele><time>2026-04-04T11:34:07Z</time></trkpt><trkpt lat="42.70902658758856" lon="2.877377918258699"><ele>30.75</ele><time>2026-04-04T11:34:08Z</time></trkpt><trkpt lat="42.709092501005244" lon="2.877222426820303"><ele>30.5</ele><time>2026-04-04T11:34:09Z</time></trkpt><trkpt lat="42.70916102436058" lon="2.8770729358183638"><ele>30.25</ele><time>2026-04-04T11:34:10Z</time></trkpt><trkpt lat="42.70923199142402" lon="2.8769235978330254"><ele>30.0</ele><time>2026-04-04T11:34:11Z</time></trkpt><trkpt lat="42.70930517168746" lon="2.8767758001420782"><ele>30.25</ele><time>2026-04-04T11:34:12Z</time></trkpt><trkpt lat="42.709374691292304" lon="2.876643953512262"><ele>30.5</ele><time>2026-04-04T11:34:13Z</time></trkpt><trkpt lat="42.70944247330226" lon="2.8765012066136038"><ele>30.75</ele><time>2026-04-04T11:34:14Z</time></trkpt><trkpt lat="42.709519020409545" lon="2.8763485956415016"><ele>31.0</ele><time>2026-04-04T11:34:15Z</time></trkpt><trkpt lat="42.70961140219854" lon="2.876202305294497"><ele>31.333333333333336</ele><time>2026-04-04T11:34:16Z</time></trkpt><trkpt lat="42.70971782814894" lon="2.876020709204987"><ele>31.666666666666664</ele><time>2026-04-04T11:34:17Z</time></trkpt><trkpt lat="42.70983007923369" lon="2.875884632917965"><ele>32.0</ele><time>2026-04-04T11:34:18Z</time></trkpt><trkpt lat="42.7099360719704" lon="2.875753071078737"><ele>32.0</ele><time>2026-04-04T11:34:19Z</time></trkpt><trkpt lat="42.710044128837296" lon="2.875643422994199"><ele>32.0</ele><time>2026-04-04T11:34:20Z</time></trkpt><trkpt lat="42.71015029025768" lon="2.875554364278801"><ele>32.0</ele><time>2026-04-04T11:34:21Z</time></trkpt><trkpt lat="42.710254340699564" lon="2.875470390369791"><ele>32.0</ele><time>2026-04-04T11:34:22Z</time></trkpt><trkpt lat="42.710341642864215" lon="2.8754048544920328"><ele>32.0</ele><time>2026-04-04T11:34:23Z</time></trkpt><trkpt lat="42.710435621792264" lon="2.8753425686098786"><ele>32.0</ele><time>2026-04-04T11:34:24Z</time></trkpt><trkpt lat="42.71053923351793" lon="2.875272045592504"><ele>32.0</ele><time>2026-04-04T11:34:25Z</time></trkpt><trkpt lat="42.710631804647704" lon="2.8752209059997127"><ele>32.0</ele><time>2026-04-04T11:34:26Z</time></trkpt><trkpt lat="42.710715264211075" lon="2.8751756448524546"><ele>32.0</ele><time>2026-04-04T11:34:27Z</time></trkpt><trkpt lat="42.71077922564462" lon="2.875111886720749"><ele>32.0</ele><time>2026-04-04T11:34:28Z</time></trkpt><trkpt lat="42.71082793324751" lon="2.875023050460675"><ele>32.0</ele><time>2026-04-04T11:34:29Z</time></trkpt><trkpt lat="42.71084216897488" lon="2.8749032088884867"><ele>32.0</ele><time>2026-04-04T11:34:30Z</time></trkpt><trkpt lat="42.710818859123485" lon="2.8747951690130837"><ele>32.0</ele><time>2026-04-04T11:34:31Z</time></trkpt><trkpt lat="42.71076660506549" lon="2.874681863731641"><ele>32.0</ele><time>2026-04-04T11:34:32Z</time></trkpt><trkpt lat="42.71068995231379" lon="2.8745666296790846"><ele>32.0</ele><time>2026-04-04T11:34:33Z</time></trkpt><trkpt lat="42.710604565429676" lon="2.8744656258226313"><ele>32.0</ele><time>2026-04-04T11:34:34Z</time></trkpt><trkpt lat="42.71054025644613" lon="2.8743651667695804"><ele>32.0</ele><time>2026-04-04T11:34:35Z</time></trkpt><trkpt lat="42.71048543493233" lon="2.8742492023362924"><ele>32.0</ele><time>2026-04-04T11:34:36Z</time></trkpt><trkpt lat="42.7104241576551" lon="2.8741093715630734"><ele>32.0</ele><time>2026-04-04T11:34:37Z</time></trkpt><trkpt lat="42.71041973498392" lon="2.8739435348681823"><ele>32.0</ele><time>2026-04-04T11:34:38Z</time></trkpt><trkpt lat="42.71035622248642" lon="2.8738190247026143"><ele>32.0</ele><time>2026-04-04T11:34:39Z</time></trkpt><trkpt lat="42.710292340424004" lon="2.873678870233643"><ele>32.0</ele><time>2026-04-04T11:34:40Z</time></trkpt><trkpt lat="42.710214554411806" lon="2.8735363490662285"><ele>32.0</ele><time>2026-04-04T11:34:41Z</time></trkpt><trkpt lat="42.710158464642824" lon="2.8733719884001947"><ele>31.75</ele><time>2026-04-04T11:34:42Z</time></trkpt><trkpt lat="42.71012870224826" lon="2.8732083292458754"><ele>31.5</ele><time>2026-04-04T11:34:43Z</time></trkpt><trkpt lat="42.71010711040207" lon="2.8730130988729243"><ele>31.25</ele><time>2026-04-04T11:34:44Z</time></trkpt><trkpt lat="42.710085724759274" lon="2.8728286206404703"><ele>31.0</ele><time>2026-04-04T11:34:45Z</time></trkpt><trkpt lat="42.710069622202155" lon="2.8726457395283096"><ele>31.0</ele><time>2026-04-04T11:34:46Z</time></trkpt><trkpt lat="42.71005429793226" lon="2.8724647920994757"><ele>31.0</ele><time>2026-04-04T11:34:47Z</time></trkpt><trkpt lat="42.71004523935395" lon="2.8722886074043648"><ele>31.0</ele><time>2026-04-04T11:34:48Z</time></trkpt><trkpt lat="42.710039681898195" lon="2.8721066089669143"><ele>31.0</ele><time>2026-04-04T11:34:49Z</time></trkpt><trkpt lat="42.71004328704709" lon="2.8719217177873158"><ele>31.5</ele><time>2026-04-04T11:34:50Z</time></trkpt><trkpt lat="42.710048949070995" lon="2.871734867263732"><ele>32.0</ele><time>2026-04-04T11:34:51Z</time></trkpt><trkpt lat="42.71005782709808" lon="2.8715562588248913"><ele>32.5</ele><time>2026-04-04T11:34:52Z</time></trkpt><trkpt lat="42.710064272319194" lon="2.8714004619301616"><ele>33.0</ele><time>2026-04-04T11:34:53Z</time></trkpt><trkpt lat="42.71006688719609" lon="2.87124143563222"><ele>33.0</ele><time>2026-04-04T11:34:54Z</time></trkpt><trkpt lat="42.710067275021856" lon="2.871081551499514"><ele>33.0</ele><time>2026-04-04T11:34:55Z</time></trkpt><trkpt lat="42.71007787564547" lon="2.8709465445383295"><ele>33.0</ele><time>2026-04-04T11:34:56Z</time></trkpt><trkpt lat="42.710105536321045" lon="2.8708254709036396"><ele>33.0</ele><time>2026-04-04T11:34:57Z</time></trkpt><trkpt lat="42.71014067002939" lon="2.8707046201041777"><ele>33.0</ele><time>2026-04-04T11:34:59Z</time></trkpt><trkpt lat="42.710205502000015" lon="2.870578867703673"><ele>32.8</ele><time>2026-04-04T11:35:01Z</time></trkpt><trkpt lat="42.71028342159383" lon="2.870501761005651"><ele>32.599999999999994</ele><time>2026-04-04T11:35:02Z</time></trkpt><trkpt lat="42.710358399285575" lon="2.8704041172580066"><ele>32.400000000000006</ele><time>2026-04-04T11:35:03Z</time></trkpt><trkpt lat="42.71041800209063" lon="2.8702745124655764"><ele>32.2</ele><time>2026-04-04T11:35:04Z</time></trkpt><trkpt lat="42.71046967734283" lon="2.8701025062353764"><ele>32.0</ele><time>2026-04-04T11:35:05Z</time></trkpt><trkpt lat="42.71048194509282" lon="2.8699781998192524"><ele>31.75</ele><time>2026-04-04T11:35:06Z</time></trkpt><trkpt lat="42.71044476418552" lon="2.8698356599451307"><ele>31.5</ele><time>2026-04-04T11:35:07Z</time></trkpt><trkpt lat="42.710372563244114" lon="2.8697138516247245"><ele>31.25</ele><time>2026-04-04T11:35:08Z</time></trkpt><trkpt lat="42.71028882135945" lon="2.869601343023586"><ele>31.0</ele><time>2026-04-04T11:35:09Z</time></trkpt><trkpt lat="42.710195655324725" lon="2.869503516185296"><ele>31.0</ele><time>2026-04-04T11:35:10Z</time></trkpt><trkpt lat="42.71013588990708" lon="2.869377849968814"><ele>31.0</ele><time>2026-04-04T11:35:11Z</time></trkpt><trkpt lat="42.710108707087215" lon="2.869232848238166"><ele>31.0</ele><time>2026-04-04T11:35:12Z</time></trkpt><trkpt lat="42.71010919828509" lon="2.8690819785817676"><ele>31.0</ele><time>2026-04-04T11:35:13Z</time></trkpt><trkpt lat="42.71011532932703" lon="2.868941424670285"><ele>31.0</ele><time>2026-04-04T11:35:13.999Z</time></trkpt><trkpt lat="42.71011609996971" lon="2.8688168130809206"><ele>31.666666666666668</ele><time>2026-04-04T11:35:14.999Z</time></trkpt><trkpt lat="42.71011181429859" lon="2.868694494446415"><ele>32.333333333333336</ele><time>2026-04-04T11:35:15.999Z</time></trkpt><trkpt lat="42.71011756167116" lon="2.868493711933573"><ele>33.0</ele><time>2026-04-04T11:35:16.999Z</time></trkpt><trkpt lat="42.710070675776734" lon="2.8681851080799006"><ele>33.0</ele><time>2026-04-04T11:35:17.999Z</time></trkpt><trkpt lat="42.71005339331333" lon="2.867878791459287"><ele>33.0</ele><time>2026-04-04T11:35:18.999Z</time></trkpt><trkpt lat="42.71003911881302" lon="2.867547442148445"><ele>33.0</ele><time>2026-04-04T11:35:20Z</time></trkpt><trkpt lat="42.709976148513064" lon="2.8673370349729224"><ele>33.0</ele><time>2026-04-04T11:35:22Z</time></trkpt><trkpt lat="42.70993964993068" lon="2.867152709166291"><ele>33.0</ele><time>2026-04-04T11:35:23Z</time></trkpt><trkpt lat="42.709895540174216" lon="2.866970291383699"><ele>33.0</ele><time>2026-04-04T11:35:24Z</time></trkpt><trkpt lat="42.70984733192403" lon="2.866786584582737"><ele>33.25</ele><time>2026-04-04T11:35:25Z</time></trkpt><trkpt lat="42.709796578080564" lon="2.866607990814145"><ele>33.5</ele><time>2026-04-04T11:35:26Z</time></trkpt><trkpt lat="42.70975289795352" lon="2.866428380252419"><ele>33.75</ele><time>2026-04-04T11:35:27Z</time></trkpt><trkpt lat="42.70970356972664" lon="2.8662614106710547"><ele>34.0</ele><time>2026-04-04T11:35:28Z</time></trkpt><trkpt lat="42.70965166210232" lon="2.8660845633301326"><ele>33.66666666666667</ele><time>2026-04-04T11:35:29Z</time></trkpt><trkpt lat="42.70958919450662" lon="2.8658777792298555"><ele>33.333333333333336</ele><time>2026-04-04T11:35:30Z</time></trkpt><trkpt lat="42.70952304531454" lon="2.8656480076498156"><ele>33.0</ele><time>2026-04-04T11:35:31Z</time></trkpt><trkpt lat="42.70945686200348" lon="2.8654161498401516"><ele>33.75</ele><time>2026-04-04T11:35:32Z</time></trkpt><trkpt lat="42.70940613653432" lon="2.865215938227503"><ele>34.5</ele><time>2026-04-04T11:35:33Z</time></trkpt><trkpt lat="42.709361599975395" lon="2.865029528013675"><ele>35.25</ele><time>2026-04-04T11:35:34Z</time></trkpt><trkpt lat="42.70931862259682" lon="2.864856808895517"><ele>36.0</ele><time>2026-04-04T11:35:35Z</time></trkpt><trkpt lat="42.70927941782044" lon="2.864698742877583"><ele>36.0</ele><time>2026-04-04T11:35:36Z</time></trkpt><trkpt lat="42.70924482276749" lon="2.864545396756596"><ele>36.0</ele><time>2026-04-04T11:35:37Z</time></trkpt><trkpt lat="42.709232167985505" lon="2.864378930692619"><ele>36.0</ele><time>2026-04-04T11:35:38Z</time></trkpt><trkpt lat="42.709236876822" lon="2.864204190408385"><ele>36.0</ele><time>2026-04-04T11:35:39Z</time></trkpt><trkpt lat="42.70924121660004" lon="2.86401740049772"><ele>36.25</ele><time>2026-04-04T11:35:40Z</time></trkpt><trkpt lat="42.709243978688114" lon="2.8638370588754074"><ele>36.5</ele><time>2026-04-04T11:35:41Z</time></trkpt><trkpt lat="42.70925915798364" lon="2.863657483320292"><ele>36.75</ele><time>2026-04-04T11:35:42Z</time></trkpt><trkpt lat="42.709305612699985" lon="2.8634816582505254"><ele>37.0</ele><time>2026-04-04T11:35:43Z</time></trkpt><trkpt lat="42.709349584434314" lon="2.8633067400025496"><ele>36.75</ele><time>2026-04-04T11:35:44Z</time></trkpt><trkpt lat="42.70941523374373" lon="2.8631276032970003"><ele>36.5</ele><time>2026-04-04T11:35:45Z</time></trkpt><trkpt lat="42.7094809235535" lon="2.8629423472201223"><ele>36.25</ele><time>2026-04-04T11:35:46Z</time></trkpt><trkpt lat="42.709554206481975" lon="2.862762432900654"><ele>36.0</ele><time>2026-04-04T11:35:47Z</time></trkpt><trkpt lat="42.709629007078426" lon="2.8625854960375277"><ele>36.0</ele><time>2026-04-04T11:35:48Z</time></trkpt><trkpt lat="42.70971759433704" lon="2.8624216278751398"><ele>36.0</ele><time>2026-04-04T11:35:49Z</time></trkpt><trkpt lat="42.70979689724891" lon="2.862253904713253"><ele>36.0</ele><time>2026-04-04T11:35:50Z</time></trkpt><trkpt lat="42.70987590962996" lon="2.8620882832709778"><ele>36.0</ele><time>2026-04-04T11:35:51Z</time></trkpt><trkpt lat="42.709972971075935" lon="2.8619231819991637"><ele>35.333333333333336</ele><time>2026-04-04T11:35:52Z</time></trkpt><trkpt lat="42.710061590757185" lon="2.86173057312494"><ele>34.66666666666667</ele><time>2026-04-04T11:35:53Z</time></trkpt><trkpt lat="42.71013688628867" lon="2.861561060493612"><ele>34.0</ele><time>2026-04-04T11:35:54Z</time></trkpt><trkpt lat="42.71021732746321" lon="2.8613719390488535"><ele>34.333333333333336</ele><time>2026-04-04T11:35:55Z</time></trkpt><trkpt lat="42.710293871846794" lon="2.861167771299233"><ele>34.666666666666664</ele><time>2026-04-04T11:35:56Z</time></trkpt><trkpt lat="42.71036524477949" lon="2.8609592930506436"><ele>35.0</ele><time>2026-04-04T11:35:57Z</time></trkpt><trkpt lat="42.71043215854122" lon="2.860742991445778"><ele>35.33333333333333</ele><time>2026-04-04T11:35:58Z</time></trkpt><trkpt lat="42.71049932441634" lon="2.8605079666957876"><ele>35.666666666666664</ele><time>2026-04-04T11:35:59Z</time></trkpt><trkpt lat="42.71055067204602" lon="2.860287811105511"><ele>36.0</ele><time>2026-04-04T11:36:00Z</time></trkpt><trkpt lat="42.71059593061148" lon="2.860094250518888"><ele>36.75</ele><time>2026-04-04T11:36:01Z</time></trkpt><trkpt lat="42.71063326550992" lon="2.8599173363147163"><ele>37.5</ele><time>2026-04-04T11:36:02Z</time></trkpt><trkpt lat="42.7106588305294" lon="2.859747133292625"><ele>38.25</ele><time>2026-04-04T11:36:03Z</time></trkpt><trkpt lat="42.710672553433895" lon="2.85957758780859"><ele>39.0</ele><time>2026-04-04T11:36:04Z</time></trkpt><trkpt lat="42.710692218359334" lon="2.85941447560633"><ele>39.2</ele><time>2026-04-04T11:36:05Z</time></trkpt><trkpt lat="42.71071640316531" lon="2.8592628221230068"><ele>39.4</ele><time>2026-04-04T11:36:06Z</time></trkpt><trkpt lat="42.71073622335162" lon="2.8591205888514897"><ele>39.6</ele><time>2026-04-04T11:36:07Z</time></trkpt><trkpt lat="42.71074840980946" lon="2.858990031906417"><ele>39.8</ele><time>2026-04-04T11:36:08Z</time></trkpt><trkpt lat="42.71075606445965" lon="2.8588780258714195"><ele>40.0</ele><time>2026-04-04T11:36:09Z</time></trkpt><trkpt lat="42.71077729205259" lon="2.8587656175828835"><ele>40.0</ele><time>2026-04-04T11:36:10Z</time></trkpt><trkpt lat="42.71081091477598" lon="2.8586600164959863"><ele>40.0</ele><time>2026-04-04T11:36:11Z</time></trkpt><trkpt lat="42.71087175727276" lon="2.858566007869299"><ele>40.0</ele><time>2026-04-04T11:36:12Z</time></trkpt><trkpt lat="42.71094376194274" lon="2.858475930101795"><ele>40.0</ele><time>2026-04-04T11:36:13Z</time></trkpt><trkpt lat="42.71099026273256" lon="2.8583606608051197"><ele>40.0</ele><time>2026-04-04T11:36:14Z</time></trkpt><trkpt lat="42.710985941910636" lon="2.858229439609785"><ele>39.75</ele><time>2026-04-04T11:36:15Z</time></trkpt><trkpt lat="42.71093797502409" lon="2.858102814811432"><ele>39.5</ele><time>2026-04-04T11:36:16Z</time></trkpt><trkpt lat="42.710858026641546" lon="2.8579936783679134"><ele>39.25</ele><time>2026-04-04T11:36:17Z</time></trkpt><trkpt lat="42.71077780722995" lon="2.8578715379895305"><ele>39.0</ele><time>2026-04-04T11:36:18Z</time></trkpt><trkpt lat="42.71072379850995" lon="2.8577380228491402"><ele>38.75</ele><time>2026-04-04T11:36:19Z</time></trkpt><trkpt lat="42.710673682611876" lon="2.85757752648801"><ele>38.5</ele><time>2026-04-04T11:36:20Z</time></trkpt><trkpt lat="42.71064694784544" lon="2.857429993500939"><ele>38.25</ele><time>2026-04-04T11:36:21Z</time></trkpt><trkpt lat="42.71061386198893" lon="2.857285994780976"><ele>38.0</ele><time>2026-04-04T11:36:22Z</time></trkpt><trkpt lat="42.71057262331829" lon="2.8571495408567023"><ele>38.0</ele><time>2026-04-04T11:36:23Z</time></trkpt><trkpt lat="42.71054389575528" lon="2.8570133212863227"><ele>38.0</ele><time>2026-04-04T11:36:24Z</time></trkpt><trkpt lat="42.71053192537351" lon="2.856870843276066"><ele>38.0</ele><time>2026-04-04T11:36:25Z</time></trkpt><trkpt lat="42.71051752391572" lon="2.8567411376869467"><ele>38.0</ele><time>2026-04-04T11:36:26Z</time></trkpt><trkpt lat="42.710500689885194" lon="2.856612328136984"><ele>38.0</ele><time>2026-04-04T11:36:27Z</time></trkpt><trkpt lat="42.710492772801494" lon="2.8564784390589217"><ele>37.75</ele><time>2026-04-04T11:36:28Z</time></trkpt><trkpt lat="42.71047538209165" lon="2.856341020783709"><ele>37.5</ele><time>2026-04-04T11:36:29Z</time></trkpt><trkpt lat="42.71045962450202" lon="2.856184602744556"><ele>37.25</ele><time>2026-04-04T11:36:30Z</time></trkpt><trkpt lat="42.710437551624594" lon="2.8559941532451143"><ele>37.0</ele><time>2026-04-04T11:36:31Z</time></trkpt><trkpt lat="42.71042282373978" lon="2.855747490762478"><ele>36.66666666666667</ele><time>2026-04-04T11:36:32Z</time></trkpt><trkpt lat="42.710397679867285" lon="2.855513660938338"><ele>36.333333333333336</ele><time>2026-04-04T11:36:33Z</time></trkpt><trkpt lat="42.71036075341987" lon="2.8553166925978997"><ele>36.0</ele><time>2026-04-04T11:36:34Z</time></trkpt><trkpt lat="42.71033278427406" lon="2.8551407715058246"><ele>36.0</ele><time>2026-04-04T11:36:35Z</time></trkpt><trkpt lat="42.71032917322016" lon="2.854989941164066"><ele>36.0</ele><time>2026-04-04T11:36:36Z</time></trkpt><trkpt lat="42.71031753913572" lon="2.8548359317363508"><ele>36.0</ele><time>2026-04-04T11:36:37Z</time></trkpt><trkpt lat="42.71030633582084" lon="2.8547011484822677"><ele>36.0</ele><time>2026-04-04T11:36:38Z</time></trkpt><trkpt lat="42.71029359628936" lon="2.854551979393638"><ele>36.0</ele><time>2026-04-04T11:36:39Z</time></trkpt><trkpt lat="42.71028436400664" lon="2.854388061220404"><ele>36.166666666666664</ele><time>2026-04-04T11:36:40Z</time></trkpt><trkpt lat="42.7102647957796" lon="2.8542352906694948"><ele>36.333333333333336</ele><time>2026-04-04T11:36:42Z</time></trkpt><trkpt lat="42.71027810843751" lon="2.8541423460431727"><ele>36.5</ele><time>2026-04-04T11:36:43Z</time></trkpt><trkpt lat="42.71032902540967" lon="2.8540529231678855"><ele>36.66666666666667</ele><time>2026-04-04T11:36:44Z</time></trkpt><trkpt lat="42.71040566287864" lon="2.8540019009099677"><ele>36.833333333333336</ele><time>2026-04-04T11:36:45Z</time></trkpt><trkpt lat="42.710485069229506" lon="2.853943078049282"><ele>37.0</ele><time>2026-04-04T11:36:46Z</time></trkpt><trkpt lat="42.71053321060188" lon="2.8538591151068555"><ele>37.0</ele><time>2026-04-04T11:36:47Z</time></trkpt><trkpt lat="42.71055000295182" lon="2.8537535343834217"><ele>37.0</ele><time>2026-04-04T11:36:48Z</time></trkpt><trkpt lat="42.71053564524465" lon="2.853645086019843"><ele>37.0</ele><time>2026-04-04T11:36:49Z</time></trkpt><trkpt lat="42.710495009580896" lon="2.853543498853501"><ele>37.0</ele><time>2026-04-04T11:36:50Z</time></trkpt><trkpt lat="42.710441592630296" lon="2.853452509616603"><ele>37.0</ele><time>2026-04-04T11:36:51Z</time></trkpt><trkpt lat="42.710389391164945" lon="2.8533532221183577"><ele>37.0</ele><time>2026-04-04T11:36:52Z</time></trkpt><trkpt lat="42.71033386969525" lon="2.853251324645266"><ele>37.0</ele><time>2026-04-04T11:36:53Z</time></trkpt><trkpt lat="42.710280801892736" lon="2.853156258472041"><ele>37.0</ele><time>2026-04-04T11:36:54Z</time></trkpt><trkpt lat="42.71021874991638" lon="2.8530493480375876"><ele>37.0</ele><time>2026-04-04T11:36:55Z</time></trkpt><trkpt lat="42.710140913816176" lon="2.8529433907237856"><ele>37.0</ele><time>2026-04-04T11:36:56Z</time></trkpt><trkpt lat="42.71007515096813" lon="2.852846767170673"><ele>37.0</ele><time>2026-04-04T11:36:57Z</time></trkpt><trkpt lat="42.710035111954426" lon="2.852720244424674"><ele>37.2</ele><time>2026-04-04T11:36:58Z</time></trkpt><trkpt lat="42.71001819998654" lon="2.852575494592944"><ele>37.400000000000006</ele><time>2026-04-04T11:36:59Z</time></trkpt><trkpt lat="42.710007291655934" lon="2.8524316727413144"><ele>37.599999999999994</ele><time>2026-04-04T11:37:00Z</time></trkpt><trkpt lat="42.70999508982507" lon="2.8522934441788896"><ele>37.8</ele><time>2026-04-04T11:37:01Z</time></trkpt><trkpt lat="42.70996940004837" lon="2.852161231786973"><ele>38.0</ele><time>2026-04-04T11:37:02Z</time></trkpt><trkpt lat="42.70992959164181" lon="2.8520263360506597"><ele>38.0</ele><time>2026-04-04T11:37:03Z</time></trkpt><trkpt lat="42.70990410736857" lon="2.851892163720881"><ele>38.0</ele><time>2026-04-04T11:37:04Z</time></trkpt><trkpt lat="42.70988225419966" lon="2.8517526165519014"><ele>38.0</ele><time>2026-04-04T11:37:05Z</time></trkpt><trkpt lat="42.7098629287498" lon="2.851620053318127"><ele>38.0</ele><time>2026-04-04T11:37:06Z</time></trkpt><trkpt lat="42.709835357416615" lon="2.8514908705559505"><ele>38.0</ele><time>2026-04-04T11:37:07Z</time></trkpt><trkpt lat="42.709800490012164" lon="2.8513623991254744"><ele>38.199999999999996</ele><time>2026-04-04T11:37:08Z</time></trkpt><trkpt lat="42.70976247792073" lon="2.8512373844880434"><ele>38.4</ele><time>2026-04-04T11:37:09Z</time></trkpt><trkpt lat="42.709719763099926" lon="2.851115001054554"><ele>38.599999999999994</ele><time>2026-04-04T11:37:10Z</time></trkpt><trkpt lat="42.70967826495745" lon="2.85099229996097"><ele>38.8</ele><time>2026-04-04T11:37:11Z</time></trkpt><trkpt lat="42.70964827817318" lon="2.850864283758219"><ele>39.0</ele><time>2026-04-04T11:37:12Z</time></trkpt><trkpt lat="42.709630887058026" lon="2.850733688023606"><ele>39.166666666666664</ele><time>2026-04-04T11:37:13Z</time></trkpt><trkpt lat="42.70961592852133" lon="2.850617858583315"><ele>39.333333333333336</ele><time>2026-04-04T11:37:14Z</time></trkpt><trkpt lat="42.70959214131519" lon="2.850498757687413"><ele>39.5</ele><time>2026-04-04T11:37:15Z</time></trkpt><trkpt lat="42.7095835001447" lon="2.8503881986364834"><ele>39.66666666666667</ele><time>2026-04-04T11:37:16Z</time></trkpt><trkpt lat="42.709567457812554" lon="2.8502917964169323"><ele>39.833333333333336</ele><time>2026-04-04T11:37:17Z</time></trkpt><trkpt lat="42.70955131993525" lon="2.850193754791985"><ele>40.0</ele><time>2026-04-04T11:37:18Z</time></trkpt><trkpt lat="42.7095384116239" lon="2.8501089202557144"><ele>40.0</ele><time>2026-04-04T11:37:19Z</time></trkpt><trkpt lat="42.709520232222275" lon="2.850018592469586"><ele>40.0</ele><time>2026-04-04T11:37:19.999Z</time></trkpt><trkpt lat="42.70950045095566" lon="2.849921117469883"><ele>40.0</ele><time>2026-04-04T11:37:20.999Z</time></trkpt><trkpt lat="42.709474359584036" lon="2.8498103481625052"><ele>40.0</ele><time>2026-04-04T11:37:21.999Z</time></trkpt><trkpt lat="42.70944259703299" lon="2.8496646391289686"><ele>40.0</ele><time>2026-04-04T11:37:22.999Z</time></trkpt><trkpt lat="42.70941128974385" lon="2.8495282882035915"><ele>40.0</ele><time>2026-04-04T11:37:23.999Z</time></trkpt><trkpt lat="42.70938841739812" lon="2.8494083210410412"><ele>40.2</ele><time>2026-04-04T11:37:24.999Z</time></trkpt><trkpt lat="42.709354723271524" lon="2.8492642642142547"><ele>40.4</ele><time>2026-04-04T11:37:26Z</time></trkpt><trkpt lat="42.70932543790131" lon="2.8491309523768766"><ele>40.599999999999994</ele><time>2026-04-04T11:37:27Z</time></trkpt><trkpt lat="42.70929938970626" lon="2.84900653434676"><ele>40.8</ele><time>2026-04-04T11:37:28Z</time></trkpt><trkpt lat="42.70926707807878" lon="2.848853827139308"><ele>41.0</ele><time>2026-04-04T11:37:29Z</time></trkpt><trkpt lat="42.709240866733026" lon="2.8487080142185524"><ele>41.0</ele><time>2026-04-04T11:37:30Z</time></trkpt><trkpt lat="42.70921686014101" lon="2.84859058803533"><ele>41.0</ele><time>2026-04-04T11:37:31Z</time></trkpt><trkpt lat="42.709190038587344" lon="2.8484812631280234"><ele>41.0</ele><time>2026-04-04T11:37:32Z</time></trkpt><trkpt lat="42.709152548158784" lon="2.848368244504246"><ele>41.0</ele><time>2026-04-04T11:37:33Z</time></trkpt><trkpt lat="42.709125511475506" lon="2.848193445306469"><ele>41.0</ele><time>2026-04-04T11:37:35Z</time></trkpt><trkpt lat="42.70910305724143" lon="2.8480847578415367"><ele>41.0</ele><time>2026-04-04T11:37:36Z</time></trkpt><trkpt lat="42.70908837444309" lon="2.8479682398973942"><ele>41.0</ele><time>2026-04-04T11:37:37Z</time></trkpt><trkpt lat="42.70906960042854" lon="2.8478473286492365"><ele>41.0</ele><time>2026-04-04T11:37:38Z</time></trkpt><trkpt lat="42.70904824234651" lon="2.8477297000187267"><ele>41.0</ele><time>2026-04-04T11:37:39Z</time></trkpt><trkpt lat="42.70902950261715" lon="2.847609024347899"><ele>41.0</ele><time>2026-04-04T11:37:40Z</time></trkpt><trkpt lat="42.70901365042885" lon="2.8475016919725733"><ele>41.0</ele><time>2026-04-04T11:37:41Z</time></trkpt><trkpt lat="42.70900195740448" lon="2.847404528477336"><ele>40.99999999999999</ele><time>2026-04-04T11:37:42Z</time></trkpt><trkpt lat="42.70898877560065" lon="2.84731541172783"><ele>41.0</ele><time>2026-04-04T11:37:43Z</time></trkpt><trkpt lat="42.70896964220313" lon="2.8472306035242707"><ele>41.0</ele><time>2026-04-04T11:37:44Z</time></trkpt><trkpt lat="42.70895980259955" lon="2.8471381969883804"><ele>41.0</ele><time>2026-04-04T11:37:45Z</time></trkpt><trkpt lat="42.70895057848956" lon="2.8470446706158334"><ele>41.0</ele><time>2026-04-04T11:37:46Z</time></trkpt><trkpt lat="42.70893739319461" lon="2.8469341172334954"><ele>40.99999999999999</ele><time>2026-04-04T11:37:47Z</time></trkpt><trkpt lat="42.70891079433803" lon="2.8468121530899957"><ele>41.0</ele><time>2026-04-04T11:37:48Z</time></trkpt><trkpt lat="42.70888976511709" lon="2.8466977982434942"><ele>41.599999999999994</ele><time>2026-04-04T11:37:49Z</time></trkpt><trkpt lat="42.70887024674059" lon="2.846574209399176"><ele>42.2</ele><time>2026-04-04T11:37:50Z</time></trkpt><trkpt lat="42.70885413643866" lon="2.846448682589737"><ele>42.8</ele><time>2026-04-04T11:37:51Z</time></trkpt><trkpt lat="42.70883734712211" lon="2.846322314857117"><ele>43.400000000000006</ele><time>2026-04-04T11:37:52Z</time></trkpt><trkpt lat="42.70883532283237" lon="2.846189197887011"><ele>44.0</ele><time>2026-04-04T11:37:53Z</time></trkpt><trkpt lat="42.708850376977615" lon="2.8460646963259606"><ele>44.400000000000006</ele><time>2026-04-04T11:37:54Z</time></trkpt><trkpt lat="42.708879267910575" lon="2.8459360520848995"><ele>44.8</ele><time>2026-04-04T11:37:55Z</time></trkpt><trkpt lat="42.70891179735199" lon="2.8458165566587863"><ele>45.2</ele><time>2026-04-04T11:37:56Z</time></trkpt><trkpt lat="42.70894226293615" lon="2.8457013617658653"><ele>45.599999999999994</ele><time>2026-04-04T11:37:57Z</time></trkpt><trkpt lat="42.70898984133212" lon="2.8455974035848164"><ele>46.0</ele><time>2026-04-04T11:37:58Z</time></trkpt><trkpt lat="42.70904064628796" lon="2.8455076248609816"><ele>46.0</ele><time>2026-04-04T11:37:59Z</time></trkpt><trkpt lat="42.70908197437362" lon="2.8454107375319055"><ele>46.0</ele><time>2026-04-04T11:38:00Z</time></trkpt><trkpt lat="42.709119131970944" lon="2.8453030505661667"><ele>46.0</ele><time>2026-04-04T11:38:01Z</time></trkpt><trkpt lat="42.70914951892631" lon="2.845167126536757"><ele>46.0</ele><time>2026-04-04T11:38:02Z</time></trkpt><trkpt lat="42.70917908457275" lon="2.8450168854465403"><ele>46.0</ele><time>2026-04-04T11:38:03Z</time></trkpt><trkpt lat="42.70920178752432" lon="2.8449136212679726"><ele>46.0</ele><time>2026-04-04T11:38:04Z</time></trkpt><trkpt lat="42.70919308473127" lon="2.8447951534110274"><ele>46.0</ele><time>2026-04-04T11:38:05Z</time></trkpt><trkpt lat="42.709152287876584" lon="2.844679870143913"><ele>46.0</ele><time>2026-04-04T11:38:06Z</time></trkpt><trkpt lat="42.70910378778665" lon="2.844566133542329"><ele>46.0</ele><time>2026-04-04T11:38:07Z</time></trkpt><trkpt lat="42.70905864254006" lon="2.844452398559397"><ele>46.0</ele><time>2026-04-04T11:38:08Z</time></trkpt><trkpt lat="42.70901531763715" lon="2.8443283123949086"><ele>45.599999999999994</ele><time>2026-04-04T11:38:09Z</time></trkpt><trkpt lat="42.70896831126483" lon="2.8442138284979386"><ele>45.2</ele><time>2026-04-04T11:38:10Z</time></trkpt><trkpt lat="42.70891949912033" lon="2.8440944653147935"><ele>44.8</ele><time>2026-04-04T11:38:11Z</time></trkpt><trkpt lat="42.708871478477505" lon="2.8439728898560976"><ele>44.400000000000006</ele><time>2026-04-04T11:38:12Z</time></trkpt><trkpt lat="42.70882853369317" lon="2.8438532250732727"><ele>44.0</ele><time>2026-04-04T11:38:13Z</time></trkpt><trkpt lat="42.708784302180156" lon="2.8437280035995878"><ele>44.0</ele><time>2026-04-04T11:38:14Z</time></trkpt><trkpt lat="42.708736681254884" lon="2.843598121728627"><ele>44.0</ele><time>2026-04-04T11:38:15Z</time></trkpt><trkpt lat="42.708692506073355" lon="2.8434577585382885"><ele>44.0</ele><time>2026-04-04T11:38:16Z</time></trkpt><trkpt lat="42.708630580372905" lon="2.8432589682327762"><ele>44.0</ele><time>2026-04-04T11:38:17Z</time></trkpt><trkpt lat="42.70848409144443" lon="2.8429505586362205"><ele>44.0</ele><time>2026-04-04T11:38:20Z</time></trkpt><trkpt lat="42.708429289561" lon="2.8428163908947144"><ele>44.0</ele><time>2026-04-04T11:38:21Z</time></trkpt><trkpt lat="42.70836179606564" lon="2.8426635106386695"><ele>44.0</ele><time>2026-04-04T11:38:22Z</time></trkpt><trkpt lat="42.70828394776259" lon="2.8424742314254923"><ele>44.0</ele><time>2026-04-04T11:38:23Z</time></trkpt><trkpt lat="42.70820531909491" lon="2.842290183405229"><ele>44.0</ele><time>2026-04-04T11:38:24Z</time></trkpt><trkpt lat="42.708145577110976" lon="2.8421317232134355"><ele>44.0</ele><time>2026-04-04T11:38:25Z</time></trkpt><trkpt lat="42.708094419813385" lon="2.841994902922966"><ele>44.0</ele><time>2026-04-04T11:38:26Z</time></trkpt><trkpt lat="42.70804954484427" lon="2.8418647749135095"><ele>44.0</ele><time>2026-04-04T11:38:27Z</time></trkpt><trkpt lat="42.707998829530425" lon="2.841745772795885"><ele>44.5</ele><time>2026-04-04T11:38:28Z</time></trkpt><trkpt lat="42.70794731907074" lon="2.841611151279525"><ele>45.0</ele><time>2026-04-04T11:38:29Z</time></trkpt><trkpt lat="42.70789423897609" lon="2.8414752852326277"><ele>45.5</ele><time>2026-04-04T11:38:30Z</time></trkpt><trkpt lat="42.70782452887849" lon="2.8413392085949614"><ele>46.0</ele><time>2026-04-04T11:38:31Z</time></trkpt><trkpt lat="42.707779686598236" lon="2.8411893015403638"><ele>46.0</ele><time>2026-04-04T11:38:32Z</time></trkpt><trkpt lat="42.707727912553004" lon="2.841041969042412"><ele>46.0</ele><time>2026-04-04T11:38:33Z</time></trkpt><trkpt lat="42.7076657550609" lon="2.8409055259067144"><ele>46.0</ele><time>2026-04-04T11:38:34Z</time></trkpt><trkpt lat="42.70760681708826" lon="2.8407547372122637"><ele>46.0</ele><time>2026-04-04T11:38:35Z</time></trkpt><trkpt lat="42.70755255822458" lon="2.8405999041751704"><ele>46.0</ele><time>2026-04-04T11:38:36Z</time></trkpt><trkpt lat="42.707493507839125" lon="2.840445008514776"><ele>46.0</ele><time>2026-04-04T11:38:37Z</time></trkpt><trkpt lat="42.707428629841665" lon="2.8402959694212973"><ele>46.0</ele><time>2026-04-04T11:38:38Z</time></trkpt><trkpt lat="42.70736426040136" lon="2.8401453725478096"><ele>46.0</ele><time>2026-04-04T11:38:39Z</time></trkpt><trkpt lat="42.70730052429386" lon="2.8399882587846204"><ele>46.0</ele><time>2026-04-04T11:38:40Z</time></trkpt><trkpt lat="42.707233148197545" lon="2.839820013140938"><ele>46.0</ele><time>2026-04-04T11:38:41Z</time></trkpt><trkpt lat="42.70717124974961" lon="2.839659265807783"><ele>46.0</ele><time>2026-04-04T11:38:42Z</time></trkpt><trkpt lat="42.70712043711277" lon="2.8395173757628993"><ele>46.0</ele><time>2026-04-04T11:38:43Z</time></trkpt><trkpt lat="42.707067061187914" lon="2.839390633102884"><ele>46.0</ele><time>2026-04-04T11:38:44Z</time></trkpt><trkpt lat="42.70702854141377" lon="2.839266389573029"><ele>46.0</ele><time>2026-04-04T11:38:45Z</time></trkpt><trkpt lat="42.70697153974391" lon="2.8391737141882136"><ele>46.0</ele><time>2026-04-04T11:38:46Z</time></trkpt><trkpt lat="42.70695404653265" lon="2.83906880498546"><ele>46.0</ele><time>2026-04-04T11:38:47Z</time></trkpt><trkpt lat="42.70695716259049" lon="2.8389435774222105"><ele>46.0</ele><time>2026-04-04T11:38:48Z</time></trkpt><trkpt lat="42.70696116305969" lon="2.838824158004801"><ele>46.0</ele><time>2026-04-04T11:38:49Z</time></trkpt><trkpt lat="42.706918037486275" lon="2.838723060866817"><ele>46.0</ele><time>2026-04-04T11:38:50Z</time></trkpt><trkpt lat="42.70683672183694" lon="2.8386403632446657"><ele>46.0</ele><time>2026-04-04T11:38:51Z</time></trkpt><trkpt lat="42.70674137088232" lon="2.8385486590441635"><ele>46.0</ele><time>2026-04-04T11:38:52Z</time></trkpt><trkpt lat="42.706663758110516" lon="2.83841236456084"><ele>46.0</ele><time>2026-04-04T11:38:53Z</time></trkpt><trkpt lat="42.706608749462205" lon="2.838257315128001"><ele>46.5</ele><time>2026-04-04T11:38:54Z</time></trkpt><trkpt lat="42.706559308091904" lon="2.8381049195856813"><ele>47.0</ele><time>2026-04-04T11:38:55Z</time></trkpt><trkpt lat="42.70650547916817" lon="2.83796194072489"><ele>47.5</ele><time>2026-04-04T11:38:56Z</time></trkpt><trkpt lat="42.70645371510791" lon="2.837818027681305"><ele>48.0</ele><time>2026-04-04T11:38:57Z</time></trkpt><trkpt lat="42.706400398891766" lon="2.837674612095278"><ele>48.2</ele><time>2026-04-04T11:38:58Z</time></trkpt><trkpt lat="42.70634528437408" lon="2.837536938865708"><ele>48.4</ele><time>2026-04-04T11:38:59Z</time></trkpt><trkpt lat="42.70628877803857" lon="2.837404813481054"><ele>48.6</ele><time>2026-04-04T11:39:00Z</time></trkpt><trkpt lat="42.70623181656492" lon="2.8372938004963357"><ele>48.800000000000004</ele><time>2026-04-04T11:39:01Z</time></trkpt><trkpt lat="42.70618653096738" lon="2.837187863808681"><ele>49.0</ele><time>2026-04-04T11:39:02Z</time></trkpt><trkpt lat="42.70615748049249" lon="2.837084962372789"><ele>48.99999999999999</ele><time>2026-04-04T11:39:03Z</time></trkpt><trkpt lat="42.706131768978636" lon="2.8369957783026374"><ele>49.0</ele><time>2026-04-04T11:39:04Z</time></trkpt><trkpt lat="42.70612100649026" lon="2.8369044099444536"><ele>49.0</ele><time>2026-04-04T11:39:05Z</time></trkpt><trkpt lat="42.706152548573506" lon="2.8367898790152237"><ele>49.0</ele><time>2026-04-04T11:39:06Z</time></trkpt><trkpt lat="42.70613122303994" lon="2.8366874580053074"><ele>48.99999999999999</ele><time>2026-04-04T11:39:07Z</time></trkpt><trkpt lat="42.706093439869875" lon="2.8365925934083904"><ele>49.0</ele><time>2026-04-04T11:39:08Z</time></trkpt><trkpt lat="42.70602748697609" lon="2.8364934538373325"><ele>48.5</ele><time>2026-04-04T11:39:09Z</time></trkpt><trkpt lat="42.70596146121414" lon="2.836383002069276"><ele>48.0</ele><time>2026-04-04T11:39:10Z</time></trkpt><trkpt lat="42.70590005510349" lon="2.8362334349523057"><ele>47.5</ele><time>2026-04-04T11:39:11Z</time></trkpt><trkpt lat="42.705837032120726" lon="2.836081832038605"><ele>47.0</ele><time>2026-04-04T11:39:12Z</time></trkpt><trkpt lat="42.70577738694258" lon="2.83591636352262"><ele>46.75</ele><time>2026-04-04T11:39:13Z</time></trkpt><trkpt lat="42.70572259570353" lon="2.8357721719459716"><ele>46.5</ele><time>2026-04-04T11:39:14Z</time></trkpt><trkpt lat="42.70566303797867" lon="2.8356155421140516"><ele>46.25</ele><time>2026-04-04T11:39:15Z</time></trkpt><trkpt lat="42.70559217282372" lon="2.8354459418348226"><ele>46.0</ele><time>2026-04-04T11:39:16Z</time></trkpt><trkpt lat="42.705513143063214" lon="2.8352449351775477"><ele>46.0</ele><time>2026-04-04T11:39:17Z</time></trkpt><trkpt lat="42.70540507284469" lon="2.8349855245143627"><ele>46.0</ele><time>2026-04-04T11:39:18Z</time></trkpt><trkpt lat="42.705303000082814" lon="2.8347336825586384"><ele>46.0</ele><time>2026-04-04T11:39:19Z</time></trkpt><trkpt lat="42.7052173664655" lon="2.8345088235732896"><ele>46.333333333333336</ele><time>2026-04-04T11:39:20Z</time></trkpt><trkpt lat="42.70514418558041" lon="2.8343033350678586"><ele>46.666666666666664</ele><time>2026-04-04T11:39:21Z</time></trkpt><trkpt lat="42.70507833057481" lon="2.83412254732329"><ele>47.0</ele><time>2026-04-04T11:39:22Z</time></trkpt><trkpt lat="42.70501370264839" lon="2.8339515963048707"><ele>47.0</ele><time>2026-04-04T11:39:23Z</time></trkpt><trkpt lat="42.704948253816234" lon="2.8337961147948936"><ele>47.0</ele><time>2026-04-04T11:39:24Z</time></trkpt><trkpt lat="42.704886021271136" lon="2.8336524569377333"><ele>47.0</ele><time>2026-04-04T11:39:25Z</time></trkpt><trkpt lat="42.70482305537957" lon="2.8335071997709367"><ele>47.0</ele><time>2026-04-04T11:39:26Z</time></trkpt><trkpt lat="42.70476422088266" lon="2.833373474501745"><ele>47.0</ele><time>2026-04-04T11:39:27Z</time></trkpt><trkpt lat="42.704709626983934" lon="2.833245768167485"><ele>47.0</ele><time>2026-04-04T11:39:28Z</time></trkpt><trkpt lat="42.70466221405119" lon="2.833121194232424"><ele>47.0</ele><time>2026-04-04T11:39:29Z</time></trkpt><trkpt lat="42.70461151000098" lon="2.8330096802902602"><ele>47.0</ele><time>2026-04-04T11:39:30Z</time></trkpt><trkpt lat="42.70454990242999" lon="2.832873823637749"><ele>47.0</ele><time>2026-04-04T11:39:31Z</time></trkpt><trkpt lat="42.704507404721284" lon="2.8327282467981343"><ele>47.2</ele><time>2026-04-04T11:39:32Z</time></trkpt><trkpt lat="42.704468901308346" lon="2.8326106279538537"><ele>47.400000000000006</ele><time>2026-04-04T11:39:33Z</time></trkpt><trkpt lat="42.704435018742295" lon="2.8325047040472695"><ele>47.599999999999994</ele><time>2026-04-04T11:39:34Z</time></trkpt><trkpt lat="42.70440857063384" lon="2.832391156231149"><ele>47.8</ele><time>2026-04-04T11:39:35Z</time></trkpt><trkpt lat="42.704410435623124" lon="2.8322670370051943"><ele>48.0</ele><time>2026-04-04T11:39:36Z</time></trkpt><trkpt lat="42.70444082841582" lon="2.8321411991620637"><ele>48.0</ele><time>2026-04-04T11:39:37Z</time></trkpt><trkpt lat="42.704502438264335" lon="2.832022765004651"><ele>48.0</ele><time>2026-04-04T11:39:38Z</time></trkpt><trkpt lat="42.70457334415918" lon="2.8319057996854267"><ele>48.0</ele><time>2026-04-04T11:39:39Z</time></trkpt><trkpt lat="42.70469625480043" lon="2.831812541591215"><ele>48.0</ele><time>2026-04-04T11:39:40Z</time></trkpt><trkpt lat="42.704787290278034" lon="2.8316926950793633"><ele>47.333333333333336</ele><time>2026-04-04T11:39:41Z</time></trkpt><trkpt lat="42.7049077620976" lon="2.831546786580618"><ele>46.66666666666667</ele><time>2026-04-04T11:39:42Z</time></trkpt><trkpt lat="42.70504838023552" lon="2.831394839216745"><ele>46.0</ele><time>2026-04-04T11:39:43Z</time></trkpt><trkpt lat="42.705209264793076" lon="2.831233298702586"><ele>46.333333333333336</ele><time>2026-04-04T11:39:44Z</time></trkpt><trkpt lat="42.70539955954595" lon="2.8310967539053538"><ele>46.666666666666664</ele><time>2026-04-04T11:39:45Z</time></trkpt><trkpt lat="42.7055521734224" lon="2.8309589967302466"><ele>47.0</ele><time>2026-04-04T11:39:46Z</time></trkpt><trkpt lat="42.70569412362794" lon="2.8308659821322126"><ele>47.0</ele><time>2026-04-04T11:39:47Z</time></trkpt><trkpt lat="42.705817820837055" lon="2.8307940122374564"><ele>47.0</ele><time>2026-04-04T11:39:48Z</time></trkpt><trkpt lat="42.705917374692966" lon="2.8307416579153317"><ele>47.0</ele><time>2026-04-04T11:39:49Z</time></trkpt><trkpt lat="42.70600504715905" lon="2.8306901932970296"><ele>47.0</ele><time>2026-04-04T11:39:50Z</time></trkpt><trkpt lat="42.706081623382985" lon="2.830651867292764"><ele>47.0</ele><time>2026-04-04T11:39:51Z</time></trkpt><trkpt lat="42.70617258544762" lon="2.830615903640818"><ele>47.0</ele><time>2026-04-04T11:39:53Z</time></trkpt><trkpt lat="42.70615175640595" lon="2.830421542910198"><ele>47.0</ele><time>2026-04-04T11:39:55Z</time></trkpt><trkpt lat="42.706119951722094" lon="2.8302917210327188"><ele>47.0</ele><time>2026-04-04T11:39:57Z</time></trkpt><trkpt lat="42.7060727557552" lon="2.830167285175924"><ele>47.0</ele><time>2026-04-04T11:39:59Z</time></trkpt><trkpt lat="42.706043503027026" lon="2.83000101290603"><ele>47.0</ele><time>2026-04-04T11:40:01Z</time></trkpt><trkpt lat="42.70602158907165" lon="2.829901600252351"><ele>47.0</ele><time>2026-04-04T11:40:02Z</time></trkpt><trkpt lat="42.706006255489555" lon="2.8297810018096676"><ele>47.0</ele><time>2026-04-04T11:40:03Z</time></trkpt><trkpt lat="42.70598392519055" lon="2.8296178175763504"><ele>47.0</ele><time>2026-04-04T11:40:04Z</time></trkpt><trkpt lat="42.70595715406458" lon="2.8294415516845284"><ele>47.0</ele><time>2026-04-04T11:40:05Z</time></trkpt><trkpt lat="42.705917913888555" lon="2.8292799900493546"><ele>47.75</ele><time>2026-04-04T11:40:06Z</time></trkpt><trkpt lat="42.70589772509658" lon="2.8291159676387188"><ele>48.5</ele><time>2026-04-04T11:40:07Z</time></trkpt><trkpt lat="42.70587385223134" lon="2.828938535945852"><ele>49.25</ele><time>2026-04-04T11:40:08Z</time></trkpt><trkpt lat="42.70585368432531" lon="2.828776699735411"><ele>50.0</ele><time>2026-04-04T11:40:09Z</time></trkpt><trkpt lat="42.705838767249034" lon="2.828617841093525"><ele>49.5</ele><time>2026-04-04T11:40:10Z</time></trkpt><trkpt lat="42.70581844668126" lon="2.828455844058963"><ele>49.0</ele><time>2026-04-04T11:40:11Z</time></trkpt><trkpt lat="42.705794370291486" lon="2.82828852012986"><ele>48.5</ele><time>2026-04-04T11:40:12Z</time></trkpt><trkpt lat="42.705771818226324" lon="2.828129216513035"><ele>48.0</ele><time>2026-04-04T11:40:13Z</time></trkpt><trkpt lat="42.705750077167565" lon="2.8279914063496685"><ele>48.0</ele><time>2026-04-04T11:40:14Z</time></trkpt><trkpt lat="42.70572516152746" lon="2.8278650146281086"><ele>48.0</ele><time>2026-04-04T11:40:15Z</time></trkpt><trkpt lat="42.70571111123405" lon="2.827748159665694"><ele>48.0</ele><time>2026-04-04T11:40:16Z</time></trkpt><trkpt lat="42.70569575850445" lon="2.827638419173479"><ele>48.0</ele><time>2026-04-04T11:40:17Z</time></trkpt><trkpt lat="42.70568539639461" lon="2.8275337834020684"><ele>48.0</ele><time>2026-04-04T11:40:18Z</time></trkpt><trkpt lat="42.70567966423103" lon="2.8274453424479296"><ele>48.0</ele><time>2026-04-04T11:40:19Z</time></trkpt><trkpt lat="42.70567982770515" lon="2.8273576909767923"><ele>48.0</ele><time>2026-04-04T11:40:20Z</time></trkpt><trkpt lat="42.70568422472126" lon="2.8272597705611036"><ele>48.0</ele><time>2026-04-04T11:40:21Z</time></trkpt><trkpt lat="42.705683953898664" lon="2.827159014052804"><ele>48.0</ele><time>2026-04-04T11:40:22Z</time></trkpt><trkpt lat="42.70567858678187" lon="2.827059628819278"><ele>48.0</ele><time>2026-04-04T11:40:23Z</time></trkpt><trkpt lat="42.70567265040629" lon="2.826952209551967"><ele>48.0</ele><time>2026-04-04T11:40:24Z</time></trkpt><trkpt lat="42.70566403022225" lon="2.8268379248653566"><ele>48.0</ele><time>2026-04-04T11:40:25Z</time></trkpt><trkpt lat="42.70565154609008" lon="2.826728141520225"><ele>48.599999999999994</ele><time>2026-04-04T11:40:26Z</time></trkpt><trkpt lat="42.70563549877247" lon="2.826599267188881"><ele>49.199999999999996</ele><time>2026-04-04T11:40:27Z</time></trkpt><trkpt lat="42.70562974501004" lon="2.8264664413353646"><ele>49.8</ele><time>2026-04-04T11:40:28Z</time></trkpt><trkpt lat="42.705630426450696" lon="2.8263371701182147"><ele>50.4</ele><time>2026-04-04T11:40:29Z</time></trkpt><trkpt lat="42.705627495331164" lon="2.826208325893648"><ele>51.0</ele><time>2026-04-04T11:40:30Z</time></trkpt><trkpt lat="42.70563006866463" lon="2.826075039723498"><ele>50.599999999999994</ele><time>2026-04-04T11:40:31Z</time></trkpt><trkpt lat="42.7056373010931" lon="2.8259485529256057"><ele>50.2</ele><time>2026-04-04T11:40:32Z</time></trkpt><trkpt lat="42.705662191007484" lon="2.8258165276015847"><ele>49.8</ele><time>2026-04-04T11:40:33Z</time></trkpt><trkpt lat="42.705683967344584" lon="2.8256815887584055"><ele>49.400000000000006</ele><time>2026-04-04T11:40:34Z</time></trkpt><trkpt lat="42.70569519024148" lon="2.8255439443620243"><ele>49.0</ele><time>2026-04-04T11:40:35Z</time></trkpt><trkpt lat="42.7057200230885" lon="2.8254258201978013"><ele>49.0</ele><time>2026-04-04T11:40:36Z</time></trkpt><trkpt lat="42.705731556246846" lon="2.8253031963126536"><ele>49.0</ele><time>2026-04-04T11:40:37Z</time></trkpt><trkpt lat="42.70573949290531" lon="2.8251702054347105"><ele>49.0</ele><time>2026-04-04T11:40:38Z</time></trkpt><trkpt lat="42.70575397696563" lon="2.8250338152862726"><ele>49.0</ele><time>2026-04-04T11:40:39Z</time></trkpt><trkpt lat="42.70578509074775" lon="2.824899784516496"><ele>49.0</ele><time>2026-04-04T11:40:40Z</time></trkpt><trkpt lat="42.70583258866139" lon="2.8247747912639056"><ele>48.800000000000004</ele><time>2026-04-04T11:40:41Z</time></trkpt><trkpt lat="42.70587923329876" lon="2.824640234564549"><ele>48.6</ele><time>2026-04-04T11:40:42Z</time></trkpt><trkpt lat="42.70592360029699" lon="2.8245143435076443"><ele>48.4</ele><time>2026-04-04T11:40:43Z</time></trkpt><trkpt lat="42.705976042197975" lon="2.824398336018958"><ele>48.2</ele><time>2026-04-04T11:40:44Z</time></trkpt><trkpt lat="42.70603081169451" lon="2.824281392601761"><ele>48.0</ele><time>2026-04-04T11:40:45Z</time></trkpt><trkpt lat="42.70609766830427" lon="2.8241661692632674"><ele>48.4</ele><time>2026-04-04T11:40:46Z</time></trkpt><trkpt lat="42.70618498968394" lon="2.824062325649883"><ele>48.8</ele><time>2026-04-04T11:40:47Z</time></trkpt><trkpt lat="42.70628042021348" lon="2.8239866974840484"><ele>49.2</ele><time>2026-04-04T11:40:48Z</time></trkpt><trkpt lat="42.70637063482214" lon="2.8239257945569323"><ele>49.6</ele><time>2026-04-04T11:40:49Z</time></trkpt><trkpt lat="42.706439707263904" lon="2.823865143945115"><ele>50.0</ele><time>2026-04-04T11:40:50Z</time></trkpt><trkpt lat="42.70647639154382" lon="2.8237714850370024"><ele>50.0</ele><time>2026-04-04T11:40:51Z</time></trkpt><trkpt lat="42.706480779435495" lon="2.8236361604190066"><ele>50.0</ele><time>2026-04-04T11:40:52Z</time></trkpt><trkpt lat="42.70646165347678" lon="2.8234874772599166"><ele>50.0</ele><time>2026-04-04T11:40:53Z</time></trkpt><trkpt lat="42.706436838233046" lon="2.823342756976546"><ele>50.0</ele><time>2026-04-04T11:40:54Z</time></trkpt><trkpt lat="42.706423193618996" lon="2.82318403883104"><ele>50.0</ele><time>2026-04-04T11:40:55Z</time></trkpt><trkpt lat="42.70642218107613" lon="2.8230400700151823"><ele>50.0</ele><time>2026-04-04T11:40:56Z</time></trkpt><trkpt lat="42.70642286131608" lon="2.8228987608945197"><ele>50.0</ele><time>2026-04-04T11:40:57Z</time></trkpt><trkpt lat="42.70641818793324" lon="2.8227518816701562"><ele>50.0</ele><time>2026-04-04T11:40:58Z</time></trkpt><trkpt lat="42.70643124666451" lon="2.8225998675399357"><ele>50.0</ele><time>2026-04-04T11:40:59Z</time></trkpt><trkpt lat="42.70641837241902" lon="2.8224687527205727"><ele>50.0</ele><time>2026-04-04T11:41:00Z</time></trkpt><trkpt lat="42.70641237883578" lon="2.8223013933927352"><ele>50.0</ele><time>2026-04-04T11:41:01Z</time></trkpt><trkpt lat="42.7063961672709" lon="2.822094442717532"><ele>50.0</ele><time>2026-04-04T11:41:02Z</time></trkpt><trkpt lat="42.706385480589155" lon="2.821926549270251"><ele>50.0</ele><time>2026-04-04T11:41:03Z</time></trkpt><trkpt lat="42.706382900427535" lon="2.8217950304784902"><ele>50.0</ele><time>2026-04-04T11:41:04Z</time></trkpt><trkpt lat="42.70639177866711" lon="2.821665210475904"><ele>50.2</ele><time>2026-04-04T11:41:05Z</time></trkpt><trkpt lat="42.706390328252574" lon="2.821551425533697"><ele>50.4</ele><time>2026-04-04T11:41:06Z</time></trkpt><trkpt lat="42.70638533939363" lon="2.821444201793915"><ele>50.599999999999994</ele><time>2026-04-04T11:41:07Z</time></trkpt><trkpt lat="42.70641932661588" lon="2.8213530183989897"><ele>50.8</ele><time>2026-04-04T11:41:08Z</time></trkpt><trkpt lat="42.70656591705575" lon="2.8212863107322934"><ele>51.0</ele><time>2026-04-04T11:41:10Z</time></trkpt><trkpt lat="42.70666992789832" lon="2.8212688696268495"><ele>51.0</ele><time>2026-04-04T11:41:11Z</time></trkpt><trkpt lat="42.70677981988695" lon="2.821253103019275"><ele>51.0</ele><time>2026-04-04T11:41:12Z</time></trkpt><trkpt lat="42.706889593866634" lon="2.821235987748137"><ele>51.0</ele><time>2026-04-04T11:41:13Z</time></trkpt><trkpt lat="42.70700981979106" lon="2.8212096376251203"><ele>51.0</ele><time>2026-04-04T11:41:14Z</time></trkpt><trkpt lat="42.70712884967143" lon="2.821189313929149"><ele>51.25</ele><time>2026-04-04T11:41:15Z</time></trkpt><trkpt lat="42.70724459503357" lon="2.8211746590566573"><ele>51.5</ele><time>2026-04-04T11:41:16Z</time></trkpt><trkpt lat="42.707372949453145" lon="2.821159217376296"><ele>51.75</ele><time>2026-04-04T11:41:17Z</time></trkpt><trkpt lat="42.70749318385407" lon="2.821145696518117"><ele>52.0</ele><time>2026-04-04T11:41:18Z</time></trkpt><trkpt lat="42.70761573121584" lon="2.8211208877006184"><ele>53.75</ele><time>2026-04-04T11:41:19Z</time></trkpt><trkpt lat="42.70774558980784" lon="2.8211020341433892"><ele>55.5</ele><time>2026-04-04T11:41:20Z</time></trkpt><trkpt lat="42.707861856933256" lon="2.821081133633478"><ele>57.25</ele><time>2026-04-04T11:41:21Z</time></trkpt><trkpt lat="42.70797220405298" lon="2.821066186756234"><ele>59.0</ele><time>2026-04-04T11:41:22Z</time></trkpt><trkpt lat="42.708076323828465" lon="2.821051355629495"><ele>59.00000000000001</ele><time>2026-04-04T11:41:23Z</time></trkpt><trkpt lat="42.70817373405749" lon="2.8210355478272473"><ele>59.0</ele><time>2026-04-04T11:41:24Z</time></trkpt><trkpt lat="42.70825565110422" lon="2.821014238848845"><ele>59.0</ele><time>2026-04-04T11:41:25Z</time></trkpt><trkpt lat="42.708317692734894" lon="2.820981160388971"><ele>59.0</ele><time>2026-04-04T11:41:26Z</time></trkpt><trkpt lat="42.708363125613566" lon="2.820898705431061"><ele>59.00000000000001</ele><time>2026-04-04T11:41:27Z</time></trkpt><trkpt lat="42.70839005512352" lon="2.820779584510103"><ele>59.0</ele><time>2026-04-04T11:41:28Z</time></trkpt><trkpt lat="42.70838933515281" lon="2.820638461127623"><ele>59.0</ele><time>2026-04-04T11:41:29Z</time></trkpt><trkpt lat="42.70839519007602" lon="2.8204315271253106"><ele>59.0</ele><time>2026-04-04T11:41:30Z</time></trkpt><trkpt lat="42.70841727087726" lon="2.820196251054529"><ele>59.0</ele><time>2026-04-04T11:41:31Z</time></trkpt><trkpt lat="42.70846391955348" lon="2.8199410259766733"><ele>59.0</ele><time>2026-04-04T11:41:32Z</time></trkpt><trkpt lat="42.70853304344471" lon="2.8196891001107938"><ele>59.0</ele><time>2026-04-04T11:41:33Z</time></trkpt><trkpt lat="42.70860195625287" lon="2.81943508082736"><ele>59.0</ele><time>2026-04-04T11:41:34Z</time></trkpt><trkpt lat="42.70865721290813" lon="2.8192279095988475"><ele>61.25</ele><time>2026-04-04T11:41:35Z</time></trkpt><trkpt lat="42.70871043624509" lon="2.8190555658611203"><ele>63.5</ele><time>2026-04-04T11:41:36Z</time></trkpt><trkpt lat="42.70876127152977" lon="2.8189097743067486"><ele>65.75</ele><time>2026-04-04T11:41:37Z</time></trkpt><trkpt lat="42.70882292297578" lon="2.8187673915389744"><ele>68.0</ele><time>2026-04-04T11:41:38Z</time></trkpt><trkpt lat="42.70888791160598" lon="2.8186298498746187"><ele>68.0</ele><time>2026-04-04T11:41:39Z</time></trkpt><trkpt lat="42.708923935614486" lon="2.8185146421836333"><ele>68.0</ele><time>2026-04-04T11:41:40Z</time></trkpt><trkpt lat="42.70896779294557" lon="2.818339256543949"><ele>68.0</ele><time>2026-04-04T11:41:41Z</time></trkpt><trkpt lat="42.70897732652591" lon="2.8181732506505206"><ele>68.0</ele><time>2026-04-04T11:41:42Z</time></trkpt><trkpt lat="42.70897554042073" lon="2.818004104343079"><ele>67.8</ele><time>2026-04-04T11:41:43Z</time></trkpt><trkpt lat="42.7089723038834" lon="2.8178557900729544"><ele>67.6</ele><time>2026-04-04T11:41:44Z</time></trkpt><trkpt lat="42.70898437776283" lon="2.8177226077043853"><ele>67.4</ele><time>2026-04-04T11:41:45Z</time></trkpt><trkpt lat="42.70901756058643" lon="2.8175995533783196"><ele>67.2</ele><time>2026-04-04T11:41:46Z</time></trkpt><trkpt lat="42.709097838293175" lon="2.8175254431809575"><ele>67.0</ele><time>2026-04-04T11:41:47Z</time></trkpt><trkpt lat="42.7091563736415" lon="2.817469284991202"><ele>67.0</ele><time>2026-04-04T11:41:48Z</time></trkpt><trkpt lat="42.709233420825974" lon="2.8174329863553154"><ele>67.0</ele><time>2026-04-04T11:41:49Z</time></trkpt><trkpt lat="42.70933466746337" lon="2.8174275196051544"><ele>67.0</ele><time>2026-04-04T11:41:50Z</time></trkpt><trkpt lat="42.70943589197978" lon="2.8174083215356314"><ele>67.0</ele><time>2026-04-04T11:41:51Z</time></trkpt><trkpt lat="42.7095446411449" lon="2.8173879671494757"><ele>67.0</ele><time>2026-04-04T11:41:52Z</time></trkpt><trkpt lat="42.70966196333501" lon="2.81736807406513"><ele>67.75</ele><time>2026-04-04T11:41:53Z</time></trkpt><trkpt lat="42.709776522282034" lon="2.817352216050068"><ele>68.5</ele><time>2026-04-04T11:41:54Z</time></trkpt><trkpt lat="42.70988516758003" lon="2.8173390700766237"><ele>69.25</ele><time>2026-04-04T11:41:55Z</time></trkpt><trkpt lat="42.71000349335092" lon="2.8173274016625056"><ele>70.0</ele><time>2026-04-04T11:41:56Z</time></trkpt><trkpt lat="42.710137100887074" lon="2.817318786967628"><ele>69.66666666666666</ele><time>2026-04-04T11:41:57Z</time></trkpt><trkpt lat="42.71030771480005" lon="2.8172962350017583"><ele>69.33333333333333</ele><time>2026-04-04T11:41:58Z</time></trkpt><trkpt lat="42.71046738700964" lon="2.8172913016570567"><ele>69.0</ele><time>2026-04-04T11:41:59Z</time></trkpt><trkpt lat="42.710592946594595" lon="2.8172838599696473"><ele>69.0</ele><time>2026-04-04T11:42:00Z</time></trkpt><trkpt lat="42.71068989701911" lon="2.817267787640174"><ele>69.0</ele><time>2026-04-04T11:42:01Z</time></trkpt><trkpt lat="42.710783342296686" lon="2.8172558603924363"><ele>69.0</ele><time>2026-04-04T11:42:02Z</time></trkpt><trkpt lat="42.710869788933174" lon="2.817244035044022"><ele>69.0</ele><time>2026-04-04T11:42:03Z</time></trkpt><trkpt lat="42.71095189892045" lon="2.817219578923426"><ele>69.0</ele><time>2026-04-04T11:42:04Z</time></trkpt><trkpt lat="42.71104434900831" lon="2.817182126711797"><ele>68.8</ele><time>2026-04-04T11:42:05Z</time></trkpt><trkpt lat="42.711132878887334" lon="2.8171396866776206"><ele>68.60000000000001</ele><time>2026-04-04T11:42:06Z</time></trkpt><trkpt lat="42.71122042566948" lon="2.817121066019961"><ele>68.4</ele><time>2026-04-04T11:42:07Z</time></trkpt><trkpt lat="42.71131318873605" lon="2.817103231613834"><ele>68.2</ele><time>2026-04-04T11:42:08Z</time></trkpt><trkpt lat="42.71140163750188" lon="2.8170848571265275"><ele>68.0</ele><time>2026-04-04T11:42:09Z</time></trkpt><trkpt lat="42.711484559248014" lon="2.81706499858318"><ele>68.0</ele><time>2026-04-04T11:42:10Z</time></trkpt><trkpt lat="42.71156725979477" lon="2.817048316601962"><ele>68.0</ele><time>2026-04-04T11:42:11Z</time></trkpt><trkpt lat="42.711643981152086" lon="2.817035284574939"><ele>68.0</ele><time>2026-04-04T11:42:12Z</time></trkpt><trkpt lat="42.71178797468112" lon="2.8169820521217175"><ele>68.0</ele><time>2026-04-04T11:42:14Z</time></trkpt><trkpt lat="42.71187786021944" lon="2.8169446284572284"><ele>68.0</ele><time>2026-04-04T11:42:15Z</time></trkpt><trkpt lat="42.71196055177525" lon="2.81690951195286"><ele>68.0</ele><time>2026-04-04T11:42:16Z</time></trkpt><trkpt lat="42.71203705119908" lon="2.816879577705569"><ele>68.0</ele><time>2026-04-04T11:42:17Z</time></trkpt><trkpt lat="42.71211352479238" lon="2.8168430755660605"><ele>68.0</ele><time>2026-04-04T11:42:18Z</time></trkpt><trkpt lat="42.71219139382674" lon="2.8168117520683356"><ele>68.0</ele><time>2026-04-04T11:42:19Z</time></trkpt><trkpt lat="42.71226771793714" lon="2.8167742466702004"><ele>68.0</ele><time>2026-04-04T11:42:20Z</time></trkpt><trkpt lat="42.71234291901651" lon="2.816729792702324"><ele>68.0</ele><time>2026-04-04T11:42:21Z</time></trkpt><trkpt lat="42.71242137502246" lon="2.8166861105833823"><ele>68.0</ele><time>2026-04-04T11:42:22Z</time></trkpt><trkpt lat="42.71250485345611" lon="2.816641523498797"><ele>68.0</ele><time>2026-04-04T11:42:23Z</time></trkpt><trkpt lat="42.71258703446578" lon="2.816580808634584"><ele>68.0</ele><time>2026-04-04T11:42:24Z</time></trkpt><trkpt lat="42.71267083693391" lon="2.8165357293804503"><ele>68.0</ele><time>2026-04-04T11:42:25Z</time></trkpt><trkpt lat="42.71273511090122" lon="2.8164862217273052"><ele>68.0</ele><time>2026-04-04T11:42:26Z</time></trkpt><trkpt lat="42.71282758145003" lon="2.816464563058642"><ele>68.0</ele><time>2026-04-04T11:42:28Z</time></trkpt><trkpt lat="42.71288304925646" lon="2.816524746850757"><ele>67.5</ele><time>2026-04-04T11:42:29Z</time></trkpt><trkpt lat="42.712936084848806" lon="2.8165991735610496"><ele>67.0</ele><time>2026-04-04T11:42:30Z</time></trkpt><trkpt lat="42.71299996276951" lon="2.8166810090882572"><ele>66.5</ele><time>2026-04-04T11:42:31Z</time></trkpt><trkpt lat="42.713073285648164" lon="2.8167633915574877"><ele>66.0</ele><time>2026-04-04T11:42:32Z</time></trkpt><trkpt lat="42.713146202647316" lon="2.816824327839244"><ele>65.5</ele><time>2026-04-04T11:42:33Z</time></trkpt><trkpt lat="42.713229898910804" lon="2.8168696922405614"><ele>65.0</ele><time>2026-04-04T11:42:34Z</time></trkpt><trkpt lat="42.713318853110835" lon="2.81692057439639"><ele>64.8</ele><time>2026-04-04T11:42:35Z</time></trkpt><trkpt lat="42.71340043177032" lon="2.8169953143881874"><ele>64.6</ele><time>2026-04-04T11:42:36Z</time></trkpt><trkpt lat="42.71347611378385" lon="2.8170943821447287"><ele>64.4</ele><time>2026-04-04T11:42:37Z</time></trkpt><trkpt lat="42.71355391832599" lon="2.817220999359076"><ele>64.2</ele><time>2026-04-04T11:42:38Z</time></trkpt><trkpt lat="42.71362865736165" lon="2.8173530080170517"><ele>64.0</ele><time>2026-04-04T11:42:39Z</time></trkpt><trkpt lat="42.71368216255722" lon="2.817461929389155"><ele>64.0</ele><time>2026-04-04T11:42:40Z</time></trkpt><trkpt lat="42.713733552378486" lon="2.817561271428092"><ele>64.0</ele><time>2026-04-04T11:42:41Z</time></trkpt><trkpt lat="42.713784851100705" lon="2.8176401436202947"><ele>64.0</ele><time>2026-04-04T11:42:42Z</time></trkpt><trkpt lat="42.71390913451543" lon="2.8176933661196957"><ele>64.0</ele><time>2026-04-04T11:42:44Z</time></trkpt><trkpt lat="42.71399739758021" lon="2.817670741735032"><ele>64.0</ele><time>2026-04-04T11:42:45Z</time></trkpt><trkpt lat="42.71408819151603" lon="2.8176394503643016"><ele>63.99999999999999</ele><time>2026-04-04T11:42:46Z</time></trkpt><trkpt lat="42.714171472172936" lon="2.8176242407684073"><ele>64.0</ele><time>2026-04-04T11:42:47Z</time></trkpt><trkpt lat="42.714244507545835" lon="2.817613904191173"><ele>64.0</ele><time>2026-04-04T11:42:48Z</time></trkpt><trkpt lat="42.71431140522163" lon="2.8176032236448845"><ele>64.0</ele><time>2026-04-04T11:42:49Z</time></trkpt><trkpt lat="42.71437950803587" lon="2.817585162743364"><ele>63.99999999999999</ele><time>2026-04-04T11:42:50Z</time></trkpt><trkpt lat="42.71449562499021" lon="2.817560540764545"><ele>64.0</ele><time>2026-04-04T11:42:52Z</time></trkpt><trkpt lat="42.71456281528311" lon="2.817542431939863"><ele>64.83333333333333</ele><time>2026-04-04T11:42:53Z</time></trkpt><trkpt lat="42.71463744137729" lon="2.8175225179926593"><ele>65.66666666666666</ele><time>2026-04-04T11:42:54Z</time></trkpt><trkpt lat="42.71471215950972" lon="2.8175039031811497"><ele>66.5</ele><time>2026-04-04T11:42:55Z</time></trkpt><trkpt lat="42.71480251234211" lon="2.8174730097931477"><ele>67.33333333333333</ele><time>2026-04-04T11:42:56Z</time></trkpt><trkpt lat="42.71489735463585" lon="2.817446445932651"><ele>68.16666666666667</ele><time>2026-04-04T11:42:57Z</time></trkpt><trkpt lat="42.71500017709993" lon="2.81742452695718"><ele>69.0</ele><time>2026-04-04T11:42:58Z</time></trkpt><trkpt lat="42.715119594465975" lon="2.817396965327529"><ele>69.0</ele><time>2026-04-04T11:42:59Z</time></trkpt><trkpt lat="42.71522706378017" lon="2.8173768730084814"><ele>69.0</ele><time>2026-04-04T11:43:00Z</time></trkpt><trkpt lat="42.71532408495796" lon="2.8174047122701467"><ele>69.0</ele><time>2026-04-04T11:43:01Z</time></trkpt><trkpt lat="42.715433826129605" lon="2.8174309745480888"><ele>69.0</ele><time>2026-04-04T11:43:02Z</time></trkpt><trkpt lat="42.715532849468104" lon="2.817416758902343"><ele>69.0</ele><time>2026-04-04T11:43:03Z</time></trkpt><trkpt lat="42.715615417247506" lon="2.81742625017301"><ele>70.0</ele><time>2026-04-04T11:43:04Z</time></trkpt><trkpt lat="42.71567922841082" lon="2.81742417022557"><ele>71.0</ele><time>2026-04-04T11:43:05Z</time></trkpt><trkpt lat="42.71575022267665" lon="2.8172580175261785"><ele>72.0</ele><time>2026-04-04T11:43:06Z</time></trkpt><trkpt lat="42.71581837357922" lon="2.817155466506405"><ele>73.0</ele><time>2026-04-04T11:43:07Z</time></trkpt><trkpt lat="42.71590242134861" lon="2.8170630374754104"><ele>74.0</ele><time>2026-04-04T11:43:08Z</time></trkpt><trkpt lat="42.71596362906513" lon="2.8169613063722627"><ele>74.0</ele><time>2026-04-04T11:43:09Z</time></trkpt><trkpt lat="42.71603494591319" lon="2.816872082004045"><ele>74.0</ele><time>2026-04-04T11:43:10Z</time></trkpt><trkpt lat="42.7161107798161" lon="2.8167741823796573"><ele>74.0</ele><time>2026-04-04T11:43:11Z</time></trkpt><trkpt lat="42.71619892666722" lon="2.816694414093986"><ele>74.0</ele><time>2026-04-04T11:43:12Z</time></trkpt><trkpt lat="42.716286417113" lon="2.8166047718104403"><ele>74.0</ele><time>2026-04-04T11:43:13Z</time></trkpt><trkpt lat="42.71637788331264" lon="2.8165358807168883"><ele>73.60000000000001</ele><time>2026-04-04T11:43:14Z</time></trkpt><trkpt lat="42.71647615509332" lon="2.816464957848524"><ele>73.2</ele><time>2026-04-04T11:43:15Z</time></trkpt><trkpt lat="42.716568631776866" lon="2.8163891663337197"><ele>72.80000000000001</ele><time>2026-04-04T11:43:16Z</time></trkpt><trkpt lat="42.71667206947251" lon="2.816331562992789"><ele>72.4</ele><time>2026-04-04T11:43:17Z</time></trkpt><trkpt lat="42.716778009034996" lon="2.816275115711897"><ele>72.0</ele><time>2026-04-04T11:43:18Z</time></trkpt><trkpt lat="42.7168816760692" lon="2.8162144693316358"><ele>72.5</ele><time>2026-04-04T11:43:19Z</time></trkpt><trkpt lat="42.71698798145175" lon="2.816146097598607"><ele>73.0</ele><time>2026-04-04T11:43:20Z</time></trkpt><trkpt lat="42.71709927719612" lon="2.8160646089871055"><ele>73.5</ele><time>2026-04-04T11:43:21Z</time></trkpt><trkpt lat="42.71721833538532" lon="2.8159786400841944"><ele>74.0</ele><time>2026-04-04T11:43:22Z</time></trkpt><trkpt lat="42.71731764066387" lon="2.8158926328311056"><ele>74.0</ele><time>2026-04-04T11:43:23Z</time></trkpt><trkpt lat="42.717400794112514" lon="2.8157967981540977"><ele>74.0</ele><time>2026-04-04T11:43:24Z</time></trkpt><trkpt lat="42.71749728334198" lon="2.8156922329967817"><ele>74.0</ele><time>2026-04-04T11:43:25Z</time></trkpt><trkpt lat="42.7175766260441" lon="2.815624860936128"><ele>74.0</ele><time>2026-04-04T11:43:26Z</time></trkpt><trkpt lat="42.71767281519193" lon="2.8155405694740474"><ele>74.0</ele><time>2026-04-04T11:43:27Z</time></trkpt><trkpt lat="42.71777926588192" lon="2.815465465067243"><ele>74.2</ele><time>2026-04-04T11:43:28Z</time></trkpt><trkpt lat="42.71788518800596" lon="2.8154157748745683"><ele>74.4</ele><time>2026-04-04T11:43:29Z</time></trkpt><trkpt lat="42.717994850793005" lon="2.815361368190104"><ele>74.6</ele><time>2026-04-04T11:43:30Z</time></trkpt><trkpt lat="42.71807738789034" lon="2.815318958521858"><ele>74.8</ele><time>2026-04-04T11:43:31Z</time></trkpt><trkpt lat="42.7181577190348" lon="2.81527257824587"><ele>75.0</ele><time>2026-04-04T11:43:32Z</time></trkpt><trkpt lat="42.71823065186887" lon="2.81523166406867"><ele>75.0</ele><time>2026-04-04T11:43:33Z</time></trkpt><trkpt lat="42.718297913594334" lon="2.8151868184971636"><ele>75.0</ele><time>2026-04-04T11:43:34Z</time></trkpt><trkpt lat="42.71836080972401" lon="2.815116493974151"><ele>75.0</ele><time>2026-04-04T11:43:35Z</time></trkpt><trkpt lat="42.71840888017439" lon="2.8150135274833565"><ele>75.0</ele><time>2026-04-04T11:43:36Z</time></trkpt><trkpt lat="42.71844834044506" lon="2.8148747970021533"><ele>75.0</ele><time>2026-04-04T11:43:37Z</time></trkpt><trkpt lat="42.718497850234364" lon="2.8147326889892694"><ele>75.0</ele><time>2026-04-04T11:43:38Z</time></trkpt><trkpt lat="42.7185213730934" lon="2.814599021592423"><ele>75.0</ele><time>2026-04-04T11:43:39Z</time></trkpt><trkpt lat="42.71855596998797" lon="2.814487244072473"><ele>75.0</ele><time>2026-04-04T11:43:40Z</time></trkpt><trkpt lat="42.71858389319193" lon="2.8143782643112303"><ele>75.0</ele><time>2026-04-04T11:43:41Z</time></trkpt><trkpt lat="42.71861417502907" lon="2.8142902054595993"><ele>75.0</ele><time>2026-04-04T11:43:42Z</time></trkpt><trkpt lat="42.7186718181326" lon="2.8141778484949267"><ele>75.0</ele><time>2026-04-04T11:43:44Z</time></trkpt><trkpt lat="42.71874752153037" lon="2.814060621029829"><ele>75.0</ele><time>2026-04-04T11:43:46Z</time></trkpt><trkpt lat="42.718804529995296" lon="2.8140060966696754"><ele>75.0</ele><time>2026-04-04T11:43:47Z</time></trkpt><trkpt lat="42.7188539243158" lon="2.81393660448664"><ele>75.0</ele><time>2026-04-04T11:43:48Z</time></trkpt><trkpt lat="42.71875904759319" lon="2.8134209282536515"><ele>74.99999999999999</ele><time>2026-04-04T11:43:51Z</time></trkpt><trkpt lat="42.71877749097426" lon="2.813307753274638"><ele>75.0</ele><time>2026-04-04T11:43:52Z</time></trkpt><trkpt lat="42.71878986771516" lon="2.813219876616491"><ele>75.0</ele><time>2026-04-04T11:43:53Z</time></trkpt><trkpt lat="42.7187963400217" lon="2.813131781259282"><ele>75.0</ele><time>2026-04-04T11:43:54Z</time></trkpt><trkpt lat="42.718798634110165" lon="2.8130440576738196"><ele>75.0</ele><time>2026-04-04T11:43:55Z</time></trkpt><trkpt lat="42.718797380618426" lon="2.812950156631829"><ele>74.99999999999999</ele><time>2026-04-04T11:43:56Z</time></trkpt><trkpt lat="42.71878876539849" lon="2.812831924743749"><ele>75.0</ele><time>2026-04-04T11:43:57Z</time></trkpt><trkpt lat="42.71880270777012" lon="2.812701522959265"><ele>75.2</ele><time>2026-04-04T11:43:58Z</time></trkpt><trkpt lat="42.71883882592083" lon="2.8125824091715863"><ele>75.4</ele><time>2026-04-04T11:43:59Z</time></trkpt><trkpt lat="42.71886734175672" lon="2.812472988683539"><ele>75.6</ele><time>2026-04-04T11:44:00Z</time></trkpt><trkpt lat="42.7188931113282" lon="2.8123512134828443"><ele>75.8</ele><time>2026-04-04T11:44:01Z</time></trkpt><trkpt lat="42.718916845445285" lon="2.812227557639435"><ele>76.0</ele><time>2026-04-04T11:44:02Z</time></trkpt><trkpt lat="42.71893611522585" lon="2.8121025415855887"><ele>76.0</ele><time>2026-04-04T11:44:03Z</time></trkpt><trkpt lat="42.71895822140738" lon="2.8119854601052334"><ele>76.0</ele><time>2026-04-04T11:44:04Z</time></trkpt><trkpt lat="42.71898128386101" lon="2.811871807036514"><ele>76.0</ele><time>2026-04-04T11:44:05Z</time></trkpt><trkpt lat="42.71900954901971" lon="2.811751168363154"><ele>76.0</ele><time>2026-04-04T11:44:06Z</time></trkpt><trkpt lat="42.71903156119482" lon="2.8116230289676087"><ele>76.0</ele><time>2026-04-04T11:44:07Z</time></trkpt><trkpt lat="42.71904317999515" lon="2.811497280150043"><ele>76.0</ele><time>2026-04-04T11:44:08Z</time></trkpt><trkpt lat="42.71905522938637" lon="2.811388817692308"><ele>76.0</ele><time>2026-04-04T11:44:09Z</time></trkpt><trkpt lat="42.71907352092778" lon="2.8112975600284997"><ele>76.0</ele><time>2026-04-04T11:44:10Z</time></trkpt><trkpt lat="42.71911209012192" lon="2.811139648454408"><ele>76.0</ele><time>2026-04-04T11:44:12Z</time></trkpt><trkpt lat="42.71914955525587" lon="2.8109948131696854"><ele>76.0</ele><time>2026-04-04T11:44:14Z</time></trkpt><trkpt lat="42.71919514154644" lon="2.810933476615586"><ele>76.0</ele><time>2026-04-04T11:44:15Z</time></trkpt><trkpt lat="42.719300501414295" lon="2.810858716999438"><ele>76.0</ele><time>2026-04-04T11:44:17Z</time></trkpt><trkpt lat="42.71938610765416" lon="2.8107463809385926"><ele>76.0</ele><time>2026-04-04T11:44:19Z</time></trkpt><trkpt lat="42.719413209734334" lon="2.8106688692766726"><ele>76.0</ele><time>2026-04-04T11:44:20Z</time></trkpt><trkpt lat="42.719443978255576" lon="2.8105854571535063"><ele>76.0</ele><time>2026-04-04T11:44:21Z</time></trkpt><trkpt lat="42.71950079868306" lon="2.810432664976383"><ele>76.0</ele><time>2026-04-04T11:44:23Z</time></trkpt><trkpt lat="42.719552493071255" lon="2.810281792116205"><ele>76.2</ele><time>2026-04-04T11:44:25Z</time></trkpt><trkpt lat="42.71959946968296" lon="2.810131891610391"><ele>76.39999999999999</ele><time>2026-04-04T11:44:27Z</time></trkpt><trkpt lat="42.71965360893838" lon="2.8100058140404163"><ele>76.6</ele><time>2026-04-04T11:44:29Z</time></trkpt><trkpt lat="42.719702911714315" lon="2.80988268195755"><ele>76.8</ele><time>2026-04-04T11:44:31Z</time></trkpt><trkpt lat="42.71973381008276" lon="2.809786825244778"><ele>77.0</ele><time>2026-04-04T11:44:33Z</time></trkpt><trkpt lat="42.71978747546867" lon="2.8096927317869302"><ele>77.0</ele><time>2026-04-04T11:44:36Z</time></trkpt><trkpt lat="42.719859646717325" lon="2.809717366529633"><ele>77.0</ele><time>2026-04-04T11:44:38Z</time></trkpt><trkpt lat="42.71992692639995" lon="2.809822928812051"><ele>77.0</ele><time>2026-04-04T11:44:40Z</time></trkpt><trkpt lat="42.71997545073668" lon="2.809883693086241"><ele>77.0</ele><time>2026-04-04T11:44:41Z</time></trkpt><trkpt lat="42.720027501920946" lon="2.8099461359362996"><ele>77.0</ele><time>2026-04-04T11:44:42Z</time></trkpt><trkpt lat="42.720075704828446" lon="2.8100154976754412"><ele>77.0</ele><time>2026-04-04T11:44:43Z</time></trkpt><trkpt lat="42.72012950191979" lon="2.8100949803813022"><ele>77.0</ele><time>2026-04-04T11:44:44Z</time></trkpt><trkpt lat="42.72019288069361" lon="2.8101859628199426"><ele>77.0</ele><time>2026-04-04T11:44:45Z</time></trkpt><trkpt lat="42.72025664185413" lon="2.8102706780333913"><ele>77.0</ele><time>2026-04-04T11:44:46Z</time></trkpt><trkpt lat="42.72034315268265" lon="2.810375559977831"><ele>77.0</ele><time>2026-04-04T11:44:47Z</time></trkpt><trkpt lat="42.72044964904609" lon="2.810503333602507"><ele>77.0</ele><time>2026-04-04T11:44:48Z</time></trkpt><trkpt lat="42.72052815619981" lon="2.810602320963023"><ele>77.6</ele><time>2026-04-04T11:44:49Z</time></trkpt><trkpt lat="42.72059486541847" lon="2.810677825441079"><ele>78.2</ele><time>2026-04-04T11:44:50Z</time></trkpt><trkpt lat="42.72071766166466" lon="2.8107406030203568"><ele>78.8</ele><time>2026-04-04T11:44:52Z</time></trkpt><trkpt lat="42.72080737947605" lon="2.810763073107274"><ele>79.4</ele><time>2026-04-04T11:44:53Z</time></trkpt><trkpt lat="42.720887662160855" lon="2.810778624083398"><ele>80.0</ele><time>2026-04-04T11:44:54Z</time></trkpt><trkpt lat="42.72095013806379" lon="2.810794992107776"><ele>80.0</ele><time>2026-04-04T11:44:55Z</time></trkpt><trkpt lat="42.72103752534356" lon="2.8107809225120612"><ele>80.0</ele><time>2026-04-04T11:44:57Z</time></trkpt><trkpt lat="42.7211568302982" lon="2.8107050678649195"><ele>80.0</ele><time>2026-04-04T11:44:59Z</time></trkpt><trkpt lat="42.721237169107475" lon="2.8106583948319375"><ele>80.0</ele><time>2026-04-04T11:45:00Z</time></trkpt><trkpt lat="42.72131632996224" lon="2.8106198636977067"><ele>80.0</ele><time>2026-04-04T11:45:01Z</time></trkpt><trkpt lat="42.72139331993626" lon="2.8105799888736587"><ele>80.0</ele><time>2026-04-04T11:45:02Z</time></trkpt><trkpt lat="42.72145964965012" lon="2.8105420152588376"><ele>80.0</ele><time>2026-04-04T11:45:03Z</time></trkpt><trkpt lat="42.721558216840705" lon="2.8105328941226286"><ele>80.0</ele><time>2026-04-04T11:45:05Z</time></trkpt><trkpt lat="42.72162411467779" lon="2.810481287041274"><ele>80.0</ele><time>2026-04-04T11:45:07Z</time></trkpt><trkpt lat="42.72167860916383" lon="2.810412285691695"><ele>80.0</ele><time>2026-04-04T11:45:08Z</time></trkpt><trkpt lat="42.72176681955978" lon="2.8103393910377825"><ele>80.0</ele><time>2026-04-04T11:45:09Z</time></trkpt><trkpt lat="42.72184464659704" lon="2.8102651711461086"><ele>80.0</ele><time>2026-04-04T11:45:10Z</time></trkpt><trkpt lat="42.72189485173918" lon="2.810200753795508"><ele>80.0</ele><time>2026-04-04T11:45:11Z</time></trkpt><trkpt lat="42.721963240589794" lon="2.8100933071318157"><ele>80.0</ele><time>2026-04-04T11:45:13Z</time></trkpt><trkpt lat="42.72201267837288" lon="2.8101503240105385"><ele>80.0</ele><time>2026-04-04T11:45:19Z</time></trkpt><trkpt lat="42.72206058699875" lon="2.810209557546656"><ele>80.0</ele><time>2026-04-04T11:45:23Z</time></trkpt><trkpt lat="42.72207374120897" lon="2.810078225553962"><ele>80.0</ele><time>2026-04-04T11:45:26Z</time></trkpt><trkpt lat="42.722060402581285" lon="2.809935165045438"><ele>80.16666666666667</ele><time>2026-04-04T11:45:27Z</time></trkpt><trkpt lat="42.72207274872142" lon="2.809842042152183"><ele>80.33333333333334</ele><time>2026-04-04T11:45:28Z</time></trkpt><trkpt lat="42.722133076784665" lon="2.8097104482225896"><ele>80.5</ele><time>2026-04-04T11:45:30Z</time></trkpt><trkpt lat="42.72218564867309" lon="2.809641275198714"><ele>80.66666666666667</ele><time>2026-04-04T11:45:31Z</time></trkpt><trkpt lat="42.722248393559006" lon="2.8094964171275025"><ele>80.83333333333333</ele><time>2026-04-04T11:45:33Z</time></trkpt><trkpt lat="42.72226024354898" lon="2.8094101968729137"><ele>81.0</ele><time>2026-04-04T11:45:34Z</time></trkpt><trkpt lat="42.72225935382646" lon="2.8093214006531135"><ele>81.19999999999999</ele><time>2026-04-04T11:45:35Z</time></trkpt><trkpt lat="42.722233394538264" lon="2.809194549816491"><ele>81.39999999999999</ele><time>2026-04-04T11:45:37Z</time></trkpt><trkpt lat="42.72215772630835" lon="2.8091255975516747"><ele>81.6</ele><time>2026-04-04T11:45:39Z</time></trkpt><trkpt lat="42.72205488230466" lon="2.809031351573421"><ele>81.8</ele><time>2026-04-04T11:45:41Z</time></trkpt><trkpt lat="42.72199833536881" lon="2.808959332506743"><ele>82.0</ele><time>2026-04-04T11:45:42Z</time></trkpt><trkpt lat="42.72193299109713" lon="2.808844174758542"><ele>82.0</ele><time>2026-04-04T11:45:44Z</time></trkpt><trkpt lat="42.72194474400143" lon="2.8087171927738495"><ele>82.0</ele><time>2026-04-04T11:45:46Z</time></trkpt><trkpt lat="42.72200718045241" lon="2.8086396939836127"><ele>82.0</ele><time>2026-04-04T11:45:49Z</time></trkpt><trkpt lat="42.722088259206515" lon="2.808655836451151"><ele>82.0</ele><time>2026-04-04T11:45:51Z</time></trkpt><trkpt lat="42.72215171351343" lon="2.808657753328867"><ele>82.0</ele><time>2026-04-04T11:45:52Z</time></trkpt><trkpt lat="42.72224963811702" lon="2.8086809592493585"><ele>82.0</ele><time>2026-04-04T11:45:54Z</time></trkpt><trkpt lat="42.72234639614415" lon="2.8086767718888286"><ele>82.0</ele><time>2026-04-04T11:45:56Z</time></trkpt><trkpt lat="42.722393567473375" lon="2.808616067772695"><ele>82.0</ele><time>2026-04-04T11:45:58Z</time></trkpt><trkpt lat="42.72242458746052" lon="2.808486347712341"><ele>82.0</ele><time>2026-04-04T11:46:00Z</time></trkpt><trkpt lat="42.72244150159697" lon="2.8083977382204623"><ele>82.0</ele><time>2026-04-04T11:46:01Z</time></trkpt><trkpt lat="42.72246849993662" lon="2.8082992095855377"><ele>82.0</ele><time>2026-04-04T11:46:02Z</time></trkpt><trkpt lat="42.722498443999875" lon="2.8081766317480867"><ele>82.0</ele><time>2026-04-04T11:46:03Z</time></trkpt><trkpt lat="42.72252102329808" lon="2.808073292259534"><ele>82.19999999999999</ele><time>2026-04-04T11:46:04Z</time></trkpt><trkpt lat="42.7225381733293" lon="2.8079887018162726"><ele>82.4</ele><time>2026-04-04T11:46:05Z</time></trkpt><trkpt lat="42.7225628064602" lon="2.8079005916239193"><ele>82.6</ele><time>2026-04-04T11:46:06Z</time></trkpt><trkpt lat="42.7225785558129" lon="2.807813691784139"><ele>82.80000000000001</ele><time>2026-04-04T11:46:07Z</time></trkpt><trkpt lat="42.722590838609726" lon="2.807644793585669"><ele>83.0</ele><time>2026-04-04T11:46:09Z</time></trkpt><trkpt lat="42.722680091743705" lon="2.8075130962374173"><ele>83.0</ele><time>2026-04-04T11:46:11Z</time></trkpt><trkpt lat="42.7227327555454" lon="2.8074626487721184"><ele>83.0</ele><time>2026-04-04T11:46:12Z</time></trkpt><trkpt lat="42.722789234969675" lon="2.8073424392542323"><ele>83.0</ele><time>2026-04-04T11:46:14Z</time></trkpt><trkpt lat="42.72276232291303" lon="2.8071902185657094"><ele>83.0</ele><time>2026-04-04T11:46:16Z</time></trkpt><trkpt lat="42.722718443534745" lon="2.8071162613360148"><ele>83.0</ele><time>2026-04-04T11:46:17Z</time></trkpt><trkpt lat="42.72265670626784" lon="2.8070426699521276"><ele>83.0</ele><time>2026-04-04T11:46:18Z</time></trkpt><trkpt lat="42.722571840389136" lon="2.8069380657661056"><ele>83.0</ele><time>2026-04-04T11:46:19Z</time></trkpt><trkpt lat="42.72249538857256" lon="2.8068303558629952"><ele>83.0</ele><time>2026-04-04T11:46:20Z</time></trkpt><trkpt lat="42.72244007207261" lon="2.806741975268061"><ele>83.0</ele><time>2026-04-04T11:46:21Z</time></trkpt><trkpt lat="42.72238537971649" lon="2.806666100373741"><ele>83.0</ele><time>2026-04-04T11:46:22Z</time></trkpt><trkpt lat="42.72232432065437" lon="2.806528553805764"><ele>83.0</ele><time>2026-04-04T11:46:24Z</time></trkpt><trkpt lat="42.722334475308685" lon="2.806439692770268"><ele>83.0</ele><time>2026-04-04T11:46:25Z</time></trkpt><trkpt lat="42.72236985108193" lon="2.806329312382899"><ele>83.0</ele><time>2026-04-04T11:46:26Z</time></trkpt><trkpt lat="42.72241084248768" lon="2.8062109939803292"><ele>83.0</ele><time>2026-04-04T11:46:27Z</time></trkpt><trkpt lat="42.72244330065866" lon="2.806108292428951"><ele>83.0</ele><time>2026-04-04T11:46:28Z</time></trkpt><trkpt lat="42.722459399688866" lon="2.8060075673698583"><ele>83.0</ele><time>2026-04-04T11:46:29Z</time></trkpt><trkpt lat="42.72245239620183" lon="2.805916202645679"><ele>83.0</ele><time>2026-04-04T11:46:30Z</time></trkpt><trkpt lat="42.72242597942778" lon="2.805826795252808"><ele>83.0</ele><time>2026-04-04T11:46:31Z</time></trkpt><trkpt lat="42.72237703450587" lon="2.805720975914551"><ele>83.0</ele><time>2026-04-04T11:46:32Z</time></trkpt><trkpt lat="42.722322739655326" lon="2.8056165628648433"><ele>83.0</ele><time>2026-04-04T11:46:33Z</time></trkpt><trkpt lat="42.722280106298804" lon="2.8055242779435545"><ele>83.0</ele><time>2026-04-04T11:46:34Z</time></trkpt><trkpt lat="42.722254863000664" lon="2.8054116551161785"><ele>83.0</ele><time>2026-04-04T11:46:36Z</time></trkpt><trkpt lat="42.72231108914878" lon="2.805305639337721"><ele>83.0</ele><time>2026-04-04T11:46:38Z</time></trkpt><trkpt lat="42.722366633745104" lon="2.8052262020149827"><ele>83.2</ele><time>2026-04-04T11:46:39Z</time></trkpt><trkpt lat="42.72243604757088" lon="2.805114251569315"><ele>83.4</ele><time>2026-04-04T11:46:40Z</time></trkpt><trkpt lat="42.72250746349933" lon="2.804990006968731"><ele>83.60000000000001</ele><time>2026-04-04T11:46:41Z</time></trkpt><trkpt lat="42.72256967340136" lon="2.8048691386185114"><ele>83.80000000000001</ele><time>2026-04-04T11:46:42Z</time></trkpt><trkpt lat="42.72262123788561" lon="2.8047746893828127"><ele>84.0</ele><time>2026-04-04T11:46:43Z</time></trkpt><trkpt lat="42.72266339466958" lon="2.8046945012567717"><ele>84.0</ele><time>2026-04-04T11:46:44Z</time></trkpt><trkpt lat="42.7227048008645" lon="2.8046026846682115"><ele>84.0</ele><time>2026-04-04T11:46:45Z</time></trkpt><trkpt lat="42.72273648256714" lon="2.8045039381827963"><ele>84.0</ele><time>2026-04-04T11:46:46Z</time></trkpt><trkpt lat="42.72277332599792" lon="2.8043764540098617"><ele>84.0</ele><time>2026-04-04T11:46:47Z</time></trkpt><trkpt lat="42.72280930661143" lon="2.8042787087859957"><ele>84.0</ele><time>2026-04-04T11:46:48Z</time></trkpt><trkpt lat="42.72285311502764" lon="2.804193026270653"><ele>84.0</ele><time>2026-04-04T11:46:49Z</time></trkpt><trkpt lat="42.72290565813408" lon="2.8040927401521354"><ele>84.6</ele><time>2026-04-04T11:46:50Z</time></trkpt><trkpt lat="42.72296580043026" lon="2.8039938968222824"><ele>85.2</ele><time>2026-04-04T11:46:51Z</time></trkpt><trkpt lat="42.72302788059314" lon="2.8038815445484224"><ele>85.8</ele><time>2026-04-04T11:46:52Z</time></trkpt><trkpt lat="42.723082428437856" lon="2.803772821831261"><ele>86.39999999999999</ele><time>2026-04-04T11:46:53Z</time></trkpt><trkpt lat="42.723137189990375" lon="2.8036846864127973"><ele>87.0</ele><time>2026-04-04T11:46:54Z</time></trkpt><trkpt lat="42.72319194446297" lon="2.803594939556331"><ele>87.0</ele><time>2026-04-04T11:46:55Z</time></trkpt><trkpt lat="42.723237486600134" lon="2.8035164313320466"><ele>87.0</ele><time>2026-04-04T11:46:56Z</time></trkpt><trkpt lat="42.72327338967435" lon="2.8034448487845642"><ele>87.0</ele><time>2026-04-04T11:46:57Z</time></trkpt><trkpt lat="42.723329520601666" lon="2.8033312488037803"><ele>87.0</ele><time>2026-04-04T11:46:59Z</time></trkpt><trkpt lat="42.72337621619452" lon="2.8032051217238902"><ele>87.0</ele><time>2026-04-04T11:47:01Z</time></trkpt><trkpt lat="42.72339193557712" lon="2.8031155967234946"><ele>87.0</ele><time>2026-04-04T11:47:03Z</time></trkpt><trkpt lat="42.72339799952978" lon="2.803017924837091"><ele>87.0</ele><time>2026-04-04T11:47:14Z</time></trkpt><trkpt lat="42.72329681981788" lon="2.8029904841324544"><ele>87.0</ele><time>2026-04-04T11:47:16Z</time></trkpt><trkpt lat="42.72322792468156" lon="2.8030105599271797"><ele>87.0</ele><time>2026-04-04T11:47:17Z</time></trkpt><trkpt lat="42.723162269607656" lon="2.8029996121008534"><ele>87.0</ele><time>2026-04-04T11:47:18Z</time></trkpt><trkpt lat="42.72308074519156" lon="2.802993454063109"><ele>87.0</ele><time>2026-04-04T11:47:19Z</time></trkpt><trkpt lat="42.722998148977545" lon="2.802989328737318"><ele>87.0</ele><time>2026-04-04T11:47:20Z</time></trkpt><trkpt lat="42.722912546276284" lon="2.802986243269924"><ele>87.0</ele><time>2026-04-04T11:47:21Z</time></trkpt><trkpt lat="42.72282761518661" lon="2.8029834633765263"><ele>87.0</ele><time>2026-04-04T11:47:22Z</time></trkpt><trkpt lat="42.72274103672688" lon="2.8029738671213438"><ele>87.0</ele><time>2026-04-04T11:47:23Z</time></trkpt><trkpt lat="42.72265378644108" lon="2.8029604813539004"><ele>87.0</ele><time>2026-04-04T11:47:24Z</time></trkpt><trkpt lat="42.72257412086531" lon="2.8029552143409413"><ele>87.0</ele><time>2026-04-04T11:47:25Z</time></trkpt><trkpt lat="42.72249855806595" lon="2.8029554338474747"><ele>87.0</ele><time>2026-04-04T11:47:26Z</time></trkpt><trkpt lat="42.7224222112402" lon="2.8029483509842708"><ele>86.5</ele><time>2026-04-04T11:47:27Z</time></trkpt><trkpt lat="42.72234318506481" lon="2.802937750340218"><ele>86.0</ele><time>2026-04-04T11:47:28Z</time></trkpt><trkpt lat="42.72226483125857" lon="2.8029309045526123"><ele>85.5</ele><time>2026-04-04T11:47:29Z</time></trkpt><trkpt lat="42.72218528609822" lon="2.802932349971765"><ele>85.0</ele><time>2026-04-04T11:47:30Z</time></trkpt><trkpt lat="42.7221024820432" lon="2.8029269007527646"><ele>84.5</ele><time>2026-04-04T11:47:31Z</time></trkpt><trkpt lat="42.72201651459756" lon="2.802914653907878"><ele>84.0</ele><time>2026-04-04T11:47:32Z</time></trkpt><trkpt lat="42.72192757043572" lon="2.8029076208242283"><ele>83.6</ele><time>2026-04-04T11:47:33Z</time></trkpt><trkpt lat="42.72183602682241" lon="2.8029028616842244"><ele>83.2</ele><time>2026-04-04T11:47:34Z</time></trkpt><trkpt lat="42.721733593303796" lon="2.802898824772218"><ele>82.8</ele><time>2026-04-04T11:47:35Z</time></trkpt><trkpt lat="42.72162852880722" lon="2.8028891414736954"><ele>82.39999999999999</ele><time>2026-04-04T11:47:36Z</time></trkpt><trkpt lat="42.72153251117251" lon="2.8028820662866427"><ele>82.0</ele><time>2026-04-04T11:47:37Z</time></trkpt><trkpt lat="42.721436644428245" lon="2.8028739921444052"><ele>82.0</ele><time>2026-04-04T11:47:38Z</time></trkpt><trkpt lat="42.721341834803795" lon="2.8028663073173665"><ele>82.0</ele><time>2026-04-04T11:47:39Z</time></trkpt><trkpt lat="42.721248761571246" lon="2.8028650562126454"><ele>82.0</ele><time>2026-04-04T11:47:40Z</time></trkpt><trkpt lat="42.721155857447116" lon="2.802860927890366"><ele>82.0</ele><time>2026-04-04T11:47:41Z</time></trkpt><trkpt lat="42.72106146978208" lon="2.802854335919116"><ele>82.0</ele><time>2026-04-04T11:47:42Z</time></trkpt><trkpt lat="42.720967584223516" lon="2.8028423760434347"><ele>81.8</ele><time>2026-04-04T11:47:43Z</time></trkpt><trkpt lat="42.72087459711241" lon="2.8028370786706303"><ele>81.6</ele><time>2026-04-04T11:47:44Z</time></trkpt><trkpt lat="42.72078592538058" lon="2.80283319487833"><ele>81.39999999999999</ele><time>2026-04-04T11:47:45Z</time></trkpt><trkpt lat="42.7206722718986" lon="2.802827227662798"><ele>81.19999999999999</ele><time>2026-04-04T11:47:46Z</time></trkpt><trkpt lat="42.720566542107846" lon="2.8028175896569234"><ele>81.0</ele><time>2026-04-04T11:47:47Z</time></trkpt><trkpt lat="42.72047759511711" lon="2.8028105218556125"><ele>81.0</ele><time>2026-04-04T11:47:48Z</time></trkpt><trkpt lat="42.720402106707" lon="2.802796430943501"><ele>81.0</ele><time>2026-04-04T11:47:49Z</time></trkpt><trkpt lat="42.72024514275201" lon="2.8028005115377446"><ele>81.0</ele><time>2026-04-04T11:47:50Z</time></trkpt><trkpt lat="42.720136471811585" lon="2.8027886693154653"><ele>81.0</ele><time>2026-04-04T11:47:51Z</time></trkpt><trkpt lat="42.720023956035774" lon="2.8027797744636787"><ele>80.8</ele><time>2026-04-04T11:47:52Z</time></trkpt><trkpt lat="42.71991049468437" lon="2.802774479365662"><ele>80.6</ele><time>2026-04-04T11:47:53Z</time></trkpt><trkpt lat="42.719789926037" lon="2.8027658183413213"><ele>80.4</ele><time>2026-04-04T11:47:54Z</time></trkpt><trkpt lat="42.719669974357366" lon="2.802758586416087"><ele>80.2</ele><time>2026-04-04T11:47:55Z</time></trkpt><trkpt lat="42.719580122751644" lon="2.802753990030882"><ele>80.0</ele><time>2026-04-04T11:47:56Z</time></trkpt><trkpt lat="42.71950111538638" lon="2.8027395850633816"><ele>80.0</ele><time>2026-04-04T11:47:58Z</time></trkpt><trkpt lat="42.7195532966758" lon="2.802684244993421"><ele>80.0</ele><time>2026-04-04T11:48:15Z</time></trkpt><trkpt lat="42.7195984565506" lon="2.802503328004627"><ele>80.0</ele><time>2026-04-04T11:48:17Z</time></trkpt><trkpt lat="42.719627300990666" lon="2.8023692450879967"><ele>80.0</ele><time>2026-04-04T11:48:19Z</time></trkpt><trkpt lat="42.7196554454337" lon="2.8022647797104416"><ele>80.0</ele><time>2026-04-04T11:48:21Z</time></trkpt><trkpt lat="42.71968582864924" lon="2.8021196553553884"><ele>80.6</ele><time>2026-04-04T11:48:23Z</time></trkpt><trkpt lat="42.7197265417573" lon="2.8019726377996257"><ele>81.2</ele><time>2026-04-04T11:48:25Z</time></trkpt><trkpt lat="42.71977495638173" lon="2.801836846300335"><ele>81.80000000000001</ele><time>2026-04-04T11:48:27Z</time></trkpt><trkpt lat="42.71983276856353" lon="2.8017234059998235"><ele>82.4</ele><time>2026-04-04T11:48:29Z</time></trkpt><trkpt lat="42.71990745830271" lon="2.801619683023284"><ele>83.0</ele><time>2026-04-04T11:48:31Z</time></trkpt><trkpt lat="42.72000870077859" lon="2.801542128866971"><ele>83.4</ele><time>2026-04-04T11:48:33Z</time></trkpt><trkpt lat="42.7201134832756" lon="2.8014734512813626"><ele>83.80000000000001</ele><time>2026-04-04T11:48:35Z</time></trkpt><trkpt lat="42.72017567565599" lon="2.801434445739295"><ele>84.2</ele><time>2026-04-04T11:48:36Z</time></trkpt><trkpt lat="42.720248920920206" lon="2.8013828936226126"><ele>84.6</ele><time>2026-04-04T11:48:37Z</time></trkpt><trkpt lat="42.72033231093343" lon="2.8013112795469834"><ele>85.0</ele><time>2026-04-04T11:48:38Z</time></trkpt><trkpt lat="42.720407260605654" lon="2.801239482377766"><ele>85.0</ele><time>2026-04-04T11:48:39Z</time></trkpt><trkpt lat="42.72046255742662" lon="2.801189832129837"><ele>85.0</ele><time>2026-04-04T11:48:40Z</time></trkpt><trkpt lat="42.72055147439027" lon="2.8011274992046196"><ele>85.0</ele><time>2026-04-04T11:48:42Z</time></trkpt><trkpt lat="42.7206645609687" lon="2.8010725656009017"><ele>85.0</ele><time>2026-04-04T11:48:44Z</time></trkpt><trkpt lat="42.72073312463668" lon="2.8010331483963755"><ele>85.0</ele><time>2026-04-04T11:48:45Z</time></trkpt><trkpt lat="42.72079473021617" lon="2.801000060891736"><ele>85.0</ele><time>2026-04-04T11:48:46Z</time></trkpt><trkpt lat="42.72089692596945" lon="2.800933551067204"><ele>84.8</ele><time>2026-04-04T11:48:48Z</time></trkpt><trkpt lat="42.72099639176722" lon="2.800860344534598"><ele>84.6</ele><time>2026-04-04T11:48:50Z</time></trkpt><trkpt lat="42.72109155818745" lon="2.8007947557586212"><ele>84.4</ele><time>2026-04-04T11:48:52Z</time></trkpt><trkpt lat="42.721171271961616" lon="2.8007244360206642"><ele>84.2</ele><time>2026-04-04T11:48:54Z</time></trkpt><trkpt lat="42.72122442432384" lon="2.8006612463249434"><ele>84.0</ele><time>2026-04-04T11:48:56Z</time></trkpt><trkpt lat="42.721268946115934" lon="2.8005877295824346"><ele>84.0</ele><time>2026-04-04T11:48:58Z</time></trkpt><trkpt lat="42.72130732434245" lon="2.8005034183092126"><ele>84.0</ele><time>2026-04-04T11:49:00Z</time></trkpt><trkpt lat="42.72134247436458" lon="2.800402011250041"><ele>84.0</ele><time>2026-04-04T11:49:03Z</time></trkpt><trkpt lat="42.72138471495566" lon="2.800318963016961"><ele>84.0</ele><time>2026-04-04T11:49:13Z</time></trkpt><trkpt lat="42.72134319323809" lon="2.8004033563465973"><ele>84.0</ele><time>2026-04-04T11:49:25Z</time></trkpt><trkpt lat="42.72129581675882" lon="2.8005103614565607"><ele>84.0</ele><time>2026-04-04T11:49:27Z</time></trkpt><trkpt lat="42.72126351642276" lon="2.8005880967329464"><ele>84.0</ele><time>2026-04-04T11:49:29Z</time></trkpt><trkpt lat="42.721195105430475" lon="2.8006853097400555"><ele>84.0</ele><time>2026-04-04T11:49:31Z</time></trkpt><trkpt lat="42.7211318754934" lon="2.8007571874927017"><ele>84.0</ele><time>2026-04-04T11:49:33Z</time></trkpt><trkpt lat="42.72105988746313" lon="2.80082381146927"><ele>84.0</ele><time>2026-04-04T11:49:35Z</time></trkpt><trkpt lat="42.72094872801464" lon="2.8008983758083454"><ele>84.0</ele><time>2026-04-04T11:49:37Z</time></trkpt><trkpt lat="42.72088704147462" lon="2.8009359153033215"><ele>84.2</ele><time>2026-04-04T11:49:38Z</time></trkpt><trkpt lat="42.720799812619425" lon="2.800978055399826"><ele>84.4</ele><time>2026-04-04T11:49:39Z</time></trkpt><trkpt lat="42.72069330385457" lon="2.8010439424473583"><ele>84.6</ele><time>2026-04-04T11:49:41Z</time></trkpt><trkpt lat="42.720564363471475" lon="2.801121242179619"><ele>84.8</ele><time>2026-04-04T11:49:43Z</time></trkpt><trkpt lat="42.720500379203735" lon="2.8011668293239644"><ele>85.0</ele><time>2026-04-04T11:49:44Z</time></trkpt><trkpt lat="42.720395472672834" lon="2.8012393276939935"><ele>85.0</ele><time>2026-04-04T11:49:46Z</time></trkpt><trkpt lat="42.72031754574894" lon="2.80131657538744"><ele>85.0</ele><time>2026-04-04T11:49:48Z</time></trkpt><trkpt lat="42.72024411177113" lon="2.801389168843218"><ele>85.0</ele><time>2026-04-04T11:49:50Z</time></trkpt><trkpt lat="42.720174284528746" lon="2.80143373357004"><ele>85.0</ele><time>2026-04-04T11:49:52Z</time></trkpt><trkpt lat="42.720113051379876" lon="2.8014825720322434"><ele>85.0</ele><time>2026-04-04T11:49:54Z</time></trkpt><trkpt lat="42.72002933605181" lon="2.801534134450436"><ele>85.0</ele><time>2026-04-04T11:49:57Z</time></trkpt><trkpt lat="42.719967613959895" lon="2.801574479787611"><ele>85.33333333333333</ele><time>2026-04-04T11:49:59Z</time></trkpt><trkpt lat="42.71989895833963" lon="2.801626878732965"><ele>85.66666666666666</ele><time>2026-04-04T11:50:01Z</time></trkpt><trkpt lat="42.719839510410424" lon="2.8017102920361237"><ele>86.0</ele><time>2026-04-04T11:50:03Z</time></trkpt><trkpt lat="42.71978951273639" lon="2.801798766360035"><ele>86.33333333333333</ele><time>2026-04-04T11:50:05Z</time></trkpt><trkpt lat="42.719752123481754" lon="2.8018999379517293"><ele>86.66666666666667</ele><time>2026-04-04T11:50:07Z</time></trkpt><trkpt lat="42.7197163565891" lon="2.8019992379201364"><ele>87.0</ele><time>2026-04-04T11:50:09Z</time></trkpt><trkpt lat="42.71968852287996" lon="2.8021150504132417"><ele>86.42857142857143</ele><time>2026-04-04T11:50:11Z</time></trkpt><trkpt lat="42.71966275823467" lon="2.80222750374694"><ele>85.85714285714286</ele><time>2026-04-04T11:50:13Z</time></trkpt><trkpt lat="42.71964349503846" lon="2.802325765718067"><ele>85.28571428571428</ele><time>2026-04-04T11:50:15Z</time></trkpt><trkpt lat="42.719621322596566" lon="2.80241831318742"><ele>84.71428571428572</ele><time>2026-04-04T11:50:17Z</time></trkpt><trkpt lat="42.719598970877826" lon="2.802504853436833"><ele>84.14285714285715</ele><time>2026-04-04T11:50:19Z</time></trkpt><trkpt lat="42.719571899543915" lon="2.8026078227487607"><ele>83.57142857142857</ele><time>2026-04-04T11:50:21Z</time></trkpt><trkpt lat="42.71955908959858" lon="2.8026972680035227"><ele>83.0</ele><time>2026-04-04T11:50:24Z</time></trkpt><trkpt lat="42.71950310438572" lon="2.802752611298145"><ele>82.60000000000001</ele><time>2026-04-04T11:50:30Z</time></trkpt><trkpt lat="42.719397451784474" lon="2.8027751429205274"><ele>82.2</ele><time>2026-04-04T11:50:32Z</time></trkpt><trkpt lat="42.7192764250572" lon="2.8027574641448503"><ele>81.8</ele><time>2026-04-04T11:50:34Z</time></trkpt><trkpt lat="42.71919832102375" lon="2.802744063007277"><ele>81.4</ele><time>2026-04-04T11:50:35Z</time></trkpt><trkpt lat="42.719107438434804" lon="2.8027350637223907"><ele>81.0</ele><time>2026-04-04T11:50:36Z</time></trkpt><trkpt lat="42.71901943394622" lon="2.8027339496707175"><ele>81.0</ele><time>2026-04-04T11:50:37Z</time></trkpt><trkpt lat="42.71893003958989" lon="2.802724055481664"><ele>81.0</ele><time>2026-04-04T11:50:38Z</time></trkpt><trkpt lat="42.71883909185863" lon="2.8027104281676567"><ele>81.0</ele><time>2026-04-04T11:50:39Z</time></trkpt><trkpt lat="42.718748366924686" lon="2.8026864785257057"><ele>81.0</ele><time>2026-04-04T11:50:40Z</time></trkpt><trkpt lat="42.71865798922727" lon="2.8026536150326122"><ele>81.0</ele><time>2026-04-04T11:50:41Z</time></trkpt><trkpt lat="42.71857032805766" lon="2.8026104536124503"><ele>81.0</ele><time>2026-04-04T11:50:42Z</time></trkpt><trkpt lat="42.718486915762554" lon="2.802552248254751"><ele>81.0</ele><time>2026-04-04T11:50:43Z</time></trkpt><trkpt lat="42.71840693489357" lon="2.8024836019557444"><ele>81.0</ele><time>2026-04-04T11:50:44Z</time></trkpt><trkpt lat="42.7183280266143" lon="2.802408811607365"><ele>81.0</ele><time>2026-04-04T11:50:45Z</time></trkpt><trkpt lat="42.718245210651965" lon="2.8023368183549953"><ele>81.0</ele><time>2026-04-04T11:50:46Z</time></trkpt><trkpt lat="42.71815499364777" lon="2.8022597454747755"><ele>81.0</ele><time>2026-04-04T11:50:47Z</time></trkpt><trkpt lat="42.71806887005356" lon="2.8021775516834735"><ele>81.0</ele><time>2026-04-04T11:50:48Z</time></trkpt><trkpt lat="42.71797818484383" lon="2.802083053969432"><ele>81.0</ele><time>2026-04-04T11:50:49Z</time></trkpt><trkpt lat="42.7178816374664" lon="2.8019868859535606"><ele>81.0</ele><time>2026-04-04T11:50:50Z</time></trkpt><trkpt lat="42.71778391353358" lon="2.801905393604065"><ele>81.16666666666667</ele><time>2026-04-04T11:50:51Z</time></trkpt><trkpt lat="42.71769419089373" lon="2.8018199321792716"><ele>81.33333333333333</ele><time>2026-04-04T11:50:52Z</time></trkpt><trkpt lat="42.71761544415264" lon="2.801743233028183"><ele>81.5</ele><time>2026-04-04T11:50:53Z</time></trkpt><trkpt lat="42.717546307189" lon="2.8016702207724506"><ele>81.66666666666666</ele><time>2026-04-04T11:50:54Z</time></trkpt><trkpt lat="42.717486318865966" lon="2.801600542863031"><ele>81.83333333333333</ele><time>2026-04-04T11:50:55Z</time></trkpt><trkpt lat="42.717427180629215" lon="2.8015404062214446"><ele>82.0</ele><time>2026-04-04T11:50:56Z</time></trkpt><trkpt lat="42.717372598357954" lon="2.801475156069552"><ele>82.0</ele><time>2026-04-04T11:50:57Z</time></trkpt><trkpt lat="42.7173153197543" lon="2.801416703498185"><ele>82.0</ele><time>2026-04-04T11:50:58Z</time></trkpt><trkpt lat="42.717259922021846" lon="2.8013494733649087"><ele>82.0</ele><time>2026-04-04T11:50:59Z</time></trkpt><trkpt lat="42.71721638762833" lon="2.801254986838518"><ele>82.0</ele><time>2026-04-04T11:51:00Z</time></trkpt><trkpt lat="42.71722057292703" lon="2.8010445976972367"><ele>82.0</ele><time>2026-04-04T11:51:02Z</time></trkpt><trkpt lat="42.717260229838374" lon="2.800922111157413"><ele>82.19999999999999</ele><time>2026-04-04T11:51:03Z</time></trkpt><trkpt lat="42.717317389507414" lon="2.800798713568373"><ele>82.4</ele><time>2026-04-04T11:51:04Z</time></trkpt><trkpt lat="42.71737805793492" lon="2.800682499870821"><ele>82.6</ele><time>2026-04-04T11:51:05Z</time></trkpt><trkpt lat="42.71743999484913" lon="2.800549663076332"><ele>82.80000000000001</ele><time>2026-04-04T11:51:06Z</time></trkpt><trkpt lat="42.717495613985186" lon="2.800404192543934"><ele>83.0</ele><time>2026-04-04T11:51:07Z</time></trkpt><trkpt lat="42.7175531810865" lon="2.8002687647857383"><ele>83.25</ele><time>2026-04-04T11:51:08Z</time></trkpt><trkpt lat="42.717615147545494" lon="2.8001192590726376"><ele>83.5</ele><time>2026-04-04T11:51:09Z</time></trkpt><trkpt lat="42.717676545223924" lon="2.7999739765585683"><ele>83.75</ele><time>2026-04-04T11:51:10Z</time></trkpt><trkpt lat="42.71773385626214" lon="2.799836865709854"><ele>84.0</ele><time>2026-04-04T11:51:11Z</time></trkpt><trkpt lat="42.7177952284556" lon="2.79969340154814"><ele>84.5</ele><time>2026-04-04T11:51:12Z</time></trkpt><trkpt lat="42.71785687481696" lon="2.7995472380636093"><ele>85.0</ele><time>2026-04-04T11:51:13Z</time></trkpt><trkpt lat="42.71791765634416" lon="2.799406718156251"><ele>85.5</ele><time>2026-04-04T11:51:14Z</time></trkpt><trkpt lat="42.717981547956136" lon="2.799258234871473"><ele>86.0</ele><time>2026-04-04T11:51:15Z</time></trkpt><trkpt lat="42.71804501317158" lon="2.7991011237550047"><ele>86.5</ele><time>2026-04-04T11:51:16Z</time></trkpt><trkpt lat="42.718109868647815" lon="2.798943408266456"><ele>87.0</ele><time>2026-04-04T11:51:17Z</time></trkpt><trkpt lat="42.71817691749367" lon="2.798779884911524"><ele>87.5</ele><time>2026-04-04T11:51:18Z</time></trkpt><trkpt lat="42.718248243140465" lon="2.798619814713583"><ele>88.0</ele><time>2026-04-04T11:51:19Z</time></trkpt><trkpt lat="42.71832905473389" lon="2.798451263799061"><ele>88.33333333333333</ele><time>2026-04-04T11:51:20Z</time></trkpt><trkpt lat="42.71842525285874" lon="2.7982489911294928"><ele>88.66666666666667</ele><time>2026-04-04T11:51:21Z</time></trkpt><trkpt lat="42.718547643475894" lon="2.798014666820341"><ele>89.0</ele><time>2026-04-04T11:51:22Z</time></trkpt><trkpt lat="42.7186896720425" lon="2.797761275963005"><ele>90.66666666666667</ele><time>2026-04-04T11:51:23Z</time></trkpt><trkpt lat="42.71874127533159" lon="2.7976250415286845"><ele>92.33333333333333</ele><time>2026-04-04T11:51:25Z</time></trkpt><trkpt lat="42.718852661811525" lon="2.7974356370754783"><ele>94.0</ele><time>2026-04-04T11:51:26Z</time></trkpt><trkpt lat="42.71897251736128" lon="2.797230517632659"><ele>94.0</ele><time>2026-04-04T11:51:27Z</time></trkpt><trkpt lat="42.719102715981045" lon="2.797016078868122"><ele>94.0</ele><time>2026-04-04T11:51:28Z</time></trkpt><trkpt lat="42.719215816000805" lon="2.79682349067618"><ele>94.0</ele><time>2026-04-04T11:51:29Z</time></trkpt><trkpt lat="42.719309951813166" lon="2.79666662012489"><ele>94.0</ele><time>2026-04-04T11:51:30Z</time></trkpt><trkpt lat="42.719381530789356" lon="2.7965574869060448"><ele>94.0</ele><time>2026-04-04T11:51:31Z</time></trkpt><trkpt lat="42.719430292393945" lon="2.7964772717707644"><ele>94.0</ele><time>2026-04-04T11:51:32Z</time></trkpt><trkpt lat="42.719462057204034" lon="2.796386759597296"><ele>94.0</ele><time>2026-04-04T11:51:33Z</time></trkpt><trkpt lat="42.71951948936016" lon="2.7962643604902144"><ele>94.0</ele><time>2026-04-04T11:51:35Z</time></trkpt><trkpt lat="42.71957302441954" lon="2.7961167958985187"><ele>95.6</ele><time>2026-04-04T11:51:37Z</time></trkpt><trkpt lat="42.71961865091078" lon="2.795980882742197"><ele>97.2</ele><time>2026-04-04T11:51:39Z</time></trkpt><trkpt lat="42.719666149595476" lon="2.795812535024172"><ele>98.8</ele><time>2026-04-04T11:51:41Z</time></trkpt><trkpt lat="42.719704087691014" lon="2.7956617634289374"><ele>100.39999999999999</ele><time>2026-04-04T11:51:43Z</time></trkpt><trkpt lat="42.71972633064125" lon="2.7955648517448672"><ele>102.0</ele><time>2026-04-04T11:51:44Z</time></trkpt><trkpt lat="42.71975925786344" lon="2.79540784030113"><ele>102.0</ele><time>2026-04-04T11:51:46Z</time></trkpt><trkpt lat="42.7197828998788" lon="2.7952951046338295"><ele>102.0</ele><time>2026-04-04T11:51:48Z</time></trkpt><trkpt lat="42.71980191690487" lon="2.7952044230515254"><ele>102.0</ele><time>2026-04-04T11:51:50Z</time></trkpt><trkpt lat="42.71947417470339" lon="2.795147883750014"><ele>102.0</ele><time>2026-04-04T11:51:55Z</time></trkpt><trkpt lat="42.719453622276156" lon="2.7952362661077244"><ele>102.0</ele><time>2026-04-04T11:51:57Z</time></trkpt><trkpt lat="42.71940449033037" lon="2.7953060133163006"><ele>102.0</ele><time>2026-04-04T11:52:00Z</time></trkpt><trkpt lat="42.71932537566837" lon="2.795176410630525"><ele>102.0</ele><time>2026-04-04T11:52:05Z</time></trkpt><trkpt lat="42.71929330612127" lon="2.795033720550665"><ele>102.0</ele><time>2026-04-04T11:52:06Z</time></trkpt><trkpt lat="42.71925706372629" lon="2.794915696137147"><ele>102.39999999999999</ele><time>2026-04-04T11:52:08Z</time></trkpt><trkpt lat="42.719180911397174" lon="2.7947937484693144"><ele>102.8</ele><time>2026-04-04T11:52:11Z</time></trkpt><trkpt lat="42.71911667877957" lon="2.7947207005500903"><ele>103.2</ele><time>2026-04-04T11:52:12Z</time></trkpt><trkpt lat="42.719055244676895" lon="2.794658959535769"><ele>103.6</ele><time>2026-04-04T11:52:14Z</time></trkpt><trkpt lat="42.71900893256484" lon="2.7945960021051275"><ele>104.0</ele><time>2026-04-04T11:52:18Z</time></trkpt><trkpt lat="42.719104067690616" lon="2.794687263385683"><ele>103.99999999999999</ele><time>2026-04-04T11:52:28Z</time></trkpt><trkpt lat="42.71915930246203" lon="2.7947761562542173"><ele>104.0</ele><time>2026-04-04T11:52:29Z</time></trkpt><trkpt lat="42.71921102208637" lon="2.7948506442376893"><ele>104.0</ele><time>2026-04-04T11:52:30Z</time></trkpt><trkpt lat="42.719281104355424" lon="2.794922489381921"><ele>104.0</ele><time>2026-04-04T11:52:32Z</time></trkpt><trkpt lat="42.71932463247689" lon="2.7950045814276314"><ele>103.99999999999999</ele><time>2026-04-04T11:52:35Z</time></trkpt><trkpt lat="42.71938693718789" lon="2.7949884883206972"><ele>104.0</ele><time>2026-04-04T11:52:37Z</time></trkpt><trkpt lat="42.71943756441266" lon="2.7949199182216127"><ele>104.0</ele><time>2026-04-04T11:52:40Z</time></trkpt><trkpt lat="42.71937964621124" lon="2.794824046478483"><ele>104.0</ele><time>2026-04-04T11:52:48Z</time></trkpt><trkpt lat="42.7193020725986" lon="2.7948605022094184"><ele>104.0</ele><time>2026-04-04T11:52:51Z</time></trkpt><trkpt lat="42.71929839180394" lon="2.7950110066135836"><ele>104.0</ele><time>2026-04-04T11:52:55Z</time></trkpt><trkpt lat="42.7193439517769" lon="2.7951487923332685"><ele>104.0</ele><time>2026-04-04T11:52:57Z</time></trkpt><trkpt lat="42.71937194827088" lon="2.795234082872304"><ele>104.16666666666666</ele><time>2026-04-04T11:52:59Z</time></trkpt><trkpt lat="42.71944177813673" lon="2.7952836009991247"><ele>104.33333333333333</ele><time>2026-04-04T11:53:01Z</time></trkpt><trkpt lat="42.71952165438496" lon="2.795256121953755"><ele>104.5</ele><time>2026-04-04T11:53:03Z</time></trkpt><trkpt lat="42.719585237745655" lon="2.795237147926319"><ele>104.66666666666666</ele><time>2026-04-04T11:53:06Z</time></trkpt><trkpt lat="42.719642286798205" lon="2.7951569507976073"><ele>104.83333333333333</ele><time>2026-04-04T11:53:09Z</time></trkpt><trkpt lat="42.71965788952928" lon="2.795041672336878"><ele>105.0</ele><time>2026-04-04T11:53:11Z</time></trkpt><trkpt lat="42.71966330889127" lon="2.794912597299523"><ele>105.0</ele><time>2026-04-04T11:53:13Z</time></trkpt><trkpt lat="42.719669258132164" lon="2.7947925467070105"><ele>105.0</ele><time>2026-04-04T11:53:15Z</time></trkpt><trkpt lat="42.71967570346414" lon="2.7946675100889307"><ele>105.0</ele><time>2026-04-04T11:53:17Z</time></trkpt><trkpt lat="42.71969874458617" lon="2.794546273536389"><ele>105.0</ele><time>2026-04-04T11:53:19Z</time></trkpt><trkpt lat="42.71972771334497" lon="2.7944665092716976"><ele>105.0</ele><time>2026-04-04T11:53:20Z</time></trkpt><trkpt lat="42.71979239635646" lon="2.7943417921768554"><ele>105.66666666666667</ele><time>2026-04-04T11:53:22Z</time></trkpt><trkpt lat="42.71984184345" lon="2.7942862877390917"><ele>106.33333333333334</ele><time>2026-04-04T11:53:24Z</time></trkpt><trkpt lat="42.71990280381004" lon="2.7942597637915965"><ele>107.0</ele><time>2026-04-04T11:53:27Z</time></trkpt><trkpt lat="42.71996057988035" lon="2.794198620027594"><ele>107.66666666666667</ele><time>2026-04-04T11:53:29Z</time></trkpt><trkpt lat="42.720107557307294" lon="2.7941753190267855"><ele>108.33333333333334</ele><time>2026-04-04T11:53:31Z</time></trkpt><trkpt lat="42.72014687546767" lon="2.794088258824363"><ele>109.0</ele><time>2026-04-04T11:53:33Z</time></trkpt><trkpt lat="42.720191640942595" lon="2.7939915346592046"><ele>109.00000000000001</ele><time>2026-04-04T11:53:35Z</time></trkpt><trkpt lat="42.720236928738295" lon="2.7938946207654607"><ele>109.0</ele><time>2026-04-04T11:53:37Z</time></trkpt><trkpt lat="42.72027851486959" lon="2.7938056282435517"><ele>109.0</ele><time>2026-04-04T11:53:39Z</time></trkpt><trkpt lat="42.720320855501186" lon="2.79371540545109"><ele>109.0</ele><time>2026-04-04T11:53:41Z</time></trkpt><trkpt lat="42.72036020799447" lon="2.7936323721967904"><ele>109.00000000000001</ele><time>2026-04-04T11:53:43Z</time></trkpt><trkpt lat="42.72039755692904" lon="2.793556325543532"><ele>109.0</ele><time>2026-04-04T11:53:47Z</time></trkpt><trkpt lat="42.72045962825572" lon="2.7934309665985695"><ele>109.00000000000001</ele><time>2026-04-04T11:53:50Z</time></trkpt><trkpt lat="42.720501484363886" lon="2.793329653177614"><ele>109.0</ele><time>2026-04-04T11:53:52Z</time></trkpt><trkpt lat="42.720538281608995" lon="2.7932449505693233"><ele>109.0</ele><time>2026-04-04T11:53:56Z</time></trkpt><trkpt lat="42.720563781062964" lon="2.7931665607208793"><ele>109.0</ele><time>2026-04-04T11:53:57Z</time></trkpt><trkpt lat="42.72060171467789" lon="2.7930782763200845"><ele>109.00000000000001</ele><time>2026-04-04T11:53:58Z</time></trkpt><trkpt lat="42.72065156367243" lon="2.7929271285587083"><ele>109.0</ele><time>2026-04-04T11:53:59Z</time></trkpt><trkpt lat="42.72069364734343" lon="2.792782546991042"><ele>109.0</ele><time>2026-04-04T11:54:00Z</time></trkpt><trkpt lat="42.72072923594831" lon="2.792660914264477"><ele>109.0</ele><time>2026-04-04T11:54:01Z</time></trkpt><trkpt lat="42.72076141465312" lon="2.7925351194220336"><ele>109.0</ele><time>2026-04-04T11:54:02Z</time></trkpt><trkpt lat="42.72079518546242" lon="2.7923939752479163"><ele>109.0</ele><time>2026-04-04T11:54:03Z</time></trkpt><trkpt lat="42.72083829983757" lon="2.7922213074117797"><ele>109.0</ele><time>2026-04-04T11:54:04Z</time></trkpt><trkpt lat="42.72088334739942" lon="2.7920463928090853"><ele>109.0</ele><time>2026-04-04T11:54:05Z</time></trkpt><trkpt lat="42.72092731860619" lon="2.7918602490196953"><ele>109.0</ele><time>2026-04-04T11:54:06Z</time></trkpt><trkpt lat="42.72097708837769" lon="2.7916576881026054"><ele>109.0</ele><time>2026-04-04T11:54:07Z</time></trkpt><trkpt lat="42.72102783811915" lon="2.791463328362618"><ele>109.0</ele><time>2026-04-04T11:54:08Z</time></trkpt><trkpt lat="42.72107976543086" lon="2.791259982146198"><ele>109.0</ele><time>2026-04-04T11:54:09Z</time></trkpt><trkpt lat="42.72112716219061" lon="2.791069145055387"><ele>109.0</ele><time>2026-04-04T11:54:10Z</time></trkpt><trkpt lat="42.721172506598485" lon="2.7908769836386833"><ele>109.0</ele><time>2026-04-04T11:54:11Z</time></trkpt><trkpt lat="42.721215272891385" lon="2.790695107456528"><ele>109.0</ele><time>2026-04-04T11:54:12Z</time></trkpt><trkpt lat="42.721263285969776" lon="2.790489144759105"><ele>109.0</ele><time>2026-04-04T11:54:13Z</time></trkpt><trkpt lat="42.72131575299918" lon="2.7902973873267327"><ele>109.0</ele><time>2026-04-04T11:54:14Z</time></trkpt><trkpt lat="42.72136806195901" lon="2.7901134557721132"><ele>109.0</ele><time>2026-04-04T11:54:15Z</time></trkpt><trkpt lat="42.7214178363244" lon="2.789926603649229"><ele>109.0</ele><time>2026-04-04T11:54:16Z</time></trkpt><trkpt lat="42.72146859613824" lon="2.7897358638997725"><ele>109.0</ele><time>2026-04-04T11:54:17Z</time></trkpt><trkpt lat="42.7215205939767" lon="2.7895461055082658"><ele>109.0</ele><time>2026-04-04T11:54:18Z</time></trkpt><trkpt lat="42.72157329138595" lon="2.7893607087611323"><ele>109.0</ele><time>2026-04-04T11:54:19Z</time></trkpt><trkpt lat="42.721631917779014" lon="2.789171525441695"><ele>109.0</ele><time>2026-04-04T11:54:20Z</time></trkpt><trkpt lat="42.7217032449917" lon="2.788973641156718"><ele>109.0</ele><time>2026-04-04T11:54:21Z</time></trkpt><trkpt lat="42.721778225596076" lon="2.7887747239026535"><ele>109.0</ele><time>2026-04-04T11:54:22Z</time></trkpt><trkpt lat="42.72185150632129" lon="2.7885787855978945"><ele>109.0</ele><time>2026-04-04T11:54:23Z</time></trkpt><trkpt lat="42.72192293168352" lon="2.7883866849531755"><ele>109.0</ele><time>2026-04-04T11:54:24Z</time></trkpt><trkpt lat="42.721995265616286" lon="2.7881987562608956"><ele>109.0</ele><time>2026-04-04T11:54:25Z</time></trkpt><trkpt lat="42.722067011136886" lon="2.7880233150595317"><ele>109.0</ele><time>2026-04-04T11:54:26Z</time></trkpt><trkpt lat="42.72214323083754" lon="2.7878518863294017"><ele>109.0</ele><time>2026-04-04T11:54:27Z</time></trkpt><trkpt lat="42.7222250583971" lon="2.7876640190876927"><ele>109.33333333333334</ele><time>2026-04-04T11:54:28Z</time></trkpt><trkpt lat="42.72230681597001" lon="2.787491128832854"><ele>109.66666666666666</ele><time>2026-04-04T11:54:29Z</time></trkpt><trkpt lat="42.722386762310286" lon="2.7873205412500672"><ele>110.0</ele><time>2026-04-04T11:54:30Z</time></trkpt><trkpt lat="42.722472110909784" lon="2.7871502428921304"><ele>110.0</ele><time>2026-04-04T11:54:31Z</time></trkpt><trkpt lat="42.72257096370295" lon="2.786964361305312"><ele>110.0</ele><time>2026-04-04T11:54:32Z</time></trkpt><trkpt lat="42.72267220591507" lon="2.786781649364269"><ele>110.0</ele><time>2026-04-04T11:54:33Z</time></trkpt><trkpt lat="42.722782484698534" lon="2.786581761628164"><ele>110.33333333333333</ele><time>2026-04-04T11:54:34Z</time></trkpt><trkpt lat="42.72289741475697" lon="2.786374774025922"><ele>110.66666666666666</ele><time>2026-04-04T11:54:35Z</time></trkpt><trkpt lat="42.72301960494652" lon="2.786157104296649"><ele>111.0</ele><time>2026-04-04T11:54:36Z</time></trkpt><trkpt lat="42.72314475018999" lon="2.7859301161406282"><ele>111.0</ele><time>2026-04-04T11:54:37Z</time></trkpt><trkpt lat="42.723274807453535" lon="2.7856840389238378"><ele>111.0</ele><time>2026-04-04T11:54:38Z</time></trkpt><trkpt lat="42.72341483919571" lon="2.785419309487038"><ele>111.33333333333334</ele><time>2026-04-04T11:54:39Z</time></trkpt><trkpt lat="42.723546725077625" lon="2.7851658388256286"><ele>111.66666666666667</ele><time>2026-04-04T11:54:40Z</time></trkpt><trkpt lat="42.723669010501325" lon="2.7849492325149083"><ele>112.0</ele><time>2026-04-04T11:54:41Z</time></trkpt><trkpt lat="42.723773116317226" lon="2.7847536684087975"><ele>112.25</ele><time>2026-04-04T11:54:42Z</time></trkpt><trkpt lat="42.723865367383134" lon="2.7845767611424947"><ele>112.5</ele><time>2026-04-04T11:54:43Z</time></trkpt><trkpt lat="42.72395580804677" lon="2.7844098712603493"><ele>112.75</ele><time>2026-04-04T11:54:44Z</time></trkpt><trkpt lat="42.72403778284254" lon="2.7842666280912947"><ele>113.0</ele><time>2026-04-04T11:54:45Z</time></trkpt><trkpt lat="42.72412521966059" lon="2.7841100816254216"><ele>113.0</ele><time>2026-04-04T11:54:46Z</time></trkpt><trkpt lat="42.724214077211286" lon="2.7839547627797696"><ele>113.0</ele><time>2026-04-04T11:54:47Z</time></trkpt><trkpt lat="42.72430396763651" lon="2.783799696256272"><ele>113.0</ele><time>2026-04-04T11:54:48Z</time></trkpt><trkpt lat="42.72439520075884" lon="2.7836401602922014"><ele>113.0</ele><time>2026-04-04T11:54:49Z</time></trkpt><trkpt lat="42.72450380641949" lon="2.7834573763473758"><ele>113.33333333333333</ele><time>2026-04-04T11:54:50Z</time></trkpt><trkpt lat="42.724621538433105" lon="2.7832786776202454"><ele>113.66666666666666</ele><time>2026-04-04T11:54:51Z</time></trkpt><trkpt lat="42.72475932214867" lon="2.7830795928673218"><ele>114.0</ele><time>2026-04-04T11:54:53Z</time></trkpt><trkpt lat="42.72485539687957" lon="2.782949134279242"><ele>114.0</ele><time>2026-04-04T11:54:54Z</time></trkpt><trkpt lat="42.724954141249405" lon="2.7828154761162325"><ele>114.0</ele><time>2026-04-04T11:54:55Z</time></trkpt><trkpt lat="42.72504881257103" lon="2.782687154569633"><ele>114.0</ele><time>2026-04-04T11:54:56Z</time></trkpt><trkpt lat="42.725145719888246" lon="2.7825569155659027"><ele>114.0</ele><time>2026-04-04T11:54:57Z</time></trkpt><trkpt lat="42.72523963752844" lon="2.7824164434822913"><ele>114.5</ele><time>2026-04-04T11:54:58Z</time></trkpt><trkpt lat="42.725326652891525" lon="2.782275881977853"><ele>115.0</ele><time>2026-04-04T11:54:59Z</time></trkpt><trkpt lat="42.72541114359595" lon="2.7821350383920946"><ele>115.5</ele><time>2026-04-04T11:55:00Z</time></trkpt><trkpt lat="42.725499543393376" lon="2.781995063606444"><ele>116.0</ele><time>2026-04-04T11:55:01Z</time></trkpt><trkpt lat="42.72558670012231" lon="2.781848943583328"><ele>115.5</ele><time>2026-04-04T11:55:02Z</time></trkpt><trkpt lat="42.72567148380126" lon="2.78170357204485"><ele>115.0</ele><time>2026-04-04T11:55:03Z</time></trkpt><trkpt lat="42.72575579602127" lon="2.7815559264189775"><ele>114.5</ele><time>2026-04-04T11:55:04Z</time></trkpt><trkpt lat="42.72583973008314" lon="2.7814141394532337"><ele>114.0</ele><time>2026-04-04T11:55:05Z</time></trkpt><trkpt lat="42.72592593483391" lon="2.781270180999453"><ele>114.0</ele><time>2026-04-04T11:55:06Z</time></trkpt><trkpt lat="42.72600951609274" lon="2.7811290246446285"><ele>114.0</ele><time>2026-04-04T11:55:07Z</time></trkpt><trkpt lat="42.72609349554198" lon="2.780988850910006"><ele>114.0</ele><time>2026-04-04T11:55:08Z</time></trkpt><trkpt lat="42.72618043102323" lon="2.780853392339686"><ele>114.0</ele><time>2026-04-04T11:55:09Z</time></trkpt><trkpt lat="42.7262660037933" lon="2.780713832582409"><ele>114.25</ele><time>2026-04-04T11:55:10Z</time></trkpt><trkpt lat="42.72635316820503" lon="2.7805698546144417"><ele>114.5</ele><time>2026-04-04T11:55:11Z</time></trkpt><trkpt lat="42.726437797893766" lon="2.7804329699854105"><ele>114.75</ele><time>2026-04-04T11:55:12Z</time></trkpt><trkpt lat="42.72652833983055" lon="2.780294966227849"><ele>115.0</ele><time>2026-04-04T11:55:13Z</time></trkpt><trkpt lat="42.72661102612256" lon="2.7801553797309646"><ele>115.25</ele><time>2026-04-04T11:55:14Z</time></trkpt><trkpt lat="42.726695713239444" lon="2.7800140441346386"><ele>115.5</ele><time>2026-04-04T11:55:15Z</time></trkpt><trkpt lat="42.72678318701351" lon="2.7798674760122863"><ele>115.75</ele><time>2026-04-04T11:55:16Z</time></trkpt><trkpt lat="42.72687373393333" lon="2.7797233585591665"><ele>116.0</ele><time>2026-04-04T11:55:17Z</time></trkpt><trkpt lat="42.72696218774736" lon="2.7795869203672487"><ele>116.25</ele><time>2026-04-04T11:55:18Z</time></trkpt><trkpt lat="42.727046781564034" lon="2.7794472584990007"><ele>116.5</ele><time>2026-04-04T11:55:19Z</time></trkpt><trkpt lat="42.72713144508803" lon="2.7793052020505327"><ele>116.75</ele><time>2026-04-04T11:55:20Z</time></trkpt><trkpt lat="42.72721767480611" lon="2.779169601991062"><ele>117.0</ele><time>2026-04-04T11:55:21Z</time></trkpt><trkpt lat="42.72730124812214" lon="2.779035962086407"><ele>117.5</ele><time>2026-04-04T11:55:22Z</time></trkpt><trkpt lat="42.727372413536656" lon="2.778898785654615"><ele>118.0</ele><time>2026-04-04T11:55:23Z</time></trkpt><trkpt lat="42.727444069407156" lon="2.77876246527078"><ele>118.5</ele><time>2026-04-04T11:55:24Z</time></trkpt><trkpt lat="42.72751359595906" lon="2.778648965772659"><ele>119.0</ele><time>2026-04-04T11:55:25Z</time></trkpt><trkpt lat="42.72758355210317" lon="2.7785483789502696"><ele>118.80000000000001</ele><time>2026-04-04T11:55:26Z</time></trkpt><trkpt lat="42.72765617800348" lon="2.7784374773225196"><ele>118.60000000000001</ele><time>2026-04-04T11:55:27Z</time></trkpt><trkpt lat="42.727723697748296" lon="2.778313814418516"><ele>118.4</ele><time>2026-04-04T11:55:28Z</time></trkpt><trkpt lat="42.72779477244281" lon="2.7782009179893996"><ele>118.2</ele><time>2026-04-04T11:55:29Z</time></trkpt><trkpt lat="42.72786334285301" lon="2.7780864505105645"><ele>118.0</ele><time>2026-04-04T11:55:30Z</time></trkpt><trkpt lat="42.72794236294595" lon="2.777961394429052"><ele>118.0</ele><time>2026-04-04T11:55:31Z</time></trkpt><trkpt lat="42.72802434166845" lon="2.7778374410510893"><ele>118.0</ele><time>2026-04-04T11:55:32Z</time></trkpt><trkpt lat="42.72811372912807" lon="2.7776581417271267"><ele>118.0</ele><time>2026-04-04T11:55:33Z</time></trkpt><trkpt lat="42.728212752704096" lon="2.77746133265196"><ele>118.5</ele><time>2026-04-04T11:55:34Z</time></trkpt><trkpt lat="42.72830047894391" lon="2.777303196272865"><ele>119.0</ele><time>2026-04-04T11:55:35Z</time></trkpt><trkpt lat="42.728375619623655" lon="2.777167880357889"><ele>119.5</ele><time>2026-04-04T11:55:36Z</time></trkpt><trkpt lat="42.72844330098265" lon="2.7770452038405145"><ele>120.0</ele><time>2026-04-04T11:55:37Z</time></trkpt><trkpt lat="42.72851379688024" lon="2.776942164372736"><ele>120.5</ele><time>2026-04-04T11:55:38Z</time></trkpt><trkpt lat="42.728596085449205" lon="2.7768410254980767"><ele>121.0</ele><time>2026-04-04T11:55:39Z</time></trkpt><trkpt lat="42.72869299633098" lon="2.7767170402726964"><ele>121.5</ele><time>2026-04-04T11:55:40Z</time></trkpt><trkpt lat="42.72878890792127" lon="2.776620630947754"><ele>122.0</ele><time>2026-04-04T11:55:41Z</time></trkpt><trkpt lat="42.72889239469981" lon="2.7765391157565946"><ele>122.0</ele><time>2026-04-04T11:55:42Z</time></trkpt><trkpt lat="42.72900242071412" lon="2.7764598309607518"><ele>122.0</ele><time>2026-04-04T11:55:43Z</time></trkpt><trkpt lat="42.729112656274125" lon="2.7763988672853857"><ele>122.0</ele><time>2026-04-04T11:55:44Z</time></trkpt><trkpt lat="42.729222226676846" lon="2.7763520658495975"><ele>122.0</ele><time>2026-04-04T11:55:45Z</time></trkpt><trkpt lat="42.72933067055866" lon="2.776299726129065"><ele>122.39999999999999</ele><time>2026-04-04T11:55:46Z</time></trkpt><trkpt lat="42.72943879211896" lon="2.7762489616103387"><ele>122.79999999999998</ele><time>2026-04-04T11:55:47Z</time></trkpt><trkpt lat="42.729546603260125" lon="2.7762055847333853"><ele>123.2</ele><time>2026-04-04T11:55:48Z</time></trkpt><trkpt lat="42.72965078674891" lon="2.7761673461970906"><ele>123.6</ele><time>2026-04-04T11:55:49Z</time></trkpt><trkpt lat="42.729752368202575" lon="2.7761184286177447"><ele>124.0</ele><time>2026-04-04T11:55:50Z</time></trkpt><trkpt lat="42.729872224160594" lon="2.7760329378820705"><ele>124.0</ele><time>2026-04-04T11:55:51Z</time></trkpt><trkpt lat="42.72999671644053" lon="2.7759346239668465"><ele>124.0</ele><time>2026-04-04T11:55:53Z</time></trkpt><trkpt lat="42.73006065480892" lon="2.7758735214945065"><ele>124.0</ele><time>2026-04-04T11:55:54Z</time></trkpt><trkpt lat="42.73013169565691" lon="2.775788868411193"><ele>124.0</ele><time>2026-04-04T11:55:56Z</time></trkpt><trkpt lat="42.730191955358976" lon="2.7757083767677635"><ele>124.0</ele><time>2026-04-04T11:55:59Z</time></trkpt><trkpt lat="42.73025877248785" lon="2.775664052097272"><ele>124.0</ele><time>2026-04-04T11:56:01Z</time></trkpt><trkpt lat="42.73019682921343" lon="2.775819170217519"><ele>124.0</ele><time>2026-04-04T11:56:03Z</time></trkpt><trkpt lat="42.730326211909016" lon="2.775559447107896"><ele>124.0</ele><time>2026-04-04T11:56:05Z</time></trkpt><trkpt lat="42.7303980867667" lon="2.775445856717129"><ele>124.6</ele><time>2026-04-04T11:56:07Z</time></trkpt><trkpt lat="42.73047026550056" lon="2.775323601362417"><ele>125.2</ele><time>2026-04-04T11:56:09Z</time></trkpt><trkpt lat="42.7305129117666" lon="2.775246552013101"><ele>125.79999999999998</ele><time>2026-04-04T11:56:10Z</time></trkpt><trkpt lat="42.73056248440998" lon="2.775158528766167"><ele>126.39999999999999</ele><time>2026-04-04T11:56:11Z</time></trkpt><trkpt lat="42.73062854608387" lon="2.775044370396731"><ele>127.0</ele><time>2026-04-04T11:56:13Z</time></trkpt><trkpt lat="42.73069470065747" lon="2.7749300515775017"><ele>127.0</ele><time>2026-04-04T11:56:15Z</time></trkpt><trkpt lat="42.73074078557674" lon="2.774850414163509"><ele>126.99999999999999</ele><time>2026-04-04T11:56:17Z</time></trkpt><trkpt lat="42.73079229162662" lon="2.7747634773918586"><ele>126.99999999999999</ele><time>2026-04-04T11:56:20Z</time></trkpt><trkpt lat="42.73090229079603" lon="2.774575193237563"><ele>127.0</ele><time>2026-04-04T11:56:24Z</time></trkpt><trkpt lat="42.730831572206725" lon="2.774513747146538"><ele>127.0</ele><time>2026-04-04T11:56:28Z</time></trkpt><trkpt lat="42.73075359366251" lon="2.7744589870073466"><ele>127.0</ele><time>2026-04-04T11:56:30Z</time></trkpt><trkpt lat="42.730647082197855" lon="2.7743871520293384"><ele>126.99999999999999</ele><time>2026-04-04T11:56:32Z</time></trkpt><trkpt lat="42.730589973595116" lon="2.7743163932305004"><ele>126.99999999999999</ele><time>2026-04-04T11:56:33Z</time></trkpt><trkpt lat="42.73050153227258" lon="2.7742748375067974"><ele>127.0</ele><time>2026-04-04T11:56:34Z</time></trkpt><trkpt lat="42.730399753458485" lon="2.7742076353779455"><ele>127.0</ele><time>2026-04-04T11:56:35Z</time></trkpt><trkpt lat="42.73031346530458" lon="2.774141674504956"><ele>126.83333333333334</ele><time>2026-04-04T11:56:36Z</time></trkpt><trkpt lat="42.73025027241509" lon="2.7740590646728367"><ele>126.66666666666667</ele><time>2026-04-04T11:56:37Z</time></trkpt><trkpt lat="42.73018022468017" lon="2.7739971680584086"><ele>126.5</ele><time>2026-04-04T11:56:38Z</time></trkpt><trkpt lat="42.730110312252684" lon="2.7739353170733896"><ele>126.33333333333334</ele><time>2026-04-04T11:56:39Z</time></trkpt><trkpt lat="42.73004509117547" lon="2.773877520405831"><ele>126.16666666666667</ele><time>2026-04-04T11:56:40Z</time></trkpt><trkpt lat="42.72996444681934" lon="2.7738094948160543"><ele>126.0</ele><time>2026-04-04T11:56:41Z</time></trkpt><trkpt lat="42.729872831613946" lon="2.773742633616409"><ele>125.8</ele><time>2026-04-04T11:56:42Z</time></trkpt><trkpt lat="42.729775217340425" lon="2.7736893571329446"><ele>125.6</ele><time>2026-04-04T11:56:43Z</time></trkpt><trkpt lat="42.72968551355816" lon="2.773640859425317"><ele>125.4</ele><time>2026-04-04T11:56:44Z</time></trkpt><trkpt lat="42.72959380211143" lon="2.773597489047171"><ele>125.2</ele><time>2026-04-04T11:56:45Z</time></trkpt><trkpt lat="42.729503176541016" lon="2.7735524177913637"><ele>125.0</ele><time>2026-04-04T11:56:46Z</time></trkpt><trkpt lat="42.729411548150445" lon="2.7734915978317107"><ele>124.8</ele><time>2026-04-04T11:56:47Z</time></trkpt><trkpt lat="42.7293154237775" lon="2.7734325363347123"><ele>124.6</ele><time>2026-04-04T11:56:48Z</time></trkpt><trkpt lat="42.72922420501599" lon="2.7733399850514697"><ele>124.4</ele><time>2026-04-04T11:56:49Z</time></trkpt><trkpt lat="42.729129805622236" lon="2.7732775077369496"><ele>124.2</ele><time>2026-04-04T11:56:50Z</time></trkpt><trkpt lat="42.72902148233419" lon="2.7732428091005636"><ele>124.0</ele><time>2026-04-04T11:56:51Z</time></trkpt><trkpt lat="42.72891291547698" lon="2.773169272718483"><ele>124.0</ele><time>2026-04-04T11:56:52Z</time></trkpt><trkpt lat="42.72879903330842" lon="2.773121472311785"><ele>124.0</ele><time>2026-04-04T11:56:53Z</time></trkpt><trkpt lat="42.72868551514039" lon="2.7730779094672813"><ele>124.0</ele><time>2026-04-04T11:56:54Z</time></trkpt><trkpt lat="42.72855076503705" lon="2.773030334307904"><ele>124.0</ele><time>2026-04-04T11:56:55Z</time></trkpt><trkpt lat="42.72843647046116" lon="2.772988694476124"><ele>124.0</ele><time>2026-04-04T11:56:56Z</time></trkpt><trkpt lat="42.7283320916547" lon="2.7729467725026358"><ele>124.0</ele><time>2026-04-04T11:56:57Z</time></trkpt><trkpt lat="42.728246913450064" lon="2.772912562127665"><ele>124.0</ele><time>2026-04-04T11:56:58Z</time></trkpt><trkpt lat="42.72816009003129" lon="2.772876445516524"><ele>124.0</ele><time>2026-04-04T11:56:59Z</time></trkpt><trkpt lat="42.728079976217295" lon="2.7728421039929265"><ele>124.0</ele><time>2026-04-04T11:57:00Z</time></trkpt><trkpt lat="42.72799603373445" lon="2.7728235909755763"><ele>124.0</ele><time>2026-04-04T11:57:01Z</time></trkpt><trkpt lat="42.7279061674819" lon="2.7727678374242197"><ele>124.0</ele><time>2026-04-04T11:57:02Z</time></trkpt><trkpt lat="42.72781208409447" lon="2.7727094675531725"><ele>124.0</ele><time>2026-04-04T11:57:03Z</time></trkpt><trkpt lat="42.72773297178385" lon="2.772617526964354"><ele>124.0</ele><time>2026-04-04T11:57:04Z</time></trkpt><trkpt lat="42.72764756204495" lon="2.7725418217672266"><ele>124.0</ele><time>2026-04-04T11:57:05Z</time></trkpt><trkpt lat="42.727558056644035" lon="2.772465920402973"><ele>124.0</ele><time>2026-04-04T11:57:06Z</time></trkpt><trkpt lat="42.72745362932878" lon="2.7723952063132007"><ele>124.0</ele><time>2026-04-04T11:57:07Z</time></trkpt><trkpt lat="42.72734369660745" lon="2.772340641722185"><ele>124.0</ele><time>2026-04-04T11:57:08Z</time></trkpt><trkpt lat="42.72722758825323" lon="2.772307143757983"><ele>124.0</ele><time>2026-04-04T11:57:09Z</time></trkpt><trkpt lat="42.72709594212477" lon="2.7722746914040894"><ele>124.0</ele><time>2026-04-04T11:57:10Z</time></trkpt><trkpt lat="42.72697479800655" lon="2.7722444119654512"><ele>124.0</ele><time>2026-04-04T11:57:11Z</time></trkpt><trkpt lat="42.726864229086104" lon="2.7722085083519157"><ele>124.0</ele><time>2026-04-04T11:57:12Z</time></trkpt><trkpt lat="42.726756680725664" lon="2.772165785498849"><ele>124.0</ele><time>2026-04-04T11:57:13Z</time></trkpt><trkpt lat="42.72666467436154" lon="2.7721208432177415"><ele>124.0</ele><time>2026-04-04T11:57:14Z</time></trkpt><trkpt lat="42.72657154140262" lon="2.7720637940513337"><ele>123.80000000000001</ele><time>2026-04-04T11:57:15Z</time></trkpt><trkpt lat="42.72647793950688" lon="2.7719946381948875"><ele>123.60000000000001</ele><time>2026-04-04T11:57:16Z</time></trkpt><trkpt lat="42.726372448058996" lon="2.7719416027735564"><ele>123.4</ele><time>2026-04-04T11:57:17Z</time></trkpt><trkpt lat="42.72628123232823" lon="2.7718611739708465"><ele>123.2</ele><time>2026-04-04T11:57:18Z</time></trkpt><trkpt lat="42.72618765851441" lon="2.771787041661842"><ele>123.0</ele><time>2026-04-04T11:57:19Z</time></trkpt><trkpt lat="42.72609647642713" lon="2.7717100205921046"><ele>122.60000000000001</ele><time>2026-04-04T11:57:20Z</time></trkpt><trkpt lat="42.726005274206294" lon="2.7716314915483604"><ele>122.20000000000002</ele><time>2026-04-04T11:57:21Z</time></trkpt><trkpt lat="42.72592978316377" lon="2.7715590702679265"><ele>121.8</ele><time>2026-04-04T11:57:22Z</time></trkpt><trkpt lat="42.72583776652952" lon="2.7714840757878143"><ele>121.4</ele><time>2026-04-04T11:57:23Z</time></trkpt><trkpt lat="42.725750817356314" lon="2.771389159844559"><ele>121.0</ele><time>2026-04-04T11:57:24Z</time></trkpt><trkpt lat="42.72565248420847" lon="2.7713381512655975"><ele>121.0</ele><time>2026-04-04T11:57:25Z</time></trkpt><trkpt lat="42.72556142704742" lon="2.7712530563997513"><ele>121.0</ele><time>2026-04-04T11:57:26Z</time></trkpt><trkpt lat="42.72544542066533" lon="2.7712124441865"><ele>121.0</ele><time>2026-04-04T11:57:27Z</time></trkpt><trkpt lat="42.72533938705192" lon="2.7711614916877"><ele>121.0</ele><time>2026-04-04T11:57:28Z</time></trkpt><trkpt lat="42.72522312512782" lon="2.7711073578454175"><ele>121.0</ele><time>2026-04-04T11:57:29Z</time></trkpt><trkpt lat="42.72511536088828" lon="2.771073323871034"><ele>121.0</ele><time>2026-04-04T11:57:30Z</time></trkpt><trkpt lat="42.72500306541782" lon="2.771030277510624"><ele>121.0</ele><time>2026-04-04T11:57:31Z</time></trkpt><trkpt lat="42.7248883661507" lon="2.770990791289886"><ele>121.0</ele><time>2026-04-04T11:57:32Z</time></trkpt><trkpt lat="42.72477023058353" lon="2.7709531076139577"><ele>121.0</ele><time>2026-04-04T11:57:33Z</time></trkpt><trkpt lat="42.72466313509256" lon="2.7709093553108057"><ele>121.0</ele><time>2026-04-04T11:57:34Z</time></trkpt><trkpt lat="42.72457363537929" lon="2.7708750688293793"><ele>121.0</ele><time>2026-04-04T11:57:35Z</time></trkpt><trkpt lat="42.7244876972508" lon="2.7708265771432425"><ele>121.0</ele><time>2026-04-04T11:57:36Z</time></trkpt><trkpt lat="42.7244148672712" lon="2.7707819161059595"><ele>121.0</ele><time>2026-04-04T11:57:37Z</time></trkpt><trkpt lat="42.72431746569945" lon="2.770703039120395"><ele>120.75</ele><time>2026-04-04T11:57:39Z</time></trkpt><trkpt lat="42.72423369285413" lon="2.7706520854058683"><ele>120.5</ele><time>2026-04-04T11:57:41Z</time></trkpt><trkpt lat="42.724164615309334" lon="2.7706140734802185"><ele>120.25</ele><time>2026-04-04T11:57:43Z</time></trkpt><trkpt lat="42.724232665132156" lon="2.7702523805289565"><ele>120.0</ele><time>2026-04-04T11:57:45Z</time></trkpt><trkpt lat="42.724274038858496" lon="2.7701709598312303"><ele>119.83333333333333</ele><time>2026-04-04T11:57:48Z</time></trkpt><trkpt lat="42.724307253179106" lon="2.7700457747562033"><ele>119.66666666666666</ele><time>2026-04-04T11:57:50Z</time></trkpt><trkpt lat="42.72434031090471" lon="2.769969666402722"><ele>119.5</ele><time>2026-04-04T11:57:51Z</time></trkpt><trkpt lat="42.72438148707456" lon="2.7698892225582696"><ele>119.33333333333333</ele><time>2026-04-04T11:57:52Z</time></trkpt><trkpt lat="42.724422275423166" lon="2.7698037838416627"><ele>119.16666666666666</ele><time>2026-04-04T11:57:53Z</time></trkpt><trkpt lat="42.72446472882676" lon="2.7697066206178325"><ele>119.0</ele><time>2026-04-04T11:57:54Z</time></trkpt><trkpt lat="42.724502368570384" lon="2.769612599163884"><ele>118.99999999999999</ele><time>2026-04-04T11:57:55Z</time></trkpt><trkpt lat="42.72454153529776" lon="2.769515098592517"><ele>119.0</ele><time>2026-04-04T11:57:56Z</time></trkpt><trkpt lat="42.724589588674434" lon="2.7694103030597303"><ele>119.0</ele><time>2026-04-04T11:57:57Z</time></trkpt><trkpt lat="42.72463697233797" lon="2.7693137470807794"><ele>119.0</ele><time>2026-04-04T11:57:58Z</time></trkpt><trkpt lat="42.7246837437626" lon="2.769212751610884"><ele>118.99999999999999</ele><time>2026-04-04T11:57:59Z</time></trkpt><trkpt lat="42.72472950944348" lon="2.7690948851486565"><ele>119.0</ele><time>2026-04-04T11:58:00Z</time></trkpt><trkpt lat="42.72477975195341" lon="2.7689762856977786"><ele>118.99999999999999</ele><time>2026-04-04T11:58:01Z</time></trkpt><trkpt lat="42.72482836587027" lon="2.768868913612186"><ele>119.0</ele><time>2026-04-04T11:58:02Z</time></trkpt><trkpt lat="42.72487451129938" lon="2.7687736380550074"><ele>119.0</ele><time>2026-04-04T11:58:03Z</time></trkpt><trkpt lat="42.724916727178616" lon="2.7686870054349075"><ele>119.0</ele><time>2026-04-04T11:58:04Z</time></trkpt><trkpt lat="42.72496149739219" lon="2.768604157703843"><ele>118.99999999999999</ele><time>2026-04-04T11:58:05Z</time></trkpt><trkpt lat="42.72500539569496" lon="2.7685388564312836"><ele>119.0</ele><time>2026-04-04T11:58:06Z</time></trkpt><trkpt lat="42.72508138902952" lon="2.768440281442846"><ele>119.0</ele><time>2026-04-04T11:58:08Z</time></trkpt><trkpt lat="42.725151505825735" lon="2.768379059777218"><ele>119.0</ele><time>2026-04-04T11:58:10Z</time></trkpt><trkpt lat="42.72521861008532" lon="2.7683525662317763"><ele>119.0</ele><time>2026-04-04T11:58:12Z</time></trkpt><trkpt lat="42.72527221211867" lon="2.768299012217588"><ele>119.0</ele><time>2026-04-04T11:58:14Z</time></trkpt><trkpt lat="42.725240830374375" lon="2.768213257264275"><ele>119.0</ele><time>2026-04-04T11:58:17Z</time></trkpt><trkpt lat="42.725178475159424" lon="2.7682295054558264"><ele>119.0</ele><time>2026-04-04T11:58:19Z</time></trkpt><trkpt lat="42.72512291560121" lon="2.768306122626134"><ele>119.0</ele><time>2026-04-04T11:58:21Z</time></trkpt><trkpt lat="42.72506898438213" lon="2.768401114230164"><ele>119.0</ele><time>2026-04-04T11:58:23Z</time></trkpt><trkpt lat="42.72500313238945" lon="2.7685309074294433"><ele>119.0</ele><time>2026-04-04T11:58:25Z</time></trkpt><trkpt lat="42.72495294575519" lon="2.768616525103167"><ele>119.0</ele><time>2026-04-04T11:58:26Z</time></trkpt><trkpt lat="42.72488898046335" lon="2.7687203100185096"><ele>119.0</ele><time>2026-04-04T11:58:27Z</time></trkpt><trkpt lat="42.72483012784645" lon="2.7688387785442776"><ele>119.0</ele><time>2026-04-04T11:58:28Z</time></trkpt><trkpt lat="42.72477492900224" lon="2.768966802559156"><ele>119.0</ele><time>2026-04-04T11:58:29Z</time></trkpt><trkpt lat="42.724718307113406" lon="2.7691006044297732"><ele>119.0</ele><time>2026-04-04T11:58:30Z</time></trkpt><trkpt lat="42.724664247688395" lon="2.769211555176796"><ele>119.0</ele><time>2026-04-04T11:58:31Z</time></trkpt><trkpt lat="42.72461749836366" lon="2.7693115530556103"><ele>119.0</ele><time>2026-04-04T11:58:32Z</time></trkpt><trkpt lat="42.724574620510914" lon="2.769417591987304"><ele>119.0</ele><time>2026-04-04T11:58:33Z</time></trkpt><trkpt lat="42.72452739717388" lon="2.7695524976059303"><ele>119.0</ele><time>2026-04-04T11:58:34Z</time></trkpt><trkpt lat="42.724455307699316" lon="2.7697154342056383"><ele>119.0</ele><time>2026-04-04T11:58:35Z</time></trkpt><trkpt lat="42.7243751175452" lon="2.7698885271709788"><ele>119.0</ele><time>2026-04-04T11:58:36Z</time></trkpt><trkpt lat="42.72430418850809" lon="2.7700287674875455"><ele>119.0</ele><time>2026-04-04T11:58:37Z</time></trkpt><trkpt lat="42.72424701705972" lon="2.770155368147461"><ele>119.16666666666666</ele><time>2026-04-04T11:58:38Z</time></trkpt><trkpt lat="42.724200635378125" lon="2.7702601784805223"><ele>119.33333333333333</ele><time>2026-04-04T11:58:39Z</time></trkpt><trkpt lat="42.7241677704417" lon="2.7703428247558457"><ele>119.5</ele><time>2026-04-04T11:58:40Z</time></trkpt><trkpt lat="42.724135348016816" lon="2.770424464812371"><ele>119.66666666666666</ele><time>2026-04-04T11:58:41Z</time></trkpt><trkpt lat="42.72408911244793" lon="2.770533031742506"><ele>119.83333333333333</ele><time>2026-04-04T11:58:43Z</time></trkpt><trkpt lat="42.72402673746454" lon="2.7705924021848185"><ele>120.0</ele><time>2026-04-04T11:58:58Z</time></trkpt><trkpt lat="42.72395052230719" lon="2.7706074207144242"><ele>120.0</ele><time>2026-04-04T11:59:01Z</time></trkpt><trkpt lat="42.7238706164744" lon="2.7705158168783397"><ele>120.0</ele><time>2026-04-04T11:59:03Z</time></trkpt><trkpt lat="42.72379206985577" lon="2.7704824830986485"><ele>120.0</ele><time>2026-04-04T11:59:04Z</time></trkpt><trkpt lat="42.723730213596795" lon="2.770456232409311"><ele>120.0</ele><time>2026-04-04T11:59:05Z</time></trkpt><trkpt lat="42.7236321776153" lon="2.770429429648038"><ele>120.0</ele><time>2026-04-04T11:59:09Z</time></trkpt><trkpt lat="42.72356382471799" lon="2.7704093845577042"><ele>120.0</ele><time>2026-04-04T11:59:11Z</time></trkpt><trkpt lat="42.72344052207106" lon="2.770342202776666"><ele>119.8</ele><time>2026-04-04T11:59:13Z</time></trkpt><trkpt lat="42.72333990711977" lon="2.7703323158513165"><ele>119.6</ele><time>2026-04-04T11:59:14Z</time></trkpt><trkpt lat="42.723220105302964" lon="2.770288763297138"><ele>119.4</ele><time>2026-04-04T11:59:15Z</time></trkpt><trkpt lat="42.72313668863106" lon="2.7702635990797098"><ele>119.2</ele><time>2026-04-04T11:59:16Z</time></trkpt><trkpt lat="42.723054203100794" lon="2.7702370372304417"><ele>119.0</ele><time>2026-04-04T11:59:17Z</time></trkpt><trkpt lat="42.722964048975406" lon="2.7702058483264547"><ele>118.99999999999999</ele><time>2026-04-04T11:59:18Z</time></trkpt><trkpt lat="42.72290209161859" lon="2.7701522035520063"><ele>119.0</ele><time>2026-04-04T11:59:19Z</time></trkpt><trkpt lat="42.72284285393389" lon="2.770119800981318"><ele>119.0</ele><time>2026-04-04T11:59:20Z</time></trkpt><trkpt lat="42.72272396623303" lon="2.7700344044071405"><ele>119.0</ele><time>2026-04-04T11:59:22Z</time></trkpt><trkpt lat="42.722657770840534" lon="2.770000256290867"><ele>118.99999999999999</ele><time>2026-04-04T11:59:23Z</time></trkpt><trkpt lat="42.72259582288403" lon="2.7699391032659975"><ele>119.0</ele><time>2026-04-04T11:59:24Z</time></trkpt><trkpt lat="42.722530444995314" lon="2.769882664697222"><ele>118.85714285714286</ele><time>2026-04-04T11:59:25Z</time></trkpt><trkpt lat="42.722463886901494" lon="2.7698268150185834"><ele>118.71428571428572</ele><time>2026-04-04T11:59:26Z</time></trkpt><trkpt lat="42.722399418599444" lon="2.7697721654879937"><ele>118.57142857142857</ele><time>2026-04-04T11:59:27Z</time></trkpt><trkpt lat="42.722334948425384" lon="2.769735142745408"><ele>118.42857142857143</ele><time>2026-04-04T11:59:28Z</time></trkpt><trkpt lat="42.72228027327662" lon="2.7696819705626154"><ele>118.28571428571429</ele><time>2026-04-04T11:59:29Z</time></trkpt><trkpt lat="42.72220819616141" lon="2.7696807135237527"><ele>118.14285714285714</ele><time>2026-04-04T11:59:30Z</time></trkpt><trkpt lat="42.722133398617196" lon="2.76965927876034"><ele>118.0</ele><time>2026-04-04T11:59:31Z</time></trkpt><trkpt lat="42.72204424847642" lon="2.7696514255971376"><ele>118.0</ele><time>2026-04-04T11:59:32Z</time></trkpt><trkpt lat="42.7219618419497" lon="2.7696615687387687"><ele>118.00000000000001</ele><time>2026-04-04T11:59:33Z</time></trkpt><trkpt lat="42.72186270554158" lon="2.7696642643439957"><ele>118.00000000000001</ele><time>2026-04-04T11:59:35Z</time></trkpt><trkpt lat="42.72180232467368" lon="2.7697015260215285"><ele>118.0</ele><time>2026-04-04T11:59:37Z</time></trkpt><trkpt lat="42.72185333148614" lon="2.7696201217555965"><ele>118.0</ele><time>2026-04-04T11:59:45Z</time></trkpt><trkpt lat="42.72186317210775" lon="2.7693561356937177"><ele>118.00000000000001</ele><time>2026-04-04T11:59:46Z</time></trkpt><trkpt lat="42.72188982241201" lon="2.7692591830772773"><ele>118.0</ele><time>2026-04-04T11:59:47Z</time></trkpt><trkpt lat="42.72191924748451" lon="2.76917235201821"><ele>118.0</ele><time>2026-04-04T11:59:48Z</time></trkpt><trkpt lat="42.72196576507042" lon="2.769062544169115"><ele>118.0</ele><time>2026-04-04T11:59:49Z</time></trkpt><trkpt lat="42.72201483747326" lon="2.7689449070472247"><ele>118.00000000000001</ele><time>2026-04-04T11:59:50Z</time></trkpt><trkpt lat="42.722064989940975" lon="2.768835435710694"><ele>118.0</ele><time>2026-04-04T11:59:51Z</time></trkpt><trkpt lat="42.72212438373905" lon="2.7686949417997626"><ele>118.00000000000001</ele><time>2026-04-04T11:59:52Z</time></trkpt><trkpt lat="42.72216117575861" lon="2.7686092878849706"><ele>118.0</ele><time>2026-04-04T11:59:53Z</time></trkpt><trkpt lat="42.722192663007526" lon="2.7685197211563257"><ele>118.0</ele><time>2026-04-04T11:59:54Z</time></trkpt><trkpt lat="42.72224007419813" lon="2.7683541561821645"><ele>118.0</ele><time>2026-04-04T11:59:56Z</time></trkpt><trkpt lat="42.72226624763701" lon="2.768234148686802"><ele>118.00000000000001</ele><time>2026-04-04T11:59:57Z</time></trkpt><trkpt lat="42.7222846849196" lon="2.768137620111435"><ele>118.0</ele><time>2026-04-04T11:59:58Z</time></trkpt><trkpt lat="42.72230186716607" lon="2.7680301822067555"><ele>118.33333333333334</ele><time>2026-04-04T11:59:59Z</time></trkpt><trkpt lat="42.72231904073879" lon="2.767930352876402"><ele>118.66666666666667</ele><time>2026-04-04T12:00:00Z</time></trkpt><trkpt lat="42.722347585977886" lon="2.767816312344796"><ele>119.0</ele><time>2026-04-04T12:00:01Z</time></trkpt><trkpt lat="42.72238324367754" lon="2.767709266267665"><ele>119.33333333333334</ele><time>2026-04-04T12:00:02Z</time></trkpt><trkpt lat="42.722417305260755" lon="2.7675927977400883"><ele>119.66666666666667</ele><time>2026-04-04T12:00:03Z</time></trkpt><trkpt lat="42.72245748023071" lon="2.767473813230293"><ele>120.0</ele><time>2026-04-04T12:00:04Z</time></trkpt><trkpt lat="42.72250407355338" lon="2.7673532719691045"><ele>120.2</ele><time>2026-04-04T12:00:05Z</time></trkpt><trkpt lat="42.722542413166664" lon="2.7672450365858654"><ele>120.4</ele><time>2026-04-04T12:00:06Z</time></trkpt><trkpt lat="42.72257371441891" lon="2.7671278470997267"><ele>120.6</ele><time>2026-04-04T12:00:07Z</time></trkpt><trkpt lat="42.72260721771994" lon="2.767002569223635"><ele>120.8</ele><time>2026-04-04T12:00:08Z</time></trkpt><trkpt lat="42.72264646334486" lon="2.766853653047247"><ele>121.0</ele><time>2026-04-04T12:00:09Z</time></trkpt><trkpt lat="42.72267760836643" lon="2.7667169644561125"><ele>121.0</ele><time>2026-04-04T12:00:10Z</time></trkpt><trkpt lat="42.72271678176942" lon="2.7665983565763974"><ele>121.0</ele><time>2026-04-04T12:00:11Z</time></trkpt><trkpt lat="42.7227554919599" lon="2.76650391164468"><ele>121.0</ele><time>2026-04-04T12:00:12Z</time></trkpt><trkpt lat="42.72279104646453" lon="2.7664152161132893"><ele>121.0</ele><time>2026-04-04T12:00:13Z</time></trkpt><trkpt lat="42.722858754641265" lon="2.7662877343070287"><ele>121.0</ele><time>2026-04-04T12:00:15Z</time></trkpt><trkpt lat="42.722927835378066" lon="2.766199423544477"><ele>120.8</ele><time>2026-04-04T12:00:17Z</time></trkpt><trkpt lat="42.723034232276326" lon="2.7661366146573805"><ele>120.6</ele><time>2026-04-04T12:00:19Z</time></trkpt><trkpt lat="42.723140273335915" lon="2.76611869979444"><ele>120.4</ele><time>2026-04-04T12:00:21Z</time></trkpt><trkpt lat="42.72321362081412" lon="2.766013473028922"><ele>120.2</ele><time>2026-04-04T12:00:23Z</time></trkpt><trkpt lat="42.72324554228673" lon="2.7659305914018937"><ele>120.0</ele><time>2026-04-04T12:00:24Z</time></trkpt><trkpt lat="42.72327784293343" lon="2.765850113627531"><ele>120.0</ele><time>2026-04-04T12:00:25Z</time></trkpt><trkpt lat="42.723311620161205" lon="2.765774245326632"><ele>120.0</ele><time>2026-04-04T12:00:26Z</time></trkpt><trkpt lat="42.72334363180057" lon="2.7656937278267475"><ele>120.0</ele><time>2026-04-04T12:00:27Z</time></trkpt><trkpt lat="42.72338412360868" lon="2.765593131539976"><ele>120.0</ele><time>2026-04-04T12:00:28Z</time></trkpt><trkpt lat="42.72341654796452" lon="2.7654985199413664"><ele>120.0</ele><time>2026-04-04T12:00:29Z</time></trkpt><trkpt lat="42.723450050752426" lon="2.765392698161019"><ele>120.0</ele><time>2026-04-04T12:00:30Z</time></trkpt><trkpt lat="42.723484860995065" lon="2.7652869090541103"><ele>120.5</ele><time>2026-04-04T12:00:31Z</time></trkpt><trkpt lat="42.723528733974156" lon="2.765182805956431"><ele>121.0</ele><time>2026-04-04T12:00:32Z</time></trkpt><trkpt lat="42.72358095339838" lon="2.765078857689272"><ele>121.5</ele><time>2026-04-04T12:00:33Z</time></trkpt><trkpt lat="42.72362967507453" lon="2.7649854016446915"><ele>122.0</ele><time>2026-04-04T12:00:34Z</time></trkpt><trkpt lat="42.72366609829409" lon="2.764897257790298"><ele>122.5</ele><time>2026-04-04T12:00:35Z</time></trkpt><trkpt lat="42.72369954568732" lon="2.764805271535484"><ele>123.0</ele><time>2026-04-04T12:00:36Z</time></trkpt><trkpt lat="42.72372895462014" lon="2.764716077928657"><ele>123.0</ele><time>2026-04-04T12:00:37Z</time></trkpt><trkpt lat="42.72375179983967" lon="2.764624539620784"><ele>123.0</ele><time>2026-04-04T12:00:38Z</time></trkpt><trkpt lat="42.72376833283784" lon="2.764530660263419"><ele>123.0</ele><time>2026-04-04T12:00:39Z</time></trkpt><trkpt lat="42.72378455921643" lon="2.764427574747374"><ele>123.0</ele><time>2026-04-04T12:00:40Z</time></trkpt><trkpt lat="42.72381034467383" lon="2.7643288008260867"><ele>123.0</ele><time>2026-04-04T12:00:41Z</time></trkpt><trkpt lat="42.72384702256577" lon="2.7641859966237865"><ele>123.0</ele><time>2026-04-04T12:00:43Z</time></trkpt><trkpt lat="42.72388364010519" lon="2.7641027812854713"><ele>122.66666666666667</ele><time>2026-04-04T12:00:45Z</time></trkpt><trkpt lat="42.723947876730584" lon="2.7640804722317984"><ele>122.33333333333334</ele><time>2026-04-04T12:00:47Z</time></trkpt><trkpt lat="42.724041037272016" lon="2.764088654115906"><ele>122.0</ele><time>2026-04-04T12:00:49Z</time></trkpt><trkpt lat="42.72412234211289" lon="2.764147861207931"><ele>121.66666666666667</ele><time>2026-04-04T12:00:51Z</time></trkpt><trkpt lat="42.72419309651796" lon="2.7641319094941856"><ele>121.33333333333334</ele><time>2026-04-04T12:00:53Z</time></trkpt><trkpt lat="42.7242310351595" lon="2.764046641878583"><ele>121.0</ele><time>2026-04-04T12:00:55Z</time></trkpt><trkpt lat="42.724260971152454" lon="2.7639374891702793"><ele>121.0</ele><time>2026-04-04T12:00:57Z</time></trkpt><trkpt lat="42.72428565428194" lon="2.7637687946053755"><ele>121.0</ele><time>2026-04-04T12:00:59Z</time></trkpt><trkpt lat="42.724322411927474" lon="2.7636301634133114"><ele>121.0</ele><time>2026-04-04T12:01:01Z</time></trkpt><trkpt lat="42.724353377912735" lon="2.7634652940187663"><ele>121.0</ele><time>2026-04-04T12:01:03Z</time></trkpt><trkpt lat="42.72436498573105" lon="2.7633670403482347"><ele>121.0</ele><time>2026-04-04T12:01:04Z</time></trkpt><trkpt lat="42.72437203110095" lon="2.763276468875579"><ele>121.16666666666667</ele><time>2026-04-04T12:01:05Z</time></trkpt><trkpt lat="42.724377425505374" lon="2.76316938422229"><ele>121.33333333333334</ele><time>2026-04-04T12:01:06Z</time></trkpt><trkpt lat="42.72438218326364" lon="2.7630649491321533"><ele>121.5</ele><time>2026-04-04T12:01:07Z</time></trkpt><trkpt lat="42.72438770933484" lon="2.7629708955652266"><ele>121.66666666666666</ele><time>2026-04-04T12:01:08Z</time></trkpt><trkpt lat="42.72442587599206" lon="2.762844172916772"><ele>121.83333333333333</ele><time>2026-04-04T12:01:10Z</time></trkpt><trkpt lat="42.72446725590803" lon="2.7627480146777965"><ele>122.0</ele><time>2026-04-04T12:01:12Z</time></trkpt><trkpt lat="42.72453240297615" lon="2.7627054279841197"><ele>122.39999999999999</ele><time>2026-04-04T12:01:16Z</time></trkpt><trkpt lat="42.724598238229134" lon="2.762741010978186"><ele>122.79999999999998</ele><time>2026-04-04T12:01:18Z</time></trkpt><trkpt lat="42.72468504316412" lon="2.762792671059712"><ele>123.2</ele><time>2026-04-04T12:01:20Z</time></trkpt><trkpt lat="42.72478753764529" lon="2.762822282001796"><ele>123.6</ele><time>2026-04-04T12:01:22Z</time></trkpt><trkpt lat="42.724903184030694" lon="2.762874787314793"><ele>124.0</ele><time>2026-04-04T12:01:24Z</time></trkpt><trkpt lat="42.725019255068396" lon="2.7629262538771187"><ele>124.0</ele><time>2026-04-04T12:01:26Z</time></trkpt><trkpt lat="42.72513286736527" lon="2.762969712630446"><ele>124.0</ele><time>2026-04-04T12:01:28Z</time></trkpt><trkpt lat="42.725249225626584" lon="2.7630304533512757"><ele>124.0</ele><time>2026-04-04T12:01:30Z</time></trkpt><trkpt lat="42.725322084301986" lon="2.7630615783581294"><ele>124.0</ele><time>2026-04-04T12:01:31Z</time></trkpt><trkpt lat="42.72538736890443" lon="2.7630878360054942"><ele>124.0</ele><time>2026-04-04T12:01:32Z</time></trkpt><trkpt lat="42.72546085751839" lon="2.7631154055512974"><ele>124.33333333333334</ele><time>2026-04-04T12:01:33Z</time></trkpt><trkpt lat="42.72556926202196" lon="2.763163031328389"><ele>124.66666666666667</ele><time>2026-04-04T12:01:35Z</time></trkpt><trkpt lat="42.72564222354932" lon="2.7631845977986167"><ele>125.0</ele><time>2026-04-04T12:01:37Z</time></trkpt><trkpt lat="42.725697450973044" lon="2.7631405850641357"><ele>125.33333333333334</ele><time>2026-04-04T12:01:39Z</time></trkpt><trkpt lat="42.725764960192166" lon="2.7631219767008917"><ele>125.66666666666667</ele><time>2026-04-04T12:01:44Z</time></trkpt><trkpt lat="42.72571223686373" lon="2.763184502880166"><ele>126.0</ele><time>2026-04-04T12:01:50Z</time></trkpt><trkpt lat="42.72566933462344" lon="2.7631165523286443"><ele>126.0</ele><time>2026-04-04T12:01:53Z</time></trkpt><trkpt lat="42.72573496072415" lon="2.7630371459075254"><ele>126.0</ele><time>2026-04-04T12:01:56Z</time></trkpt><trkpt lat="42.72580553426078" lon="2.763048959353065"><ele>126.0</ele><time>2026-04-04T12:02:09Z</time></trkpt><trkpt lat="42.72588079424663" lon="2.7630607765606436"><ele>126.0</ele><time>2026-04-04T12:02:15Z</time></trkpt><trkpt lat="42.72594767480922" lon="2.7630662897633544"><ele>126.0</ele><time>2026-04-04T12:02:27Z</time></trkpt><trkpt lat="42.72601276088022" lon="2.7630739449473007"><ele>126.0</ele><time>2026-04-04T12:02:33Z</time></trkpt><trkpt lat="42.72608592099545" lon="2.763090425177406"><ele>126.0</ele><time>2026-04-04T12:02:52Z</time></trkpt><trkpt lat="42.72615390257687" lon="2.7630973495115425"><ele>126.14285714285714</ele><time>2026-04-04T12:02:57Z</time></trkpt><trkpt lat="42.72621644688836" lon="2.763078917455007"><ele>126.28571428571428</ele><time>2026-04-04T12:03:06Z</time></trkpt><trkpt lat="42.72628109415725" lon="2.7630204867603205"><ele>126.42857142857143</ele><time>2026-04-04T12:03:11Z</time></trkpt><trkpt lat="42.72632389738848" lon="2.762937548081136"><ele>126.57142857142857</ele><time>2026-04-04T12:03:14Z</time></trkpt><trkpt lat="42.72629437050933" lon="2.7630305536545436"><ele>126.71428571428571</ele><time>2026-04-04T12:09:30.999Z</time></trkpt><trkpt lat="42.726216322722564" lon="2.7630866244570655"><ele>126.85714285714286</ele><time>2026-04-04T12:09:33.999Z</time></trkpt><trkpt lat="42.726148542636004" lon="2.7630936439978604"><ele>127.0</ele><time>2026-04-04T12:09:35.999Z</time></trkpt><trkpt lat="42.72608258947477" lon="2.763074178374383"><ele>126.85714285714286</ele><time>2026-04-04T12:09:39.999Z</time></trkpt><trkpt lat="42.72602105251175" lon="2.7630509197725877"><ele>126.71428571428571</ele><time>2026-04-04T12:09:50.999Z</time></trkpt><trkpt lat="42.72594757536669" lon="2.7630496751706515"><ele>126.57142857142857</ele><time>2026-04-04T12:09:52.999Z</time></trkpt><trkpt lat="42.725874478555546" lon="2.763042733295182"><ele>126.42857142857143</ele><time>2026-04-04T12:09:54.999Z</time></trkpt><trkpt lat="42.72580928973173" lon="2.7630254116613737"><ele>126.28571428571428</ele><time>2026-04-04T12:09:56.999Z</time></trkpt><trkpt lat="42.72573391065809" lon="2.763044270838847"><ele>126.14285714285714</ele><time>2026-04-04T12:10:00.999Z</time></trkpt><trkpt lat="42.725741297701106" lon="2.7631368781220664"><ele>126.0</ele><time>2026-04-04T12:10:05Z</time></trkpt><trkpt lat="42.72582126227296" lon="2.7631251434159876"><ele>126.0</ele><time>2026-04-04T12:10:08Z</time></trkpt><trkpt lat="42.72589986735964" lon="2.7631375834732266"><ele>126.0</ele><time>2026-04-04T12:10:10Z</time></trkpt><trkpt lat="42.72598826077508" lon="2.7631582341845786"><ele>126.0</ele><time>2026-04-04T12:10:12Z</time></trkpt><trkpt lat="42.72609068934823" lon="2.763179894851208"><ele>126.0</ele><time>2026-04-04T12:10:14Z</time></trkpt><trkpt lat="42.72619601060026" lon="2.7632134065747778"><ele>126.0</ele><time>2026-04-04T12:10:16Z</time></trkpt><trkpt lat="42.72626337165922" lon="2.763223813756427"><ele>126.0</ele><time>2026-04-04T12:10:17Z</time></trkpt><trkpt lat="42.72636353023488" lon="2.763238121036738"><ele>126.19999999999999</ele><time>2026-04-04T12:10:19Z</time></trkpt><trkpt lat="42.72647218263886" lon="2.7632515701022204"><ele>126.39999999999999</ele><time>2026-04-04T12:10:21Z</time></trkpt><trkpt lat="42.726587722147116" lon="2.763259238507052"><ele>126.6</ele><time>2026-04-04T12:10:23Z</time></trkpt><trkpt lat="42.7266578430404" lon="2.7632735984109287"><ele>126.8</ele><time>2026-04-04T12:10:24Z</time></trkpt><trkpt lat="42.726761041771006" lon="2.7632912222167967"><ele>127.0</ele><time>2026-04-04T12:10:25Z</time></trkpt><trkpt lat="42.726847413653964" lon="2.7633124306974386"><ele>128.33333333333334</ele><time>2026-04-04T12:10:26Z</time></trkpt><trkpt lat="42.72692641877584" lon="2.763323511242405"><ele>129.66666666666669</ele><time>2026-04-04T12:10:27Z</time></trkpt><trkpt lat="42.72703030156624" lon="2.7633429833902987"><ele>131.0</ele><time>2026-04-04T12:10:29Z</time></trkpt><trkpt lat="42.72711685068928" lon="2.7633501777454286"><ele>132.33333333333334</ele><time>2026-04-04T12:10:31Z</time></trkpt><trkpt lat="42.72718543048673" lon="2.763362622651786"><ele>133.66666666666666</ele><time>2026-04-04T12:10:33Z</time></trkpt><trkpt lat="42.727244129398855" lon="2.76329427575821"><ele>135.0</ele><time>2026-04-04T12:10:39Z</time></trkpt><trkpt lat="42.727302013615834" lon="2.763242852122716"><ele>135.0</ele><time>2026-04-04T12:10:42Z</time></trkpt><trkpt lat="42.727348551611065" lon="2.7633133666154834"><ele>135.0</ele><time>2026-04-04T12:10:51Z</time></trkpt><trkpt lat="42.72739306120465" lon="2.7633772132434506"><ele>135.0</ele><time>2026-04-04T12:10:55.998Z</time></trkpt><trkpt lat="42.72746254782683" lon="2.76338202494072"><ele>135.0</ele><time>2026-04-04T12:11:00.998Z</time></trkpt><trkpt lat="42.7275419515086" lon="2.7633861473730943"><ele>135.0</ele><time>2026-04-04T12:11:04.998Z</time></trkpt><trkpt lat="42.72760719943068" lon="2.7633916651763357"><ele>135.0</ele><time>2026-04-04T12:11:06.999Z</time></trkpt><trkpt lat="42.72767835806944" lon="2.763377608029004"><ele>135.0</ele><time>2026-04-04T12:11:08.999Z</time></trkpt><trkpt lat="42.72774905092944" lon="2.7633376686995073"><ele>136.0</ele><time>2026-04-04T12:11:10.999Z</time></trkpt><trkpt lat="42.72781104008453" lon="2.763301348908931"><ele>137.0</ele><time>2026-04-04T12:11:12.999Z</time></trkpt><trkpt lat="42.72787518826298" lon="2.763258487009826"><ele>138.0</ele><time>2026-04-04T12:11:14.999Z</time></trkpt><trkpt lat="42.72794001735198" lon="2.763193315160803"><ele>139.0</ele><time>2026-04-04T12:11:16.999Z</time></trkpt><trkpt lat="42.7280183010796" lon="2.763143947299495"><ele>140.0</ele><time>2026-04-04T12:11:18.999Z</time></trkpt><trkpt lat="42.72810629101101" lon="2.763087354526809"><ele>141.0</ele><time>2026-04-04T12:11:20.999Z</time></trkpt><trkpt lat="42.72818530204914" lon="2.7630218994173474"><ele>141.0</ele><time>2026-04-04T12:11:22.999Z</time></trkpt><trkpt lat="42.72825626264772" lon="2.762965556678349"><ele>141.0</ele><time>2026-04-04T12:11:24.999Z</time></trkpt><trkpt lat="42.7283285955359" lon="2.7629409311850814"><ele>141.0</ele><time>2026-04-04T12:11:26.999Z</time></trkpt><trkpt lat="42.728391842295224" lon="2.7629300273032342"><ele>141.0</ele><time>2026-04-04T12:11:28.999Z</time></trkpt><trkpt lat="42.72846275203132" lon="2.762911686137094"><ele>141.0</ele><time>2026-04-04T12:11:31Z</time></trkpt><trkpt lat="42.7285412150618" lon="2.7628551912724704"><ele>141.0</ele><time>2026-04-04T12:11:33Z</time></trkpt><trkpt lat="42.728637035922354" lon="2.7628107944430442"><ele>142.33333333333334</ele><time>2026-04-04T12:11:35Z</time></trkpt><trkpt lat="42.72871373105506" lon="2.7627822226328527"><ele>143.66666666666666</ele><time>2026-04-04T12:11:37Z</time></trkpt><trkpt lat="42.728798348597664" lon="2.762724075624553"><ele>145.0</ele><time>2026-04-04T12:11:40Z</time></trkpt><trkpt lat="42.7288515287958" lon="2.7626645214876424"><ele>146.33333333333331</ele><time>2026-04-04T12:11:48Z</time></trkpt><trkpt lat="42.72888473408712" lon="2.7625846258782643"><ele>147.66666666666666</ele><time>2026-04-04T12:11:50Z</time></trkpt><trkpt lat="42.72893400250139" lon="2.7625268947816384"><ele>149.0</ele><time>2026-04-04T12:11:52Z</time></trkpt><trkpt lat="42.728998145197856" lon="2.7624501134223354"><ele>149.0</ele><time>2026-04-04T12:11:55Z</time></trkpt><trkpt lat="42.729072332847956" lon="2.7623981301397627"><ele>149.0</ele><time>2026-04-04T12:11:58Z</time></trkpt><trkpt lat="42.72913302903449" lon="2.762339403093544"><ele>149.0</ele><time>2026-04-04T12:12:02Z</time></trkpt><trkpt lat="42.729200858836435" lon="2.762279857685981"><ele>149.0</ele><time>2026-04-04T12:12:05Z</time></trkpt><trkpt lat="42.72925701294223" lon="2.76223792681284"><ele>149.0</ele><time>2026-04-04T12:12:07Z</time></trkpt><trkpt lat="42.72931009632313" lon="2.7621836315785626"><ele>149.0</ele><time>2026-04-04T12:12:09Z</time></trkpt><trkpt lat="42.729360569449156" lon="2.76213126227975"><ele>149.0</ele><time>2026-04-04T12:12:11Z</time></trkpt><trkpt lat="42.72942650431337" lon="2.762068563148723"><ele>150.66666666666666</ele><time>2026-04-04T12:12:14Z</time></trkpt><trkpt lat="42.72948913398331" lon="2.7620308176913224"><ele>152.33333333333331</ele><time>2026-04-04T12:12:17Z</time></trkpt><trkpt lat="42.72955885823848" lon="2.7619610003909756"><ele>154.0</ele><time>2026-04-04T12:12:20Z</time></trkpt><trkpt lat="42.729628056500985" lon="2.761934123038018"><ele>155.66666666666666</ele><time>2026-04-04T12:12:22.001Z</time></trkpt><trkpt lat="42.72969523014572" lon="2.761882511475343"><ele>157.33333333333334</ele><time>2026-04-04T12:12:24.001Z</time></trkpt><trkpt lat="42.72975467552856" lon="2.761818997323131"><ele>159.0</ele><time>2026-04-04T12:12:27.001Z</time></trkpt><trkpt lat="42.72982476128113" lon="2.761753922446667"><ele>159.0</ele><time>2026-04-04T12:12:30.001Z</time></trkpt><trkpt lat="42.72990573152802" lon="2.7617199966945294"><ele>159.0</ele><time>2026-04-04T12:12:33.001Z</time></trkpt><trkpt lat="42.729966106889975" lon="2.7616943160932075"><ele>159.0</ele><time>2026-04-04T12:12:35.001Z</time></trkpt><trkpt lat="42.73002230286947" lon="2.761616284951742"><ele>159.0</ele><time>2026-04-04T12:12:38.001Z</time></trkpt><trkpt lat="42.7300835772368" lon="2.761573148552704"><ele>159.0</ele><time>2026-04-04T12:12:41.001Z</time></trkpt><trkpt lat="42.730150347048756" lon="2.7615214843229547"><ele>159.0</ele><time>2026-04-04T12:12:44.001Z</time></trkpt><trkpt lat="42.73022058607378" lon="2.7615012196322533"><ele>159.0</ele><time>2026-04-04T12:12:46.001Z</time></trkpt><trkpt lat="42.73028932602243" lon="2.761485822919532"><ele>160.7142857142857</ele><time>2026-04-04T12:12:50.001Z</time></trkpt><trkpt lat="42.73037220454674" lon="2.7614767430934903"><ele>162.42857142857144</ele><time>2026-04-04T12:12:53.001Z</time></trkpt><trkpt lat="42.730436220297186" lon="2.761482574419252"><ele>164.14285714285714</ele><time>2026-04-04T12:12:55.001Z</time></trkpt><trkpt lat="42.730511848065255" lon="2.7614740993628173"><ele>165.85714285714283</ele><time>2026-04-04T12:12:57.001Z</time></trkpt><trkpt lat="42.73057867358517" lon="2.76146225642622"><ele>167.57142857142856</ele><time>2026-04-04T12:12:59.001Z</time></trkpt><trkpt lat="42.730649234617815" lon="2.76143109395153"><ele>169.28571428571428</ele><time>2026-04-04T12:13:01.001Z</time></trkpt><trkpt lat="42.73072825934246" lon="2.761404257833492"><ele>171.0</ele><time>2026-04-04T12:13:03Z</time></trkpt><trkpt lat="42.73081017598851" lon="2.7613553252351126"><ele>171.0</ele><time>2026-04-04T12:13:05Z</time></trkpt><trkpt lat="42.73086952556251" lon="2.761294321728132"><ele>171.0</ele><time>2026-04-04T12:13:07Z</time></trkpt><trkpt lat="42.7309319994794" lon="2.761223352219686"><ele>171.0</ele><time>2026-04-04T12:13:09Z</time></trkpt><trkpt lat="42.730991463298345" lon="2.761149384796472"><ele>171.0</ele><time>2026-04-04T12:13:11Z</time></trkpt><trkpt lat="42.731061174613444" lon="2.7610792647911317"><ele>171.0</ele><time>2026-04-04T12:13:13Z</time></trkpt><trkpt lat="42.73113190345631" lon="2.761002598001573"><ele>171.0</ele><time>2026-04-04T12:13:15Z</time></trkpt><trkpt lat="42.73119324416872" lon="2.7609567832772153"><ele>172.33333333333334</ele><time>2026-04-04T12:13:17Z</time></trkpt><trkpt lat="42.73124700372391" lon="2.760887049726111"><ele>173.66666666666666</ele><time>2026-04-04T12:13:19Z</time></trkpt><trkpt lat="42.73133296448019" lon="2.7608286074046955"><ele>175.0</ele><time>2026-04-04T12:13:22Z</time></trkpt><trkpt lat="42.73140698767245" lon="2.760766042087911"><ele>176.33333333333331</ele><time>2026-04-04T12:13:25Z</time></trkpt><trkpt lat="42.73146102766365" lon="2.7607119328900604"><ele>177.66666666666666</ele><time>2026-04-04T12:13:27Z</time></trkpt><trkpt lat="42.73153501942623" lon="2.7606819930202913"><ele>179.0</ele><time>2026-04-04T12:14:15.001Z</time></trkpt><trkpt lat="42.73160636693285" lon="2.76060536151299"><ele>179.0</ele><time>2026-04-04T12:14:22.001Z</time></trkpt><trkpt lat="42.73164750257755" lon="2.760508708214927"><ele>179.0</ele><time>2026-04-04T12:14:24.001Z</time></trkpt><trkpt lat="42.73171517196324" lon="2.7604481428527605"><ele>179.0</ele><time>2026-04-04T12:14:27.001Z</time></trkpt><trkpt lat="42.73177123557238" lon="2.760397212856948"><ele>179.0</ele><time>2026-04-04T12:14:30.001Z</time></trkpt><trkpt lat="42.73182640454019" lon="2.760355247616182"><ele>179.0</ele><time>2026-04-04T12:14:32.001Z</time></trkpt><trkpt lat="42.73189046366203" lon="2.760329595487074"><ele>179.0</ele><time>2026-04-04T12:14:34.001Z</time></trkpt><trkpt lat="42.73197419951066" lon="2.760278449551156"><ele>181.16666666666666</ele><time>2026-04-04T12:14:37.001Z</time></trkpt><trkpt lat="42.73203546944636" lon="2.76021568222797"><ele>183.33333333333331</ele><time>2026-04-04T12:14:39.001Z</time></trkpt><trkpt lat="42.73208568656987" lon="2.7601483218060228"><ele>185.5</ele><time>2026-04-04T12:14:41.001Z</time></trkpt><trkpt lat="42.73216103372546" lon="2.7601106247380884"><ele>187.66666666666666</ele><time>2026-04-04T12:14:43.001Z</time></trkpt><trkpt lat="42.73223620704244" lon="2.7600710537685744"><ele>189.83333333333334</ele><time>2026-04-04T12:14:45.001Z</time></trkpt><trkpt lat="42.73230945507881" lon="2.7599970129222187"><ele>192.0</ele><time>2026-04-04T12:14:47.001Z</time></trkpt><trkpt lat="42.732354394799465" lon="2.759921057650554"><ele>192.0</ele><time>2026-04-04T12:14:49.001Z</time></trkpt><trkpt lat="42.7324152460839" lon="2.759878325153706"><ele>192.0</ele><time>2026-04-04T12:14:51.002Z</time></trkpt><trkpt lat="42.732466458499154" lon="2.7597708151794946"><ele>192.0</ele><time>2026-04-04T12:14:54.002Z</time></trkpt><trkpt lat="42.732527596976574" lon="2.75968443597892"><ele>192.0</ele><time>2026-04-04T12:14:56.002Z</time></trkpt><trkpt lat="42.732585729606775" lon="2.759598625009791"><ele>192.0</ele><time>2026-04-04T12:14:59.002Z</time></trkpt><trkpt lat="42.73264674114168" lon="2.759519639424703"><ele>192.0</ele><time>2026-04-04T12:15:02.002Z</time></trkpt><trkpt lat="42.73271210527266" lon="2.7594381059301263"><ele>192.66666666666666</ele><time>2026-04-04T12:15:04.002Z</time></trkpt><trkpt lat="42.73277392710002" lon="2.7593671012623173"><ele>193.33333333333331</ele><time>2026-04-04T12:15:06.002Z</time></trkpt><trkpt lat="42.73283452207438" lon="2.75931810168652"><ele>194.0</ele><time>2026-04-04T12:15:08.001Z</time></trkpt><trkpt lat="42.73288587184909" lon="2.7592633948145204"><ele>194.66666666666666</ele><time>2026-04-04T12:15:10.001Z</time></trkpt><trkpt lat="42.73293706628231" lon="2.75918612036217"><ele>195.33333333333331</ele><time>2026-04-04T12:15:12.001Z</time></trkpt><trkpt lat="42.732976946557024" lon="2.759111540676358"><ele>196.0</ele><time>2026-04-04T12:15:14.001Z</time></trkpt><trkpt lat="42.733049521370425" lon="2.759026488783822"><ele>196.0</ele><time>2026-04-04T12:15:17.001Z</time></trkpt><trkpt lat="42.7331146347148" lon="2.7589838592219675"><ele>196.0</ele><time>2026-04-04T12:15:19.001Z</time></trkpt><trkpt lat="42.733174635485" lon="2.7588698217016656"><ele>196.0</ele><time>2026-04-04T12:15:22Z</time></trkpt><trkpt lat="42.73323225618606" lon="2.7587753400779484"><ele>196.0</ele><time>2026-04-04T12:15:24Z</time></trkpt><trkpt lat="42.733288681235784" lon="2.7586778549382656"><ele>196.0</ele><time>2026-04-04T12:15:26.001Z</time></trkpt><trkpt lat="42.73336169221106" lon="2.758565745593047"><ele>196.4</ele><time>2026-04-04T12:15:28.001Z</time></trkpt><trkpt lat="42.73342418356489" lon="2.7584385584105022"><ele>196.8</ele><time>2026-04-04T12:15:30.001Z</time></trkpt><trkpt lat="42.73348760947003" lon="2.75830249023486"><ele>197.20000000000002</ele><time>2026-04-04T12:15:32.001Z</time></trkpt><trkpt lat="42.733521275773036" lon="2.7582292113953213"><ele>197.60000000000002</ele><time>2026-04-04T12:15:33.001Z</time></trkpt><trkpt lat="42.73355716699188" lon="2.758150204017559"><ele>198.0</ele><time>2026-04-04T12:15:34.001Z</time></trkpt><trkpt lat="42.73362400598388" lon="2.75799994346397"><ele>197.33333333333334</ele><time>2026-04-04T12:15:36.001Z</time></trkpt><trkpt lat="42.73365919688477" lon="2.757921397228639"><ele>196.66666666666669</ele><time>2026-04-04T12:15:37.001Z</time></trkpt><trkpt lat="42.73371930178195" lon="2.757795764429571"><ele>196.0</ele><time>2026-04-04T12:15:39.001Z</time></trkpt><trkpt lat="42.73375927018868" lon="2.7577219851017993"><ele>195.33333333333334</ele><time>2026-04-04T12:15:40.001Z</time></trkpt><trkpt lat="42.73380868462711" lon="2.757608360026859"><ele>194.66666666666669</ele><time>2026-04-04T12:15:42.001Z</time></trkpt><trkpt lat="42.733850425864965" lon="2.757503313115952"><ele>194.0</ele><time>2026-04-04T12:15:44.001Z</time></trkpt><trkpt lat="42.73389816684044" lon="2.757397227735766"><ele>194.0</ele><time>2026-04-04T12:15:46.001Z</time></trkpt><trkpt lat="42.73395026148226" lon="2.7572886074213203"><ele>194.0</ele><time>2026-04-04T12:15:48.001Z</time></trkpt><trkpt lat="42.73400291430889" lon="2.7571863407733033"><ele>194.0</ele><time>2026-04-04T12:15:50.001Z</time></trkpt><trkpt lat="42.73405575033977" lon="2.7570911220649426"><ele>194.0</ele><time>2026-04-04T12:15:52.001Z</time></trkpt><trkpt lat="42.73411160855573" lon="2.7569831968190917"><ele>194.0</ele><time>2026-04-04T12:15:54.001Z</time></trkpt><trkpt lat="42.73418374074313" lon="2.756915436530448"><ele>194.00000000000003</ele><time>2026-04-04T12:15:56.001Z</time></trkpt><trkpt lat="42.73422811747493" lon="2.7568381870175918"><ele>194.0</ele><time>2026-04-04T12:15:58.001Z</time></trkpt><trkpt lat="42.7342624676035" lon="2.7567411420928734"><ele>194.0</ele><time>2026-04-04T12:16:03.001Z</time></trkpt><trkpt lat="42.7343119868896" lon="2.756665474161855"><ele>194.0</ele><time>2026-04-04T12:16:07.001Z</time></trkpt><trkpt lat="42.73437724791607" lon="2.756669553838968"><ele>194.00000000000003</ele><time>2026-04-04T12:16:20.001Z</time></trkpt><trkpt lat="42.73445135014759" lon="2.7566327232583836"><ele>194.0</ele><time>2026-04-04T12:16:26.001Z</time></trkpt><trkpt lat="42.73447344134848" lon="2.756484410181025"><ele>194.0</ele><time>2026-04-04T12:16:28.001Z</time></trkpt><trkpt lat="42.73450703720171" lon="2.7563596776538817"><ele>194.0</ele><time>2026-04-04T12:16:30.001Z</time></trkpt><trkpt lat="42.73456136877519" lon="2.7562478323315482"><ele>194.0</ele><time>2026-04-04T12:16:32.001Z</time></trkpt><trkpt lat="42.734641067314776" lon="2.7561670941731227"><ele>194.0</ele><time>2026-04-04T12:16:35.001Z</time></trkpt><trkpt lat="42.73472272459407" lon="2.7561212203367544"><ele>194.0</ele><time>2026-04-04T12:16:37.001Z</time></trkpt><trkpt lat="42.734822002712676" lon="2.7561024867939707"><ele>194.0</ele><time>2026-04-04T12:16:39.001Z</time></trkpt><trkpt lat="42.73491664452734" lon="2.7560861870541187"><ele>194.0</ele><time>2026-04-04T12:16:41.002Z</time></trkpt><trkpt lat="42.73502770846307" lon="2.7560693889192045"><ele>194.0</ele><time>2026-04-04T12:16:43.002Z</time></trkpt><trkpt lat="42.73514218360433" lon="2.756037093944634"><ele>194.0</ele><time>2026-04-04T12:16:45.002Z</time></trkpt><trkpt lat="42.7352067415306" lon="2.7560229826187657"><ele>194.0</ele><time>2026-04-04T12:16:46.002Z</time></trkpt><trkpt lat="42.73534665722237" lon="2.75598379177122"><ele>194.7142857142857</ele><time>2026-04-04T12:16:48.002Z</time></trkpt><trkpt lat="42.73541624539965" lon="2.7559634082641065"><ele>195.42857142857144</ele><time>2026-04-04T12:16:49.002Z</time></trkpt><trkpt lat="42.73547540309755" lon="2.7559317767837817"><ele>196.14285714285714</ele><time>2026-04-04T12:16:50.002Z</time></trkpt><trkpt lat="42.73553805217304" lon="2.755892415583223"><ele>196.85714285714283</ele><time>2026-04-04T12:16:51.002Z</time></trkpt><trkpt lat="42.73559484542608" lon="2.755848707536446"><ele>197.57142857142856</ele><time>2026-04-04T12:16:52.002Z</time></trkpt><trkpt lat="42.735654182332354" lon="2.7557985353916568"><ele>198.28571428571428</ele><time>2026-04-04T12:16:53.002Z</time></trkpt><trkpt lat="42.73571054356222" lon="2.7557425930793045"><ele>199.0</ele><time>2026-04-04T12:16:54.002Z</time></trkpt><trkpt lat="42.73580320976431" lon="2.7556435931865875"><ele>199.0</ele><time>2026-04-04T12:16:56.002Z</time></trkpt><trkpt lat="42.7358902407521" lon="2.7555338653690433"><ele>199.0</ele><time>2026-04-04T12:16:58.002Z</time></trkpt><trkpt lat="42.73593612405033" lon="2.7554686540322746"><ele>199.0</ele><time>2026-04-04T12:16:59.002Z</time></trkpt><trkpt lat="42.736013956620525" lon="2.7553476015677654"><ele>199.0</ele><time>2026-04-04T12:17:01.002Z</time></trkpt><trkpt lat="42.736078978388484" lon="2.7552198811765924"><ele>199.0</ele><time>2026-04-04T12:17:03.002Z</time></trkpt><trkpt lat="42.73616110503709" lon="2.7551009158055058"><ele>197.0</ele><time>2026-04-04T12:17:05.002Z</time></trkpt><trkpt lat="42.73621844799154" lon="2.7550028529386625"><ele>195.0</ele><time>2026-04-04T12:17:07.002Z</time></trkpt><trkpt lat="42.736282241655" lon="2.7549335391324172"><ele>193.0</ele><time>2026-04-04T12:17:09.002Z</time></trkpt><trkpt lat="42.73634696631614" lon="2.7548188818127866"><ele>191.0</ele><time>2026-04-04T12:17:11.002Z</time></trkpt><trkpt lat="42.7364020898786" lon="2.754684528510194"><ele>189.0</ele><time>2026-04-04T12:17:13.002Z</time></trkpt><trkpt lat="42.73644877371302" lon="2.754545386405544"><ele>189.0</ele><time>2026-04-04T12:17:15.001Z</time></trkpt><trkpt lat="42.73648828765763" lon="2.7544006433359405"><ele>189.0</ele><time>2026-04-04T12:17:17.001Z</time></trkpt><trkpt lat="42.73651982333188" lon="2.7543259503414568"><ele>189.0</ele><time>2026-04-04T12:17:18.001Z</time></trkpt><trkpt lat="42.73656711173978" lon="2.7542467194482785"><ele>189.0</ele><time>2026-04-04T12:17:19.001Z</time></trkpt><trkpt lat="42.736615722962426" lon="2.754171222954736"><ele>189.0</ele><time>2026-04-04T12:17:20.001Z</time></trkpt><trkpt lat="42.73666413445016" lon="2.7540972083398265"><ele>189.0</ele><time>2026-04-04T12:17:21.001Z</time></trkpt><trkpt lat="42.73672474425653" lon="2.753972276731569"><ele>189.0</ele><time>2026-04-04T12:17:23.001Z</time></trkpt><trkpt lat="42.73676475702424" lon="2.7538475924567622"><ele>189.0</ele><time>2026-04-04T12:17:25.001Z</time></trkpt><trkpt lat="42.73682134891316" lon="2.753717830106097"><ele>189.0</ele><time>2026-04-04T12:17:27.001Z</time></trkpt><trkpt lat="42.73688007191803" lon="2.753577437872633"><ele>189.0</ele><time>2026-04-04T12:17:29.001Z</time></trkpt><trkpt lat="42.73691520589742" lon="2.753492316740842"><ele>189.0</ele><time>2026-04-04T12:17:30.001Z</time></trkpt><trkpt lat="42.73694671486855" lon="2.75340339510282"><ele>187.39999999999998</ele><time>2026-04-04T12:17:31.001Z</time></trkpt><trkpt lat="42.736996968735795" lon="2.7532542622258696"><ele>185.8</ele><time>2026-04-04T12:17:33.001Z</time></trkpt><trkpt lat="42.73702914468216" lon="2.753172181430987"><ele>184.2</ele><time>2026-04-04T12:17:34.001Z</time></trkpt><trkpt lat="42.73707440820751" lon="2.7530932799779966"><ele>182.60000000000002</ele><time>2026-04-04T12:17:35.001Z</time></trkpt><trkpt lat="42.73713207264226" lon="2.753012191655201"><ele>181.0</ele><time>2026-04-04T12:17:36.001Z</time></trkpt><trkpt lat="42.73719853850515" lon="2.752893898965918"><ele>181.0</ele><time>2026-04-04T12:17:37.001Z</time></trkpt><trkpt lat="42.7372483260782" lon="2.752795058223752"><ele>181.0</ele><time>2026-04-04T12:17:38.001Z</time></trkpt><trkpt lat="42.737289912396534" lon="2.752711928711576"><ele>181.0</ele><time>2026-04-04T12:17:39.001Z</time></trkpt><trkpt lat="42.73732833693877" lon="2.75263131026622"><ele>181.0</ele><time>2026-04-04T12:17:40.001Z</time></trkpt><trkpt lat="42.737374308723474" lon="2.7525524382753175"><ele>181.0</ele><time>2026-04-04T12:17:41.001Z</time></trkpt><trkpt lat="42.73741502418624" lon="2.7524710818998583"><ele>181.0</ele><time>2026-04-04T12:17:42.001Z</time></trkpt><trkpt lat="42.737478245147116" lon="2.7523377215548406"><ele>180.66666666666669</ele><time>2026-04-04T12:17:44.001Z</time></trkpt><trkpt lat="42.73755191722459" lon="2.752258128020506"><ele>180.33333333333334</ele><time>2026-04-04T12:17:45.001Z</time></trkpt><trkpt lat="42.73761799886752" lon="2.752199946361799"><ele>180.0</ele><time>2026-04-04T12:17:46.001Z</time></trkpt><trkpt lat="42.73769495850364" lon="2.7521395599599288"><ele>179.66666666666666</ele><time>2026-04-04T12:17:47.001Z</time></trkpt><trkpt lat="42.7377627112471" lon="2.7520979810508033"><ele>179.33333333333331</ele><time>2026-04-04T12:17:48.001Z</time></trkpt><trkpt lat="42.737821551136065" lon="2.752062246560285"><ele>179.0</ele><time>2026-04-04T12:17:49.001Z</time></trkpt><trkpt lat="42.73792267455394" lon="2.75200441247495"><ele>179.0</ele><time>2026-04-04T12:17:51.001Z</time></trkpt><trkpt lat="42.73798193731412" lon="2.7519620091516415"><ele>179.0</ele><time>2026-04-04T12:17:52.001Z</time></trkpt><trkpt lat="42.738047993858636" lon="2.7519045903384796"><ele>179.0</ele><time>2026-04-04T12:17:53.001Z</time></trkpt><trkpt lat="42.73813956728127" lon="2.751823960163915"><ele>179.0</ele><time>2026-04-04T12:17:55.001Z</time></trkpt><trkpt lat="42.73821929502601" lon="2.751760277994248"><ele>179.0</ele><time>2026-04-04T12:17:57.001Z</time></trkpt><trkpt lat="42.73829553521305" lon="2.751697958509679"><ele>179.0</ele><time>2026-04-04T12:17:59.001Z</time></trkpt><trkpt lat="42.7383657950968" lon="2.7516340212293273"><ele>178.66666666666666</ele><time>2026-04-04T12:18:01.001Z</time></trkpt><trkpt lat="42.73843281075478" lon="2.751565734428237"><ele>178.33333333333331</ele><time>2026-04-04T12:18:03.001Z</time></trkpt><trkpt lat="42.73850721238334" lon="2.751507032571018"><ele>178.0</ele><time>2026-04-04T12:18:05.001Z</time></trkpt><trkpt lat="42.738588135385726" lon="2.7514606062842004"><ele>177.66666666666666</ele><time>2026-04-04T12:18:07.001Z</time></trkpt><trkpt lat="42.73867265855902" lon="2.751416745737087"><ele>177.33333333333334</ele><time>2026-04-04T12:18:09.001Z</time></trkpt><trkpt lat="42.738757370750186" lon="2.7513712571482625"><ele>177.0</ele><time>2026-04-04T12:18:11.001Z</time></trkpt><trkpt lat="42.73882827237721" lon="2.7513310575822163"><ele>177.0</ele><time>2026-04-04T12:18:13.001Z</time></trkpt><trkpt lat="42.738890238011535" lon="2.751262649627893"><ele>177.0</ele><time>2026-04-04T12:18:15.001Z</time></trkpt><trkpt lat="42.73894836033587" lon="2.751156844249978"><ele>177.0</ele><time>2026-04-04T12:18:17.001Z</time></trkpt><trkpt lat="42.73896844539209" lon="2.7510317363670618"><ele>177.0</ele><time>2026-04-04T12:18:19.001Z</time></trkpt><trkpt lat="42.73900621084052" lon="2.7508747135189746"><ele>177.0</ele><time>2026-04-04T12:18:21.001Z</time></trkpt><trkpt lat="42.73904456718808" lon="2.7507370158977835"><ele>177.66666666666666</ele><time>2026-04-04T12:18:23.001Z</time></trkpt><trkpt lat="42.73907872063908" lon="2.750642812843862"><ele>178.33333333333334</ele><time>2026-04-04T12:18:25.001Z</time></trkpt><trkpt lat="42.7391377912737" lon="2.7505659219661815"><ele>179.0</ele><time>2026-04-04T12:18:28.001Z</time></trkpt><trkpt lat="42.73922515188976" lon="2.750553916158068"><ele>179.66666666666669</ele><time>2026-04-04T12:18:30.001Z</time></trkpt><trkpt lat="42.73933334449527" lon="2.7505466583208373"><ele>180.33333333333334</ele><time>2026-04-04T12:18:32.001Z</time></trkpt><trkpt lat="42.73940936327102" lon="2.750568842622591"><ele>181.0</ele><time>2026-04-04T12:18:34.001Z</time></trkpt><trkpt lat="42.73944209573898" lon="2.750643155802665"><ele>181.20000000000002</ele><time>2026-04-04T12:18:36.001Z</time></trkpt><trkpt lat="42.73949876500066" lon="2.7507067742309204"><ele>181.4</ele><time>2026-04-04T12:18:40.001Z</time></trkpt><trkpt lat="42.739569094857785" lon="2.7507799771312804"><ele>181.6</ele><time>2026-04-04T12:19:05.002Z</time></trkpt><trkpt lat="42.739613721164595" lon="2.7508783821961966"><ele>181.8</ele><time>2026-04-04T12:19:07.002Z</time></trkpt><trkpt lat="42.73966784698429" lon="2.7510219746629954"><ele>182.0</ele><time>2026-04-04T12:19:09.002Z</time></trkpt><trkpt lat="42.739705730119695" lon="2.7511296888001455"><ele>181.0</ele><time>2026-04-04T12:19:11.002Z</time></trkpt><trkpt lat="42.739723261517504" lon="2.7512473995794444"><ele>180.0</ele><time>2026-04-04T12:19:13.002Z</time></trkpt><trkpt lat="42.73974820221806" lon="2.751342744554724"><ele>179.0</ele><time>2026-04-04T12:19:15.002Z</time></trkpt><trkpt lat="42.73977179592055" lon="2.751443772095777"><ele>178.0</ele><time>2026-04-04T12:19:18.002Z</time></trkpt><trkpt lat="42.73978321092143" lon="2.7515539415568435"><ele>177.0</ele><time>2026-04-04T12:19:20.001Z</time></trkpt><trkpt lat="42.73981268948628" lon="2.7516892972370317"><ele>176.0</ele><time>2026-04-04T12:19:22.001Z</time></trkpt><trkpt lat="42.73981608080634" lon="2.751787726000154"><ele>175.33333333333331</ele><time>2026-04-04T12:19:23.001Z</time></trkpt><trkpt lat="42.73983251435105" lon="2.7518744400716733"><ele>174.66666666666666</ele><time>2026-04-04T12:19:24.001Z</time></trkpt><trkpt lat="42.739848564813116" lon="2.751959132755021"><ele>174.0</ele><time>2026-04-04T12:19:25.001Z</time></trkpt><trkpt lat="42.73986454999498" lon="2.752046324378205"><ele>173.33333333333334</ele><time>2026-04-04T12:19:26.001Z</time></trkpt><trkpt lat="42.73989394122939" lon="2.7522057180001656"><ele>172.66666666666669</ele><time>2026-04-04T12:19:28.001Z</time></trkpt><trkpt lat="42.7399103471684" lon="2.7522913821404087"><ele>172.0</ele><time>2026-04-04T12:19:29.001Z</time></trkpt><trkpt lat="42.7399448912139" lon="2.7523928854906727"><ele>172.00000000000003</ele><time>2026-04-04T12:19:30.001Z</time></trkpt><trkpt lat="42.739964145583784" lon="2.7524848842538887"><ele>172.0</ele><time>2026-04-04T12:19:31.001Z</time></trkpt><trkpt lat="42.739992814158384" lon="2.752567484612403"><ele>172.0</ele><time>2026-04-04T12:19:32.001Z</time></trkpt><trkpt lat="42.74002875753156" lon="2.7526386972926895"><ele>172.0</ele><time>2026-04-04T12:19:33.001Z</time></trkpt><trkpt lat="42.74007576533024" lon="2.7527085653995194"><ele>172.0</ele><time>2026-04-04T12:19:34.001Z</time></trkpt><trkpt lat="42.740134873984836" lon="2.752782378617392"><ele>172.00000000000003</ele><time>2026-04-04T12:19:35.001Z</time></trkpt><trkpt lat="42.7401944412352" lon="2.7528469878881174"><ele>172.0</ele><time>2026-04-04T12:19:36.001Z</time></trkpt><trkpt lat="42.74026056866947" lon="2.752931660635441"><ele>174.0</ele><time>2026-04-04T12:19:37.001Z</time></trkpt><trkpt lat="42.740335053568366" lon="2.753020511633892"><ele>176.0</ele><time>2026-04-04T12:19:38.001Z</time></trkpt><trkpt lat="42.74040991099072" lon="2.753128252049191"><ele>178.0</ele><time>2026-04-04T12:19:39.001Z</time></trkpt><trkpt lat="42.74047769041592" lon="2.7531962208458167"><ele>180.0</ele><time>2026-04-04T12:19:40.001Z</time></trkpt><trkpt lat="42.740553821375144" lon="2.7532868103447687"><ele>182.0</ele><time>2026-04-04T12:19:41.001Z</time></trkpt><trkpt lat="42.74060957306157" lon="2.7533541803564145"><ele>182.0</ele><time>2026-04-04T12:19:42.001Z</time></trkpt><trkpt lat="42.740649993825166" lon="2.7534778927485353"><ele>182.0</ele><time>2026-04-04T12:19:44.001Z</time></trkpt><trkpt lat="42.740651221464276" lon="2.753567005163796"><ele>182.0</ele><time>2026-04-04T12:19:45.001Z</time></trkpt><trkpt lat="42.74061206310926" lon="2.753680947246686"><ele>182.0</ele><time>2026-04-04T12:19:46.001Z</time></trkpt><trkpt lat="42.740585241505336" lon="2.75384511754137"><ele>182.0</ele><time>2026-04-04T12:19:47.001Z</time></trkpt><trkpt lat="42.740560826315566" lon="2.7539945585929044"><ele>182.16666666666666</ele><time>2026-04-04T12:19:48.001Z</time></trkpt><trkpt lat="42.74054681016738" lon="2.754109129686218"><ele>182.33333333333331</ele><time>2026-04-04T12:19:49.001Z</time></trkpt><trkpt lat="42.74056197865627" lon="2.7542221169647596"><ele>182.5</ele><time>2026-04-04T12:19:50.001Z</time></trkpt><trkpt lat="42.74057596597319" lon="2.7543117592311286"><ele>182.66666666666666</ele><time>2026-04-04T12:19:51.001Z</time></trkpt><trkpt lat="42.74060024705579" lon="2.7544109166462922"><ele>182.83333333333334</ele><time>2026-04-04T12:19:52.001Z</time></trkpt><trkpt lat="42.74063912127283" lon="2.754504736777785"><ele>183.0</ele><time>2026-04-04T12:19:53.001Z</time></trkpt><trkpt lat="42.740695856699304" lon="2.7545925514428036"><ele>183.0</ele><time>2026-04-04T12:19:54.001Z</time></trkpt><trkpt lat="42.74076782231177" lon="2.754680705559432"><ele>183.0</ele><time>2026-04-04T12:19:55.001Z</time></trkpt><trkpt lat="42.74084421049708" lon="2.754785203530879"><ele>183.0</ele><time>2026-04-04T12:19:56.001Z</time></trkpt><trkpt lat="42.74091881047805" lon="2.754871527858412"><ele>183.0</ele><time>2026-04-04T12:19:57.001Z</time></trkpt><trkpt lat="42.74101300118144" lon="2.7549768947908753"><ele>183.0</ele><time>2026-04-04T12:19:58.001Z</time></trkpt><trkpt lat="42.74112961193193" lon="2.7550947143715443"><ele>184.8</ele><time>2026-04-04T12:19:59.001Z</time></trkpt><trkpt lat="42.74124184490635" lon="2.7551990555203845"><ele>186.60000000000002</ele><time>2026-04-04T12:20:00.001Z</time></trkpt><trkpt lat="42.74133085947054" lon="2.7552928244636936"><ele>188.39999999999998</ele><time>2026-04-04T12:20:01.001Z</time></trkpt><trkpt lat="42.7414032685025" lon="2.755359049879975"><ele>190.2</ele><time>2026-04-04T12:20:02.001Z</time></trkpt><trkpt lat="42.74147074807705" lon="2.7554179540124975"><ele>192.0</ele><time>2026-04-04T12:20:03.001Z</time></trkpt><trkpt lat="42.741537451599676" lon="2.7554820415419674"><ele>192.0</ele><time>2026-04-04T12:20:04.001Z</time></trkpt><trkpt lat="42.7416180024409" lon="2.7555511874514664"><ele>192.0</ele><time>2026-04-04T12:20:05.001Z</time></trkpt><trkpt lat="42.74169616957511" lon="2.7556185942549836"><ele>192.0</ele><time>2026-04-04T12:20:06.001Z</time></trkpt><trkpt lat="42.74176465674597" lon="2.7556852961898533"><ele>192.0</ele><time>2026-04-04T12:20:07.001Z</time></trkpt><trkpt lat="42.74182680307331" lon="2.7557477361256817"><ele>192.0</ele><time>2026-04-04T12:20:08.001Z</time></trkpt><trkpt lat="42.74188321386945" lon="2.7558024171374087"><ele>192.0</ele><time>2026-04-04T12:20:09.001Z</time></trkpt><trkpt lat="42.741939005238955" lon="2.755923765716186"><ele>193.0</ele><time>2026-04-04T12:20:11.001Z</time></trkpt><trkpt lat="42.741980621490555" lon="2.756029361131837"><ele>194.0</ele><time>2026-04-04T12:20:13.001Z</time></trkpt><trkpt lat="42.74200310611142" lon="2.7561499329757115"><ele>195.0</ele><time>2026-04-04T12:20:15.001Z</time></trkpt><trkpt lat="42.74199067632474" lon="2.7562878273449547"><ele>196.0</ele><time>2026-04-04T12:20:17.001Z</time></trkpt><trkpt lat="42.741976941067506" lon="2.7564360332687703"><ele>197.0</ele><time>2026-04-04T12:20:19.001Z</time></trkpt><trkpt lat="42.741959538905604" lon="2.7565523999993107"><ele>197.16666666666669</ele><time>2026-04-04T12:20:21.001Z</time></trkpt><trkpt lat="42.74194090475076" lon="2.756655525370932"><ele>197.33333333333334</ele><time>2026-04-04T12:20:23.001Z</time></trkpt><trkpt lat="42.74191529338521" lon="2.756750866170886"><ele>197.5</ele><time>2026-04-04T12:20:25.001Z</time></trkpt><trkpt lat="42.741873945665596" lon="2.7568502277927704"><ele>197.66666666666669</ele><time>2026-04-04T12:20:27.001Z</time></trkpt><trkpt lat="42.741796122844605" lon="2.7569798003345887"><ele>197.83333333333334</ele><time>2026-04-04T12:20:29.001Z</time></trkpt><trkpt lat="42.741742183589594" lon="2.7570643440337075"><ele>198.0</ele><time>2026-04-04T12:20:30.001Z</time></trkpt><trkpt lat="42.74170835873954" lon="2.7571652364392545"><ele>196.66666666666666</ele><time>2026-04-04T12:20:31.001Z</time></trkpt><trkpt lat="42.74167494808204" lon="2.757249414116646"><ele>195.33333333333334</ele><time>2026-04-04T12:20:32.001Z</time></trkpt><trkpt lat="42.74162939474877" lon="2.7573420644754973"><ele>194.0</ele><time>2026-04-04T12:20:33.001Z</time></trkpt><trkpt lat="42.74160775371359" lon="2.757456427861069"><ele>192.66666666666669</ele><time>2026-04-04T12:20:34.001Z</time></trkpt><trkpt lat="42.741607414598505" lon="2.7575778208590362"><ele>191.33333333333334</ele><time>2026-04-04T12:20:35.001Z</time></trkpt><trkpt lat="42.741601302327965" lon="2.7577126643277827"><ele>190.0</ele><time>2026-04-04T12:20:36.001Z</time></trkpt><trkpt lat="42.74160261565213" lon="2.7578753213223792"><ele>189.0</ele><time>2026-04-04T12:20:37.001Z</time></trkpt><trkpt lat="42.74159122781688" lon="2.7580407841356296"><ele>188.0</ele><time>2026-04-04T12:20:38.001Z</time></trkpt><trkpt lat="42.741593154426184" lon="2.7581805498014464"><ele>187.0</ele><time>2026-04-04T12:20:39.001Z</time></trkpt><trkpt lat="42.74159455699388" lon="2.7583010840366478"><ele>186.0</ele><time>2026-04-04T12:20:40.001Z</time></trkpt><trkpt lat="42.74161286713198" lon="2.7584181702338615"><ele>185.0</ele><time>2026-04-04T12:20:41.001Z</time></trkpt><trkpt lat="42.74162701390061" lon="2.7585323022168735"><ele>184.5</ele><time>2026-04-04T12:20:42.001Z</time></trkpt><trkpt lat="42.741659038457804" lon="2.7586383303951423"><ele>184.0</ele><time>2026-04-04T12:20:43.001Z</time></trkpt><trkpt lat="42.741674056460795" lon="2.758746306382911"><ele>183.5</ele><time>2026-04-04T12:20:44.001Z</time></trkpt><trkpt lat="42.74170247724923" lon="2.7588514412052945"><ele>183.0</ele><time>2026-04-04T12:20:45.001Z</time></trkpt><trkpt lat="42.7417286050315" lon="2.7589572174206225"><ele>182.5</ele><time>2026-04-04T12:20:46.001Z</time></trkpt><trkpt lat="42.74173718812315" lon="2.7590551194628645"><ele>182.0</ele><time>2026-04-04T12:20:47.001Z</time></trkpt><trkpt lat="42.741753455806126" lon="2.759159678823071"><ele>182.0</ele><time>2026-04-04T12:20:48.001Z</time></trkpt><trkpt lat="42.74170799190306" lon="2.759258989947917"><ele>182.0</ele><time>2026-04-04T12:20:49.001Z</time></trkpt><trkpt lat="42.74168466397154" lon="2.759364345784855"><ele>182.0</ele><time>2026-04-04T12:20:50.001Z</time></trkpt><trkpt lat="42.74168159564644" lon="2.759481440947333"><ele>182.0</ele><time>2026-04-04T12:20:51.001Z</time></trkpt><trkpt lat="42.741671493549454" lon="2.75960251562856"><ele>182.0</ele><time>2026-04-04T12:20:52.001Z</time></trkpt><trkpt lat="42.74167047754958" lon="2.7597337361352725"><ele>182.0</ele><time>2026-04-04T12:20:53.001Z</time></trkpt><trkpt lat="42.74167977750282" lon="2.7598665631056045"><ele>181.8</ele><time>2026-04-04T12:20:54.001Z</time></trkpt><trkpt lat="42.74166767592857" lon="2.7600099004094947"><ele>181.6</ele><time>2026-04-04T12:20:55.001Z</time></trkpt><trkpt lat="42.74167253732781" lon="2.7601496408805195"><ele>181.4</ele><time>2026-04-04T12:20:56.001Z</time></trkpt><trkpt lat="42.74167957381478" lon="2.7602901290026938"><ele>181.20000000000002</ele><time>2026-04-04T12:20:57.001Z</time></trkpt><trkpt lat="42.74170715857621" lon="2.7604234481910708"><ele>181.0</ele><time>2026-04-04T12:20:58.001Z</time></trkpt><trkpt lat="42.741714590059054" lon="2.760550546338769"><ele>180.33333333333334</ele><time>2026-04-04T12:20:59.001Z</time></trkpt><trkpt lat="42.74176808842804" lon="2.7606748873508944"><ele>179.66666666666669</ele><time>2026-04-04T12:21:00.001Z</time></trkpt><trkpt lat="42.74181116570748" lon="2.7607854930041866"><ele>179.0</ele><time>2026-04-04T12:21:01.001Z</time></trkpt><trkpt lat="42.74183828547917" lon="2.7609036796182154"><ele>178.33333333333334</ele><time>2026-04-04T12:21:02.001Z</time></trkpt><trkpt lat="42.7418741494581" lon="2.761001141959055"><ele>177.66666666666666</ele><time>2026-04-04T12:21:03.001Z</time></trkpt><trkpt lat="42.74191003811238" lon="2.761096271427244"><ele>177.0</ele><time>2026-04-04T12:21:04.001Z</time></trkpt><trkpt lat="42.74195568412599" lon="2.761192822222961"><ele>175.83333333333334</ele><time>2026-04-04T12:21:05.001Z</time></trkpt><trkpt lat="42.742021199652555" lon="2.7612727046370664"><ele>174.66666666666666</ele><time>2026-04-04T12:21:06.001Z</time></trkpt><trkpt lat="42.742081530790415" lon="2.7613584152537785"><ele>173.5</ele><time>2026-04-04T12:21:07.001Z</time></trkpt><trkpt lat="42.74213303018536" lon="2.7614552528135063"><ele>172.33333333333331</ele><time>2026-04-04T12:21:08.001Z</time></trkpt><trkpt lat="42.74219128580303" lon="2.7615425367484288"><ele>171.16666666666666</ele><time>2026-04-04T12:21:09.001Z</time></trkpt><trkpt lat="42.74222466346024" lon="2.7616554780591676"><ele>170.0</ele><time>2026-04-04T12:21:10.001Z</time></trkpt><trkpt lat="42.74227858401805" lon="2.7617409418590158"><ele>170.0</ele><time>2026-04-04T12:21:11.002Z</time></trkpt><trkpt lat="42.742318712365645" lon="2.7618298392130307"><ele>170.0</ele><time>2026-04-04T12:21:12.002Z</time></trkpt><trkpt lat="42.7423845315695" lon="2.761965042346966"><ele>170.0</ele><time>2026-04-04T12:21:14.002Z</time></trkpt><trkpt lat="42.74241380830612" lon="2.7621303394870917"><ele>170.0</ele><time>2026-04-04T12:21:16.002Z</time></trkpt><trkpt lat="42.74237460645743" lon="2.7622001854071203"><ele>170.0</ele><time>2026-04-04T12:21:17.002Z</time></trkpt><trkpt lat="42.74235301622405" lon="2.7622848047841293"><ele>169.83333333333331</ele><time>2026-04-04T12:21:18.002Z</time></trkpt><trkpt lat="42.74233801833822" lon="2.762381909749702"><ele>169.66666666666666</ele><time>2026-04-04T12:21:19.002Z</time></trkpt><trkpt lat="42.742330776833576" lon="2.7624942426993986"><ele>169.5</ele><time>2026-04-04T12:21:20.002Z</time></trkpt><trkpt lat="42.742374349369506" lon="2.7626076667330977"><ele>169.33333333333334</ele><time>2026-04-04T12:21:21.002Z</time></trkpt><trkpt lat="42.74239861106727" lon="2.7627282737959065"><ele>169.16666666666669</ele><time>2026-04-04T12:21:22.002Z</time></trkpt><trkpt lat="42.74239913150236" lon="2.762873082040638"><ele>169.0</ele><time>2026-04-04T12:21:23.002Z</time></trkpt><trkpt lat="42.74240806428875" lon="2.7630090006644314"><ele>168.6</ele><time>2026-04-04T12:21:24.002Z</time></trkpt><trkpt lat="42.742413034750186" lon="2.7631493744444415"><ele>168.2</ele><time>2026-04-04T12:21:25.002Z</time></trkpt><trkpt lat="42.74241692949176" lon="2.763284763099734"><ele>167.79999999999998</ele><time>2026-04-04T12:21:26Z</time></trkpt><trkpt lat="42.74242084270385" lon="2.763420793781809"><ele>167.39999999999998</ele><time>2026-04-04T12:21:27Z</time></trkpt><trkpt lat="42.742424429221956" lon="2.763545467934705"><ele>167.0</ele><time>2026-04-04T12:21:28Z</time></trkpt><trkpt lat="42.742436045284286" lon="2.7636717312567156"><ele>166.8</ele><time>2026-04-04T12:21:29Z</time></trkpt><trkpt lat="42.74243654066589" lon="2.7638085407400608"><ele>166.6</ele><time>2026-04-04T12:21:30Z</time></trkpt><trkpt lat="42.742415314549575" lon="2.7639510847652473"><ele>166.4</ele><time>2026-04-04T12:21:31Z</time></trkpt><trkpt lat="42.742413833709136" lon="2.7640964987044523"><ele>166.20000000000002</ele><time>2026-04-04T12:21:32Z</time></trkpt><trkpt lat="42.7423984472349" lon="2.764248605497252"><ele>166.0</ele><time>2026-04-04T12:21:33Z</time></trkpt><trkpt lat="42.742389272008374" lon="2.764372061774225"><ele>165.5</ele><time>2026-04-04T12:21:34Z</time></trkpt><trkpt lat="42.74237892534482" lon="2.764493559683368"><ele>165.0</ele><time>2026-04-04T12:21:35Z</time></trkpt><trkpt lat="42.742363937709705" lon="2.7646025141916692"><ele>164.5</ele><time>2026-04-04T12:21:36Z</time></trkpt><trkpt lat="42.74235688853515" lon="2.764712687007897"><ele>164.0</ele><time>2026-04-04T12:21:37Z</time></trkpt><trkpt lat="42.742353965084575" lon="2.764823484681481"><ele>163.5</ele><time>2026-04-04T12:21:38Z</time></trkpt><trkpt lat="42.74234751474768" lon="2.7649401840276355"><ele>163.0</ele><time>2026-04-04T12:21:39Z</time></trkpt><trkpt lat="42.742335147798514" lon="2.7650671960598268"><ele>163.0</ele><time>2026-04-04T12:21:40Z</time></trkpt><trkpt lat="42.74232386515218" lon="2.7651828872980975"><ele>163.0</ele><time>2026-04-04T12:21:41Z</time></trkpt><trkpt lat="42.74230946740741" lon="2.7652813052332297"><ele>163.0</ele><time>2026-04-04T12:21:42Z</time></trkpt><trkpt lat="42.74229693832521" lon="2.765373934398801"><ele>163.0</ele><time>2026-04-04T12:21:43Z</time></trkpt><trkpt lat="42.74227011826938" lon="2.7654853764123604"><ele>163.0</ele><time>2026-04-04T12:21:44Z</time></trkpt><trkpt lat="42.742210141127316" lon="2.7655760467847026"><ele>163.0</ele><time>2026-04-04T12:21:45Z</time></trkpt><trkpt lat="42.742165600463835" lon="2.765681423135912"><ele>163.4</ele><time>2026-04-04T12:21:46Z</time></trkpt><trkpt lat="42.74212257236903" lon="2.7657818804903953"><ele>163.8</ele><time>2026-04-04T12:21:47Z</time></trkpt><trkpt lat="42.742076600621395" lon="2.7658892103694885"><ele>164.2</ele><time>2026-04-04T12:21:48Z</time></trkpt><trkpt lat="42.74203021328515" lon="2.7659975105161703"><ele>164.6</ele><time>2026-04-04T12:21:49Z</time></trkpt><trkpt lat="42.7419980338227" lon="2.7661164143524877"><ele>165.0</ele><time>2026-04-04T12:21:50Z</time></trkpt><trkpt lat="42.7419495124358" lon="2.7662269763338863"><ele>165.0</ele><time>2026-04-04T12:21:51Z</time></trkpt><trkpt lat="42.74188544329415" lon="2.766321805526295"><ele>165.0</ele><time>2026-04-04T12:21:52Z</time></trkpt><trkpt lat="42.7418496886543" lon="2.766429007543491"><ele>165.0</ele><time>2026-04-04T12:21:53Z</time></trkpt><trkpt lat="42.74180383779561" lon="2.7665346960852597"><ele>165.0</ele><time>2026-04-04T12:21:54Z</time></trkpt><trkpt lat="42.74175836309498" lon="2.76662834110481"><ele>165.0</ele><time>2026-04-04T12:21:55Z</time></trkpt><trkpt lat="42.741721546119294" lon="2.766736565676839"><ele>165.0</ele><time>2026-04-04T12:21:56Z</time></trkpt><trkpt lat="42.741697357305846" lon="2.7668436589265384"><ele>163.5</ele><time>2026-04-04T12:21:57Z</time></trkpt><trkpt lat="42.74168342202982" lon="2.766947973281294"><ele>162.0</ele><time>2026-04-04T12:21:58Z</time></trkpt><trkpt lat="42.741671586443665" lon="2.7670691966936087"><ele>160.5</ele><time>2026-04-04T12:21:59Z</time></trkpt><trkpt lat="42.74166070953001" lon="2.7671832958029907"><ele>159.0</ele><time>2026-04-04T12:22:00Z</time></trkpt><trkpt lat="42.74165163242011" lon="2.7672907764034784"><ele>157.5</ele><time>2026-04-04T12:22:01Z</time></trkpt><trkpt lat="42.7416448517564" lon="2.767397229857938"><ele>156.0</ele><time>2026-04-04T12:22:02Z</time></trkpt><trkpt lat="42.7416435245524" lon="2.767509289995285"><ele>156.0</ele><time>2026-04-04T12:22:03Z</time></trkpt><trkpt lat="42.7416479277928" lon="2.7676262415194124"><ele>156.0</ele><time>2026-04-04T12:22:04Z</time></trkpt><trkpt lat="42.74165978303179" lon="2.767750333259979"><ele>156.0</ele><time>2026-04-04T12:22:05.001Z</time></trkpt><trkpt lat="42.741678133039116" lon="2.7678683083826234"><ele>156.0</ele><time>2026-04-04T12:22:06.001Z</time></trkpt><trkpt lat="42.74169055343185" lon="2.7679987967742203"><ele>156.0</ele><time>2026-04-04T12:22:07.001Z</time></trkpt><trkpt lat="42.7416969902081" lon="2.7681225981786524"><ele>155.66666666666666</ele><time>2026-04-04T12:22:08.001Z</time></trkpt><trkpt lat="42.741699729707804" lon="2.768233160110565"><ele>155.33333333333334</ele><time>2026-04-04T12:22:09.001Z</time></trkpt><trkpt lat="42.741704906817546" lon="2.7683400943847927"><ele>155.0</ele><time>2026-04-04T12:22:10.001Z</time></trkpt><trkpt lat="42.7417108153343" lon="2.768441267079553"><ele>154.66666666666669</ele><time>2026-04-04T12:22:11.001Z</time></trkpt><trkpt lat="42.74171566080691" lon="2.7685356912845234"><ele>154.33333333333334</ele><time>2026-04-04T12:22:12.001Z</time></trkpt><trkpt lat="42.741724428688315" lon="2.768641762293979"><ele>154.0</ele><time>2026-04-04T12:22:13.001Z</time></trkpt><trkpt lat="42.741732704742354" lon="2.768810643780423"><ele>153.16666666666669</ele><time>2026-04-04T12:22:15.001Z</time></trkpt><trkpt lat="42.741737981366086" lon="2.768972588889502"><ele>152.33333333333334</ele><time>2026-04-04T12:22:17.001Z</time></trkpt><trkpt lat="42.74173623773349" lon="2.7690704905911603"><ele>151.5</ele><time>2026-04-04T12:22:18.001Z</time></trkpt><trkpt lat="42.74175348252248" lon="2.7691570286948757"><ele>150.66666666666666</ele><time>2026-04-04T12:22:19.001Z</time></trkpt><trkpt lat="42.74177182589988" lon="2.7692658813268287"><ele>149.83333333333331</ele><time>2026-04-04T12:22:20.001Z</time></trkpt><trkpt lat="42.74179167830734" lon="2.7693739701006392"><ele>149.0</ele><time>2026-04-04T12:22:21.001Z</time></trkpt><trkpt lat="42.741808356362434" lon="2.7694775737192683"><ele>148.0</ele><time>2026-04-04T12:22:22.001Z</time></trkpt><trkpt lat="42.741829243868025" lon="2.769580346583039"><ele>147.0</ele><time>2026-04-04T12:22:23.001Z</time></trkpt><trkpt lat="42.74185127736358" lon="2.7696828789392134"><ele>146.0</ele><time>2026-04-04T12:22:24.001Z</time></trkpt><trkpt lat="42.74187238843917" lon="2.769773743830177"><ele>145.0</ele><time>2026-04-04T12:22:25.001Z</time></trkpt><trkpt lat="42.74187869291186" lon="2.769865582953223"><ele>144.0</ele><time>2026-04-04T12:22:26.001Z</time></trkpt><trkpt lat="42.741877371949606" lon="2.76995575337747"><ele>143.0</ele><time>2026-04-04T12:22:27.001Z</time></trkpt><trkpt lat="42.74187113357958" lon="2.770057197243366"><ele>142.0</ele><time>2026-04-04T12:22:28.001Z</time></trkpt><trkpt lat="42.741878466383845" lon="2.770163816827848"><ele>141.6</ele><time>2026-04-04T12:22:29.001Z</time></trkpt><trkpt lat="42.74189629135598" lon="2.770273674260314"><ele>141.2</ele><time>2026-04-04T12:22:30.001Z</time></trkpt><trkpt lat="42.74191072591949" lon="2.7703901661095323"><ele>140.8</ele><time>2026-04-04T12:22:31.001Z</time></trkpt><trkpt lat="42.74193188351802" lon="2.770521930515897"><ele>140.4</ele><time>2026-04-04T12:22:32.001Z</time></trkpt><trkpt lat="42.74196713273231" lon="2.7706744576059448"><ele>140.0</ele><time>2026-04-04T12:22:33.001Z</time></trkpt><trkpt lat="42.7420050440453" lon="2.7708055865391716"><ele>140.0</ele><time>2026-04-04T12:22:34.001Z</time></trkpt><trkpt lat="42.74204610160021" lon="2.7709348464069214"><ele>140.0</ele><time>2026-04-04T12:22:35.001Z</time></trkpt><trkpt lat="42.74208941248127" lon="2.7710501799467226"><ele>140.0</ele><time>2026-04-04T12:22:36.001Z</time></trkpt><trkpt lat="42.74212990474535" lon="2.7711700094894094"><ele>140.0</ele><time>2026-04-04T12:22:37.001Z</time></trkpt><trkpt lat="42.742164071557234" lon="2.7712879622407924"><ele>140.0</ele><time>2026-04-04T12:22:38.001Z</time></trkpt><trkpt lat="42.74219095801543" lon="2.7714106025626233"><ele>139.16666666666666</ele><time>2026-04-04T12:22:39.001Z</time></trkpt><trkpt lat="42.74221083121424" lon="2.7715296852609628"><ele>138.33333333333331</ele><time>2026-04-04T12:22:40.001Z</time></trkpt><trkpt lat="42.74223234632833" lon="2.7716515799646744"><ele>137.5</ele><time>2026-04-04T12:22:41.001Z</time></trkpt><trkpt lat="42.742253851833674" lon="2.771769732619837"><ele>136.66666666666666</ele><time>2026-04-04T12:22:42.001Z</time></trkpt><trkpt lat="42.74227844724863" lon="2.7718839205474555"><ele>135.83333333333334</ele><time>2026-04-04T12:22:43.001Z</time></trkpt><trkpt lat="42.74230615678784" lon="2.771987430565764"><ele>135.0</ele><time>2026-04-04T12:22:44.001Z</time></trkpt><trkpt lat="42.742350008106946" lon="2.772096431212661"><ele>134.6</ele><time>2026-04-04T12:22:45.001Z</time></trkpt><trkpt lat="42.74240129762514" lon="2.772208993931905"><ele>134.2</ele><time>2026-04-04T12:22:46.001Z</time></trkpt><trkpt lat="42.742463926732555" lon="2.772337349240314"><ele>133.8</ele><time>2026-04-04T12:22:47.001Z</time></trkpt><trkpt lat="42.74252368565495" lon="2.7724656106529357"><ele>133.4</ele><time>2026-04-04T12:22:48.001Z</time></trkpt><trkpt lat="42.74256985849483" lon="2.7725854089725046"><ele>133.0</ele><time>2026-04-04T12:22:49.001Z</time></trkpt><trkpt lat="42.742583962430295" lon="2.7727247449086345"><ele>133.0</ele><time>2026-04-04T12:22:50.001Z</time></trkpt><trkpt lat="42.74259816699775" lon="2.7728689919481666"><ele>133.0</ele><time>2026-04-04T12:22:51.001Z</time></trkpt><trkpt lat="42.74263110836737" lon="2.772991263967447"><ele>133.0</ele><time>2026-04-04T12:22:52.001Z</time></trkpt><trkpt lat="42.742655540341204" lon="2.7731235785297774"><ele>133.0</ele><time>2026-04-04T12:22:53.001Z</time></trkpt><trkpt lat="42.74269586766009" lon="2.773250674021197"><ele>133.0</ele><time>2026-04-04T12:22:54.001Z</time></trkpt><trkpt lat="42.742739201685325" lon="2.7733692344600205"><ele>132.83333333333334</ele><time>2026-04-04T12:22:55.001Z</time></trkpt><trkpt lat="42.742780982300175" lon="2.773478157675014"><ele>132.66666666666669</ele><time>2026-04-04T12:22:56.001Z</time></trkpt><trkpt lat="42.742835279577186" lon="2.773571683707664"><ele>132.5</ele><time>2026-04-04T12:22:57.001Z</time></trkpt><trkpt lat="42.74287912921586" lon="2.7736709458257156"><ele>132.33333333333334</ele><time>2026-04-04T12:22:58.001Z</time></trkpt><trkpt lat="42.742912900828436" lon="2.7737799429299654"><ele>132.16666666666666</ele><time>2026-04-04T12:22:59.001Z</time></trkpt><trkpt lat="42.742920550005" lon="2.773906158020935"><ele>132.0</ele><time>2026-04-04T12:23:00.001Z</time></trkpt><trkpt lat="42.74294762844583" lon="2.774024824292009"><ele>132.0</ele><time>2026-04-04T12:23:01.001Z</time></trkpt><trkpt lat="42.74293846833569" lon="2.7741534713643663"><ele>132.0</ele><time>2026-04-04T12:23:02.001Z</time></trkpt><trkpt lat="42.74289347898889" lon="2.7742759208047203"><ele>132.0</ele><time>2026-04-04T12:23:03.001Z</time></trkpt><trkpt lat="42.74287373542283" lon="2.7744031642765665"><ele>132.0</ele><time>2026-04-04T12:23:04.001Z</time></trkpt><trkpt lat="42.742792773376515" lon="2.7744873793299143"><ele>132.0</ele><time>2026-04-04T12:23:05.001Z</time></trkpt><trkpt lat="42.74273678284294" lon="2.7746155406816775"><ele>131.6</ele><time>2026-04-04T12:23:06.001Z</time></trkpt><trkpt lat="42.74267789576001" lon="2.7747316253775516"><ele>131.2</ele><time>2026-04-04T12:23:07.001Z</time></trkpt><trkpt lat="42.742644182867245" lon="2.774863857817725"><ele>130.8</ele><time>2026-04-04T12:23:08.001Z</time></trkpt><trkpt lat="42.742617144916345" lon="2.7749959581875654"><ele>130.4</ele><time>2026-04-04T12:23:09.001Z</time></trkpt><trkpt lat="42.74261938973231" lon="2.7751365090095077"><ele>130.0</ele><time>2026-04-04T12:23:10.001Z</time></trkpt><trkpt lat="42.7426117495226" lon="2.775280902661102"><ele>130.0</ele><time>2026-04-04T12:23:11.001Z</time></trkpt><trkpt lat="42.742604624361725" lon="2.775418972563894"><ele>130.0</ele><time>2026-04-04T12:23:12.001Z</time></trkpt><trkpt lat="42.74259809360727" lon="2.7755527160801177"><ele>130.0</ele><time>2026-04-04T12:23:13.001Z</time></trkpt><trkpt lat="42.74259596624859" lon="2.775691297096233"><ele>130.0</ele><time>2026-04-04T12:23:14.001Z</time></trkpt><trkpt lat="42.74258984164489" lon="2.775832651744854"><ele>130.0</ele><time>2026-04-04T12:23:15.001Z</time></trkpt><trkpt lat="42.7425869762847" lon="2.7759705793136957"><ele>130.0</ele><time>2026-04-04T12:23:16.001Z</time></trkpt><trkpt lat="42.74258692347434" lon="2.7761115436482315"><ele>130.0</ele><time>2026-04-04T12:23:17.001Z</time></trkpt><trkpt lat="42.7425852513132" lon="2.7762554789856275"><ele>130.0</ele><time>2026-04-04T12:23:18.001Z</time></trkpt><trkpt lat="42.74257750287244" lon="2.776394839055999"><ele>130.0</ele><time>2026-04-04T12:23:19.001Z</time></trkpt><trkpt lat="42.7425988578863" lon="2.7765452524859437"><ele>130.0</ele><time>2026-04-04T12:23:20.001Z</time></trkpt><trkpt lat="42.74262385114764" lon="2.776704059884368"><ele>130.0</ele><time>2026-04-04T12:23:21.001Z</time></trkpt><trkpt lat="42.74265970686813" lon="2.77684808798065"><ele>130.0</ele><time>2026-04-04T12:23:22.001Z</time></trkpt><trkpt lat="42.74270786175389" lon="2.776983265216967"><ele>130.0</ele><time>2026-04-04T12:23:23.001Z</time></trkpt><trkpt lat="42.74274122217328" lon="2.7771000186235173"><ele>130.0</ele><time>2026-04-04T12:23:24.001Z</time></trkpt><trkpt lat="42.742755171635885" lon="2.7772116254724484"><ele>130.0</ele><time>2026-04-04T12:23:25.001Z</time></trkpt><trkpt lat="42.74275674732996" lon="2.777323616067681"><ele>129.6</ele><time>2026-04-04T12:23:26.001Z</time></trkpt><trkpt lat="42.742741516960706" lon="2.7774576278794867"><ele>129.2</ele><time>2026-04-04T12:23:27.001Z</time></trkpt><trkpt lat="42.74271775877636" lon="2.777592668499309"><ele>128.8</ele><time>2026-04-04T12:23:28.001Z</time></trkpt><trkpt lat="42.74269983465461" lon="2.7777225569845108"><ele>128.4</ele><time>2026-04-04T12:23:29.001Z</time></trkpt><trkpt lat="42.742683629737684" lon="2.7778440472153556"><ele>128.0</ele><time>2026-04-04T12:23:30.001Z</time></trkpt><trkpt lat="42.74267448087206" lon="2.777949748585618"><ele>128.0</ele><time>2026-04-04T12:23:31.001Z</time></trkpt><trkpt lat="42.74267006802889" lon="2.7780550870233096"><ele>128.0</ele><time>2026-04-04T12:23:32Z</time></trkpt><trkpt lat="42.74267140251082" lon="2.778170092728424"><ele>128.0</ele><time>2026-04-04T12:23:33Z</time></trkpt><trkpt lat="42.74268335262511" lon="2.778287160273958"><ele>128.0</ele><time>2026-04-04T12:23:34Z</time></trkpt><trkpt lat="42.742702534990926" lon="2.778416578459164"><ele>128.0</ele><time>2026-04-04T12:23:35Z</time></trkpt><trkpt lat="42.74272943417415" lon="2.7785581136872937"><ele>127.80000000000001</ele><time>2026-04-04T12:23:36Z</time></trkpt><trkpt lat="42.74275683195354" lon="2.7786945572540627"><ele>127.60000000000001</ele><time>2026-04-04T12:23:37Z</time></trkpt><trkpt lat="42.742787526218194" lon="2.778830051256321"><ele>127.39999999999999</ele><time>2026-04-04T12:23:38Z</time></trkpt><trkpt lat="42.74281808216071" lon="2.778965269765595"><ele>127.19999999999999</ele><time>2026-04-04T12:23:39Z</time></trkpt><trkpt lat="42.74284711879694" lon="2.7791010550151714"><ele>127.0</ele><time>2026-04-04T12:23:40Z</time></trkpt><trkpt lat="42.74283891478162" lon="2.779248088546089"><ele>126.19999999999999</ele><time>2026-04-04T12:23:41Z</time></trkpt><trkpt lat="42.74283485470051" lon="2.7793933306693055"><ele>125.39999999999999</ele><time>2026-04-04T12:23:42Z</time></trkpt><trkpt lat="42.74283116825043" lon="2.7795322490812744"><ele>124.60000000000001</ele><time>2026-04-04T12:23:43Z</time></trkpt><trkpt lat="42.74284356344227" lon="2.779662924136627"><ele>123.80000000000001</ele><time>2026-04-04T12:23:44Z</time></trkpt><trkpt lat="42.74283219774767" lon="2.7797933590987842"><ele>123.0</ele><time>2026-04-04T12:23:45Z</time></trkpt><trkpt lat="42.74282331115518" lon="2.779933841250538"><ele>123.0</ele><time>2026-04-04T12:23:46Z</time></trkpt><trkpt lat="42.74280926909307" lon="2.78006554999272"><ele>123.00000000000001</ele><time>2026-04-04T12:23:47Z</time></trkpt><trkpt lat="42.742797286595504" lon="2.780193680739109"><ele>123.00000000000001</ele><time>2026-04-04T12:23:48Z</time></trkpt><trkpt lat="42.742791905234505" lon="2.7803198611405726"><ele>123.0</ele><time>2026-04-04T12:23:49Z</time></trkpt><trkpt lat="42.74278110990421" lon="2.7804377822998294"><ele>123.0</ele><time>2026-04-04T12:23:50Z</time></trkpt><trkpt lat="42.742781365913494" lon="2.780550843417798"><ele>122.66666666666667</ele><time>2026-04-04T12:23:51Z</time></trkpt><trkpt lat="42.742791500341575" lon="2.7806652492261628"><ele>122.33333333333334</ele><time>2026-04-04T12:23:52Z</time></trkpt><trkpt lat="42.742800225707086" lon="2.780768642322315"><ele>122.0</ele><time>2026-04-04T12:23:53Z</time></trkpt><trkpt lat="42.74282144080898" lon="2.780857023486339"><ele>121.66666666666667</ele><time>2026-04-04T12:23:54Z</time></trkpt><trkpt lat="42.74285035912107" lon="2.7809539751820584"><ele>121.33333333333334</ele><time>2026-04-04T12:23:55Z</time></trkpt><trkpt lat="42.742925040070055" lon="2.7810182415459277"><ele>121.0</ele><time>2026-04-04T12:23:56Z</time></trkpt><trkpt lat="42.74298044715764" lon="2.7810854099533158"><ele>120.83333333333334</ele><time>2026-04-04T12:23:57Z</time></trkpt><trkpt lat="42.74304186909134" lon="2.781168178963733"><ele>120.66666666666667</ele><time>2026-04-04T12:23:58Z</time></trkpt><trkpt lat="42.74310533827864" lon="2.7812581976917876"><ele>120.5</ele><time>2026-04-04T12:23:59Z</time></trkpt><trkpt lat="42.743136885760414" lon="2.7813583916458304"><ele>120.33333333333334</ele><time>2026-04-04T12:24:00Z</time></trkpt><trkpt lat="42.74318315692731" lon="2.7814341839838828"><ele>120.16666666666667</ele><time>2026-04-04T12:24:01Z</time></trkpt><trkpt lat="42.74318633358194" lon="2.7815330133841596"><ele>120.0</ele><time>2026-04-04T12:24:02Z</time></trkpt><trkpt lat="42.74320194495651" lon="2.781624229637714"><ele>120.0</ele><time>2026-04-04T12:24:03Z</time></trkpt><trkpt lat="42.74321619071278" lon="2.781732968620762"><ele>120.0</ele><time>2026-04-04T12:24:04Z</time></trkpt><trkpt lat="42.74323120602082" lon="2.7818472402592618"><ele>120.0</ele><time>2026-04-04T12:24:05Z</time></trkpt><trkpt lat="42.74326061316108" lon="2.781950948333626"><ele>120.0</ele><time>2026-04-04T12:24:06Z</time></trkpt><trkpt lat="42.7432765682996" lon="2.7820649891901685"><ele>120.0</ele><time>2026-04-04T12:24:07Z</time></trkpt><trkpt lat="42.7432980487339" lon="2.7822037575100564"><ele>120.0</ele><time>2026-04-04T12:24:08Z</time></trkpt><trkpt lat="42.743322309720725" lon="2.782334028214663"><ele>120.4</ele><time>2026-04-04T12:24:09Z</time></trkpt><trkpt lat="42.74335277066927" lon="2.782467613221437"><ele>120.8</ele><time>2026-04-04T12:24:10Z</time></trkpt><trkpt lat="42.743386831139" lon="2.782609335507806"><ele>121.19999999999999</ele><time>2026-04-04T12:24:11Z</time></trkpt><trkpt lat="42.74340990157272" lon="2.782734032890895"><ele>121.6</ele><time>2026-04-04T12:24:12Z</time></trkpt><trkpt lat="42.743428258995905" lon="2.782844833341878"><ele>122.0</ele><time>2026-04-04T12:24:13Z</time></trkpt><trkpt lat="42.74344714925902" lon="2.7829594277267775"><ele>122.49999999999999</ele><time>2026-04-04T12:24:14Z</time></trkpt><trkpt lat="42.74346929356378" lon="2.783093189290255"><ele>123.0</ele><time>2026-04-04T12:24:15Z</time></trkpt><trkpt lat="42.74348788902267" lon="2.783211166553195"><ele>123.5</ele><time>2026-04-04T12:24:16Z</time></trkpt><trkpt lat="42.74350065365058" lon="2.783316104910266"><ele>124.0</ele><time>2026-04-04T12:24:17Z</time></trkpt><trkpt lat="42.74351206535013" lon="2.783416256080225"><ele>124.49999999999999</ele><time>2026-04-04T12:24:18Z</time></trkpt><trkpt lat="42.74352315767074" lon="2.783519092640489"><ele>125.0</ele><time>2026-04-04T12:24:19Z</time></trkpt><trkpt lat="42.743535989077266" lon="2.7836408269954624"><ele>125.14285714285714</ele><time>2026-04-04T12:24:20Z</time></trkpt><trkpt lat="42.74354709710347" lon="2.7837521387126665"><ele>125.28571428571429</ele><time>2026-04-04T12:24:21Z</time></trkpt><trkpt lat="42.74355639754206" lon="2.783853959966516"><ele>125.42857142857143</ele><time>2026-04-04T12:24:22Z</time></trkpt><trkpt lat="42.74356727959167" lon="2.7839604213114564"><ele>125.57142857142857</ele><time>2026-04-04T12:24:23.001Z</time></trkpt><trkpt lat="42.743577182373954" lon="2.7840552424058336"><ele>125.71428571428572</ele><time>2026-04-04T12:24:24.001Z</time></trkpt><trkpt lat="42.74358769713428" lon="2.784146356433225"><ele>125.85714285714286</ele><time>2026-04-04T12:24:25.001Z</time></trkpt><trkpt lat="42.74360421970908" lon="2.7842297906995173"><ele>126.0</ele><time>2026-04-04T12:24:26.001Z</time></trkpt><trkpt lat="42.743620593493276" lon="2.7843246421122863"><ele>126.19999999999999</ele><time>2026-04-04T12:24:27.001Z</time></trkpt><trkpt lat="42.74363702792082" lon="2.78441005761742"><ele>126.39999999999999</ele><time>2026-04-04T12:24:28.001Z</time></trkpt><trkpt lat="42.74365515836862" lon="2.784494217623553"><ele>126.6</ele><time>2026-04-04T12:24:29.001Z</time></trkpt><trkpt lat="42.7436860140887" lon="2.7846479702501576"><ele>126.8</ele><time>2026-04-04T12:24:31.001Z</time></trkpt><trkpt lat="42.74371691542759" lon="2.7847981319803723"><ele>127.0</ele><time>2026-04-04T12:24:33.001Z</time></trkpt><trkpt lat="42.74374259868812" lon="2.7849501971658746"><ele>127.0</ele><time>2026-04-04T12:24:35.001Z</time></trkpt><trkpt lat="42.74378156958948" lon="2.7850820426612204"><ele>126.99999999999999</ele><time>2026-04-04T12:24:37.001Z</time></trkpt><trkpt lat="42.74381993782894" lon="2.7851976705013084"><ele>126.99999999999999</ele><time>2026-04-04T12:24:39.001Z</time></trkpt><trkpt lat="42.74385939142212" lon="2.7853405474744655"><ele>127.0</ele><time>2026-04-04T12:24:41.001Z</time></trkpt><trkpt lat="42.74387900497685" lon="2.785518728192097"><ele>127.0</ele><time>2026-04-04T12:24:43.001Z</time></trkpt><trkpt lat="42.74387702209881" lon="2.7856177559860384"><ele>126.50000000000001</ele><time>2026-04-04T12:24:44.001Z</time></trkpt><trkpt lat="42.7438823061856" lon="2.78571812608212"><ele>126.0</ele><time>2026-04-04T12:24:45.001Z</time></trkpt><trkpt lat="42.74388757994879" lon="2.78582912465343"><ele>125.5</ele><time>2026-04-04T12:24:46.001Z</time></trkpt><trkpt lat="42.7438913736222" lon="2.785932077592055"><ele>125.0</ele><time>2026-04-04T12:24:47.001Z</time></trkpt><trkpt lat="42.743896799349294" lon="2.786037865249142"><ele>124.50000000000001</ele><time>2026-04-04T12:24:48.001Z</time></trkpt><trkpt lat="42.743903869262176" lon="2.786138891985624"><ele>124.0</ele><time>2026-04-04T12:24:49.001Z</time></trkpt><trkpt lat="42.74391549226884" lon="2.7862396251467247"><ele>123.33333333333334</ele><time>2026-04-04T12:24:50.001Z</time></trkpt><trkpt lat="42.74393097542134" lon="2.7863330091730183"><ele>122.66666666666667</ele><time>2026-04-04T12:24:51.001Z</time></trkpt><trkpt lat="42.743955554421426" lon="2.786442129171222"><ele>122.0</ele><time>2026-04-04T12:24:52.001Z</time></trkpt><trkpt lat="42.74398900372443" lon="2.786549200349025"><ele>121.33333333333334</ele><time>2026-04-04T12:24:53.001Z</time></trkpt><trkpt lat="42.74402705668514" lon="2.786664930284379"><ele>120.66666666666667</ele><time>2026-04-04T12:24:54.001Z</time></trkpt><trkpt lat="42.74407360691939" lon="2.786784652977649"><ele>120.0</ele><time>2026-04-04T12:24:55.001Z</time></trkpt><trkpt lat="42.74412224759711" lon="2.78690228676754"><ele>119.2</ele><time>2026-04-04T12:24:56.001Z</time></trkpt><trkpt lat="42.74417238446275" lon="2.787015521554503"><ele>118.4</ele><time>2026-04-04T12:24:57.001Z</time></trkpt><trkpt lat="42.744225874769576" lon="2.7871354329932325"><ele>117.6</ele><time>2026-04-04T12:24:58.001Z</time></trkpt><trkpt lat="42.74427657398273" lon="2.7872497875664832"><ele>116.8</ele><time>2026-04-04T12:24:59.001Z</time></trkpt><trkpt lat="42.7443237263561" lon="2.787348627642866"><ele>116.0</ele><time>2026-04-04T12:25:00.001Z</time></trkpt><trkpt lat="42.7443682101752" lon="2.787443767005949"><ele>116.33333333333333</ele><time>2026-04-04T12:25:01.001Z</time></trkpt><trkpt lat="42.74440987219743" lon="2.7875324107971893"><ele>116.66666666666666</ele><time>2026-04-04T12:25:02.001Z</time></trkpt><trkpt lat="42.74444345823052" lon="2.7876285856145"><ele>117.0</ele><time>2026-04-04T12:25:03.001Z</time></trkpt><trkpt lat="42.744466791133924" lon="2.787736301064538"><ele>117.33333333333334</ele><time>2026-04-04T12:25:04.001Z</time></trkpt><trkpt lat="42.74446331285371" lon="2.787867077925403"><ele>117.66666666666667</ele><time>2026-04-04T12:25:05.001Z</time></trkpt><trkpt lat="42.74449262574721" lon="2.787991267689572"><ele>118.0</ele><time>2026-04-04T12:25:06.001Z</time></trkpt><trkpt lat="42.744504200615786" lon="2.7881196101619357"><ele>117.2</ele><time>2026-04-04T12:25:07.001Z</time></trkpt><trkpt lat="42.74452338823008" lon="2.7882572418648954"><ele>116.4</ele><time>2026-04-04T12:25:08.001Z</time></trkpt><trkpt lat="42.744547845492875" lon="2.788395857963898"><ele>115.60000000000001</ele><time>2026-04-04T12:25:09.001Z</time></trkpt><trkpt lat="42.744569688592065" lon="2.7885433151437637"><ele>114.80000000000001</ele><time>2026-04-04T12:25:10.001Z</time></trkpt><trkpt lat="42.744589529175485" lon="2.788678544091326"><ele>114.0</ele><time>2026-04-04T12:25:11.001Z</time></trkpt><trkpt lat="42.744606109096274" lon="2.788804620699168"><ele>113.33333333333333</ele><time>2026-04-04T12:25:12.001Z</time></trkpt><trkpt lat="42.74461809389705" lon="2.788932649627417"><ele>112.66666666666666</ele><time>2026-04-04T12:25:13.001Z</time></trkpt><trkpt lat="42.744635434398674" lon="2.7890491576931913"><ele>112.0</ele><time>2026-04-04T12:25:14.001Z</time></trkpt><trkpt lat="42.744652266944485" lon="2.7891694494919257"><ele>111.33333333333333</ele><time>2026-04-04T12:25:15.001Z</time></trkpt><trkpt lat="42.744666109156846" lon="2.7892793369661586"><ele>110.66666666666666</ele><time>2026-04-04T12:25:16.001Z</time></trkpt><trkpt lat="42.74468239129077" lon="2.789378353463657"><ele>110.0</ele><time>2026-04-04T12:25:17.001Z</time></trkpt><trkpt lat="42.74468042773742" lon="2.789480537062558"><ele>109.49999999999999</ele><time>2026-04-04T12:25:18.001Z</time></trkpt><trkpt lat="42.74470869127695" lon="2.7895699425092846"><ele>109.0</ele><time>2026-04-04T12:25:19.001Z</time></trkpt><trkpt lat="42.744744409574736" lon="2.789702032751611"><ele>108.5</ele><time>2026-04-04T12:25:21.001Z</time></trkpt><trkpt lat="42.74477837791173" lon="2.7897843633864556"><ele>108.0</ele><time>2026-04-04T12:25:22.001Z</time></trkpt><trkpt lat="42.74487204180782" lon="2.7898092031096073"><ele>107.49999999999999</ele><time>2026-04-04T12:25:23.001Z</time></trkpt><trkpt lat="42.74497250237142" lon="2.7898557350563356"><ele>107.0</ele><time>2026-04-04T12:25:24.001Z</time></trkpt><trkpt lat="42.74506470879326" lon="2.7899272663203893"><ele>106.99999999999999</ele><time>2026-04-04T12:25:25.001Z</time></trkpt><trkpt lat="42.745150929920456" lon="2.7899841347983942"><ele>107.0</ele><time>2026-04-04T12:25:26.001Z</time></trkpt><trkpt lat="42.7452222707412" lon="2.7900388825426963"><ele>107.0</ele><time>2026-04-04T12:25:27.001Z</time></trkpt><trkpt lat="42.745283765273" lon="2.790085589606443"><ele>107.0</ele><time>2026-04-04T12:25:28.001Z</time></trkpt><trkpt lat="42.745383216528666" lon="2.7901388247757315"><ele>106.99999999999999</ele><time>2026-04-04T12:25:30.001Z</time></trkpt><trkpt lat="42.7454657123784" lon="2.7901987405363173"><ele>107.0</ele><time>2026-04-04T12:25:32.001Z</time></trkpt><trkpt lat="42.74554028357596" lon="2.790262481788584"><ele>107.19999999999999</ele><time>2026-04-04T12:25:34.001Z</time></trkpt><trkpt lat="42.745634105531025" lon="2.790384756127877"><ele>107.39999999999999</ele><time>2026-04-04T12:25:36.001Z</time></trkpt><trkpt lat="42.7456859335838" lon="2.790464863074"><ele>107.60000000000001</ele><time>2026-04-04T12:25:37.001Z</time></trkpt><trkpt lat="42.745736956668935" lon="2.7905476757836847"><ele>107.80000000000001</ele><time>2026-04-04T12:25:38Z</time></trkpt><trkpt lat="42.74581550618565" lon="2.790621787475334"><ele>108.0</ele><time>2026-04-04T12:25:39Z</time></trkpt><trkpt lat="42.74589210321439" lon="2.790684132349691"><ele>108.0</ele><time>2026-04-04T12:25:40Z</time></trkpt><trkpt lat="42.74594956202116" lon="2.7907842445219475"><ele>108.00000000000001</ele><time>2026-04-04T12:25:41Z</time></trkpt><trkpt lat="42.745998279580924" lon="2.7908892146384576"><ele>108.00000000000001</ele><time>2026-04-04T12:25:42Z</time></trkpt><trkpt lat="42.74604084229507" lon="2.791002279476894"><ele>108.0</ele><time>2026-04-04T12:25:43Z</time></trkpt><trkpt lat="42.746095849487354" lon="2.791094593412207"><ele>108.0</ele><time>2026-04-04T12:25:44Z</time></trkpt><trkpt lat="42.74614671577712" lon="2.791190989281243"><ele>108.0</ele><time>2026-04-04T12:25:45Z</time></trkpt><trkpt lat="42.746207351031806" lon="2.791275175683793"><ele>108.0</ele><time>2026-04-04T12:25:46Z</time></trkpt><trkpt lat="42.746275539712954" lon="2.791357380094005"><ele>108.0</ele><time>2026-04-04T12:25:47Z</time></trkpt><trkpt lat="42.74634093854005" lon="2.791435094347246"><ele>108.0</ele><time>2026-04-04T12:25:48Z</time></trkpt><trkpt lat="42.74640482944406" lon="2.7915091188746413"><ele>108.0</ele><time>2026-04-04T12:25:49Z</time></trkpt><trkpt lat="42.74647092242887" lon="2.7915764464525115"><ele>108.0</ele><time>2026-04-04T12:25:50Z</time></trkpt><trkpt lat="42.74653982979136" lon="2.7916529395969083"><ele>108.0</ele><time>2026-04-04T12:25:51Z</time></trkpt><trkpt lat="42.746622127092174" lon="2.791710202478369"><ele>108.00000000000001</ele><time>2026-04-04T12:25:52Z</time></trkpt><trkpt lat="42.746708859012365" lon="2.791779622557699"><ele>108.00000000000001</ele><time>2026-04-04T12:25:53Z</time></trkpt><trkpt lat="42.74679518062052" lon="2.7918473549807916"><ele>108.0</ele><time>2026-04-04T12:25:54Z</time></trkpt><trkpt lat="42.746889119860874" lon="2.791915694702984"><ele>108.0</ele><time>2026-04-04T12:25:55Z</time></trkpt><trkpt lat="42.74697757829242" lon="2.7919792837452597"><ele>108.0</ele><time>2026-04-04T12:25:56Z</time></trkpt><trkpt lat="42.7470540264863" lon="2.792036535744978"><ele>108.0</ele><time>2026-04-04T12:25:57Z</time></trkpt><trkpt lat="42.74712684360276" lon="2.79209141753603"><ele>108.0</ele><time>2026-04-04T12:25:58Z</time></trkpt><trkpt lat="42.7471923437062" lon="2.792140155125144"><ele>108.0</ele><time>2026-04-04T12:25:59Z</time></trkpt><trkpt lat="42.74725642704861" lon="2.7921868529514247"><ele>108.0</ele><time>2026-04-04T12:26:00Z</time></trkpt><trkpt lat="42.747310345908" lon="2.792246307112465"><ele>108.0</ele><time>2026-04-04T12:26:01Z</time></trkpt><trkpt lat="42.74737011482527" lon="2.7922857852433913"><ele>108.0</ele><time>2026-04-04T12:26:02Z</time></trkpt><trkpt lat="42.74747048000077" lon="2.792375998437943"><ele>108.0</ele><time>2026-04-04T12:26:04Z</time></trkpt><trkpt lat="42.74752110336774" lon="2.7924488102300904"><ele>108.0</ele><time>2026-04-04T12:26:05Z</time></trkpt><trkpt lat="42.74755682272" lon="2.792544155900677"><ele>108.0</ele><time>2026-04-04T12:26:06Z</time></trkpt><trkpt lat="42.74758514331234" lon="2.7926532376327686"><ele>108.0</ele><time>2026-04-04T12:26:07Z</time></trkpt><trkpt lat="42.74760873408665" lon="2.792770123434529"><ele>108.0</ele><time>2026-04-04T12:26:08Z</time></trkpt><trkpt lat="42.7476220520241" lon="2.792883874744448"><ele>108.0</ele><time>2026-04-04T12:26:09Z</time></trkpt><trkpt lat="42.74763414881134" lon="2.792996817615203"><ele>108.0</ele><time>2026-04-04T12:26:10Z</time></trkpt><trkpt lat="42.74764650157633" lon="2.793112150394336"><ele>108.0</ele><time>2026-04-04T12:26:11Z</time></trkpt><trkpt lat="42.74768395594134" lon="2.7932207031071905"><ele>108.0</ele><time>2026-04-04T12:26:12Z</time></trkpt><trkpt lat="42.747723130726705" lon="2.793325587885141"><ele>108.0</ele><time>2026-04-04T12:26:13Z</time></trkpt><trkpt lat="42.74777849500778" lon="2.7934394450173388"><ele>108.0</ele><time>2026-04-04T12:26:14Z</time></trkpt><trkpt lat="42.747836113315024" lon="2.7935647143879643"><ele>108.0</ele><time>2026-04-04T12:26:15Z</time></trkpt><trkpt lat="42.74790596332821" lon="2.793679531314911"><ele>108.00000000000001</ele><time>2026-04-04T12:26:16Z</time></trkpt><trkpt lat="42.74797167454673" lon="2.7937942018263087"><ele>108.00000000000001</ele><time>2026-04-04T12:26:17Z</time></trkpt><trkpt lat="42.74804065518339" lon="2.793901900484952"><ele>108.0</ele><time>2026-04-04T12:26:18Z</time></trkpt><trkpt lat="42.748108262799555" lon="2.7940112736742666"><ele>108.0</ele><time>2026-04-04T12:26:19Z</time></trkpt><trkpt lat="42.74817915103069" lon="2.794121041902958"><ele>108.0</ele><time>2026-04-04T12:26:20Z</time></trkpt><trkpt lat="42.748243141047205" lon="2.7942009175167795"><ele>108.0</ele><time>2026-04-04T12:26:21Z</time></trkpt><trkpt lat="42.748303290363715" lon="2.7942430016624047"><ele>108.0</ele><time>2026-04-04T12:26:22Z</time></trkpt><trkpt lat="42.74836210938041" lon="2.7942738366482986"><ele>108.0</ele><time>2026-04-04T12:26:23Z</time></trkpt><trkpt lat="42.74843076878249" lon="2.7943257220784963"><ele>108.0</ele><time>2026-04-04T12:26:25Z</time></trkpt><trkpt lat="42.748488277306244" lon="2.794373735360918"><ele>108.0</ele><time>2026-04-04T12:26:28Z</time></trkpt><trkpt lat="42.7485460162871" lon="2.7944411158427482"><ele>108.0</ele><time>2026-04-04T12:26:32.001Z</time></trkpt><trkpt lat="42.74848433813946" lon="2.7945514174689308"><ele>107.66666666666667</ele><time>2026-04-04T12:26:33.001Z</time></trkpt><trkpt lat="42.74845681945466" lon="2.7947160010923313"><ele>107.33333333333334</ele><time>2026-04-04T12:26:35.001Z</time></trkpt><trkpt lat="42.74843959579414" lon="2.7948190122822028"><ele>107.0</ele><time>2026-04-04T12:26:36.001Z</time></trkpt><trkpt lat="42.74843945577185" lon="2.794919430627372"><ele>106.66666666666667</ele><time>2026-04-04T12:26:37.001Z</time></trkpt><trkpt lat="42.74841841368596" lon="2.795019427225529"><ele>106.33333333333334</ele><time>2026-04-04T12:26:38.001Z</time></trkpt><trkpt lat="42.74839795253467" lon="2.795124011671143"><ele>106.0</ele><time>2026-04-04T12:26:39.001Z</time></trkpt><trkpt lat="42.748376080295714" lon="2.7952340019556825"><ele>105.6</ele><time>2026-04-04T12:26:40.001Z</time></trkpt><trkpt lat="42.748357783509896" lon="2.795352560065"><ele>105.19999999999999</ele><time>2026-04-04T12:26:41.001Z</time></trkpt><trkpt lat="42.74833663001605" lon="2.795480557648134"><ele>104.80000000000001</ele><time>2026-04-04T12:26:42.001Z</time></trkpt><trkpt lat="42.74831150417698" lon="2.795612581099353"><ele>104.4</ele><time>2026-04-04T12:26:43.001Z</time></trkpt><trkpt lat="42.74828738336709" lon="2.795740392899807"><ele>104.0</ele><time>2026-04-04T12:26:44.001Z</time></trkpt><trkpt lat="42.748264663810566" lon="2.795866976247537"><ele>104.0</ele><time>2026-04-04T12:26:45.001Z</time></trkpt><trkpt lat="42.74824340299943" lon="2.795992318314406"><ele>104.0</ele><time>2026-04-04T12:26:46.001Z</time></trkpt><trkpt lat="42.74822976300607" lon="2.796116771548636"><ele>104.0</ele><time>2026-04-04T12:26:47.001Z</time></trkpt><trkpt lat="42.74822788192496" lon="2.796250427995247"><ele>104.0</ele><time>2026-04-04T12:26:48.001Z</time></trkpt><trkpt lat="42.748242247980315" lon="2.796398855920014"><ele>104.0</ele><time>2026-04-04T12:26:49.001Z</time></trkpt><trkpt lat="42.74826281951104" lon="2.796555649416801"><ele>103.75</ele><time>2026-04-04T12:26:50.001Z</time></trkpt><trkpt lat="42.74830011043718" lon="2.7967179150782253"><ele>103.5</ele><time>2026-04-04T12:26:51.001Z</time></trkpt><trkpt lat="42.74833791205766" lon="2.796904287381407"><ele>103.25</ele><time>2026-04-04T12:26:52.001Z</time></trkpt><trkpt lat="42.748382154986835" lon="2.797068523825675"><ele>103.0</ele><time>2026-04-04T12:26:53.001Z</time></trkpt><trkpt lat="42.74842656005367" lon="2.7972512840462715"><ele>103.0</ele><time>2026-04-04T12:26:54.001Z</time></trkpt><trkpt lat="42.74841452532415" lon="2.7974871153032104"><ele>103.0</ele><time>2026-04-04T12:26:55.001Z</time></trkpt><trkpt lat="42.74841762239307" lon="2.797751398119992"><ele>103.0</ele><time>2026-04-04T12:26:56.001Z</time></trkpt><trkpt lat="42.748431327889" lon="2.797970497770144"><ele>103.0</ele><time>2026-04-04T12:26:57.001Z</time></trkpt><trkpt lat="42.7484334191274" lon="2.798164918103432"><ele>103.0</ele><time>2026-04-04T12:26:58.001Z</time></trkpt><trkpt lat="42.748437864565325" lon="2.798343051771162"><ele>103.0</ele><time>2026-04-04T12:26:59.001Z</time></trkpt><trkpt lat="42.74844148321433" lon="2.7984972798739616"><ele>103.0</ele><time>2026-04-04T12:27:00.001Z</time></trkpt><trkpt lat="42.74844449523134" lon="2.7986407516869503"><ele>102.5</ele><time>2026-04-04T12:27:01.001Z</time></trkpt><trkpt lat="42.74846813074163" lon="2.798795345446812"><ele>102.0</ele><time>2026-04-04T12:27:02.001Z</time></trkpt><trkpt lat="42.748507512526125" lon="2.7989541635494315"><ele>101.5</ele><time>2026-04-04T12:27:03.001Z</time></trkpt><trkpt lat="42.74854055563995" lon="2.799104588101885"><ele>101.0</ele><time>2026-04-04T12:27:04.001Z</time></trkpt><trkpt lat="42.74856886365887" lon="2.799234037962355"><ele>101.49999999999999</ele><time>2026-04-04T12:27:05.001Z</time></trkpt><trkpt lat="42.74859159244634" lon="2.799354328588104"><ele>102.0</ele><time>2026-04-04T12:27:06.001Z</time></trkpt><trkpt lat="42.748609263091275" lon="2.7994750535859505"><ele>102.5</ele><time>2026-04-04T12:27:07.001Z</time></trkpt><trkpt lat="42.74861541030035" lon="2.7995923459997187"><ele>103.0</ele><time>2026-04-04T12:27:08.001Z</time></trkpt><trkpt lat="42.74861323032108" lon="2.799699530046516"><ele>103.49999999999999</ele><time>2026-04-04T12:27:09.001Z</time></trkpt><trkpt lat="42.748612249742145" lon="2.799799414692632"><ele>104.0</ele><time>2026-04-04T12:27:10.001Z</time></trkpt><trkpt lat="42.748609814319416" lon="2.799889012597022"><ele>104.0</ele><time>2026-04-04T12:27:11.001Z</time></trkpt><trkpt lat="42.748611380091326" lon="2.7999795167403603"><ele>104.0</ele><time>2026-04-04T12:27:12.001Z</time></trkpt><trkpt lat="42.748614098204854" lon="2.800092679545871"><ele>104.0</ele><time>2026-04-04T12:27:13.001Z</time></trkpt><trkpt lat="42.748616586649014" lon="2.800233759215181"><ele>104.0</ele><time>2026-04-04T12:27:14.001Z</time></trkpt><trkpt lat="42.74861886420581" lon="2.8003704600034567"><ele>104.0</ele><time>2026-04-04T12:27:15.001Z</time></trkpt><trkpt lat="42.74862880263861" lon="2.8005045755016913"><ele>103.6</ele><time>2026-04-04T12:27:16.001Z</time></trkpt><trkpt lat="42.7486439074678" lon="2.800653433742583"><ele>103.2</ele><time>2026-04-04T12:27:17.001Z</time></trkpt><trkpt lat="42.74865790478738" lon="2.8007990497655255"><ele>102.8</ele><time>2026-04-04T12:27:18.001Z</time></trkpt><trkpt lat="42.74866694160926" lon="2.800937717160134"><ele>102.39999999999999</ele><time>2026-04-04T12:27:19.001Z</time></trkpt><trkpt lat="42.748675915773916" lon="2.801080283995963"><ele>102.0</ele><time>2026-04-04T12:27:20.001Z</time></trkpt><trkpt lat="42.74868578858136" lon="2.8012301987272807"><ele>101.33333333333333</ele><time>2026-04-04T12:27:21.001Z</time></trkpt><trkpt lat="42.74869283618788" lon="2.8013628188928066"><ele>100.66666666666666</ele><time>2026-04-04T12:27:22.001Z</time></trkpt><trkpt lat="42.74869650049843" lon="2.801485899358324"><ele>100.0</ele><time>2026-04-04T12:27:23.001Z</time></trkpt><trkpt lat="42.74870041174652" lon="2.801601593806534"><ele>99.33333333333333</ele><time>2026-04-04T12:27:24.001Z</time></trkpt><trkpt lat="42.74869329172365" lon="2.801718580280692"><ele>98.66666666666666</ele><time>2026-04-04T12:27:25.001Z</time></trkpt><trkpt lat="42.748673392703004" lon="2.8018332831828516"><ele>98.0</ele><time>2026-04-04T12:27:26.001Z</time></trkpt><trkpt lat="42.74864880058251" lon="2.8019558452382367"><ele>97.60000000000001</ele><time>2026-04-04T12:27:27.001Z</time></trkpt><trkpt lat="42.748626683232395" lon="2.802073542678574"><ele>97.2</ele><time>2026-04-04T12:27:28.001Z</time></trkpt><trkpt lat="42.74860317466773" lon="2.8021987679754856"><ele>96.8</ele><time>2026-04-04T12:27:29.001Z</time></trkpt><trkpt lat="42.74856284701631" lon="2.8023165088538433"><ele>96.4</ele><time>2026-04-04T12:27:30.001Z</time></trkpt><trkpt lat="42.74851398260589" lon="2.8024311571143423"><ele>96.0</ele><time>2026-04-04T12:27:31.001Z</time></trkpt><trkpt lat="42.748458570283866" lon="2.802546508567983"><ele>96.0</ele><time>2026-04-04T12:27:32.001Z</time></trkpt><trkpt lat="42.748399217982346" lon="2.8026567867324004"><ele>96.0</ele><time>2026-04-04T12:27:33.001Z</time></trkpt><trkpt lat="42.74833856616853" lon="2.802768907063178"><ele>96.0</ele><time>2026-04-04T12:27:34.001Z</time></trkpt><trkpt lat="42.74827208574589" lon="2.8028753203825647"><ele>96.0</ele><time>2026-04-04T12:27:35.001Z</time></trkpt><trkpt lat="42.748202604171524" lon="2.802977883505385"><ele>96.0</ele><time>2026-04-04T12:27:36.001Z</time></trkpt><trkpt lat="42.7481394499664" lon="2.803074576210577"><ele>95.66666666666667</ele><time>2026-04-04T12:27:37.001Z</time></trkpt><trkpt lat="42.748079781807895" lon="2.803167753285775"><ele>95.33333333333333</ele><time>2026-04-04T12:27:38.001Z</time></trkpt><trkpt lat="42.74802286660934" lon="2.8032577622789003"><ele>95.0</ele><time>2026-04-04T12:27:39.001Z</time></trkpt><trkpt lat="42.74796700541966" lon="2.8033404616317568"><ele>94.66666666666666</ele><time>2026-04-04T12:27:40.001Z</time></trkpt><trkpt lat="42.747910700847285" lon="2.8034129724156673"><ele>94.33333333333333</ele><time>2026-04-04T12:27:41.001Z</time></trkpt><trkpt lat="42.74785430169016" lon="2.8034871622055615"><ele>94.0</ele><time>2026-04-04T12:27:42.001Z</time></trkpt><trkpt lat="42.747805646369024" lon="2.8035590433387014"><ele>93.80000000000001</ele><time>2026-04-04T12:27:43.001Z</time></trkpt><trkpt lat="42.74775900660313" lon="2.80363534742844"><ele>93.60000000000001</ele><time>2026-04-04T12:27:44Z</time></trkpt><trkpt lat="42.747697597308495" lon="2.8037484994051582"><ele>93.4</ele><time>2026-04-04T12:27:46Z</time></trkpt><trkpt lat="42.74777078849034" lon="2.8039581855262727"><ele>93.2</ele><time>2026-04-04T12:27:49Z</time></trkpt><trkpt lat="42.7478323008366" lon="2.804001261002998"><ele>93.0</ele><time>2026-04-04T12:27:50Z</time></trkpt><trkpt lat="42.747907477027596" lon="2.8040206947894415"><ele>92.83333333333333</ele><time>2026-04-04T12:27:51Z</time></trkpt><trkpt lat="42.74798366155208" lon="2.80404524181477"><ele>92.66666666666667</ele><time>2026-04-04T12:27:52Z</time></trkpt><trkpt lat="42.748061184043856" lon="2.8040618633903165"><ele>92.5</ele><time>2026-04-04T12:27:53Z</time></trkpt><trkpt lat="42.74813996949302" lon="2.804084277349931"><ele>92.33333333333334</ele><time>2026-04-04T12:27:54Z</time></trkpt><trkpt lat="42.74821641151295" lon="2.804115411958412"><ele>92.16666666666667</ele><time>2026-04-04T12:27:55Z</time></trkpt><trkpt lat="42.74827381848206" lon="2.8041672645392905"><ele>92.0</ele><time>2026-04-04T12:27:56Z</time></trkpt><trkpt lat="42.74833875703062" lon="2.80422347227304"><ele>92.0</ele><time>2026-04-04T12:27:57Z</time></trkpt><trkpt lat="42.74840432933959" lon="2.8042742724363574"><ele>92.0</ele><time>2026-04-04T12:27:58Z</time></trkpt><trkpt lat="42.748476101279685" lon="2.8043159442228967"><ele>92.0</ele><time>2026-04-04T12:27:59Z</time></trkpt><trkpt lat="42.74854456472542" lon="2.8043525431805034"><ele>92.0</ele><time>2026-04-04T12:28:00Z</time></trkpt><trkpt lat="42.74860555505402" lon="2.8043914028844537"><ele>92.0</ele><time>2026-04-04T12:28:01Z</time></trkpt><trkpt lat="42.748668903838976" lon="2.804431765420022"><ele>92.0</ele><time>2026-04-04T12:28:02Z</time></trkpt><trkpt lat="42.74873278219848" lon="2.8044727049331515"><ele>92.0</ele><time>2026-04-04T12:28:03Z</time></trkpt><trkpt lat="42.74879190308018" lon="2.804508488619824"><ele>90.6</ele><time>2026-04-04T12:28:04Z</time></trkpt><trkpt lat="42.748852068657584" lon="2.80454457556391"><ele>89.19999999999999</ele><time>2026-04-04T12:28:05Z</time></trkpt><trkpt lat="42.74896419591654" lon="2.8046087050057413"><ele>87.8</ele><time>2026-04-04T12:28:07Z</time></trkpt><trkpt lat="42.749062644061574" lon="2.8046648784670167"><ele>86.4</ele><time>2026-04-04T12:28:09Z</time></trkpt><trkpt lat="42.749163423215634" lon="2.804756659570049"><ele>85.0</ele><time>2026-04-04T12:28:11Z</time></trkpt><trkpt lat="42.74920034397108" lon="2.8048351574456785"><ele>85.0</ele><time>2026-04-04T12:28:12Z</time></trkpt><trkpt lat="42.749242112022394" lon="2.8049409440338806"><ele>85.0</ele><time>2026-04-04T12:28:13Z</time></trkpt><trkpt lat="42.74926981898622" lon="2.8050417620854065"><ele>85.0</ele><time>2026-04-04T12:28:14Z</time></trkpt><trkpt lat="42.74931093683961" lon="2.8051286805542746"><ele>85.0</ele><time>2026-04-04T12:28:15Z</time></trkpt><trkpt lat="42.749334013048475" lon="2.805234875123005"><ele>85.0</ele><time>2026-04-04T12:28:16Z</time></trkpt><trkpt lat="42.74934931836485" lon="2.805339396632053"><ele>85.0</ele><time>2026-04-04T12:28:17Z</time></trkpt><trkpt lat="42.74938167548465" lon="2.8054630401113347"><ele>85.28571428571429</ele><time>2026-04-04T12:28:18Z</time></trkpt><trkpt lat="42.74941908418405" lon="2.8055600076610308"><ele>85.57142857142857</ele><time>2026-04-04T12:28:19Z</time></trkpt><trkpt lat="42.74943883838776" lon="2.805655357219901"><ele>85.85714285714286</ele><time>2026-04-04T12:28:20Z</time></trkpt><trkpt lat="42.74945390190176" lon="2.8057425618262015"><ele>86.14285714285714</ele><time>2026-04-04T12:28:21Z</time></trkpt><trkpt lat="42.74947124757344" lon="2.805837315305352"><ele>86.42857142857143</ele><time>2026-04-04T12:28:22Z</time></trkpt><trkpt lat="42.74947911973876" lon="2.805939022663411"><ele>86.71428571428571</ele><time>2026-04-04T12:28:23Z</time></trkpt><trkpt lat="42.74950783726869" lon="2.806031873327972"><ele>87.0</ele><time>2026-04-04T12:28:24Z</time></trkpt><trkpt lat="42.749516613381374" lon="2.8061316949455404"><ele>87.0</ele><time>2026-04-04T12:28:25Z</time></trkpt><trkpt lat="42.74954773455305" lon="2.8062309111558044"><ele>87.0</ele><time>2026-04-04T12:28:26Z</time></trkpt><trkpt lat="42.74956532379219" lon="2.8063400326951387"><ele>87.0</ele><time>2026-04-04T12:28:27Z</time></trkpt><trkpt lat="42.74958615920156" lon="2.806433477244959"><ele>87.0</ele><time>2026-04-04T12:28:28Z</time></trkpt><trkpt lat="42.749614943509386" lon="2.806582720497514"><ele>87.0</ele><time>2026-04-04T12:28:30Z</time></trkpt><trkpt lat="42.749642891081635" lon="2.8067052825935397"><ele>87.0</ele><time>2026-04-04T12:28:32Z</time></trkpt><trkpt lat="42.74966229073888" lon="2.806820093605273"><ele>87.0</ele><time>2026-04-04T12:28:34Z</time></trkpt><trkpt lat="42.74967324124584" lon="2.806925441023995"><ele>87.0</ele><time>2026-04-04T12:28:37Z</time></trkpt><trkpt lat="42.74975801890941" lon="2.8069532040749055"><ele>87.0</ele><time>2026-04-04T12:28:39Z</time></trkpt><trkpt lat="42.74982549073919" lon="2.806923511179366"><ele>87.0</ele><time>2026-04-04T12:28:41Z</time></trkpt><trkpt lat="42.7499025369318" lon="2.806890157841249"><ele>87.0</ele><time>2026-04-04T12:28:43.001Z</time></trkpt><trkpt lat="42.750001177740344" lon="2.8068474562060537"><ele>87.0</ele><time>2026-04-04T12:28:45.001Z</time></trkpt><trkpt lat="42.75007570353874" lon="2.8068022046924717"><ele>87.0</ele><time>2026-04-04T12:28:47.001Z</time></trkpt><trkpt lat="42.75014175267802" lon="2.8067822203757657"><ele>87.0</ele><time>2026-04-04T12:28:49.001Z</time></trkpt><trkpt lat="42.75020511171674" lon="2.8067676699696746"><ele>87.0</ele><time>2026-04-04T12:28:51.001Z</time></trkpt><trkpt lat="42.7501200626399" lon="2.806803131547288"><ele>87.0</ele><time>2026-04-04T12:29:00.001Z</time></trkpt><trkpt lat="42.750034245116034" lon="2.8068162236904217"><ele>87.0</ele><time>2026-04-04T12:29:02.001Z</time></trkpt><trkpt lat="42.749943186148506" lon="2.806861820593767"><ele>87.0</ele><time>2026-04-04T12:29:04.001Z</time></trkpt><trkpt lat="42.74984580536966" lon="2.806889314229461"><ele>87.0</ele><time>2026-04-04T12:29:06.001Z</time></trkpt><trkpt lat="42.74976141317189" lon="2.806904245342602"><ele>87.0</ele><time>2026-04-04T12:29:08.001Z</time></trkpt><trkpt lat="42.74968479664235" lon="2.8069116183708362"><ele>87.0</ele><time>2026-04-04T12:29:12.001Z</time></trkpt><trkpt lat="42.749639754167426" lon="2.806796342851599"><ele>87.0</ele><time>2026-04-04T12:29:14.001Z</time></trkpt><trkpt lat="42.74958351087656" lon="2.806743924635737"><ele>87.0</ele><time>2026-04-04T12:29:17.001Z</time></trkpt><trkpt lat="42.749494054967734" lon="2.806763978659096"><ele>87.0</ele><time>2026-04-04T12:29:19.001Z</time></trkpt><trkpt lat="42.74938312175811" lon="2.8067634357392794"><ele>86.39999999999999</ele><time>2026-04-04T12:29:21.001Z</time></trkpt><trkpt lat="42.749290505867506" lon="2.806758366595653"><ele>85.8</ele><time>2026-04-04T12:29:23.001Z</time></trkpt><trkpt lat="42.74918751152369" lon="2.8067557018427323"><ele>85.2</ele><time>2026-04-04T12:29:25.001Z</time></trkpt><trkpt lat="42.74910593487523" lon="2.806759451462175"><ele>84.6</ele><time>2026-04-04T12:29:27.001Z</time></trkpt><trkpt lat="42.74902198317401" lon="2.806817638233793"><ele>84.0</ele><time>2026-04-04T12:29:30.001Z</time></trkpt><trkpt lat="42.749013892718764" lon="2.8070413002373993"><ele>83.83333333333333</ele><time>2026-04-04T12:29:32.001Z</time></trkpt><trkpt lat="42.74899209332236" lon="2.8071896791817212"><ele>83.66666666666667</ele><time>2026-04-04T12:29:33.001Z</time></trkpt><trkpt lat="42.74898185089821" lon="2.8073021256747666"><ele>83.5</ele><time>2026-04-04T12:29:34.001Z</time></trkpt><trkpt lat="42.74897214770749" lon="2.807392008622325"><ele>83.33333333333334</ele><time>2026-04-04T12:29:35.001Z</time></trkpt><trkpt lat="42.748968366598454" lon="2.8074828433927204"><ele>83.16666666666667</ele><time>2026-04-04T12:29:36.001Z</time></trkpt><trkpt lat="42.748942430136935" lon="2.8076156571506057"><ele>83.0</ele><time>2026-04-04T12:29:38.001Z</time></trkpt><trkpt lat="42.74892940690787" lon="2.8077308227970783"><ele>83.0</ele><time>2026-04-04T12:29:40.001Z</time></trkpt><trkpt lat="42.74893768460129" lon="2.807850110571246"><ele>83.0</ele><time>2026-04-04T12:29:42.001Z</time></trkpt><trkpt lat="42.748979575930576" lon="2.8079991652101466"><ele>83.0</ele><time>2026-04-04T12:29:44.001Z</time></trkpt><trkpt lat="42.74901649044444" lon="2.8081273854237785"><ele>83.0</ele><time>2026-04-04T12:29:46.001Z</time></trkpt><trkpt lat="42.74899045064016" lon="2.808270806271116"><ele>83.0</ele><time>2026-04-04T12:29:48.001Z</time></trkpt><trkpt lat="42.74892170134414" lon="2.808451441193777"><ele>83.33333333333334</ele><time>2026-04-04T12:29:50Z</time></trkpt><trkpt lat="42.748890679869845" lon="2.8085633121912856"><ele>83.66666666666667</ele><time>2026-04-04T12:29:51Z</time></trkpt><trkpt lat="42.748865340995195" lon="2.8086488360740574"><ele>84.0</ele><time>2026-04-04T12:29:52Z</time></trkpt><trkpt lat="42.74884421553752" lon="2.808734641169275"><ele>84.33333333333333</ele><time>2026-04-04T12:29:53Z</time></trkpt><trkpt lat="42.74879907250215" lon="2.8088546884210692"><ele>84.66666666666666</ele><time>2026-04-04T12:29:55Z</time></trkpt><trkpt lat="42.74875282320412" lon="2.8089215894416832"><ele>85.0</ele><time>2026-04-04T12:29:58Z</time></trkpt><trkpt lat="42.74873338429276" lon="2.809028258962568"><ele>85.0</ele><time>2026-04-04T12:30:02Z</time></trkpt><trkpt lat="42.74883815664437" lon="2.8090844687062835"><ele>85.0</ele><time>2026-04-04T12:30:03Z</time></trkpt><trkpt lat="42.74886816773747" lon="2.809257335305641"><ele>85.0</ele><time>2026-04-04T12:30:05Z</time></trkpt><trkpt lat="42.74887820246594" lon="2.809356152070904"><ele>85.0</ele><time>2026-04-04T12:30:06Z</time></trkpt><trkpt lat="42.748861425289824" lon="2.8094928165933903"><ele>85.0</ele><time>2026-04-04T12:30:08Z</time></trkpt><trkpt lat="42.74882886541475" lon="2.8096176412065788"><ele>85.0</ele><time>2026-04-04T12:30:10Z</time></trkpt><trkpt lat="42.74870708682263" lon="2.809710541007253"><ele>85.0</ele><time>2026-04-04T12:30:12Z</time></trkpt><trkpt lat="42.74864510788674" lon="2.8098231506876883"><ele>85.0</ele><time>2026-04-04T12:30:13Z</time></trkpt><trkpt lat="42.7485657437198" lon="2.809914344538798"><ele>85.0</ele><time>2026-04-04T12:30:14Z</time></trkpt><trkpt lat="42.748515985928016" lon="2.8099844763245043"><ele>85.0</ele><time>2026-04-04T12:30:15Z</time></trkpt><trkpt lat="42.74846968371328" lon="2.8100528560977893"><ele>83.6</ele><time>2026-04-04T12:30:16Z</time></trkpt><trkpt lat="42.748400581781354" lon="2.810169112369883"><ele>82.2</ele><time>2026-04-04T12:30:18Z</time></trkpt><trkpt lat="42.748323980026214" lon="2.8102828647745572"><ele>80.8</ele><time>2026-04-04T12:30:20Z</time></trkpt><trkpt lat="42.7482594690697" lon="2.8104054414553747"><ele>79.4</ele><time>2026-04-04T12:30:22Z</time></trkpt><trkpt lat="42.74818868955766" lon="2.8105098160187953"><ele>78.0</ele><time>2026-04-04T12:30:24Z</time></trkpt><trkpt lat="42.74811941803354" lon="2.810615628635409"><ele>78.0</ele><time>2026-04-04T12:30:26Z</time></trkpt><trkpt lat="42.74803397761958" lon="2.8107423240839347"><ele>78.0</ele><time>2026-04-04T12:30:28Z</time></trkpt><trkpt lat="42.7479901753253" lon="2.810806030865912"><ele>78.0</ele><time>2026-04-04T12:30:29Z</time></trkpt><trkpt lat="42.74794464648016" lon="2.8108743130200273"><ele>78.0</ele><time>2026-04-04T12:30:30Z</time></trkpt><trkpt lat="42.74790171826068" lon="2.810943598438017"><ele>78.0</ele><time>2026-04-04T12:30:31Z</time></trkpt><trkpt lat="42.74781871984702" lon="2.81105908531297"><ele>78.0</ele><time>2026-04-04T12:30:33Z</time></trkpt><trkpt lat="42.74776784818733" lon="2.811147255645952"><ele>78.2</ele><time>2026-04-04T12:30:35Z</time></trkpt><trkpt lat="42.747757228864415" lon="2.8112484988017936"><ele>78.4</ele><time>2026-04-04T12:30:39.001Z</time></trkpt><trkpt lat="42.747777623336404" lon="2.811358567963268"><ele>78.60000000000001</ele><time>2026-04-04T12:30:44.001Z</time></trkpt><trkpt lat="42.74766521471636" lon="2.8113969893331494"><ele>78.8</ele><time>2026-04-04T12:30:45.001Z</time></trkpt><trkpt lat="42.747568159815216" lon="2.811453023834025"><ele>79.0</ele><time>2026-04-04T12:30:47.001Z</time></trkpt><trkpt lat="42.74743307488241" lon="2.811534187025922"><ele>79.0</ele><time>2026-04-04T12:30:49.001Z</time></trkpt><trkpt lat="42.747369739263" lon="2.811580219115935"><ele>79.0</ele><time>2026-04-04T12:30:50.001Z</time></trkpt><trkpt lat="42.74730119442514" lon="2.811631243884603"><ele>79.0</ele><time>2026-04-04T12:30:51.001Z</time></trkpt><trkpt lat="42.74720971063563" lon="2.8116902447250243"><ele>79.0</ele><time>2026-04-04T12:30:52.001Z</time></trkpt><trkpt lat="42.74713158827889" lon="2.8117480949706244"><ele>79.0</ele><time>2026-04-04T12:30:53.001Z</time></trkpt><trkpt lat="42.74706192592145" lon="2.811790306295881"><ele>79.0</ele><time>2026-04-04T12:30:54.001Z</time></trkpt><trkpt lat="42.7469996260677" lon="2.8118278262788414"><ele>79.0</ele><time>2026-04-04T12:30:55.001Z</time></trkpt><trkpt lat="42.74691646378665" lon="2.8118824557970235"><ele>79.0</ele><time>2026-04-04T12:30:56.001Z</time></trkpt><trkpt lat="42.74683730432396" lon="2.8119371076972635"><ele>79.0</ele><time>2026-04-04T12:30:57.001Z</time></trkpt><trkpt lat="42.74674681711702" lon="2.8119963602461393"><ele>79.0</ele><time>2026-04-04T12:30:58.001Z</time></trkpt><trkpt lat="42.74664985397593" lon="2.8120575629473774"><ele>79.0</ele><time>2026-04-04T12:30:59.001Z</time></trkpt><trkpt lat="42.746553158362254" lon="2.812121906930074"><ele>79.0</ele><time>2026-04-04T12:31:00.001Z</time></trkpt><trkpt lat="42.74646032230381" lon="2.8121877151060017"><ele>79.0</ele><time>2026-04-04T12:31:01.001Z</time></trkpt><trkpt lat="42.746361221036686" lon="2.812254419896162"><ele>79.0</ele><time>2026-04-04T12:31:02.001Z</time></trkpt><trkpt lat="42.74627085165602" lon="2.8123144855180358"><ele>79.0</ele><time>2026-04-04T12:31:03.001Z</time></trkpt><trkpt lat="42.7461870361605" lon="2.81236867794879"><ele>79.0</ele><time>2026-04-04T12:31:04.001Z</time></trkpt><trkpt lat="42.746114566891485" lon="2.812421654373599"><ele>79.66666666666666</ele><time>2026-04-04T12:31:05.001Z</time></trkpt><trkpt lat="42.74603602924345" lon="2.812473888699614"><ele>80.33333333333333</ele><time>2026-04-04T12:31:06.001Z</time></trkpt><trkpt lat="42.74595391195067" lon="2.81253289591578"><ele>81.0</ele><time>2026-04-04T12:31:07.001Z</time></trkpt><trkpt lat="42.7458863948301" lon="2.8125890436473866"><ele>81.66666666666667</ele><time>2026-04-04T12:31:08.001Z</time></trkpt><trkpt lat="42.74580787884629" lon="2.8126182441063943"><ele>82.33333333333334</ele><time>2026-04-04T12:31:09.001Z</time></trkpt><trkpt lat="42.745719904939335" lon="2.8126138175535327"><ele>83.0</ele><time>2026-04-04T12:31:10.001Z</time></trkpt><trkpt lat="42.74562880291003" lon="2.812616213715833"><ele>83.4</ele><time>2026-04-04T12:31:11.001Z</time></trkpt><trkpt lat="42.74555551817335" lon="2.812668612411122"><ele>83.80000000000001</ele><time>2026-04-04T12:31:12.001Z</time></trkpt><trkpt lat="42.74548814783643" lon="2.8127675910163576"><ele>84.2</ele><time>2026-04-04T12:31:13.001Z</time></trkpt><trkpt lat="42.7454193917238" lon="2.812882246795251"><ele>84.6</ele><time>2026-04-04T12:31:14.001Z</time></trkpt><trkpt lat="42.74532772248641" lon="2.8129647865803973"><ele>85.0</ele><time>2026-04-04T12:31:15.001Z</time></trkpt><trkpt lat="42.745220018810784" lon="2.8130279088587935"><ele>85.25</ele><time>2026-04-04T12:31:16.001Z</time></trkpt><trkpt lat="42.7451089392571" lon="2.813091822833505"><ele>85.5</ele><time>2026-04-04T12:31:17.001Z</time></trkpt><trkpt lat="42.74499003425745" lon="2.8131629793710586"><ele>85.75</ele><time>2026-04-04T12:31:18.001Z</time></trkpt><trkpt lat="42.74486999841306" lon="2.8132356265873395"><ele>86.0</ele><time>2026-04-04T12:31:19.001Z</time></trkpt><trkpt lat="42.74476022554201" lon="2.8133123114210816"><ele>86.0</ele><time>2026-04-04T12:31:20.001Z</time></trkpt><trkpt lat="42.74464463113763" lon="2.8133955800119144"><ele>86.0</ele><time>2026-04-04T12:31:21.001Z</time></trkpt><trkpt lat="42.74452722323246" lon="2.8134692556944194"><ele>86.0</ele><time>2026-04-04T12:31:22.001Z</time></trkpt><trkpt lat="42.74440728761392" lon="2.8135534754757945"><ele>86.0</ele><time>2026-04-04T12:31:23.001Z</time></trkpt><trkpt lat="42.74429160324957" lon="2.8136413385282206"><ele>87.0</ele><time>2026-04-04T12:31:24.001Z</time></trkpt><trkpt lat="42.74418630617936" lon="2.813725574772632"><ele>88.0</ele><time>2026-04-04T12:31:25.001Z</time></trkpt><trkpt lat="42.74408820692917" lon="2.8137978720788794"><ele>89.0</ele><time>2026-04-04T12:31:26.001Z</time></trkpt><trkpt lat="42.743993460702555" lon="2.8138401198581047"><ele>90.0</ele><time>2026-04-04T12:31:27.001Z</time></trkpt><trkpt lat="42.74391813789674" lon="2.813913409113823"><ele>91.0</ele><time>2026-04-04T12:31:28.001Z</time></trkpt><trkpt lat="42.743837732850906" lon="2.8139578699866905"><ele>91.0</ele><time>2026-04-04T12:31:29.001Z</time></trkpt><trkpt lat="42.74375146513714" lon="2.814000141948339"><ele>91.0</ele><time>2026-04-04T12:31:30.001Z</time></trkpt><trkpt lat="42.74366508961186" lon="2.8140505257447295"><ele>91.0</ele><time>2026-04-04T12:31:31.001Z</time></trkpt><trkpt lat="42.74357827877377" lon="2.8141074102355947"><ele>91.0</ele><time>2026-04-04T12:31:32.001Z</time></trkpt><trkpt lat="42.74349134168194" lon="2.814167761935567"><ele>91.0</ele><time>2026-04-04T12:31:33.001Z</time></trkpt><trkpt lat="42.74340720719226" lon="2.8142268482320554"><ele>91.16666666666666</ele><time>2026-04-04T12:31:34.001Z</time></trkpt><trkpt lat="42.74333751062994" lon="2.814281758079227"><ele>91.33333333333333</ele><time>2026-04-04T12:31:35.001Z</time></trkpt><trkpt lat="42.74326896912994" lon="2.8143324375441705"><ele>91.5</ele><time>2026-04-04T12:31:36.001Z</time></trkpt><trkpt lat="42.743193749976804" lon="2.814381023850947"><ele>91.66666666666667</ele><time>2026-04-04T12:31:37.001Z</time></trkpt><trkpt lat="42.74311502271685" lon="2.8144284432776607"><ele>91.83333333333334</ele><time>2026-04-04T12:31:38.001Z</time></trkpt><trkpt lat="42.7430200514977" lon="2.8144767197761573"><ele>92.0</ele><time>2026-04-04T12:31:39.001Z</time></trkpt><trkpt lat="42.7429059299655" lon="2.8145350141491954"><ele>92.5</ele><time>2026-04-04T12:31:40.001Z</time></trkpt><trkpt lat="42.74282151393678" lon="2.8145785867704394"><ele>93.0</ele><time>2026-04-04T12:31:41.001Z</time></trkpt><trkpt lat="42.74274352548899" lon="2.8146191610231948"><ele>93.5</ele><time>2026-04-04T12:31:42.001Z</time></trkpt><trkpt lat="42.742670628001164" lon="2.814649843287784"><ele>94.0</ele><time>2026-04-04T12:31:43.001Z</time></trkpt><trkpt lat="42.74260147881292" lon="2.814670358754338"><ele>94.5</ele><time>2026-04-04T12:31:44.001Z</time></trkpt><trkpt lat="42.74252345989982" lon="2.814656365145101"><ele>95.0</ele><time>2026-04-04T12:31:45.001Z</time></trkpt><trkpt lat="42.74246025276255" lon="2.8146003380226805"><ele>95.0</ele><time>2026-04-04T12:31:46.001Z</time></trkpt><trkpt lat="42.742405512823446" lon="2.814525764284995"><ele>95.0</ele><time>2026-04-04T12:31:47.001Z</time></trkpt><trkpt lat="42.742336616540854" lon="2.814484784420845"><ele>95.0</ele><time>2026-04-04T12:31:48.001Z</time></trkpt><trkpt lat="42.74226627005656" lon="2.81448817134906"><ele>95.0</ele><time>2026-04-04T12:31:49.001Z</time></trkpt><trkpt lat="42.74220106100324" lon="2.814530903446498"><ele>95.0</ele><time>2026-04-04T12:31:50.001Z</time></trkpt><trkpt lat="42.74215439842486" lon="2.8146065691474402"><ele>95.0</ele><time>2026-04-04T12:31:51.001Z</time></trkpt><trkpt lat="42.74213697399404" lon="2.814701833722433"><ele>95.0</ele><time>2026-04-04T12:31:52.001Z</time></trkpt><trkpt lat="42.74215159571581" lon="2.8147993767468433"><ele>95.0</ele><time>2026-04-04T12:31:53.001Z</time></trkpt><trkpt lat="42.74219153804834" lon="2.814881292209"><ele>95.0</ele><time>2026-04-04T12:31:54.001Z</time></trkpt><trkpt lat="42.7422437029491" lon="2.8149507452074327"><ele>95.0</ele><time>2026-04-04T12:31:55.001Z</time></trkpt><trkpt lat="42.74228009816273" lon="2.8150426832065736"><ele>95.0</ele><time>2026-04-04T12:31:56.001Z</time></trkpt><trkpt lat="42.74232939104129" lon="2.815156807759749"><ele>95.0</ele><time>2026-04-04T12:31:57.001Z</time></trkpt><trkpt lat="42.74236683865581" lon="2.815263239504432"><ele>95.0</ele><time>2026-04-04T12:31:58.001Z</time></trkpt><trkpt lat="42.742290620210184" lon="2.8154233600898864"><ele>94.75</ele><time>2026-04-04T12:31:59.001Z</time></trkpt><trkpt lat="42.74224697343924" lon="2.815552090054545"><ele>94.5</ele><time>2026-04-04T12:32:00.001Z</time></trkpt><trkpt lat="42.74217517035241" lon="2.815684746590218"><ele>94.25</ele><time>2026-04-04T12:32:01.001Z</time></trkpt><trkpt lat="42.74207940469344" lon="2.815810820903041"><ele>94.0</ele><time>2026-04-04T12:32:02.001Z</time></trkpt><trkpt lat="42.7419818820217" lon="2.81592211909493"><ele>93.25</ele><time>2026-04-04T12:32:03.001Z</time></trkpt><trkpt lat="42.74188408377004" lon="2.81605134419681"><ele>92.5</ele><time>2026-04-04T12:32:04.001Z</time></trkpt><trkpt lat="42.741787178293606" lon="2.8161879634185003"><ele>91.75</ele><time>2026-04-04T12:32:05.001Z</time></trkpt><trkpt lat="42.74168211350041" lon="2.816326321929386"><ele>91.0</ele><time>2026-04-04T12:32:06.001Z</time></trkpt><trkpt lat="42.74157809518214" lon="2.816446166087165"><ele>90.75</ele><time>2026-04-04T12:32:07.001Z</time></trkpt><trkpt lat="42.74148203019709" lon="2.8165516761392766"><ele>90.5</ele><time>2026-04-04T12:32:08.001Z</time></trkpt><trkpt lat="42.74138786505784" lon="2.8166506415172177"><ele>90.25</ele><time>2026-04-04T12:32:09Z</time></trkpt><trkpt lat="42.74128153145657" lon="2.816748105638241"><ele>90.0</ele><time>2026-04-04T12:32:10Z</time></trkpt><trkpt lat="42.74114673831321" lon="2.8168394488392443"><ele>89.0</ele><time>2026-04-04T12:32:11Z</time></trkpt><trkpt lat="42.7409978352608" lon="2.8169180437961314"><ele>88.0</ele><time>2026-04-04T12:32:12Z</time></trkpt><trkpt lat="42.74083995798834" lon="2.8169864854261313"><ele>87.0</ele><time>2026-04-04T12:32:13Z</time></trkpt><trkpt lat="42.74075854120973" lon="2.8170186207709924"><ele>86.0</ele><time>2026-04-04T12:32:15Z</time></trkpt><trkpt lat="42.740651103911425" lon="2.8170615795496734"><ele>86.0</ele><time>2026-04-04T12:32:16Z</time></trkpt><trkpt lat="42.74054617690586" lon="2.8170991130798915"><ele>86.0</ele><time>2026-04-04T12:32:17Z</time></trkpt><trkpt lat="42.74044548119449" lon="2.817138563419051"><ele>86.0</ele><time>2026-04-04T12:32:18Z</time></trkpt><trkpt lat="42.74034874208768" lon="2.8171783803918866"><ele>86.0</ele><time>2026-04-04T12:32:19Z</time></trkpt><trkpt lat="42.74025446108295" lon="2.8172181507928578"><ele>86.0</ele><time>2026-04-04T12:32:20Z</time></trkpt><trkpt lat="42.74015893160651" lon="2.8172537212241062"><ele>85.6</ele><time>2026-04-04T12:32:21Z</time></trkpt><trkpt lat="42.740059045369854" lon="2.817290995166456"><ele>85.19999999999999</ele><time>2026-04-04T12:32:22Z</time></trkpt><trkpt lat="42.7399581955994" lon="2.81732954593228"><ele>84.80000000000001</ele><time>2026-04-04T12:32:23Z</time></trkpt><trkpt lat="42.73985886784714" lon="2.8173694006142314"><ele>84.4</ele><time>2026-04-04T12:32:24Z</time></trkpt><trkpt lat="42.739757830933705" lon="2.8174066754339693"><ele>84.0</ele><time>2026-04-04T12:32:25Z</time></trkpt><trkpt lat="42.73965716030338" lon="2.8174490462044646"><ele>84.0</ele><time>2026-04-04T12:32:26Z</time></trkpt><trkpt lat="42.73955618501879" lon="2.8174893010544744"><ele>84.0</ele><time>2026-04-04T12:32:27Z</time></trkpt><trkpt lat="42.73945695900615" lon="2.8175267253594485"><ele>84.0</ele><time>2026-04-04T12:32:28Z</time></trkpt><trkpt lat="42.73935313929922" lon="2.817569303783962"><ele>84.0</ele><time>2026-04-04T12:32:29Z</time></trkpt><trkpt lat="42.7392491769867" lon="2.817611881946206"><ele>84.0</ele><time>2026-04-04T12:32:30Z</time></trkpt><trkpt lat="42.739147041413" lon="2.8176549898834633"><ele>84.80000000000001</ele><time>2026-04-04T12:32:31Z</time></trkpt><trkpt lat="42.73904341007762" lon="2.8176966483632326"><ele>85.60000000000001</ele><time>2026-04-04T12:32:32Z</time></trkpt><trkpt lat="42.73894189196358" lon="2.8177382477092743"><ele>86.4</ele><time>2026-04-04T12:32:33Z</time></trkpt><trkpt lat="42.73884004755666" lon="2.817779472211797"><ele>87.2</ele><time>2026-04-04T12:32:34Z</time></trkpt><trkpt lat="42.73874343437296" lon="2.817818682389765"><ele>88.0</ele><time>2026-04-04T12:32:35Z</time></trkpt><trkpt lat="42.73865296048035" lon="2.8178581414082116"><ele>88.0</ele><time>2026-04-04T12:32:36Z</time></trkpt><trkpt lat="42.73855590360479" lon="2.8179092759886903"><ele>88.0</ele><time>2026-04-04T12:32:37Z</time></trkpt><trkpt lat="42.73843934568415" lon="2.8179472272192663"><ele>88.0</ele><time>2026-04-04T12:32:38Z</time></trkpt><trkpt lat="42.73832786065043" lon="2.817974731096541"><ele>88.0</ele><time>2026-04-04T12:32:39Z</time></trkpt><trkpt lat="42.738208050397716" lon="2.818025094386339"><ele>88.5</ele><time>2026-04-04T12:32:40Z</time></trkpt><trkpt lat="42.738091194136445" lon="2.8180700715412996"><ele>89.0</ele><time>2026-04-04T12:32:41Z</time></trkpt><trkpt lat="42.73798871809824" lon="2.8181180639076686"><ele>89.5</ele><time>2026-04-04T12:32:42Z</time></trkpt><trkpt lat="42.73787856137958" lon="2.8181608770726965"><ele>90.0</ele><time>2026-04-04T12:32:43.001Z</time></trkpt><trkpt lat="42.73776075540072" lon="2.8182184269789454"><ele>91.0</ele><time>2026-04-04T12:32:44.001Z</time></trkpt><trkpt lat="42.73764354861854" lon="2.818250918681647"><ele>92.0</ele><time>2026-04-04T12:32:45.001Z</time></trkpt><trkpt lat="42.73752580306513" lon="2.8183002411948044"><ele>93.0</ele><time>2026-04-04T12:32:46.001Z</time></trkpt><trkpt lat="42.73740656794521" lon="2.8183510234525473"><ele>94.0</ele><time>2026-04-04T12:32:47.001Z</time></trkpt><trkpt lat="42.737290226051705" lon="2.8184039223533017"><ele>94.0</ele><time>2026-04-04T12:32:48.001Z</time></trkpt><trkpt lat="42.73717339471912" lon="2.8184653483366757"><ele>94.0</ele><time>2026-04-04T12:32:49.001Z</time></trkpt><trkpt lat="42.73705666225677" lon="2.8185335877927282"><ele>94.0</ele><time>2026-04-04T12:32:50.001Z</time></trkpt><trkpt lat="42.736939798799035" lon="2.8185966567051555"><ele>94.0</ele><time>2026-04-04T12:32:51.001Z</time></trkpt><trkpt lat="42.73683028581077" lon="2.8186744597413527"><ele>94.0</ele><time>2026-04-04T12:32:52.001Z</time></trkpt><trkpt lat="42.73671888549485" lon="2.818773569306355"><ele>94.0</ele><time>2026-04-04T12:32:53.001Z</time></trkpt><trkpt lat="42.73661150092396" lon="2.8188706463309017"><ele>94.0</ele><time>2026-04-04T12:32:54.001Z</time></trkpt><trkpt lat="42.736507915801475" lon="2.8189690300834487"><ele>94.0</ele><time>2026-04-04T12:32:55.001Z</time></trkpt><trkpt lat="42.736407782564825" lon="2.8190674200723325"><ele>94.0</ele><time>2026-04-04T12:32:56.001Z</time></trkpt><trkpt lat="42.736299694850054" lon="2.8191697935868394"><ele>94.0</ele><time>2026-04-04T12:32:57.001Z</time></trkpt><trkpt lat="42.73618944116664" lon="2.819268836876326"><ele>94.0</ele><time>2026-04-04T12:32:58.001Z</time></trkpt><trkpt lat="42.73607782615915" lon="2.8193675033282175"><ele>94.0</ele><time>2026-04-04T12:32:59.001Z</time></trkpt><trkpt lat="42.735960878254375" lon="2.819456863823285"><ele>93.75</ele><time>2026-04-04T12:33:00.001Z</time></trkpt><trkpt lat="42.7358376565867" lon="2.8195349268590815"><ele>93.5</ele><time>2026-04-04T12:33:01.001Z</time></trkpt><trkpt lat="42.735711970084274" lon="2.8196033809969783"><ele>93.25</ele><time>2026-04-04T12:33:02.001Z</time></trkpt><trkpt lat="42.73558372189329" lon="2.8196619711828688"><ele>93.0</ele><time>2026-04-04T12:33:03.001Z</time></trkpt><trkpt lat="42.73545759746886" lon="2.819711227911409"><ele>93.0</ele><time>2026-04-04T12:33:04.001Z</time></trkpt><trkpt lat="42.73533018526318" lon="2.819755781861269"><ele>93.0</ele><time>2026-04-04T12:33:05.001Z</time></trkpt><trkpt lat="42.73520246489711" lon="2.8197992475869476"><ele>93.0</ele><time>2026-04-04T12:33:06.001Z</time></trkpt><trkpt lat="42.73507471800704" lon="2.819845683774811"><ele>93.0</ele><time>2026-04-04T12:33:07.001Z</time></trkpt><trkpt lat="42.73495519814607" lon="2.819884491054928"><ele>93.0</ele><time>2026-04-04T12:33:08.001Z</time></trkpt><trkpt lat="42.73483114628903" lon="2.8199304121059505"><ele>93.0</ele><time>2026-04-04T12:33:09.001Z</time></trkpt><trkpt lat="42.73471077136309" lon="2.8199813815646153"><ele>93.0</ele><time>2026-04-04T12:33:10.001Z</time></trkpt><trkpt lat="42.73458620870689" lon="2.82003260869076"><ele>93.0</ele><time>2026-04-04T12:33:11.001Z</time></trkpt><trkpt lat="42.73445530636237" lon="2.8200941143011766"><ele>93.0</ele><time>2026-04-04T12:33:12.001Z</time></trkpt><trkpt lat="42.734327821793656" lon="2.8201447821152805"><ele>93.0</ele><time>2026-04-04T12:33:13.001Z</time></trkpt><trkpt lat="42.73419652985469" lon="2.8201890647810535"><ele>93.0</ele><time>2026-04-04T12:33:14.001Z</time></trkpt><trkpt lat="42.734063243113326" lon="2.8202369575289725"><ele>93.0</ele><time>2026-04-04T12:33:15.001Z</time></trkpt><trkpt lat="42.73393384081589" lon="2.8202933242594717"><ele>93.0</ele><time>2026-04-04T12:33:16.001Z</time></trkpt><trkpt lat="42.73381142208355" lon="2.820358080962739"><ele>93.0</ele><time>2026-04-04T12:33:17.001Z</time></trkpt><trkpt lat="42.733690707586064" lon="2.8204335190460443"><ele>93.0</ele><time>2026-04-04T12:33:18.001Z</time></trkpt><trkpt lat="42.733573639271235" lon="2.8205177780104234"><ele>93.0</ele><time>2026-04-04T12:33:19.001Z</time></trkpt><trkpt lat="42.73346119494427" lon="2.82061080377973"><ele>92.5</ele><time>2026-04-04T12:33:20.001Z</time></trkpt><trkpt lat="42.73334973617732" lon="2.820713862462738"><ele>92.0</ele><time>2026-04-04T12:33:21.001Z</time></trkpt><trkpt lat="42.73324115153583" lon="2.8208203224371307"><ele>91.5</ele><time>2026-04-04T12:33:22.001Z</time></trkpt><trkpt lat="42.73314127381193" lon="2.8209343428198914"><ele>91.0</ele><time>2026-04-04T12:33:23.001Z</time></trkpt><trkpt lat="42.73304676409816" lon="2.821058340311704"><ele>90.5</ele><time>2026-04-04T12:33:24.001Z</time></trkpt><trkpt lat="42.73296048639137" lon="2.821184847686217"><ele>90.0</ele><time>2026-04-04T12:33:25.001Z</time></trkpt><trkpt lat="42.73287560346686" lon="2.821312853470156"><ele>89.5</ele><time>2026-04-04T12:33:26.001Z</time></trkpt><trkpt lat="42.73278855922472" lon="2.8214371369105757"><ele>89.0</ele><time>2026-04-04T12:33:27.001Z</time></trkpt><trkpt lat="42.73270228707922" lon="2.8215578895946747"><ele>87.75</ele><time>2026-04-04T12:33:28.001Z</time></trkpt><trkpt lat="42.732620833527506" lon="2.8216781429174387"><ele>86.5</ele><time>2026-04-04T12:33:29.001Z</time></trkpt><trkpt lat="42.73253854183024" lon="2.821799211367583"><ele>85.25</ele><time>2026-04-04T12:33:30.001Z</time></trkpt><trkpt lat="42.732452716024326" lon="2.8219230604853993"><ele>84.0</ele><time>2026-04-04T12:33:31.001Z</time></trkpt><trkpt lat="42.73237050192326" lon="2.8220530765609726"><ele>83.5</ele><time>2026-04-04T12:33:32.001Z</time></trkpt><trkpt lat="42.73227595122446" lon="2.822192401915428"><ele>83.0</ele><time>2026-04-04T12:33:33.001Z</time></trkpt><trkpt lat="42.7321827937561" lon="2.8223339656136925"><ele>82.5</ele><time>2026-04-04T12:33:34.001Z</time></trkpt><trkpt lat="42.73208794048362" lon="2.822475469445327"><ele>82.0</ele><time>2026-04-04T12:33:35.001Z</time></trkpt><trkpt lat="42.73200376447217" lon="2.822620194219116"><ele>82.0</ele><time>2026-04-04T12:33:36.001Z</time></trkpt><trkpt lat="42.7319090581651" lon="2.822784652756965"><ele>82.0</ele><time>2026-04-04T12:33:37.001Z</time></trkpt><trkpt lat="42.73184300869341" lon="2.8229448362040537"><ele>82.0</ele><time>2026-04-04T12:33:38.001Z</time></trkpt><trkpt lat="42.73176746100616" lon="2.8230983202688944"><ele>82.0</ele><time>2026-04-04T12:33:39.001Z</time></trkpt><trkpt lat="42.731689473823714" lon="2.82328266465641"><ele>81.5</ele><time>2026-04-04T12:33:40.001Z</time></trkpt><trkpt lat="42.731613559685435" lon="2.823462208189295"><ele>81.0</ele><time>2026-04-04T12:33:41.001Z</time></trkpt><trkpt lat="42.73154430795685" lon="2.82362813755872"><ele>80.5</ele><time>2026-04-04T12:33:42.001Z</time></trkpt><trkpt lat="42.73147624799176" lon="2.823800842510181"><ele>80.0</ele><time>2026-04-04T12:33:43.001Z</time></trkpt><trkpt lat="42.7314099860984" lon="2.8239783473043882"><ele>80.0</ele><time>2026-04-04T12:33:44.001Z</time></trkpt><trkpt lat="42.731345947680005" lon="2.8241561411120086"><ele>80.0</ele><time>2026-04-04T12:33:45.001Z</time></trkpt><trkpt lat="42.73128708429644" lon="2.8243357126253015"><ele>80.0</ele><time>2026-04-04T12:33:46.001Z</time></trkpt><trkpt lat="42.73123527152293" lon="2.8245107592829504"><ele>80.0</ele><time>2026-04-04T12:33:47.001Z</time></trkpt><trkpt lat="42.73119332118868" lon="2.824719124937347"><ele>79.66666666666667</ele><time>2026-04-04T12:33:48.001Z</time></trkpt><trkpt lat="42.73115173150399" lon="2.8249245544961563"><ele>79.33333333333333</ele><time>2026-04-04T12:33:49.001Z</time></trkpt><trkpt lat="42.731100901324155" lon="2.825115313705936"><ele>79.0</ele><time>2026-04-04T12:33:50.001Z</time></trkpt><trkpt lat="42.731037172778926" lon="2.825303078524296"><ele>79.0</ele><time>2026-04-04T12:33:51.001Z</time></trkpt><trkpt lat="42.73095829633811" lon="2.8254871535065424"><ele>79.0</ele><time>2026-04-04T12:33:52.001Z</time></trkpt><trkpt lat="42.73086791397807" lon="2.8256610380544047"><ele>79.0</ele><time>2026-04-04T12:33:53.001Z</time></trkpt><trkpt lat="42.73077636634263" lon="2.8258450725482844"><ele>78.0</ele><time>2026-04-04T12:33:54.001Z</time></trkpt><trkpt lat="42.730680082080404" lon="2.826022012958446"><ele>77.0</ele><time>2026-04-04T12:33:55.001Z</time></trkpt><trkpt lat="42.730581788536306" lon="2.8262197163612623"><ele>76.0</ele><time>2026-04-04T12:33:56.001Z</time></trkpt><trkpt lat="42.73047687028502" lon="2.8264208319630724"><ele>76.0</ele><time>2026-04-04T12:33:57.001Z</time></trkpt><trkpt lat="42.73037538932111" lon="2.826639081949312"><ele>76.0</ele><time>2026-04-04T12:33:58.001Z</time></trkpt><trkpt lat="42.730257585996746" lon="2.8268665055588995"><ele>76.0</ele><time>2026-04-04T12:33:59.001Z</time></trkpt><trkpt lat="42.730131632371126" lon="2.8271067109661754"><ele>75.66666666666666</ele><time>2026-04-04T12:34:00.001Z</time></trkpt><trkpt lat="42.730025488240344" lon="2.827324206859736"><ele>75.33333333333333</ele><time>2026-04-04T12:34:01.001Z</time></trkpt><trkpt lat="42.72992624854888" lon="2.8275115070086487"><ele>75.0</ele><time>2026-04-04T12:34:02Z</time></trkpt><trkpt lat="42.729834546889066" lon="2.827692001968324"><ele>74.75</ele><time>2026-04-04T12:34:03Z</time></trkpt><trkpt lat="42.72974513192192" lon="2.8278535411673595"><ele>74.5</ele><time>2026-04-04T12:34:04Z</time></trkpt><trkpt lat="42.72964794341326" lon="2.8279962756699955"><ele>74.25</ele><time>2026-04-04T12:34:05Z</time></trkpt><trkpt lat="42.7295383975709" lon="2.8281341071184842"><ele>74.0</ele><time>2026-04-04T12:34:06Z</time></trkpt><trkpt lat="42.72942067707909" lon="2.8282709575679297"><ele>73.33333333333334</ele><time>2026-04-04T12:34:07Z</time></trkpt><trkpt lat="42.729297368516676" lon="2.8284003986258104"><ele>72.66666666666667</ele><time>2026-04-04T12:34:08Z</time></trkpt><trkpt lat="42.72917793428827" lon="2.8285221727552234"><ele>72.0</ele><time>2026-04-04T12:34:09Z</time></trkpt><trkpt lat="42.72905381107004" lon="2.8286412550823226"><ele>71.33333333333333</ele><time>2026-04-04T12:34:10Z</time></trkpt><trkpt lat="42.72892624613616" lon="2.8287581235220527"><ele>70.66666666666666</ele><time>2026-04-04T12:34:11Z</time></trkpt><trkpt lat="42.72880766102282" lon="2.8288813562045974"><ele>70.0</ele><time>2026-04-04T12:34:12Z</time></trkpt><trkpt lat="42.72869114382208" lon="2.8290320511340257"><ele>70.0</ele><time>2026-04-04T12:34:13Z</time></trkpt><trkpt lat="42.728595866890984" lon="2.8291892461871817"><ele>70.0</ele><time>2026-04-04T12:34:14Z</time></trkpt><trkpt lat="42.72851087517619" lon="2.8293687502383205"><ele>70.0</ele><time>2026-04-04T12:34:15Z</time></trkpt><trkpt lat="42.728432056746605" lon="2.829557975355324"><ele>69.33333333333333</ele><time>2026-04-04T12:34:16Z</time></trkpt><trkpt lat="42.728358657954246" lon="2.8297553377708646"><ele>68.66666666666667</ele><time>2026-04-04T12:34:17Z</time></trkpt><trkpt lat="42.72829306191059" lon="2.8299616199150264"><ele>68.0</ele><time>2026-04-04T12:34:18Z</time></trkpt><trkpt lat="42.72823109019391" lon="2.8301686113696447"><ele>68.0</ele><time>2026-04-04T12:34:19Z</time></trkpt><trkpt lat="42.72816758344557" lon="2.8303776649681542"><ele>68.0</ele><time>2026-04-04T12:34:20Z</time></trkpt><trkpt lat="42.72810398038184" lon="2.830581598823232"><ele>68.0</ele><time>2026-04-04T12:34:21Z</time></trkpt><trkpt lat="42.72804357964316" lon="2.8307890448541593"><ele>67.66666666666667</ele><time>2026-04-04T12:34:22Z</time></trkpt><trkpt lat="42.727982671413926" lon="2.8309887849147093"><ele>67.33333333333333</ele><time>2026-04-04T12:34:23Z</time></trkpt><trkpt lat="42.72792255632777" lon="2.831183557525066"><ele>67.0</ele><time>2026-04-04T12:34:24Z</time></trkpt><trkpt lat="42.727863455998055" lon="2.831368814128495"><ele>67.0</ele><time>2026-04-04T12:34:25Z</time></trkpt><trkpt lat="42.72780117635817" lon="2.831563249881569"><ele>67.0</ele><time>2026-04-04T12:34:26Z</time></trkpt><trkpt lat="42.72774412241908" lon="2.8317563008322533"><ele>67.0</ele><time>2026-04-04T12:34:27Z</time></trkpt><trkpt lat="42.727687142496755" lon="2.8319614722453683"><ele>66.66666666666666</ele><time>2026-04-04T12:34:28Z</time></trkpt><trkpt lat="42.72762848607435" lon="2.832165339330065"><ele>66.33333333333333</ele><time>2026-04-04T12:34:29Z</time></trkpt><trkpt lat="42.72756570934741" lon="2.832377211424897"><ele>66.0</ele><time>2026-04-04T12:34:30Z</time></trkpt><trkpt lat="42.72749666683003" lon="2.8326097414719107"><ele>65.33333333333333</ele><time>2026-04-04T12:34:31Z</time></trkpt><trkpt lat="42.72743272406889" lon="2.832851934795664"><ele>64.66666666666666</ele><time>2026-04-04T12:34:32Z</time></trkpt><trkpt lat="42.727382069778336" lon="2.8331368181177234"><ele>64.0</ele><time>2026-04-04T12:34:33Z</time></trkpt><trkpt lat="42.72734919543761" lon="2.8334417474447817"><ele>63.666666666666664</ele><time>2026-04-04T12:34:34Z</time></trkpt><trkpt lat="42.72731455056995" lon="2.8337450540985865"><ele>63.33333333333333</ele><time>2026-04-04T12:34:35Z</time></trkpt><trkpt lat="42.72727982413218" lon="2.834010471914589"><ele>63.0</ele><time>2026-04-04T12:34:36Z</time></trkpt><trkpt lat="42.72724005255361" lon="2.834258447443668"><ele>63.0</ele><time>2026-04-04T12:34:37Z</time></trkpt><trkpt lat="42.72719653458967" lon="2.8344762034498197"><ele>63.0</ele><time>2026-04-04T12:34:38Z</time></trkpt><trkpt lat="42.727134562902194" lon="2.8346916378921327"><ele>63.0</ele><time>2026-04-04T12:34:39Z</time></trkpt><trkpt lat="42.727054832656535" lon="2.8349300762486096"><ele>63.33333333333333</ele><time>2026-04-04T12:34:40Z</time></trkpt><trkpt lat="42.726964424707475" lon="2.8351943510243793"><ele>63.666666666666664</ele><time>2026-04-04T12:34:41Z</time></trkpt><trkpt lat="42.72687006477032" lon="2.835474364093575"><ele>64.0</ele><time>2026-04-04T12:34:42Z</time></trkpt><trkpt lat="42.72676385634644" lon="2.83577723327108"><ele>64.5</ele><time>2026-04-04T12:34:43Z</time></trkpt><trkpt lat="42.72665385561245" lon="2.836070800918752"><ele>65.0</ele><time>2026-04-04T12:34:44Z</time></trkpt><trkpt lat="42.726547693793776" lon="2.83632972234736"><ele>65.0</ele><time>2026-04-04T12:34:45Z</time></trkpt><trkpt lat="42.726440511445425" lon="2.836551594077067"><ele>65.0</ele><time>2026-04-04T12:34:46Z</time></trkpt><trkpt lat="42.72633816293426" lon="2.8367553368254455"><ele>65.0</ele><time>2026-04-04T12:34:47Z</time></trkpt><trkpt lat="42.72624177276955" lon="2.8369427942073373"><ele>64.66666666666667</ele><time>2026-04-04T12:34:48Z</time></trkpt><trkpt lat="42.72614666647498" lon="2.8371298823993305"><ele>64.33333333333333</ele><time>2026-04-04T12:34:49Z</time></trkpt><trkpt lat="42.72603821649556" lon="2.8373364719581358"><ele>64.0</ele><time>2026-04-04T12:34:50Z</time></trkpt><trkpt lat="42.725909093543606" lon="2.8375720559106115"><ele>63.5</ele><time>2026-04-04T12:34:51Z</time></trkpt><trkpt lat="42.72576231056663" lon="2.8378098298136973"><ele>63.0</ele><time>2026-04-04T12:34:52Z</time></trkpt><trkpt lat="42.72559106955977" lon="2.838052343171182"><ele>63.0</ele><time>2026-04-04T12:34:53Z</time></trkpt><trkpt lat="42.725408973476235" lon="2.838310264674983"><ele>63.0</ele><time>2026-04-04T12:34:54Z</time></trkpt><trkpt lat="42.72521757656866" lon="2.838577792107048"><ele>62.5</ele><time>2026-04-04T12:34:55Z</time></trkpt><trkpt lat="42.72502378319179" lon="2.8388532458172655"><ele>62.0</ele><time>2026-04-04T12:34:56Z</time></trkpt><trkpt lat="42.724839171269025" lon="2.8391194017054513"><ele>62.0</ele><time>2026-04-04T12:34:57Z</time></trkpt><trkpt lat="42.72467471071471" lon="2.8393538194264223"><ele>62.0</ele><time>2026-04-04T12:34:58Z</time></trkpt><trkpt lat="42.72452371527212" lon="2.8395660334285604"><ele>62.0</ele><time>2026-04-04T12:34:59Z</time></trkpt><trkpt lat="42.724386791362" lon="2.8397583907957777"><ele>62.0</ele><time>2026-04-04T12:35:00Z</time></trkpt><trkpt lat="42.72425813344233" lon="2.839936201325804"><ele>62.0</ele><time>2026-04-04T12:35:01Z</time></trkpt><trkpt lat="42.72413436454618" lon="2.840106322055883"><ele>62.333333333333336</ele><time>2026-04-04T12:35:02Z</time></trkpt><trkpt lat="42.72401703367922" lon="2.840269078325988"><ele>62.66666666666667</ele><time>2026-04-04T12:35:03Z</time></trkpt><trkpt lat="42.723909880445454" lon="2.8404154473724867"><ele>63.0</ele><time>2026-04-04T12:35:04Z</time></trkpt><trkpt lat="42.723810647937846" lon="2.840558818155086"><ele>63.0</ele><time>2026-04-04T12:35:05Z</time></trkpt><trkpt lat="42.72371348935686" lon="2.840692925627519"><ele>63.0</ele><time>2026-04-04T12:35:06Z</time></trkpt><trkpt lat="42.72359806193242" lon="2.840859947885423"><ele>63.0</ele><time>2026-04-04T12:35:07Z</time></trkpt><trkpt lat="42.72346414690588" lon="2.8410455637788306"><ele>62.66666666666667</ele><time>2026-04-04T12:35:08Z</time></trkpt><trkpt lat="42.723346012964264" lon="2.8412048038690827"><ele>62.333333333333336</ele><time>2026-04-04T12:35:09Z</time></trkpt><trkpt lat="42.723235490274654" lon="2.841361149553611"><ele>62.0</ele><time>2026-04-04T12:35:10Z</time></trkpt><trkpt lat="42.7231433137399" lon="2.841497871272596"><ele>62.0</ele><time>2026-04-04T12:35:11.001Z</time></trkpt><trkpt lat="42.723060203345355" lon="2.8416318848909974"><ele>62.0</ele><time>2026-04-04T12:35:12.001Z</time></trkpt><trkpt lat="42.72297656503894" lon="2.841751380477294"><ele>62.0</ele><time>2026-04-04T12:35:13.001Z</time></trkpt><trkpt lat="42.72289319453148" lon="2.841864137541719"><ele>62.0</ele><time>2026-04-04T12:35:14.001Z</time></trkpt><trkpt lat="42.7228140281991" lon="2.8419700375229597"><ele>62.0</ele><time>2026-04-04T12:35:15.001Z</time></trkpt><trkpt lat="42.72274209533967" lon="2.842070469678259"><ele>62.0</ele><time>2026-04-04T12:35:16.001Z</time></trkpt><trkpt lat="42.72267074384414" lon="2.8421692318719756"><ele>62.0</ele><time>2026-04-04T12:35:17.001Z</time></trkpt><trkpt lat="42.722601190352364" lon="2.842257474941287"><ele>62.0</ele><time>2026-04-04T12:35:18.001Z</time></trkpt><trkpt lat="42.72253378864574" lon="2.84234191626726"><ele>62.0</ele><time>2026-04-04T12:35:19.001Z</time></trkpt><trkpt lat="42.72246971159861" lon="2.842421175028322"><ele>62.00000000000001</ele><time>2026-04-04T12:35:20.001Z</time></trkpt><trkpt lat="42.722404371802" lon="2.8424950390048416"><ele>62.0</ele><time>2026-04-04T12:35:21.001Z</time></trkpt><trkpt lat="42.72233084456572" lon="2.8425721374896527"><ele>62.0</ele><time>2026-04-04T12:35:22.001Z</time></trkpt><trkpt lat="42.72226844872781" lon="2.842648917778994"><ele>62.0</ele><time>2026-04-04T12:35:23.001Z</time></trkpt><trkpt lat="42.72220507984279" lon="2.8427230088911326"><ele>62.00000000000001</ele><time>2026-04-04T12:35:24.001Z</time></trkpt><trkpt lat="42.7221442582551" lon="2.842799482337016"><ele>62.0</ele><time>2026-04-04T12:35:25.001Z</time></trkpt><trkpt lat="42.72208741572548" lon="2.842875716369508"><ele>61.50000000000001</ele><time>2026-04-04T12:35:26.001Z</time></trkpt><trkpt lat="42.72202996409092" lon="2.842951770107186"><ele>61.0</ele><time>2026-04-04T12:35:27.001Z</time></trkpt><trkpt lat="42.72196750773748" lon="2.8430208733723408"><ele>60.5</ele><time>2026-04-04T12:35:28.001Z</time></trkpt><trkpt lat="42.72190753979459" lon="2.843089641011158"><ele>60.0</ele><time>2026-04-04T12:35:29.001Z</time></trkpt><trkpt lat="42.72184399738926" lon="2.843168344548557"><ele>59.50000000000001</ele><time>2026-04-04T12:35:30.001Z</time></trkpt><trkpt lat="42.72178316113213" lon="2.8432493103992376"><ele>59.0</ele><time>2026-04-04T12:35:31.001Z</time></trkpt><trkpt lat="42.721722369851385" lon="2.843330148962252"><ele>58.833333333333336</ele><time>2026-04-04T12:35:32.001Z</time></trkpt><trkpt lat="42.721663689342186" lon="2.8434110715076977"><ele>58.66666666666667</ele><time>2026-04-04T12:35:33.001Z</time></trkpt><trkpt lat="42.72160905444922" lon="2.8434945369721896"><ele>58.5</ele><time>2026-04-04T12:35:34.001Z</time></trkpt><trkpt lat="42.72155424582563" lon="2.8435793832224614"><ele>58.33333333333333</ele><time>2026-04-04T12:35:35.001Z</time></trkpt><trkpt lat="42.72150286659238" lon="2.843663247299925"><ele>58.166666666666664</ele><time>2026-04-04T12:35:36.001Z</time></trkpt><trkpt lat="42.72144633911076" lon="2.8437498262440886"><ele>58.0</ele><time>2026-04-04T12:35:37.001Z</time></trkpt><trkpt lat="42.72139596135255" lon="2.843830195261882"><ele>57.49999999999999</ele><time>2026-04-04T12:35:38.001Z</time></trkpt><trkpt lat="42.72134975225966" lon="2.8439118590950283"><ele>57.0</ele><time>2026-04-04T12:35:39.001Z</time></trkpt><trkpt lat="42.72130573289884" lon="2.843996178103202"><ele>56.5</ele><time>2026-04-04T12:35:40.001Z</time></trkpt><trkpt lat="42.721264324582854" lon="2.8440874168557153"><ele>56.0</ele><time>2026-04-04T12:35:41.001Z</time></trkpt><trkpt lat="42.72121433663198" lon="2.8441784241831862"><ele>55.49999999999999</ele><time>2026-04-04T12:35:42.001Z</time></trkpt><trkpt lat="42.72116697888793" lon="2.844270439049828"><ele>55.0</ele><time>2026-04-04T12:35:43.001Z</time></trkpt><trkpt lat="42.721112386683544" lon="2.8443688124060196"><ele>54.8</ele><time>2026-04-04T12:35:44.001Z</time></trkpt><trkpt lat="42.721054236788845" lon="2.844486328039276"><ele>54.6</ele><time>2026-04-04T12:35:45.001Z</time></trkpt><trkpt lat="42.721002633268256" lon="2.8445999604074523"><ele>54.400000000000006</ele><time>2026-04-04T12:35:46.001Z</time></trkpt><trkpt lat="42.720950127493396" lon="2.8447035761894988"><ele>54.2</ele><time>2026-04-04T12:35:47.001Z</time></trkpt><trkpt lat="42.72089536199165" lon="2.844797395530062"><ele>54.0</ele><time>2026-04-04T12:35:48.001Z</time></trkpt><trkpt lat="42.72084527115784" lon="2.8448866407136033"><ele>54.0</ele><time>2026-04-04T12:35:49.001Z</time></trkpt><trkpt lat="42.720795725056675" lon="2.8449693959732936"><ele>54.0</ele><time>2026-04-04T12:35:50.001Z</time></trkpt><trkpt lat="42.72073678646856" lon="2.845038556742811"><ele>54.0</ele><time>2026-04-04T12:35:51.001Z</time></trkpt><trkpt lat="42.72068503373339" lon="2.845112512306574"><ele>54.0</ele><time>2026-04-04T12:35:52.001Z</time></trkpt><trkpt lat="42.72065251474396" lon="2.845209390682806"><ele>54.0</ele><time>2026-04-04T12:35:53.001Z</time></trkpt><trkpt lat="42.720625893286815" lon="2.845322238860458"><ele>54.0</ele><time>2026-04-04T12:35:54.001Z</time></trkpt><trkpt lat="42.72059524204122" lon="2.8454362521064875"><ele>53.800000000000004</ele><time>2026-04-04T12:35:55.001Z</time></trkpt><trkpt lat="42.72054734131902" lon="2.845545471898822"><ele>53.60000000000001</ele><time>2026-04-04T12:35:56.001Z</time></trkpt><trkpt lat="42.72049570217521" lon="2.845670629848434"><ele>53.4</ele><time>2026-04-04T12:35:57.001Z</time></trkpt><trkpt lat="42.720448718094765" lon="2.8457995456246112"><ele>53.2</ele><time>2026-04-04T12:35:58.001Z</time></trkpt><trkpt lat="42.720408314513186" lon="2.845916359861721"><ele>53.0</ele><time>2026-04-04T12:35:59.001Z</time></trkpt><trkpt lat="42.72037870168115" lon="2.846027966657122"><ele>53.0</ele><time>2026-04-04T12:36:00.001Z</time></trkpt><trkpt lat="42.72035433963173" lon="2.846124686941075"><ele>53.0</ele><time>2026-04-04T12:36:01.001Z</time></trkpt><trkpt lat="42.72029812868508" lon="2.8462527059850022"><ele>53.0</ele><time>2026-04-04T12:36:03.001Z</time></trkpt><trkpt lat="42.720208346572825" lon="2.8464015364086124"><ele>53.0</ele><time>2026-04-04T12:36:05.001Z</time></trkpt><trkpt lat="42.720166398140066" lon="2.8465160405229524"><ele>53.0</ele><time>2026-04-04T12:36:06.001Z</time></trkpt><trkpt lat="42.72011548886327" lon="2.8466401754879813"><ele>53.75</ele><time>2026-04-04T12:36:07.001Z</time></trkpt><trkpt lat="42.72005438832528" lon="2.846749462257302"><ele>54.5</ele><time>2026-04-04T12:36:08Z</time></trkpt><trkpt lat="42.71998483285388" lon="2.8468639824389386"><ele>55.25</ele><time>2026-04-04T12:36:09Z</time></trkpt><trkpt lat="42.719918952160775" lon="2.8469936684156005"><ele>56.0</ele><time>2026-04-04T12:36:10Z</time></trkpt><trkpt lat="42.71984396590303" lon="2.8471357043985503"><ele>56.0</ele><time>2026-04-04T12:36:11Z</time></trkpt><trkpt lat="42.71976001872661" lon="2.8472726016461"><ele>56.0</ele><time>2026-04-04T12:36:12Z</time></trkpt><trkpt lat="42.71967377860124" lon="2.8473942848513545"><ele>56.0</ele><time>2026-04-04T12:36:13Z</time></trkpt><trkpt lat="42.7195886113068" lon="2.8475006454047893"><ele>56.0</ele><time>2026-04-04T12:36:14Z</time></trkpt><trkpt lat="42.71950815156498" lon="2.8475996251576037"><ele>56.0</ele><time>2026-04-04T12:36:15Z</time></trkpt><trkpt lat="42.719433020326726" lon="2.847695587013183"><ele>55.99999999999999</ele><time>2026-04-04T12:36:16Z</time></trkpt><trkpt lat="42.71936340889503" lon="2.8477902840405727"><ele>55.99999999999999</ele><time>2026-04-04T12:36:17Z</time></trkpt><trkpt lat="42.71929764197626" lon="2.8478800604148"><ele>56.0</ele><time>2026-04-04T12:36:18Z</time></trkpt><trkpt lat="42.7192286857653" lon="2.8479610763121403"><ele>56.0</ele><time>2026-04-04T12:36:19Z</time></trkpt><trkpt lat="42.71915723501823" lon="2.84804713859915"><ele>56.0</ele><time>2026-04-04T12:36:20Z</time></trkpt><trkpt lat="42.71907276154831" lon="2.8481578042335407"><ele>55.99999999999999</ele><time>2026-04-04T12:36:21Z</time></trkpt><trkpt lat="42.71899536732445" lon="2.8482495918230053"><ele>55.99999999999999</ele><time>2026-04-04T12:36:22Z</time></trkpt><trkpt lat="42.71892278663574" lon="2.8483324210239536"><ele>56.0</ele><time>2026-04-04T12:36:23Z</time></trkpt><trkpt lat="42.71885420158393" lon="2.8484107978298274"><ele>56.0</ele><time>2026-04-04T12:36:24Z</time></trkpt><trkpt lat="42.71878394419718" lon="2.8484914087849984"><ele>56.0</ele><time>2026-04-04T12:36:25Z</time></trkpt><trkpt lat="42.71870933348232" lon="2.848568198889482"><ele>55.99999999999999</ele><time>2026-04-04T12:36:26Z</time></trkpt><trkpt lat="42.71863256760995" lon="2.8486453832349596"><ele>55.99999999999999</ele><time>2026-04-04T12:36:27Z</time></trkpt><trkpt lat="42.71855150790343" lon="2.8487230912393424"><ele>56.0</ele><time>2026-04-04T12:36:28Z</time></trkpt><trkpt lat="42.718469231271925" lon="2.8487990927422575"><ele>56.0</ele><time>2026-04-04T12:36:29Z</time></trkpt><trkpt lat="42.71838869591382" lon="2.8488737514800007"><ele>55.8</ele><time>2026-04-04T12:36:30Z</time></trkpt><trkpt lat="42.718305856485784" lon="2.8489435399843313"><ele>55.599999999999994</ele><time>2026-04-04T12:36:31Z</time></trkpt><trkpt lat="42.718219338570435" lon="2.8490167722769524"><ele>55.4</ele><time>2026-04-04T12:36:32Z</time></trkpt><trkpt lat="42.71812920366421" lon="2.8490963781911645"><ele>55.2</ele><time>2026-04-04T12:36:33Z</time></trkpt><trkpt lat="42.71804812910396" lon="2.8491663760821657"><ele>55.0</ele><time>2026-04-04T12:36:34Z</time></trkpt><trkpt lat="42.7179663522734" lon="2.8492320606785695"><ele>55.0</ele><time>2026-04-04T12:36:35Z</time></trkpt><trkpt lat="42.71787623025456" lon="2.8493021958921703"><ele>55.0</ele><time>2026-04-04T12:36:36Z</time></trkpt><trkpt lat="42.71778136104503" lon="2.849377162676979"><ele>55.0</ele><time>2026-04-04T12:36:37Z</time></trkpt><trkpt lat="42.717685527129454" lon="2.8494523390174327"><ele>55.0</ele><time>2026-04-04T12:36:38Z</time></trkpt><trkpt lat="42.71759329113667" lon="2.849523051580621"><ele>55.0</ele><time>2026-04-04T12:36:39Z</time></trkpt><trkpt lat="42.717499342212086" lon="2.849587585986041"><ele>55.0</ele><time>2026-04-04T12:36:40Z</time></trkpt><trkpt lat="42.717401344447715" lon="2.8496578272712307"><ele>55.0</ele><time>2026-04-04T12:36:41Z</time></trkpt><trkpt lat="42.71731196293759" lon="2.8497155234282388"><ele>55.0</ele><time>2026-04-04T12:36:42Z</time></trkpt><trkpt lat="42.71723059167042" lon="2.8497655591776945"><ele>55.0</ele><time>2026-04-04T12:36:43Z</time></trkpt><trkpt lat="42.7171509707576" lon="2.849806756683346"><ele>55.0</ele><time>2026-04-04T12:36:44Z</time></trkpt><trkpt lat="42.71700696050663" lon="2.8499140804751155"><ele>55.5</ele><time>2026-04-04T12:36:45Z</time></trkpt><trkpt lat="42.71689591456647" lon="2.849964152329176"><ele>56.0</ele><time>2026-04-04T12:36:46Z</time></trkpt><trkpt lat="42.71678398049007" lon="2.8500105593582234"><ele>56.5</ele><time>2026-04-04T12:36:47Z</time></trkpt><trkpt lat="42.71668385733398" lon="2.8500655465288975"><ele>57.0</ele><time>2026-04-04T12:36:48Z</time></trkpt><trkpt lat="42.71657981497701" lon="2.850111627754703"><ele>57.0</ele><time>2026-04-04T12:36:49Z</time></trkpt><trkpt lat="42.71648095494393" lon="2.850161841339075"><ele>57.0</ele><time>2026-04-04T12:36:50Z</time></trkpt><trkpt lat="42.71638880004152" lon="2.8502153094661025"><ele>57.0</ele><time>2026-04-04T12:36:51Z</time></trkpt><trkpt lat="42.716302933810915" lon="2.8502552914138293"><ele>57.0</ele><time>2026-04-04T12:36:52Z</time></trkpt><trkpt lat="42.71621593602368" lon="2.850290340651652"><ele>57.0</ele><time>2026-04-04T12:36:53Z</time></trkpt><trkpt lat="42.71612628546801" lon="2.850325672517849"><ele>57.2</ele><time>2026-04-04T12:36:54Z</time></trkpt><trkpt lat="42.71604434907022" lon="2.850358785345313"><ele>57.400000000000006</ele><time>2026-04-04T12:36:55Z</time></trkpt><trkpt lat="42.715968150047715" lon="2.8503924133100336"><ele>57.599999999999994</ele><time>2026-04-04T12:36:56Z</time></trkpt><trkpt lat="42.71586802306154" lon="2.850426972251796"><ele>57.8</ele><time>2026-04-04T12:36:57Z</time></trkpt><trkpt lat="42.71577267312743" lon="2.850464246595031"><ele>58.0</ele><time>2026-04-04T12:36:58Z</time></trkpt><trkpt lat="42.715684731636465" lon="2.850495582592497"><ele>57.99999999999999</ele><time>2026-04-04T12:36:59Z</time></trkpt><trkpt lat="42.71560328005847" lon="2.850524848339532"><ele>58.0</ele><time>2026-04-04T12:37:00Z</time></trkpt><trkpt lat="42.71552962691683" lon="2.8505591905727696"><ele>58.0</ele><time>2026-04-04T12:37:01Z</time></trkpt><trkpt lat="42.71545763137663" lon="2.850585673126709"><ele>58.0</ele><time>2026-04-04T12:37:02Z</time></trkpt><trkpt lat="42.715392581115644" lon="2.8506108119821065"><ele>57.99999999999999</ele><time>2026-04-04T12:37:03Z</time></trkpt><trkpt lat="42.71527951705215" lon="2.8506548816551627"><ele>58.0</ele><time>2026-04-04T12:37:05Z</time></trkpt><trkpt lat="42.715158592154154" lon="2.850686523465262"><ele>57.666666666666664</ele><time>2026-04-04T12:37:07Z</time></trkpt><trkpt lat="42.715032511532414" lon="2.850635036924727"><ele>57.33333333333333</ele><time>2026-04-04T12:37:09Z</time></trkpt><trkpt lat="42.71497551874575" lon="2.8505596810216307"><ele>57.0</ele><time>2026-04-04T12:37:10Z</time></trkpt><trkpt lat="42.71491011600319" lon="2.85051544127853"><ele>56.66666666666667</ele><time>2026-04-04T12:37:11Z</time></trkpt><trkpt lat="42.71484046533952" lon="2.8505233290234955"><ele>56.333333333333336</ele><time>2026-04-04T12:37:12Z</time></trkpt><trkpt lat="42.714770412859345" lon="2.850566743800639"><ele>56.0</ele><time>2026-04-04T12:37:13Z</time></trkpt><trkpt lat="42.71472355578798" lon="2.850638610170759"><ele>56.00000000000001</ele><time>2026-04-04T12:37:14Z</time></trkpt><trkpt lat="42.71469993822147" lon="2.850738426352585"><ele>56.0</ele><time>2026-04-04T12:37:15Z</time></trkpt><trkpt lat="42.71469240321035" lon="2.8508485664022216"><ele>56.0</ele><time>2026-04-04T12:37:16Z</time></trkpt><trkpt lat="42.714681965835396" lon="2.850957709038618"><ele>56.0</ele><time>2026-04-04T12:37:17Z</time></trkpt><trkpt lat="42.71464631579904" lon="2.8510798200430925"><ele>56.00000000000001</ele><time>2026-04-04T12:37:18Z</time></trkpt><trkpt lat="42.714593684138556" lon="2.8512064251236833"><ele>56.0</ele><time>2026-04-04T12:37:19Z</time></trkpt><trkpt lat="42.71453076765441" lon="2.851308261599387"><ele>56.00000000000001</ele><time>2026-04-04T12:37:20Z</time></trkpt><trkpt lat="42.71447194866734" lon="2.8514042438253147"><ele>56.0</ele><time>2026-04-04T12:37:21Z</time></trkpt><trkpt lat="42.714411966791566" lon="2.851495400957818"><ele>56.0</ele><time>2026-04-04T12:37:22Z</time></trkpt><trkpt lat="42.714363987059045" lon="2.8515776718073744"><ele>56.0</ele><time>2026-04-04T12:37:23Z</time></trkpt><trkpt lat="42.71431820199387" lon="2.8516617255730057"><ele>56.00000000000001</ele><time>2026-04-04T12:37:24Z</time></trkpt><trkpt lat="42.71427432495267" lon="2.851764911793446"><ele>56.0</ele><time>2026-04-04T12:37:25Z</time></trkpt><trkpt lat="42.71423140508432" lon="2.8518616370151078"><ele>56.0</ele><time>2026-04-04T12:37:26Z</time></trkpt><trkpt lat="42.714193499466305" lon="2.851949447748691"><ele>56.0</ele><time>2026-04-04T12:37:27Z</time></trkpt><trkpt lat="42.71415684021842" lon="2.852034188706885"><ele>56.0</ele><time>2026-04-04T12:37:28Z</time></trkpt><trkpt lat="42.7141217625144" lon="2.852122478164963"><ele>56.0</ele><time>2026-04-04T12:37:29Z</time></trkpt><trkpt lat="42.714092700983436" lon="2.8522080130828593"><ele>56.0</ele><time>2026-04-04T12:37:30Z</time></trkpt><trkpt lat="42.71405525886808" lon="2.852292541788481"><ele>56.0</ele><time>2026-04-04T12:37:31Z</time></trkpt><trkpt lat="42.71401600811057" lon="2.8523745044028312"><ele>56.0</ele><time>2026-04-04T12:37:32Z</time></trkpt><trkpt lat="42.71398713720368" lon="2.852454540037543"><ele>56.0</ele><time>2026-04-04T12:37:33Z</time></trkpt><trkpt lat="42.713955355712244" lon="2.852539313306986"><ele>56.0</ele><time>2026-04-04T12:37:34Z</time></trkpt><trkpt lat="42.71391873186373" lon="2.8526182996293428"><ele>56.0</ele><time>2026-04-04T12:37:35Z</time></trkpt><trkpt lat="42.71387748116385" lon="2.8526940066761424"><ele>56.0</ele><time>2026-04-04T12:37:36Z</time></trkpt><trkpt lat="42.71383591562911" lon="2.8527709558999828"><ele>56.0</ele><time>2026-04-04T12:37:37Z</time></trkpt><trkpt lat="42.71378803541252" lon="2.8528406713978187"><ele>56.0</ele><time>2026-04-04T12:37:38.001Z</time></trkpt><trkpt lat="42.713730186169364" lon="2.852894609272124"><ele>56.0</ele><time>2026-04-04T12:37:39.001Z</time></trkpt><trkpt lat="42.7136758913449" lon="2.8529621453483105"><ele>55.66666666666667</ele><time>2026-04-04T12:37:40.001Z</time></trkpt><trkpt lat="42.713643067517296" lon="2.8530540015396353"><ele>55.333333333333336</ele><time>2026-04-04T12:37:41.001Z</time></trkpt><trkpt lat="42.713642969743894" lon="2.8531656547028015"><ele>55.0</ele><time>2026-04-04T12:37:42.001Z</time></trkpt><trkpt lat="42.71367288875831" lon="2.8532693620415146"><ele>54.66666666666667</ele><time>2026-04-04T12:37:43.001Z</time></trkpt><trkpt lat="42.713644860555874" lon="2.85338580026293"><ele>54.333333333333336</ele><time>2026-04-04T12:37:44.001Z</time></trkpt><trkpt lat="42.71362915250954" lon="2.853496471015865"><ele>54.0</ele><time>2026-04-04T12:37:45.001Z</time></trkpt><trkpt lat="42.713615432697395" lon="2.853611944899053"><ele>53.6</ele><time>2026-04-04T12:37:46.001Z</time></trkpt><trkpt lat="42.713606996273" lon="2.8537351145167373"><ele>53.2</ele><time>2026-04-04T12:37:47.001Z</time></trkpt><trkpt lat="42.7136007209802" lon="2.853856103378599"><ele>52.800000000000004</ele><time>2026-04-04T12:37:48.001Z</time></trkpt><trkpt lat="42.71359111235116" lon="2.8539828225943027"><ele>52.400000000000006</ele><time>2026-04-04T12:37:49.001Z</time></trkpt><trkpt lat="42.713581717725255" lon="2.8541097241281626"><ele>52.0</ele><time>2026-04-04T12:37:50.001Z</time></trkpt><trkpt lat="42.71356437899565" lon="2.8542352554790367"><ele>50.6</ele><time>2026-04-04T12:37:51.001Z</time></trkpt><trkpt lat="42.71354242965914" lon="2.8543599303255203"><ele>49.2</ele><time>2026-04-04T12:37:52.001Z</time></trkpt><trkpt lat="42.71351363340199" lon="2.854480231957808"><ele>47.8</ele><time>2026-04-04T12:37:53.001Z</time></trkpt><trkpt lat="42.71348059693367" lon="2.8545967084930743"><ele>46.4</ele><time>2026-04-04T12:37:54.001Z</time></trkpt><trkpt lat="42.713442543456416" lon="2.854709648841878"><ele>45.0</ele><time>2026-04-04T12:37:55.001Z</time></trkpt><trkpt lat="42.713401399585784" lon="2.854819699108599"><ele>45.0</ele><time>2026-04-04T12:37:56.001Z</time></trkpt><trkpt lat="42.713359791595074" lon="2.854921409520659"><ele>45.0</ele><time>2026-04-04T12:37:57.001Z</time></trkpt><trkpt lat="42.71331479186728" lon="2.8550203822265354"><ele>45.0</ele><time>2026-04-04T12:37:58.001Z</time></trkpt><trkpt lat="42.71328383841714" lon="2.855120781129517"><ele>45.0</ele><time>2026-04-04T12:37:59.001Z</time></trkpt><trkpt lat="42.71326752455237" lon="2.8552323381238183"><ele>45.0</ele><time>2026-04-04T12:38:00.001Z</time></trkpt><trkpt lat="42.713246938051306" lon="2.8553391828140944"><ele>45.0</ele><time>2026-04-04T12:38:01.001Z</time></trkpt><trkpt lat="42.71322438966134" lon="2.855439048550353"><ele>44.833333333333336</ele><time>2026-04-04T12:38:02.001Z</time></trkpt><trkpt lat="42.71314857514696" lon="2.855507049070105"><ele>44.666666666666664</ele><time>2026-04-04T12:38:03.001Z</time></trkpt><trkpt lat="42.71308451599948" lon="2.8555549931273774"><ele>44.5</ele><time>2026-04-04T12:38:04.001Z</time></trkpt><trkpt lat="42.713018615244245" lon="2.855599194895227"><ele>44.33333333333333</ele><time>2026-04-04T12:38:05.001Z</time></trkpt><trkpt lat="42.71296041315644" lon="2.8556697099086876"><ele>44.166666666666664</ele><time>2026-04-04T12:38:06.001Z</time></trkpt><trkpt lat="42.71291580318831" lon="2.8557774533876716"><ele>44.0</ele><time>2026-04-04T12:38:07.001Z</time></trkpt><trkpt lat="42.712907421003905" lon="2.8559057125365506"><ele>43.800000000000004</ele><time>2026-04-04T12:38:08.001Z</time></trkpt><trkpt lat="42.71285237606244" lon="2.856012860140925"><ele>43.6</ele><time>2026-04-04T12:38:09.001Z</time></trkpt><trkpt lat="42.712803147380804" lon="2.856112251253746"><ele>43.4</ele><time>2026-04-04T12:38:10.001Z</time></trkpt><trkpt lat="42.71274893284082" lon="2.856206452996444"><ele>43.2</ele><time>2026-04-04T12:38:11.001Z</time></trkpt><trkpt lat="42.712697138482824" lon="2.856298544719753"><ele>43.0</ele><time>2026-04-04T12:38:12.001Z</time></trkpt><trkpt lat="42.712642933487004" lon="2.8564045344487274"><ele>42.599999999999994</ele><time>2026-04-04T12:38:13.001Z</time></trkpt><trkpt lat="42.712583466143776" lon="2.856519459213236"><ele>42.199999999999996</ele><time>2026-04-04T12:38:14Z</time></trkpt><trkpt lat="42.712522555786094" lon="2.856633602713139"><ele>41.8</ele><time>2026-04-04T12:38:15Z</time></trkpt><trkpt lat="42.71246631064336" lon="2.856745876374887"><ele>41.4</ele><time>2026-04-04T12:38:16Z</time></trkpt><trkpt lat="42.71241175887306" lon="2.8568609975669554"><ele>41.0</ele><time>2026-04-04T12:38:17Z</time></trkpt><trkpt lat="42.712356584998886" lon="2.856975570559883"><ele>40.599999999999994</ele><time>2026-04-04T12:38:18Z</time></trkpt><trkpt lat="42.7122923740021" lon="2.857092107466283"><ele>40.199999999999996</ele><time>2026-04-04T12:38:19Z</time></trkpt><trkpt lat="42.712228774589434" lon="2.857208282621516"><ele>39.8</ele><time>2026-04-04T12:38:20Z</time></trkpt><trkpt lat="42.71216902856346" lon="2.8573314938411443"><ele>39.4</ele><time>2026-04-04T12:38:21Z</time></trkpt><trkpt lat="42.712096645203665" lon="2.857451717041764"><ele>39.0</ele><time>2026-04-04T12:38:22Z</time></trkpt><trkpt lat="42.712023446435595" lon="2.8575685701805686"><ele>39.0</ele><time>2026-04-04T12:38:23Z</time></trkpt><trkpt lat="42.71194559848607" lon="2.85767355074179"><ele>39.0</ele><time>2026-04-04T12:38:24Z</time></trkpt><trkpt lat="42.71186463805536" lon="2.857761221839059"><ele>39.0</ele><time>2026-04-04T12:38:25Z</time></trkpt><trkpt lat="42.71178698285485" lon="2.857837394844302"><ele>39.0</ele><time>2026-04-04T12:38:26Z</time></trkpt><trkpt lat="42.71171066582638" lon="2.857909211291279"><ele>39.0</ele><time>2026-04-04T12:38:27Z</time></trkpt><trkpt lat="42.71163634193923" lon="2.857980630446715"><ele>39.0</ele><time>2026-04-04T12:38:28Z</time></trkpt><trkpt lat="42.7115537237084" lon="2.858040645468969"><ele>39.0</ele><time>2026-04-04T12:38:29Z</time></trkpt><trkpt lat="42.71147552363905" lon="2.8581089927543166"><ele>39.0</ele><time>2026-04-04T12:38:30Z</time></trkpt><trkpt lat="42.71139705211496" lon="2.85818099656037"><ele>39.0</ele><time>2026-04-04T12:38:31Z</time></trkpt><trkpt lat="42.7113127240783" lon="2.8582362961081236"><ele>39.0</ele><time>2026-04-04T12:38:32Z</time></trkpt><trkpt lat="42.71122137447183" lon="2.85826669299688"><ele>39.0</ele><time>2026-04-04T12:38:33Z</time></trkpt><trkpt lat="42.71112262231557" lon="2.8582669230188658"><ele>39.0</ele><time>2026-04-04T12:38:34Z</time></trkpt><trkpt lat="42.71104411422907" lon="2.858243244491025"><ele>39.0</ele><time>2026-04-04T12:38:35Z</time></trkpt><trkpt lat="42.71097088939363" lon="2.858187547751589"><ele>39.0</ele><time>2026-04-04T12:38:36Z</time></trkpt><trkpt lat="42.710904570248076" lon="2.8581226540131235"><ele>39.0</ele><time>2026-04-04T12:38:37Z</time></trkpt><trkpt lat="42.71083043805009" lon="2.858080232635818"><ele>39.0</ele><time>2026-04-04T12:38:38Z</time></trkpt><trkpt lat="42.71075427370734" lon="2.8580819732677045"><ele>39.0</ele><time>2026-04-04T12:38:39Z</time></trkpt><trkpt lat="42.7106825286097" lon="2.8581270013289095"><ele>39.0</ele><time>2026-04-04T12:38:40Z</time></trkpt><trkpt lat="42.710630263575815" lon="2.8582122554406055"><ele>39.0</ele><time>2026-04-04T12:38:41Z</time></trkpt><trkpt lat="42.7106039366838" lon="2.8583248461480655"><ele>39.0</ele><time>2026-04-04T12:38:42Z</time></trkpt><trkpt lat="42.7106026211229" lon="2.8584513907808677"><ele>39.0</ele><time>2026-04-04T12:38:43Z</time></trkpt><trkpt lat="42.71062347993935" lon="2.8585871080797554"><ele>39.0</ele><time>2026-04-04T12:38:44Z</time></trkpt><trkpt lat="42.71064254901962" lon="2.8587356559994466"><ele>39.0</ele><time>2026-04-04T12:38:45Z</time></trkpt><trkpt lat="42.710643286821" lon="2.8588908981549515"><ele>39.0</ele><time>2026-04-04T12:38:46Z</time></trkpt><trkpt lat="42.710630577916035" lon="2.8590416103752916"><ele>39.0</ele><time>2026-04-04T12:38:47Z</time></trkpt><trkpt lat="42.71061708140913" lon="2.8591892355222037"><ele>39.0</ele><time>2026-04-04T12:38:48Z</time></trkpt><trkpt lat="42.71060312286357" lon="2.8593400562540245"><ele>39.0</ele><time>2026-04-04T12:38:49Z</time></trkpt><trkpt lat="42.710585617936474" lon="2.859489235230204"><ele>39.0</ele><time>2026-04-04T12:38:50Z</time></trkpt><trkpt lat="42.7105643623292" lon="2.8596513682672713"><ele>39.0</ele><time>2026-04-04T12:38:51Z</time></trkpt><trkpt lat="42.71054247261974" lon="2.8598192934949656"><ele>39.0</ele><time>2026-04-04T12:38:52Z</time></trkpt><trkpt lat="42.71052016104711" lon="2.859987446258161"><ele>39.0</ele><time>2026-04-04T12:38:53Z</time></trkpt><trkpt lat="42.71049282049098" lon="2.8601529325790778"><ele>38.25</ele><time>2026-04-04T12:38:54Z</time></trkpt><trkpt lat="42.710459645090296" lon="2.8603174261541815"><ele>37.5</ele><time>2026-04-04T12:38:55Z</time></trkpt><trkpt lat="42.710417279567594" lon="2.860474839476243"><ele>36.75</ele><time>2026-04-04T12:38:56Z</time></trkpt><trkpt lat="42.71036961202151" lon="2.8606269312102675"><ele>36.0</ele><time>2026-04-04T12:38:57Z</time></trkpt><trkpt lat="42.71032736123301" lon="2.860783343874154"><ele>36.0</ele><time>2026-04-04T12:38:58Z</time></trkpt><trkpt lat="42.710274919784105" lon="2.860937729584469"><ele>36.0</ele><time>2026-04-04T12:38:59Z</time></trkpt><trkpt lat="42.710214276892806" lon="2.861092182332645"><ele>36.0</ele><time>2026-04-04T12:39:00Z</time></trkpt><trkpt lat="42.710162151269294" lon="2.861245426057069"><ele>36.0</ele><time>2026-04-04T12:39:01Z</time></trkpt><trkpt lat="42.71010969845706" lon="2.861408383624694"><ele>36.0</ele><time>2026-04-04T12:39:02Z</time></trkpt><trkpt lat="42.710061940896736" lon="2.861563014443809"><ele>36.0</ele><time>2026-04-04T12:39:03Z</time></trkpt><trkpt lat="42.710003871396275" lon="2.861712869514719"><ele>36.0</ele><time>2026-04-04T12:39:04Z</time></trkpt><trkpt lat="42.709938349742956" lon="2.861857234565843"><ele>36.0</ele><time>2026-04-04T12:39:05Z</time></trkpt><trkpt lat="42.70986555560589" lon="2.8620044921693952"><ele>36.0</ele><time>2026-04-04T12:39:06Z</time></trkpt><trkpt lat="42.70979769919497" lon="2.8621409702676237"><ele>36.0</ele><time>2026-04-04T12:39:07Z</time></trkpt><trkpt lat="42.70972686634497" lon="2.862264800014126"><ele>36.0</ele><time>2026-04-04T12:39:08Z</time></trkpt><trkpt lat="42.709662521848585" lon="2.862407513701678"><ele>36.0</ele><time>2026-04-04T12:39:09Z</time></trkpt><trkpt lat="42.70959846967832" lon="2.8625617945434376"><ele>35.75</ele><time>2026-04-04T12:39:10Z</time></trkpt><trkpt lat="42.70953438649567" lon="2.8627119374972687"><ele>35.5</ele><time>2026-04-04T12:39:11Z</time></trkpt><trkpt lat="42.709470204902985" lon="2.862853290915122"><ele>35.25</ele><time>2026-04-04T12:39:12Z</time></trkpt><trkpt lat="42.709418783193556" lon="2.8629812165440325"><ele>35.0</ele><time>2026-04-04T12:39:13Z</time></trkpt><trkpt lat="42.709372997278585" lon="2.8631109991469423"><ele>35.33333333333333</ele><time>2026-04-04T12:39:14Z</time></trkpt><trkpt lat="42.70933337149885" lon="2.8632307065797216"><ele>35.666666666666664</ele><time>2026-04-04T12:39:15Z</time></trkpt><trkpt lat="42.70929912103742" lon="2.8633497875080183"><ele>36.0</ele><time>2026-04-04T12:39:16Z</time></trkpt><trkpt lat="42.709277199929815" lon="2.863455839091574"><ele>36.333333333333336</ele><time>2026-04-04T12:39:17Z</time></trkpt><trkpt lat="42.70925232007566" lon="2.8635646923934295"><ele>36.66666666666667</ele><time>2026-04-04T12:39:18Z</time></trkpt><trkpt lat="42.70922747390552" lon="2.8636636022604702"><ele>37.0</ele><time>2026-04-04T12:39:19Z</time></trkpt><trkpt lat="42.70919910844505" lon="2.8637550013754813"><ele>37.0</ele><time>2026-04-04T12:39:20Z</time></trkpt><trkpt lat="42.709166955356835" lon="2.8638361063403357"><ele>37.0</ele><time>2026-04-04T12:39:21Z</time></trkpt><trkpt lat="42.709130748715694" lon="2.863914066070105"><ele>37.0</ele><time>2026-04-04T12:39:22Z</time></trkpt><trkpt lat="42.70903924435232" lon="2.8640247848894784"><ele>37.0</ele><time>2026-04-04T12:39:24Z</time></trkpt><trkpt lat="42.70897369327683" lon="2.8641511161845044"><ele>37.0</ele><time>2026-04-04T12:39:26Z</time></trkpt><trkpt lat="42.70900016716" lon="2.8643115368651264"><ele>36.833333333333336</ele><time>2026-04-04T12:39:28Z</time></trkpt><trkpt lat="42.70905011000639" lon="2.8643883807241934"><ele>36.66666666666667</ele><time>2026-04-04T12:39:29Z</time></trkpt><trkpt lat="42.709111553195065" lon="2.864461237110024"><ele>36.5</ele><time>2026-04-04T12:39:30Z</time></trkpt><trkpt lat="42.70916233119785" lon="2.8645606344597137"><ele>36.333333333333336</ele><time>2026-04-04T12:39:31Z</time></trkpt><trkpt lat="42.70919960853135" lon="2.8646883537129244"><ele>36.166666666666664</ele><time>2026-04-04T12:39:32Z</time></trkpt><trkpt lat="42.709233218401344" lon="2.8648202503051654"><ele>36.0</ele><time>2026-04-04T12:39:33Z</time></trkpt><trkpt lat="42.70926805062703" lon="2.8649540912989524"><ele>36.0</ele><time>2026-04-04T12:39:34Z</time></trkpt><trkpt lat="42.70930123632781" lon="2.865088935052071"><ele>36.0</ele><time>2026-04-04T12:39:35Z</time></trkpt><trkpt lat="42.70933987427367" lon="2.8652317636788176"><ele>36.0</ele><time>2026-04-04T12:39:36Z</time></trkpt><trkpt lat="42.70937839561523" lon="2.865392498656505"><ele>36.0</ele><time>2026-04-04T12:39:37Z</time></trkpt><trkpt lat="42.709419785302536" lon="2.8655527283568456"><ele>35.5</ele><time>2026-04-04T12:39:38Z</time></trkpt><trkpt lat="42.70946174082616" lon="2.8657143358742556"><ele>35.0</ele><time>2026-04-04T12:39:39Z</time></trkpt><trkpt lat="42.709506468807824" lon="2.8658828742916764"><ele>34.5</ele><time>2026-04-04T12:39:40Z</time></trkpt><trkpt lat="42.70955491131984" lon="2.866058652954828"><ele>34.0</ele><time>2026-04-04T12:39:41Z</time></trkpt><trkpt lat="42.709602443344004" lon="2.866237267031138"><ele>34.0</ele><time>2026-04-04T12:39:42Z</time></trkpt><trkpt lat="42.70967042490403" lon="2.866458911987452"><ele>34.0</ele><time>2026-04-04T12:39:43Z</time></trkpt><trkpt lat="42.70973125300271" lon="2.8666813701183687"><ele>34.0</ele><time>2026-04-04T12:39:44Z</time></trkpt><trkpt lat="42.70979386172942" lon="2.8669225164250474"><ele>33.66666666666667</ele><time>2026-04-04T12:39:45Z</time></trkpt><trkpt lat="42.70985494656215" lon="2.8671953195778466"><ele>33.333333333333336</ele><time>2026-04-04T12:39:46Z</time></trkpt><trkpt lat="42.70990489645523" lon="2.867434555436947"><ele>33.0</ele><time>2026-04-04T12:39:47Z</time></trkpt><trkpt lat="42.70993646615709" lon="2.8676601351762026"><ele>33.0</ele><time>2026-04-04T12:39:48Z</time></trkpt><trkpt lat="42.7099670264862" lon="2.8678576430952667"><ele>33.0</ele><time>2026-04-04T12:39:49Z</time></trkpt><trkpt lat="42.70999696167615" lon="2.86804322654075"><ele>33.0</ele><time>2026-04-04T12:39:50Z</time></trkpt><trkpt lat="42.71002084768779" lon="2.868215039489654"><ele>33.0</ele><time>2026-04-04T12:39:51Z</time></trkpt><trkpt lat="42.71003911491674" lon="2.8683822619225547"><ele>33.0</ele><time>2026-04-04T12:39:52Z</time></trkpt><trkpt lat="42.710045765099146" lon="2.868571137535211"><ele>33.0</ele><time>2026-04-04T12:39:53Z</time></trkpt><trkpt lat="42.710059065400394" lon="2.8688110972255956"><ele>33.0</ele><time>2026-04-04T12:39:54Z</time></trkpt><trkpt lat="42.7100697935986" lon="2.869027450918488"><ele>33.0</ele><time>2026-04-04T12:39:55Z</time></trkpt><trkpt lat="42.710085530606094" lon="2.8692219037399362"><ele>33.0</ele><time>2026-04-04T12:39:56Z</time></trkpt><trkpt lat="42.71006656868547" lon="2.869367413200414"><ele>33.0</ele><time>2026-04-04T12:39:57Z</time></trkpt><trkpt lat="42.70998299185804" lon="2.8695539136848414"><ele>33.0</ele><time>2026-04-04T12:39:59Z</time></trkpt><trkpt lat="42.7098628715449" lon="2.8695991725661765"><ele>32.75</ele><time>2026-04-04T12:40:00.001Z</time></trkpt><trkpt lat="42.70975102394357" lon="2.8697437098032683"><ele>32.5</ele><time>2026-04-04T12:40:01.001Z</time></trkpt><trkpt lat="42.70966823921582" lon="2.8698428533644553"><ele>32.25</ele><time>2026-04-04T12:40:02.001Z</time></trkpt><trkpt lat="42.70961864662127" lon="2.8699775147255884"><ele>32.0</ele><time>2026-04-04T12:40:03.001Z</time></trkpt><trkpt lat="42.70963835525182" lon="2.8701666655009146"><ele>32.0</ele><time>2026-04-04T12:40:04.001Z</time></trkpt><trkpt lat="42.709683057613304" lon="2.8703481510821818"><ele>32.0</ele><time>2026-04-04T12:40:05.001Z</time></trkpt><trkpt lat="42.70976152247217" lon="2.870502461335624"><ele>32.0</ele><time>2026-04-04T12:40:06.001Z</time></trkpt><trkpt lat="42.70988611058123" lon="2.870598659473031"><ele>32.0</ele><time>2026-04-04T12:40:07.001Z</time></trkpt><trkpt lat="42.70998364548271" lon="2.8707247712969703"><ele>32.0</ele><time>2026-04-04T12:40:08.001Z</time></trkpt><trkpt lat="42.709990420802576" lon="2.8709036702472983"><ele>32.0</ele><time>2026-04-04T12:40:09.001Z</time></trkpt><trkpt lat="42.710008239138716" lon="2.871092165056495"><ele>32.0</ele><time>2026-04-04T12:40:10.001Z</time></trkpt><trkpt lat="42.71000839377303" lon="2.8713144636017978"><ele>32.0</ele><time>2026-04-04T12:40:11.001Z</time></trkpt><trkpt lat="42.709995744898535" lon="2.8715533979514527"><ele>31.666666666666664</ele><time>2026-04-04T12:40:12.001Z</time></trkpt><trkpt lat="42.70998053390881" lon="2.8718078531976845"><ele>31.333333333333336</ele><time>2026-04-04T12:40:13.001Z</time></trkpt><trkpt lat="42.70997441148851" lon="2.872079503609046"><ele>31.0</ele><time>2026-04-04T12:40:14.001Z</time></trkpt><trkpt lat="42.70997932561875" lon="2.8723249703836027"><ele>31.0</ele><time>2026-04-04T12:40:15.001Z</time></trkpt><trkpt lat="42.70999062250372" lon="2.872540666725224"><ele>31.0</ele><time>2026-04-04T12:40:16.001Z</time></trkpt><trkpt lat="42.71000764376562" lon="2.8727295840307474"><ele>31.0</ele><time>2026-04-04T12:40:17.001Z</time></trkpt><trkpt lat="42.710028395272694" lon="2.8729088877741096"><ele>31.0</ele><time>2026-04-04T12:40:18.001Z</time></trkpt><trkpt lat="42.71004695575452" lon="2.873071865138437"><ele>31.0</ele><time>2026-04-04T12:40:19.001Z</time></trkpt><trkpt lat="42.7100608226226" lon="2.873230598776379"><ele>31.0</ele><time>2026-04-04T12:40:20Z</time></trkpt><trkpt lat="42.710078968445785" lon="2.8733924345193977"><ele>31.0</ele><time>2026-04-04T12:40:21Z</time></trkpt><trkpt lat="42.710097436234825" lon="2.8735451799611487"><ele>31.0</ele><time>2026-04-04T12:40:22Z</time></trkpt><trkpt lat="42.71012031396815" lon="2.873717560912749"><ele>31.25</ele><time>2026-04-04T12:40:23Z</time></trkpt><trkpt lat="42.71016294058953" lon="2.8738907220391527"><ele>31.5</ele><time>2026-04-04T12:40:24Z</time></trkpt><trkpt lat="42.710165546816725" lon="2.874048724420581"><ele>31.75</ele><time>2026-04-04T12:40:25Z</time></trkpt><trkpt lat="42.7102039824321" lon="2.8741843678766132"><ele>32.0</ele><time>2026-04-04T12:40:26Z</time></trkpt><trkpt lat="42.710160954527325" lon="2.8743702824997293"><ele>32.5</ele><time>2026-04-04T12:40:27Z</time></trkpt><trkpt lat="42.710078600619" lon="2.874519298887206"><ele>33.0</ele><time>2026-04-04T12:40:28Z</time></trkpt><trkpt lat="42.71000069529834" lon="2.8746784353225734"><ele>33.5</ele><time>2026-04-04T12:40:29Z</time></trkpt><trkpt lat="42.70992484267812" lon="2.874858875845335"><ele>34.0</ele><time>2026-04-04T12:40:30Z</time></trkpt><trkpt lat="42.70982519630331" lon="2.8750318189596427"><ele>33.66666666666667</ele><time>2026-04-04T12:40:31Z</time></trkpt><trkpt lat="42.70972880485039" lon="2.8752156475138206"><ele>33.333333333333336</ele><time>2026-04-04T12:40:32Z</time></trkpt><trkpt lat="42.70962938676241" lon="2.8754104438492996"><ele>33.0</ele><time>2026-04-04T12:40:33Z</time></trkpt><trkpt lat="42.70952781282223" lon="2.875611547720202"><ele>33.0</ele><time>2026-04-04T12:40:34Z</time></trkpt><trkpt lat="42.709428445923" lon="2.8758115135610005"><ele>33.0</ele><time>2026-04-04T12:40:35Z</time></trkpt><trkpt lat="42.7093348236866" lon="2.87600356391618"><ele>33.0</ele><time>2026-04-04T12:40:36Z</time></trkpt><trkpt lat="42.7092366043374" lon="2.876208692278113"><ele>32.333333333333336</ele><time>2026-04-04T12:40:37Z</time></trkpt><trkpt lat="42.70914576890813" lon="2.876409877863196"><ele>31.666666666666668</ele><time>2026-04-04T12:40:38Z</time></trkpt><trkpt lat="42.70904761790507" lon="2.8766415560077054"><ele>31.0</ele><time>2026-04-04T12:40:39Z</time></trkpt><trkpt lat="42.7089605352709" lon="2.876859212950086"><ele>30.666666666666668</ele><time>2026-04-04T12:40:40Z</time></trkpt><trkpt lat="42.70887610185792" lon="2.8770737829279365"><ele>30.333333333333336</ele><time>2026-04-04T12:40:41Z</time></trkpt><trkpt lat="42.70882642086425" lon="2.8773155901417105"><ele>30.0</ele><time>2026-04-04T12:40:42Z</time></trkpt><trkpt lat="42.70871813132047" lon="2.8775434687244057"><ele>30.333333333333336</ele><time>2026-04-04T12:40:43Z</time></trkpt><trkpt lat="42.70863374290745" lon="2.8778126129218182"><ele>30.666666666666668</ele><time>2026-04-04T12:40:44Z</time></trkpt><trkpt lat="42.708545791352414" lon="2.8781072705617796"><ele>31.0</ele><time>2026-04-04T12:40:45Z</time></trkpt><trkpt lat="42.70846561362478" lon="2.8783857330063243"><ele>31.0</ele><time>2026-04-04T12:40:46Z</time></trkpt><trkpt lat="42.7083916188046" lon="2.878631983693923"><ele>31.0</ele><time>2026-04-04T12:40:47Z</time></trkpt><trkpt lat="42.70832029681029" lon="2.878859621401423"><ele>31.0</ele><time>2026-04-04T12:40:48Z</time></trkpt><trkpt lat="42.70824665715243" lon="2.879080483347463"><ele>30.0</ele><time>2026-04-04T12:40:49Z</time></trkpt><trkpt lat="42.70817940011412" lon="2.8792927172877367"><ele>29.0</ele><time>2026-04-04T12:40:50Z</time></trkpt><trkpt lat="42.7081071572009" lon="2.879512374764003"><ele>28.0</ele><time>2026-04-04T12:40:51Z</time></trkpt><trkpt lat="42.708032769442056" lon="2.8797340768641484"><ele>28.0</ele><time>2026-04-04T12:40:52Z</time></trkpt><trkpt lat="42.707954649558765" lon="2.8799619426429306"><ele>28.0</ele><time>2026-04-04T12:40:53Z</time></trkpt><trkpt lat="42.707882012966905" lon="2.8801745267786596"><ele>28.0</ele><time>2026-04-04T12:40:54Z</time></trkpt><trkpt lat="42.70780748387043" lon="2.8803882966292798"><ele>28.666666666666668</ele><time>2026-04-04T12:40:55Z</time></trkpt><trkpt lat="42.7077298345761" lon="2.880600108734906"><ele>29.333333333333336</ele><time>2026-04-04T12:40:56Z</time></trkpt><trkpt lat="42.7076473588068" lon="2.880810100611115"><ele>30.0</ele><time>2026-04-04T12:40:57Z</time></trkpt><trkpt lat="42.707558524334225" lon="2.881012313118951"><ele>30.333333333333336</ele><time>2026-04-04T12:40:58Z</time></trkpt><trkpt lat="42.70745906214665" lon="2.8812160250808567"><ele>30.666666666666668</ele><time>2026-04-04T12:40:59Z</time></trkpt><trkpt lat="42.70736059713827" lon="2.881404888048386"><ele>31.0</ele><time>2026-04-04T12:41:00Z</time></trkpt><trkpt lat="42.70725947749675" lon="2.8815863665321784"><ele>31.0</ele><time>2026-04-04T12:41:01Z</time></trkpt><trkpt lat="42.70715456372706" lon="2.881764592550826"><ele>31.0</ele><time>2026-04-04T12:41:02Z</time></trkpt><trkpt lat="42.70704326079093" lon="2.8819416416238157"><ele>31.0</ele><time>2026-04-04T12:41:03Z</time></trkpt><trkpt lat="42.706930219062734" lon="2.8821037229667392"><ele>31.0</ele><time>2026-04-04T12:41:04Z</time></trkpt><trkpt lat="42.70681271067745" lon="2.882266050698296"><ele>31.0</ele><time>2026-04-04T12:41:05Z</time></trkpt><trkpt lat="42.70668630786167" lon="2.8824289621282553"><ele>31.0</ele><time>2026-04-04T12:41:06Z</time></trkpt><trkpt lat="42.70656120908086" lon="2.882577258142375"><ele>31.333333333333336</ele><time>2026-04-04T12:41:07Z</time></trkpt><trkpt lat="42.70643370146403" lon="2.882712368780646"><ele>31.666666666666664</ele><time>2026-04-04T12:41:08Z</time></trkpt><trkpt lat="42.70630576626435" lon="2.882841273527165"><ele>32.0</ele><time>2026-04-04T12:41:09Z</time></trkpt><trkpt lat="42.70617017469082" lon="2.882969768227354"><ele>31.333333333333332</ele><time>2026-04-04T12:41:10Z</time></trkpt><trkpt lat="42.70603716582904" lon="2.883081388283082"><ele>30.666666666666664</ele><time>2026-04-04T12:41:11Z</time></trkpt><trkpt lat="42.705898929675016" lon="2.883202302780781"><ele>30.0</ele><time>2026-04-04T12:41:12Z</time></trkpt><trkpt lat="42.70575986971959" lon="2.8833096354743004"><ele>30.0</ele><time>2026-04-04T12:41:13Z</time></trkpt><trkpt lat="42.705618134266516" lon="2.8834146734954285"><ele>30.0</ele><time>2026-04-04T12:41:14Z</time></trkpt><trkpt lat="42.70547654842164" lon="2.883518252053783"><ele>30.0</ele><time>2026-04-04T12:41:15Z</time></trkpt><trkpt lat="42.705325813474154" lon="2.883624698031539"><ele>30.0</ele><time>2026-04-04T12:41:16Z</time></trkpt><trkpt lat="42.70517833853242" lon="2.883733834394589"><ele>30.0</ele><time>2026-04-04T12:41:17Z</time></trkpt><trkpt lat="42.70503586628426" lon="2.8838283068177706"><ele>30.0</ele><time>2026-04-04T12:41:18Z</time></trkpt><trkpt lat="42.704890276702336" lon="2.8839142286447146"><ele>30.0</ele><time>2026-04-04T12:41:19Z</time></trkpt><trkpt lat="42.70474112341359" lon="2.884000542765606"><ele>30.0</ele><time>2026-04-04T12:41:20Z</time></trkpt><trkpt lat="42.7045941120291" lon="2.8840927358808246"><ele>30.0</ele><time>2026-04-04T12:41:21Z</time></trkpt><trkpt lat="42.70444811743614" lon="2.8841752828579628"><ele>30.0</ele><time>2026-04-04T12:41:22Z</time></trkpt><trkpt lat="42.704301798866815" lon="2.8842578203328517"><ele>30.0</ele><time>2026-04-04T12:41:23Z</time></trkpt><trkpt lat="42.704154456431034" lon="2.884346623530011"><ele>30.0</ele><time>2026-04-04T12:41:24Z</time></trkpt><trkpt lat="42.704002685754006" lon="2.8844306397654065"><ele>30.666666666666664</ele><time>2026-04-04T12:41:25Z</time></trkpt><trkpt lat="42.7038532366191" lon="2.8845026133710467"><ele>31.333333333333332</ele><time>2026-04-04T12:41:26Z</time></trkpt><trkpt lat="42.70369431863489" lon="2.8845813727822316"><ele>32.0</ele><time>2026-04-04T12:41:27Z</time></trkpt><trkpt lat="42.703521095313384" lon="2.8846717778092446"><ele>32.0</ele><time>2026-04-04T12:41:28Z</time></trkpt><trkpt lat="42.70336927556147" lon="2.884758562929324"><ele>32.0</ele><time>2026-04-04T12:41:29Z</time></trkpt><trkpt lat="42.70323981564009" lon="2.8848331260050437"><ele>32.0</ele><time>2026-04-04T12:41:30Z</time></trkpt><trkpt lat="42.703120705283766" lon="2.8848977814968126"><ele>32.0</ele><time>2026-04-04T12:41:31Z</time></trkpt><trkpt lat="42.70299798642553" lon="2.8849611705121716"><ele>32.0</ele><time>2026-04-04T12:41:32Z</time></trkpt><trkpt lat="42.702869313211956" lon="2.8850327107293956"><ele>32.0</ele><time>2026-04-04T12:41:33Z</time></trkpt><trkpt lat="42.70273115124391" lon="2.885113869435267"><ele>32.0</ele><time>2026-04-04T12:41:34Z</time></trkpt><trkpt lat="42.702597750410625" lon="2.8851874344408714"><ele>32.0</ele><time>2026-04-04T12:41:35Z</time></trkpt><trkpt lat="42.70246928452621" lon="2.885256842703361"><ele>30.75</ele><time>2026-04-04T12:41:36Z</time></trkpt><trkpt lat="42.70232731775109" lon="2.8853409650733206"><ele>29.5</ele><time>2026-04-04T12:41:37Z</time></trkpt><trkpt lat="42.70219539124654" lon="2.8854070729333823"><ele>28.25</ele><time>2026-04-04T12:41:38Z</time></trkpt><trkpt lat="42.702099934463654" lon="2.8854696569001708"><ele>27.0</ele><time>2026-04-04T12:41:39Z</time></trkpt><trkpt lat="42.70199377556435" lon="2.885525882595216"><ele>27.0</ele><time>2026-04-04T12:41:40Z</time></trkpt><trkpt lat="42.70189470744569" lon="2.88557617141674"><ele>27.000000000000004</ele><time>2026-04-04T12:41:41Z</time></trkpt><trkpt lat="42.701786959728395" lon="2.885632975776259"><ele>27.000000000000004</ele><time>2026-04-04T12:41:42Z</time></trkpt><trkpt lat="42.70167910953338" lon="2.885693604396199"><ele>27.0</ele><time>2026-04-04T12:41:43Z</time></trkpt><trkpt lat="42.701578694197515" lon="2.885744790278447"><ele>27.0</ele><time>2026-04-04T12:41:44Z</time></trkpt><trkpt lat="42.70148583434434" lon="2.885795573428422"><ele>27.0</ele><time>2026-04-04T12:41:45Z</time></trkpt><trkpt lat="42.701398489020434" lon="2.885840735602431"><ele>27.0</ele><time>2026-04-04T12:41:46Z</time></trkpt><trkpt lat="42.701314565524775" lon="2.8858849510818003"><ele>27.0</ele><time>2026-04-04T12:41:47Z</time></trkpt><trkpt lat="42.701232985366445" lon="2.8859262236448493"><ele>27.0</ele><time>2026-04-04T12:41:48Z</time></trkpt><trkpt lat="42.701152716531055" lon="2.8859682492659333"><ele>27.0</ele><time>2026-04-04T12:41:49Z</time></trkpt><trkpt lat="42.70107397284046" lon="2.8860069435838795"><ele>27.0</ele><time>2026-04-04T12:41:50Z</time></trkpt><trkpt lat="42.70099721770662" lon="2.8860446648783564"><ele>27.833333333333332</ele><time>2026-04-04T12:41:51Z</time></trkpt><trkpt lat="42.70092912094385" lon="2.8860826149921497"><ele>28.666666666666664</ele><time>2026-04-04T12:41:52Z</time></trkpt><trkpt lat="42.70086120034188" lon="2.8861203787413503"><ele>29.5</ele><time>2026-04-04T12:41:53Z</time></trkpt><trkpt lat="42.70079755645956" lon="2.8861661788919566"><ele>30.333333333333332</ele><time>2026-04-04T12:41:54Z</time></trkpt><trkpt lat="42.7007368400559" lon="2.8862164347141905"><ele>31.166666666666664</ele><time>2026-04-04T12:41:55Z</time></trkpt><trkpt lat="42.70068283165984" lon="2.886262172771757"><ele>32.0</ele><time>2026-04-04T12:41:56Z</time></trkpt><trkpt lat="42.70056430139796" lon="2.886298474172912"><ele>32.0</ele><time>2026-04-04T12:41:58Z</time></trkpt><trkpt lat="42.70049293809901" lon="2.886328110085911"><ele>32.0</ele><time>2026-04-04T12:42:00Z</time></trkpt><trkpt lat="42.70040453933739" lon="2.8863659636500283"><ele>32.0</ele><time>2026-04-04T12:42:10Z</time></trkpt><trkpt lat="42.700277676728206" lon="2.886421713751785"><ele>32.0</ele><time>2026-04-04T12:42:12Z</time></trkpt><trkpt lat="42.70020088616949" lon="2.8864580622820903"><ele>32.0</ele><time>2026-04-04T12:42:13Z</time></trkpt><trkpt lat="42.7001297855818" lon="2.88648988643777"><ele>32.666666666666664</ele><time>2026-04-04T12:42:14Z</time></trkpt><trkpt lat="42.70003781023341" lon="2.8865354891171378"><ele>33.33333333333333</ele><time>2026-04-04T12:42:15Z</time></trkpt><trkpt lat="42.69996087631211" lon="2.886567949018003"><ele>34.0</ele><time>2026-04-04T12:42:16Z</time></trkpt><trkpt lat="42.69988092985547" lon="2.886600203644641"><ele>34.666666666666664</ele><time>2026-04-04T12:42:17Z</time></trkpt><trkpt lat="42.69981627830009" lon="2.886630539253314"><ele>35.333333333333336</ele><time>2026-04-04T12:42:18Z</time></trkpt><trkpt lat="42.69974276422109" lon="2.886652910319105"><ele>36.0</ele><time>2026-04-04T12:42:19Z</time></trkpt><trkpt lat="42.69968364074589" lon="2.8867114181446665"><ele>36.0</ele><time>2026-04-04T12:42:20Z</time></trkpt><trkpt lat="42.699608662594336" lon="2.886747937696039"><ele>36.0</ele><time>2026-04-04T12:42:21Z</time></trkpt><trkpt lat="42.69953434894699" lon="2.886774515189203"><ele>36.0</ele><time>2026-04-04T12:42:22.001Z</time></trkpt><trkpt lat="42.69947155029849" lon="2.886809122653354"><ele>36.0</ele><time>2026-04-04T12:42:23.001Z</time></trkpt><trkpt lat="42.69935493344009" lon="2.8868988702884946"><ele>36.0</ele><time>2026-04-04T12:42:25.001Z</time></trkpt><trkpt lat="42.699289863900844" lon="2.8869279403884813"><ele>36.0</ele><time>2026-04-04T12:42:26Z</time></trkpt><trkpt lat="42.699188604459046" lon="2.886957999368705"><ele>36.666666666666664</ele><time>2026-04-04T12:42:28Z</time></trkpt><trkpt lat="42.69911121311831" lon="2.886984613471299"><ele>37.333333333333336</ele><time>2026-04-04T12:42:30Z</time></trkpt><trkpt lat="42.69900237709701" lon="2.8870400252349073"><ele>38.0</ele><time>2026-04-04T12:42:32Z</time></trkpt><trkpt lat="42.69893377319084" lon="2.887069166144162"><ele>38.66666666666667</ele><time>2026-04-04T12:42:33Z</time></trkpt><trkpt lat="42.69885511550891" lon="2.887094822566178"><ele>39.333333333333336</ele><time>2026-04-04T12:42:34Z</time></trkpt><trkpt lat="42.69877201150025" lon="2.88713647663809"><ele>40.0</ele><time>2026-04-04T12:42:35Z</time></trkpt><trkpt lat="42.6986877292568" lon="2.8871787896626238"><ele>40.0</ele><time>2026-04-04T12:42:36Z</time></trkpt><trkpt lat="42.69859033170011" lon="2.887216574525889"><ele>40.0</ele><time>2026-04-04T12:42:37Z</time></trkpt><trkpt lat="42.69850244631535" lon="2.887261736155818"><ele>40.0</ele><time>2026-04-04T12:42:38Z</time></trkpt><trkpt lat="42.69841303322963" lon="2.887293509109166"><ele>40.0</ele><time>2026-04-04T12:42:39Z</time></trkpt><trkpt lat="42.69833573719072" lon="2.8873210381245644"><ele>40.0</ele><time>2026-04-04T12:42:40Z</time></trkpt><trkpt lat="42.698251737609304" lon="2.887348133502396"><ele>39.66666666666667</ele><time>2026-04-04T12:42:41Z</time></trkpt><trkpt lat="42.69816778326846" lon="2.8873848316941584"><ele>39.333333333333336</ele><time>2026-04-04T12:42:42Z</time></trkpt><trkpt lat="42.6980858719367" lon="2.887422109620328"><ele>39.0</ele><time>2026-04-04T12:42:43Z</time></trkpt><trkpt lat="42.6979994657752" lon="2.8874671879902185"><ele>38.666666666666664</ele><time>2026-04-04T12:42:44Z</time></trkpt><trkpt lat="42.69791562527898" lon="2.8875052044229754"><ele>38.33333333333333</ele><time>2026-04-04T12:42:45Z</time></trkpt><trkpt lat="42.69783043043745" lon="2.8875466634805638"><ele>38.0</ele><time>2026-04-04T12:42:46Z</time></trkpt><trkpt lat="42.69774636354704" lon="2.8875831956832725"><ele>37.4</ele><time>2026-04-04T12:42:47Z</time></trkpt><trkpt lat="42.69766264194483" lon="2.8876213204083894"><ele>36.8</ele><time>2026-04-04T12:42:48Z</time></trkpt><trkpt lat="42.69757062089687" lon="2.887664135365708"><ele>36.2</ele><time>2026-04-04T12:42:49Z</time></trkpt><trkpt lat="42.697476570793995" lon="2.887715413815339"><ele>35.6</ele><time>2026-04-04T12:42:50Z</time></trkpt><trkpt lat="42.697380953119946" lon="2.8877360031503176"><ele>35.0</ele><time>2026-04-04T12:42:51Z</time></trkpt><trkpt lat="42.69730304623979" lon="2.887795619445428"><ele>35.0</ele><time>2026-04-04T12:42:52Z</time></trkpt><trkpt lat="42.697221258870925" lon="2.887848283601652"><ele>35.0</ele><time>2026-04-04T12:42:53Z</time></trkpt><trkpt lat="42.69715958531106" lon="2.887887878362141"><ele>35.0</ele><time>2026-04-04T12:42:54Z</time></trkpt><trkpt lat="42.69707878570129" lon="2.8879206382692555"><ele>35.0</ele><time>2026-04-04T12:42:55Z</time></trkpt><trkpt lat="42.696986287667606" lon="2.887979879446302"><ele>35.0</ele><time>2026-04-04T12:42:56Z</time></trkpt><trkpt lat="42.69690356882944" lon="2.8880136081212626"><ele>35.0</ele><time>2026-04-04T12:42:57Z</time></trkpt><trkpt lat="42.696811203599786" lon="2.8880537814495626"><ele>35.0</ele><time>2026-04-04T12:42:59Z</time></trkpt><trkpt lat="42.696738727745924" lon="2.8880173793571564"><ele>35.0</ele><time>2026-04-04T12:43:01Z</time></trkpt><trkpt lat="42.69671212421245" lon="2.8878404120390484"><ele>35.0</ele><time>2026-04-04T12:43:02Z</time></trkpt><trkpt lat="42.69667508460055" lon="2.8877425605972897"><ele>35.0</ele><time>2026-04-04T12:43:03Z</time></trkpt><trkpt lat="42.69663614735422" lon="2.887638058916491"><ele>35.0</ele><time>2026-04-04T12:43:04Z</time></trkpt><trkpt lat="42.69659247215569" lon="2.8875505732979025"><ele>35.0</ele><time>2026-04-04T12:43:05Z</time></trkpt><trkpt lat="42.69655242493922" lon="2.8874680580066636"><ele>35.0</ele><time>2026-04-04T12:43:06Z</time></trkpt><trkpt lat="42.69651568979358" lon="2.887381168624409"><ele>35.0</ele><time>2026-04-04T12:43:07Z</time></trkpt><trkpt lat="42.696476107962035" lon="2.887293341563158"><ele>35.0</ele><time>2026-04-04T12:43:08Z</time></trkpt><trkpt lat="42.69642244313019" lon="2.8872216748018826"><ele>35.0</ele><time>2026-04-04T12:43:09Z</time></trkpt><trkpt lat="42.69636231921541" lon="2.887160783094055"><ele>35.0</ele><time>2026-04-04T12:43:10Z</time></trkpt><trkpt lat="42.69629888895902" lon="2.8871019944029506"><ele>35.0</ele><time>2026-04-04T12:43:11Z</time></trkpt><trkpt lat="42.69621880135554" lon="2.8870773355210892"><ele>35.0</ele><time>2026-04-04T12:43:12Z</time></trkpt><trkpt lat="42.69613262811641" lon="2.887078719844798"><ele>35.0</ele><time>2026-04-04T12:43:13Z</time></trkpt><trkpt lat="42.69605600193199" lon="2.8871147572492464"><ele>35.0</ele><time>2026-04-04T12:43:14Z</time></trkpt><trkpt lat="42.69597417378678" lon="2.8871475685207835"><ele>35.0</ele><time>2026-04-04T12:43:15Z</time></trkpt><trkpt lat="42.69589041808753" lon="2.887183688653152"><ele>35.0</ele><time>2026-04-04T12:43:16Z</time></trkpt><trkpt lat="42.69580339691697" lon="2.887210458361579"><ele>35.0</ele><time>2026-04-04T12:43:17Z</time></trkpt><trkpt lat="42.69571963605313" lon="2.887243085554012"><ele>35.2</ele><time>2026-04-04T12:43:18Z</time></trkpt><trkpt lat="42.695633077355296" lon="2.8872780679037566"><ele>35.4</ele><time>2026-04-04T12:43:19Z</time></trkpt><trkpt lat="42.6955394615608" lon="2.8873214236165388"><ele>35.6</ele><time>2026-04-04T12:43:20Z</time></trkpt><trkpt lat="42.69544611435831" lon="2.88736112083736"><ele>35.8</ele><time>2026-04-04T12:43:21Z</time></trkpt><trkpt lat="42.69535016894012" lon="2.887398260282447"><ele>36.0</ele><time>2026-04-04T12:43:22Z</time></trkpt><trkpt lat="42.69525784978838" lon="2.8874340537812637"><ele>36.0</ele><time>2026-04-04T12:43:23Z</time></trkpt><trkpt lat="42.69517340454238" lon="2.8874678417245585"><ele>36.0</ele><time>2026-04-04T12:43:24Z</time></trkpt><trkpt lat="42.6950851586744" lon="2.8875021030002594"><ele>36.0</ele><time>2026-04-04T12:43:25Z</time></trkpt><trkpt lat="42.695001146711014" lon="2.8875387815504214"><ele>36.0</ele><time>2026-04-04T12:43:26Z</time></trkpt><trkpt lat="42.69491749672045" lon="2.887569127273193"><ele>36.0</ele><time>2026-04-04T12:43:27Z</time></trkpt><trkpt lat="42.694849768866675" lon="2.887589338074105"><ele>36.0</ele><time>2026-04-04T12:43:28Z</time></trkpt><trkpt lat="42.69475051299746" lon="2.88761757185852"><ele>36.0</ele><time>2026-04-04T12:43:30Z</time></trkpt><trkpt lat="42.69468359575304" lon="2.887643967819975"><ele>36.0</ele><time>2026-04-04T12:43:32Z</time></trkpt><trkpt lat="42.69457859579295" lon="2.887667424661929"><ele>36.0</ele><time>2026-04-04T12:43:34Z</time></trkpt><trkpt lat="42.69449754936357" lon="2.887698652951829"><ele>36.0</ele><time>2026-04-04T12:43:35Z</time></trkpt><trkpt lat="42.69442118675277" lon="2.8877315203880882"><ele>36.0</ele><time>2026-04-04T12:43:36Z</time></trkpt><trkpt lat="42.69431371091125" lon="2.8877681237822492"><ele>36.0</ele><time>2026-04-04T12:43:37Z</time></trkpt><trkpt lat="42.694195743431955" lon="2.8878324704890237"><ele>36.0</ele><time>2026-04-04T12:43:38Z</time></trkpt><trkpt lat="42.694117969506564" lon="2.8878297418138708"><ele>36.0</ele><time>2026-04-04T12:43:39Z</time></trkpt><trkpt lat="42.6939946511852" lon="2.887724517618321"><ele>36.0</ele><time>2026-04-04T12:43:41Z</time></trkpt><trkpt lat="42.6939344801162" lon="2.887643243921133"><ele>36.0</ele><time>2026-04-04T12:43:42Z</time></trkpt><trkpt lat="42.69388723745699" lon="2.887585073768876"><ele>36.0</ele><time>2026-04-04T12:43:44Z</time></trkpt><trkpt lat="42.69379231680074" lon="2.8877454610568596"><ele>36.0</ele><time>2026-04-04T12:43:45Z</time></trkpt><trkpt lat="42.69367676734275" lon="2.887365060239296"><ele>36.0</ele><time>2026-04-04T12:43:46Z</time></trkpt><trkpt lat="42.6936245134833" lon="2.8872727018226025"><ele>36.0</ele><time>2026-04-04T12:43:47Z</time></trkpt><trkpt lat="42.693570267758545" lon="2.8871816577162206"><ele>36.0</ele><time>2026-04-04T12:43:48Z</time></trkpt><trkpt lat="42.69349083407351" lon="2.8873414626649594"><ele>36.0</ele><time>2026-04-04T12:43:49Z</time></trkpt><trkpt lat="42.6933719518481" lon="2.887320404881373"><ele>36.0</ele><time>2026-04-04T12:43:51Z</time></trkpt><trkpt lat="42.693367722872715" lon="2.8868327841192545"><ele>36.0</ele><time>2026-04-04T12:43:52Z</time></trkpt><trkpt lat="42.69331883155352" lon="2.886743529512614"><ele>36.0</ele><time>2026-04-04T12:43:53Z</time></trkpt><trkpt lat="42.693270936831766" lon="2.8866653269151414"><ele>36.0</ele><time>2026-04-04T12:43:54Z</time></trkpt><trkpt lat="42.693223679663234" lon="2.886586214639342"><ele>36.0</ele><time>2026-04-04T12:43:55Z</time></trkpt><trkpt lat="42.69317354340059" lon="2.8864991394952466"><ele>36.0</ele><time>2026-04-04T12:43:56Z</time></trkpt><trkpt lat="42.69312194463176" lon="2.8864108768170165"><ele>36.0</ele><time>2026-04-04T12:43:57Z</time></trkpt><trkpt lat="42.693057469658314" lon="2.88629844120516"><ele>36.0</ele><time>2026-04-04T12:43:58Z</time></trkpt><trkpt lat="42.69298971597451" lon="2.886193624367132"><ele>36.0</ele><time>2026-04-04T12:43:59Z</time></trkpt><trkpt lat="42.69294043679501" lon="2.8860936352239497"><ele>36.0</ele><time>2026-04-04T12:44:00Z</time></trkpt><trkpt lat="42.6928880581116" lon="2.8859923828486087"><ele>36.0</ele><time>2026-04-04T12:44:01Z</time></trkpt><trkpt lat="42.69284053361468" lon="2.885897819968415"><ele>36.0</ele><time>2026-04-04T12:44:02Z</time></trkpt><trkpt lat="42.69278997980997" lon="2.8857994671166716"><ele>36.0</ele><time>2026-04-04T12:44:03Z</time></trkpt><trkpt lat="42.69274148665984" lon="2.885714284918684"><ele>36.0</ele><time>2026-04-04T12:44:04Z</time></trkpt><trkpt lat="42.692690864127975" lon="2.8856241314472824"><ele>36.0</ele><time>2026-04-04T12:44:05Z</time></trkpt><trkpt lat="42.69264087479704" lon="2.8855297380642644"><ele>36.0</ele><time>2026-04-04T12:44:06Z</time></trkpt><trkpt lat="42.69258222625855" lon="2.8854404532768356"><ele>36.0</ele><time>2026-04-04T12:44:07Z</time></trkpt><trkpt lat="42.692530112534044" lon="2.8853502057353126"><ele>36.0</ele><time>2026-04-04T12:44:08Z</time></trkpt><trkpt lat="42.69248223427843" lon="2.885256843392127"><ele>36.0</ele><time>2026-04-04T12:44:09Z</time></trkpt><trkpt lat="42.69242811963032" lon="2.885165490982985"><ele>36.0</ele><time>2026-04-04T12:44:10Z</time></trkpt><trkpt lat="42.69237456082861" lon="2.88506882715393"><ele>36.0</ele><time>2026-04-04T12:44:11Z</time></trkpt><trkpt lat="42.692328658516765" lon="2.884950104795919"><ele>36.0</ele><time>2026-04-04T12:44:12Z</time></trkpt><trkpt lat="42.69229200882234" lon="2.884839904896143"><ele>36.0</ele><time>2026-04-04T12:44:13Z</time></trkpt><trkpt lat="42.69225680019277" lon="2.884717037368102"><ele>36.0</ele><time>2026-04-04T12:44:14Z</time></trkpt><trkpt lat="42.69221689004747" lon="2.884594339485267"><ele>36.0</ele><time>2026-04-04T12:44:15Z</time></trkpt><trkpt lat="42.69217332958641" lon="2.8844790874379025"><ele>36.0</ele><time>2026-04-04T12:44:16Z</time></trkpt><trkpt lat="42.692142869579264" lon="2.8843668324660867"><ele>36.0</ele><time>2026-04-04T12:44:17Z</time></trkpt><trkpt lat="42.69211179466202" lon="2.8842566005923165"><ele>36.0</ele><time>2026-04-04T12:44:18Z</time></trkpt><trkpt lat="42.6920709084969" lon="2.8841431799246857"><ele>36.0</ele><time>2026-04-04T12:44:19Z</time></trkpt><trkpt lat="42.6920373885027" lon="2.8840315128305627"><ele>36.0</ele><time>2026-04-04T12:44:20Z</time></trkpt><trkpt lat="42.692002800273805" lon="2.8839185322973657"><ele>36.0</ele><time>2026-04-04T12:44:21Z</time></trkpt><trkpt lat="42.69196614692105" lon="2.883808098334637"><ele>36.0</ele><time>2026-04-04T12:44:22.001Z</time></trkpt><trkpt lat="42.69193004289186" lon="2.8837024904094353"><ele>36.0</ele><time>2026-04-04T12:44:23.001Z</time></trkpt><trkpt lat="42.69189405126748" lon="2.8835878532611456"><ele>36.0</ele><time>2026-04-04T12:44:24.001Z</time></trkpt><trkpt lat="42.69186635883309" lon="2.8834754877285946"><ele>36.28571428571429</ele><time>2026-04-04T12:44:25.001Z</time></trkpt><trkpt lat="42.69184174195471" lon="2.8833783268519486"><ele>36.57142857142857</ele><time>2026-04-04T12:44:26.001Z</time></trkpt><trkpt lat="42.69181400661603" lon="2.883288550618474"><ele>36.85714285714286</ele><time>2026-04-04T12:44:27.001Z</time></trkpt><trkpt lat="42.6917854824693" lon="2.8831968570925794"><ele>37.142857142857146</ele><time>2026-04-04T12:44:28.001Z</time></trkpt><trkpt lat="42.69175180729236" lon="2.883099903720361"><ele>37.42857142857143</ele><time>2026-04-04T12:44:29.001Z</time></trkpt><trkpt lat="42.69172280499658" lon="2.883001918961214"><ele>37.714285714285715</ele><time>2026-04-04T12:44:30.001Z</time></trkpt><trkpt lat="42.69169828588933" lon="2.8829090585974906"><ele>38.0</ele><time>2026-04-04T12:44:31.001Z</time></trkpt><trkpt lat="42.69166660668055" lon="2.88281649010131"><ele>38.0</ele><time>2026-04-04T12:44:32Z</time></trkpt><trkpt lat="42.6916181824686" lon="2.882731943969589"><ele>38.0</ele><time>2026-04-04T12:44:33Z</time></trkpt><trkpt lat="42.691560719966624" lon="2.8826502577063295"><ele>38.0</ele><time>2026-04-04T12:44:34Z</time></trkpt><trkpt lat="42.69150838093608" lon="2.882576836163932"><ele>38.0</ele><time>2026-04-04T12:44:35Z</time></trkpt><trkpt lat="42.69145967073624" lon="2.882476602736463"><ele>38.0</ele><time>2026-04-04T12:44:36Z</time></trkpt><trkpt lat="42.69141743594304" lon="2.882376461565314"><ele>38.0</ele><time>2026-04-04T12:44:37Z</time></trkpt><trkpt lat="42.691369369057895" lon="2.8822864215704245"><ele>38.0</ele><time>2026-04-04T12:44:38Z</time></trkpt><trkpt lat="42.69132596576329" lon="2.8821931173192903"><ele>38.0</ele><time>2026-04-04T12:44:39Z</time></trkpt><trkpt lat="42.69127863453395" lon="2.88209723298471"><ele>38.0</ele><time>2026-04-04T12:44:40Z</time></trkpt><trkpt lat="42.69123571895841" lon="2.882012193399077"><ele>38.0</ele><time>2026-04-04T12:44:41Z</time></trkpt><trkpt lat="42.69120455768695" lon="2.881926074464203"><ele>38.0</ele><time>2026-04-04T12:44:42Z</time></trkpt><trkpt lat="42.691171899621644" lon="2.881849768828856"><ele>38.0</ele><time>2026-04-04T12:44:43Z</time></trkpt><trkpt lat="42.691128806575286" lon="2.8816980968298873"><ele>38.0</ele><time>2026-04-04T12:44:45Z</time></trkpt><trkpt lat="42.691075853062635" lon="2.8815684342353842"><ele>38.0</ele><time>2026-04-04T12:44:47Z</time></trkpt><trkpt lat="42.691017454946035" lon="2.8814556706313934"><ele>38.0</ele><time>2026-04-04T12:44:49Z</time></trkpt><trkpt lat="42.69096569026189" lon="2.8813851303373186"><ele>38.0</ele><time>2026-04-04T12:44:51Z</time></trkpt><trkpt lat="42.690937246513606" lon="2.8812866511233444"><ele>38.0</ele><time>2026-04-04T12:45:24Z</time></trkpt><trkpt lat="42.69089681398293" lon="2.8812048868190083"><ele>38.0</ele><time>2026-04-04T12:45:37Z</time></trkpt><trkpt lat="42.69085642223855" lon="2.8811242355070443"><ele>38.0</ele><time>2026-04-04T12:45:38Z</time></trkpt><trkpt lat="42.690811089845276" lon="2.8810355784028414"><ele>38.0</ele><time>2026-04-04T12:45:39Z</time></trkpt><trkpt lat="42.690731185047795" lon="2.8808919000095616"><ele>38.0</ele><time>2026-04-04T12:45:41Z</time></trkpt><trkpt lat="42.69068088122482" lon="2.8808040712883654"><ele>38.0</ele><time>2026-04-04T12:45:42Z</time></trkpt><trkpt lat="42.69062859204394" lon="2.8807048693058457"><ele>38.0</ele><time>2026-04-04T12:45:43Z</time></trkpt><trkpt lat="42.690577013373016" lon="2.8806123835815374"><ele>37.6</ele><time>2026-04-04T12:45:44Z</time></trkpt><trkpt lat="42.690526179807904" lon="2.8805074250817273"><ele>37.199999999999996</ele><time>2026-04-04T12:45:45Z</time></trkpt><trkpt lat="42.690473680645674" lon="2.8803926209568873"><ele>36.8</ele><time>2026-04-04T12:45:46Z</time></trkpt><trkpt lat="42.69041670388522" lon="2.880278188641076"><ele>36.4</ele><time>2026-04-04T12:45:47Z</time></trkpt><trkpt lat="42.690357863742236" lon="2.8801658755173034"><ele>36.0</ele><time>2026-04-04T12:45:48Z</time></trkpt><trkpt lat="42.690301746182044" lon="2.880058328286892"><ele>36.25</ele><time>2026-04-04T12:45:49Z</time></trkpt><trkpt lat="42.690238116410605" lon="2.8799362197479574"><ele>36.5</ele><time>2026-04-04T12:45:50Z</time></trkpt><trkpt lat="42.69017204599874" lon="2.879794605615112"><ele>36.75</ele><time>2026-04-04T12:45:51Z</time></trkpt><trkpt lat="42.69009803605306" lon="2.879662134706115"><ele>37.0</ele><time>2026-04-04T12:45:52Z</time></trkpt><trkpt lat="42.69003504945928" lon="2.879535113962393"><ele>37.0</ele><time>2026-04-04T12:45:53Z</time></trkpt><trkpt lat="42.6899728706075" lon="2.8794057616349717"><ele>37.0</ele><time>2026-04-04T12:45:54Z</time></trkpt><trkpt lat="42.68991064047018" lon="2.8792817080300503"><ele>37.0</ele><time>2026-04-04T12:45:55Z</time></trkpt><trkpt lat="42.68986025984013" lon="2.8791471822045676"><ele>37.0</ele><time>2026-04-04T12:45:56Z</time></trkpt><trkpt lat="42.689797810155476" lon="2.879018858289173"><ele>37.0</ele><time>2026-04-04T12:45:57Z</time></trkpt><trkpt lat="42.68972837882955" lon="2.878894100623276"><ele>37.0</ele><time>2026-04-04T12:45:58Z</time></trkpt><trkpt lat="42.689662597333225" lon="2.8787630740404224"><ele>37.0</ele><time>2026-04-04T12:45:59Z</time></trkpt><trkpt lat="42.6895903587227" lon="2.878621903750791"><ele>37.0</ele><time>2026-04-04T12:46:00Z</time></trkpt><trkpt lat="42.68952058124541" lon="2.8784738317902345"><ele>37.0</ele><time>2026-04-04T12:46:01Z</time></trkpt><trkpt lat="42.68945021837608" lon="2.8783259920210464"><ele>37.5</ele><time>2026-04-04T12:46:02Z</time></trkpt><trkpt lat="42.68937931616444" lon="2.878176381515382"><ele>38.0</ele><time>2026-04-04T12:46:03Z</time></trkpt><trkpt lat="42.68931376087773" lon="2.8780309590891267"><ele>38.5</ele><time>2026-04-04T12:46:04Z</time></trkpt><trkpt lat="42.68923629686333" lon="2.877880500171262"><ele>39.0</ele><time>2026-04-04T12:46:05Z</time></trkpt><trkpt lat="42.68915911751002" lon="2.8777220840470568"><ele>39.0</ele><time>2026-04-04T12:46:06Z</time></trkpt><trkpt lat="42.6890912714091" lon="2.8775671740159625"><ele>39.0</ele><time>2026-04-04T12:46:07Z</time></trkpt><trkpt lat="42.68903417800687" lon="2.877418842435236"><ele>39.0</ele><time>2026-04-04T12:46:08Z</time></trkpt><trkpt lat="42.68897897385924" lon="2.8772632623863985"><ele>39.0</ele><time>2026-04-04T12:46:09Z</time></trkpt><trkpt lat="42.688930421520936" lon="2.8771012240061333"><ele>39.0</ele><time>2026-04-04T12:46:10Z</time></trkpt><trkpt lat="42.6888797886163" lon="2.876931116240176"><ele>39.0</ele><time>2026-04-04T12:46:11Z</time></trkpt><trkpt lat="42.688822043665105" lon="2.8767452263415856"><ele>39.0</ele><time>2026-04-04T12:46:12Z</time></trkpt><trkpt lat="42.68876985355279" lon="2.876537324365002"><ele>39.0</ele><time>2026-04-04T12:46:13Z</time></trkpt><trkpt lat="42.688728482875625" lon="2.876341389262643"><ele>39.0</ele><time>2026-04-04T12:46:14Z</time></trkpt><trkpt lat="42.688684811089104" lon="2.876135151177696"><ele>39.0</ele><time>2026-04-04T12:46:15Z</time></trkpt><trkpt lat="42.68861749758982" lon="2.875888587899088"><ele>39.0</ele><time>2026-04-04T12:46:16Z</time></trkpt><trkpt lat="42.68854959063765" lon="2.8756078845953774"><ele>39.0</ele><time>2026-04-04T12:46:17Z</time></trkpt><trkpt lat="42.68848974815926" lon="2.875353676586734"><ele>39.0</ele><time>2026-04-04T12:46:18Z</time></trkpt><trkpt lat="42.688437766505835" lon="2.875129417308608"><ele>39.0</ele><time>2026-04-04T12:46:19Z</time></trkpt><trkpt lat="42.68838701996058" lon="2.8749234713346956"><ele>38.75</ele><time>2026-04-04T12:46:20Z</time></trkpt><trkpt lat="42.6883403367005" lon="2.8747389456881334"><ele>38.5</ele><time>2026-04-04T12:46:21Z</time></trkpt><trkpt lat="42.68829281438804" lon="2.8745622706903173"><ele>38.25</ele><time>2026-04-04T12:46:22Z</time></trkpt><trkpt lat="42.68824790242646" lon="2.8743936600558206"><ele>38.0</ele><time>2026-04-04T12:46:23Z</time></trkpt><trkpt lat="42.68820205568805" lon="2.8742306196585177"><ele>37.75</ele><time>2026-04-04T12:46:24.001Z</time></trkpt><trkpt lat="42.68816878984768" lon="2.8740668148007456"><ele>37.5</ele><time>2026-04-04T12:46:25.001Z</time></trkpt><trkpt lat="42.688126002286175" lon="2.873908747671835"><ele>37.25</ele><time>2026-04-04T12:46:26.001Z</time></trkpt><trkpt lat="42.688085903833986" lon="2.8737554609338947"><ele>37.0</ele><time>2026-04-04T12:46:27.001Z</time></trkpt><trkpt lat="42.68804008615796" lon="2.8735779304860634"><ele>37.25</ele><time>2026-04-04T12:46:28.001Z</time></trkpt><trkpt lat="42.68800141092292" lon="2.873392349515725"><ele>37.5</ele><time>2026-04-04T12:46:29.001Z</time></trkpt><trkpt lat="42.68793684763164" lon="2.8731961535552495"><ele>37.75</ele><time>2026-04-04T12:46:30.001Z</time></trkpt><trkpt lat="42.687892869964244" lon="2.87303380771098"><ele>38.0</ele><time>2026-04-04T12:46:31.001Z</time></trkpt><trkpt lat="42.68786601174593" lon="2.8728681528215105"><ele>38.0</ele><time>2026-04-04T12:46:32.001Z</time></trkpt><trkpt lat="42.68782906944245" lon="2.872717639578836"><ele>38.0</ele><time>2026-04-04T12:46:33.001Z</time></trkpt><trkpt lat="42.68779430766257" lon="2.8725760103573332"><ele>38.0</ele><time>2026-04-04T12:46:34.001Z</time></trkpt><trkpt lat="42.68776473943196" lon="2.8724579652898146"><ele>38.0</ele><time>2026-04-04T12:46:35.001Z</time></trkpt><trkpt lat="42.68774017075765" lon="2.8723602133528248"><ele>38.0</ele><time>2026-04-04T12:46:36.001Z</time></trkpt><trkpt lat="42.687703422069134" lon="2.872214877779146"><ele>38.0</ele><time>2026-04-04T12:46:38Z</time></trkpt><trkpt lat="42.68767935876157" lon="2.8721222366954153"><ele>38.0</ele><time>2026-04-04T12:46:40Z</time></trkpt><trkpt lat="42.687656890824435" lon="2.8720357375326246"><ele>38.0</ele><time>2026-04-04T12:46:44Z</time></trkpt><trkpt lat="42.68743793188627" lon="2.872124952147768"><ele>38.0</ele><time>2026-04-04T12:46:52Z</time></trkpt><trkpt lat="42.687368489587804" lon="2.8721741077156184"><ele>38.0</ele><time>2026-04-04T12:46:53Z</time></trkpt><trkpt lat="42.68730139323289" lon="2.872203427254031"><ele>38.0</ele><time>2026-04-04T12:46:54Z</time></trkpt><trkpt lat="42.68721858140189" lon="2.8722701899144774"><ele>38.0</ele><time>2026-04-04T12:46:55Z</time></trkpt><trkpt lat="42.687129859463596" lon="2.8723222400073087"><ele>38.0</ele><time>2026-04-04T12:46:56Z</time></trkpt><trkpt lat="42.68704426155806" lon="2.872372183757517"><ele>38.0</ele><time>2026-04-04T12:46:57Z</time></trkpt><trkpt lat="42.686962764184514" lon="2.872419734980805"><ele>38.0</ele><time>2026-04-04T12:46:58Z</time></trkpt><trkpt lat="42.6868723727193" lon="2.8724481296977413"><ele>38.0</ele><time>2026-04-04T12:46:59Z</time></trkpt><trkpt lat="42.686793622332026" lon="2.8725195538145285"><ele>38.0</ele><time>2026-04-04T12:47:00Z</time></trkpt><trkpt lat="42.68669862447366" lon="2.8725760575301407"><ele>38.0</ele><time>2026-04-04T12:47:01Z</time></trkpt><trkpt lat="42.68661411274171" lon="2.8726263242064167"><ele>38.0</ele><time>2026-04-04T12:47:02Z</time></trkpt><trkpt lat="42.68653070824898" lon="2.872660547580198"><ele>38.0</ele><time>2026-04-04T12:47:03Z</time></trkpt><trkpt lat="42.686232246361435" lon="2.872831022810733"><ele>38.25</ele><time>2026-04-04T12:47:05Z</time></trkpt><trkpt lat="42.6861330279899" lon="2.872892146215943"><ele>38.5</ele><time>2026-04-04T12:47:06Z</time></trkpt><trkpt lat="42.68603795008383" lon="2.8729732506140975"><ele>38.75</ele><time>2026-04-04T12:47:07Z</time></trkpt><trkpt lat="42.685911235997814" lon="2.873056685326733"><ele>39.0</ele><time>2026-04-04T12:47:08Z</time></trkpt><trkpt lat="42.685758186088805" lon="2.873126441871884"><ele>39.0</ele><time>2026-04-04T12:47:09Z</time></trkpt><trkpt lat="42.68563299047125" lon="2.873184200378519"><ele>39.0</ele><time>2026-04-04T12:47:10Z</time></trkpt><trkpt lat="42.68555169456551" lon="2.8732413382162623"><ele>39.0</ele><time>2026-04-04T12:47:11Z</time></trkpt><trkpt lat="42.68547653534913" lon="2.873285717191415"><ele>39.0</ele><time>2026-04-04T12:47:12Z</time></trkpt><trkpt lat="42.685412887304096" lon="2.873323239492298"><ele>39.0</ele><time>2026-04-04T12:47:13Z</time></trkpt><trkpt lat="42.685345806880775" lon="2.873362785345182"><ele>39.0</ele><time>2026-04-04T12:47:16Z</time></trkpt><trkpt lat="42.68528484707515" lon="2.87339709870396"><ele>39.0</ele><time>2026-04-04T12:47:21Z</time></trkpt><trkpt lat="42.685271333000294" lon="2.873311368012488"><ele>39.0</ele><time>2026-04-04T12:48:09Z</time></trkpt><trkpt lat="42.685240933629835" lon="2.8731746398131444"><ele>39.0</ele><time>2026-04-04T12:48:54Z</time></trkpt><trkpt lat="42.68527219587975" lon="2.8732539883378516"><ele>39.0</ele><time>2026-04-04T12:50:41.001Z</time></trkpt><trkpt lat="42.685221749029544" lon="2.873306160103532"><ele>39.0</ele><time>2026-04-04T12:51:07.001Z</time></trkpt><trkpt lat="42.68516408554433" lon="2.8733472664173756"><ele>39.0</ele><time>2026-04-04T12:51:14Z</time></trkpt><trkpt lat="42.685182638811234" lon="2.873447687749072"><ele>39.0</ele><time>2026-04-04T12:51:46Z</time></trkpt><trkpt lat="42.685277592102175" lon="2.87344031180561"><ele>39.0</ele><time>2026-04-04T12:51:48Z</time></trkpt><trkpt lat="42.68533604598095" lon="2.87340218967685"><ele>39.0</ele><time>2026-04-04T12:51:49Z</time></trkpt><trkpt lat="42.68543278234649" lon="2.873355695799312"><ele>39.0</ele><time>2026-04-04T12:51:50Z</time></trkpt><trkpt lat="42.68556886447131" lon="2.8732770460207235"><ele>39.0</ele><time>2026-04-04T12:51:51Z</time></trkpt><trkpt lat="42.685705798758065" lon="2.8731995185677994"><ele>39.0</ele><time>2026-04-04T12:51:52Z</time></trkpt><trkpt lat="42.6858254540467" lon="2.87313396814425"><ele>39.0</ele><time>2026-04-04T12:51:53Z</time></trkpt><trkpt lat="42.68592898224585" lon="2.8730780334172605"><ele>39.0</ele><time>2026-04-04T12:51:54Z</time></trkpt><trkpt lat="42.6860213409243" lon="2.8730279732153825"><ele>39.0</ele><time>2026-04-04T12:51:55Z</time></trkpt><trkpt lat="42.68610363623243" lon="2.8729906282275146"><ele>39.0</ele><time>2026-04-04T12:51:56Z</time></trkpt><trkpt lat="42.686172951141685" lon="2.8729796754467274"><ele>39.0</ele><time>2026-04-04T12:51:57Z</time></trkpt><trkpt lat="42.68621165731276" lon="2.8732946609712005"><ele>39.0</ele><time>2026-04-04T12:51:59Z</time></trkpt><trkpt lat="42.68634444944771" lon="2.873257691278819"><ele>39.0</ele><time>2026-04-04T12:52:00Z</time></trkpt><trkpt lat="42.68638448526124" lon="2.8734103059771026"><ele>39.0</ele><time>2026-04-04T12:52:01Z</time></trkpt><trkpt lat="42.6864149001077" lon="2.8735550196652166"><ele>39.0</ele><time>2026-04-04T12:52:02Z</time></trkpt><trkpt lat="42.68644045500365" lon="2.873662484793782"><ele>39.0</ele><time>2026-04-04T12:52:03Z</time></trkpt><trkpt lat="42.68646587011078" lon="2.873766368496165"><ele>39.0</ele><time>2026-04-04T12:52:04Z</time></trkpt><trkpt lat="42.68649290666311" lon="2.8738587321332876"><ele>39.0</ele><time>2026-04-04T12:52:05Z</time></trkpt><trkpt lat="42.68652042793133" lon="2.873945963302424"><ele>39.0</ele><time>2026-04-04T12:52:06Z</time></trkpt><trkpt lat="42.68655590091563" lon="2.8741100937264443"><ele>39.0</ele><time>2026-04-04T12:52:08Z</time></trkpt><trkpt lat="42.68658380053052" lon="2.8741887958837364"><ele>39.0</ele><time>2026-04-04T12:52:09Z</time></trkpt><trkpt lat="42.686557922112584" lon="2.8743028473079626"><ele>39.0</ele><time>2026-04-04T12:52:10Z</time></trkpt><trkpt lat="42.686526700759316" lon="2.874409314277374"><ele>39.0</ele><time>2026-04-04T12:52:11Z</time></trkpt><trkpt lat="42.68647595146594" lon="2.8745102678162784"><ele>39.0</ele><time>2026-04-04T12:52:12Z</time></trkpt><trkpt lat="42.68639397663482" lon="2.874604439140558"><ele>39.0</ele><time>2026-04-04T12:52:13Z</time></trkpt><trkpt lat="42.686334702134545" lon="2.874734464054799"><ele>39.0</ele><time>2026-04-04T12:52:14Z</time></trkpt><trkpt lat="42.686161830635285" lon="2.874715731011846"><ele>39.0</ele><time>2026-04-04T12:52:15Z</time></trkpt><trkpt lat="42.68602480285076" lon="2.8747441791878976"><ele>39.0</ele><time>2026-04-04T12:52:16Z</time></trkpt><trkpt lat="42.68589880933574" lon="2.874766260009023"><ele>39.0</ele><time>2026-04-04T12:52:17Z</time></trkpt><trkpt lat="42.68577965443038" lon="2.8747881805273647"><ele>39.0</ele><time>2026-04-04T12:52:18Z</time></trkpt><trkpt lat="42.6856648526846" lon="2.874812208641352"><ele>39.0</ele><time>2026-04-04T12:52:19Z</time></trkpt><trkpt lat="42.6855511009909" lon="2.874833367079907"><ele>39.0</ele><time>2026-04-04T12:52:20Z</time></trkpt><trkpt lat="42.68543984555689" lon="2.8748572704494704"><ele>39.0</ele><time>2026-04-04T12:52:21Z</time></trkpt><trkpt lat="42.68532910325546" lon="2.8748820790143856"><ele>39.5</ele><time>2026-04-04T12:52:22Z</time></trkpt><trkpt lat="42.68521587467343" lon="2.874911637240184"><ele>40.0</ele><time>2026-04-04T12:52:23Z</time></trkpt><trkpt lat="42.68509088906552" lon="2.8749519902857825"><ele>40.5</ele><time>2026-04-04T12:52:24Z</time></trkpt><trkpt lat="42.68495479534697" lon="2.8750011604956094"><ele>41.0</ele><time>2026-04-04T12:52:25Z</time></trkpt><trkpt lat="42.684820013367315" lon="2.875054066143951"><ele>41.0</ele><time>2026-04-04T12:52:26Z</time></trkpt><trkpt lat="42.68470450725604" lon="2.8750997795702133"><ele>41.0</ele><time>2026-04-04T12:52:27Z</time></trkpt><trkpt lat="42.68459967618572" lon="2.8751497261584618"><ele>41.0</ele><time>2026-04-04T12:52:28Z</time></trkpt><trkpt lat="42.684503738241716" lon="2.8751997509353964"><ele>41.0</ele><time>2026-04-04T12:52:29.001Z</time></trkpt><trkpt lat="42.68441459965823" lon="2.8752510868070127"><ele>41.0</ele><time>2026-04-04T12:52:30.001Z</time></trkpt><trkpt lat="42.68431820773783" lon="2.875307231329519"><ele>40.75</ele><time>2026-04-04T12:52:31.001Z</time></trkpt><trkpt lat="42.68420651215338" lon="2.8753759193519475"><ele>40.5</ele><time>2026-04-04T12:52:32.001Z</time></trkpt><trkpt lat="42.684093973057784" lon="2.875448002681341"><ele>40.25</ele><time>2026-04-04T12:52:33.001Z</time></trkpt><trkpt lat="42.68398057236244" lon="2.875516340395139"><ele>40.0</ele><time>2026-04-04T12:52:34.001Z</time></trkpt><trkpt lat="42.68386667383723" lon="2.8755890755986866"><ele>40.0</ele><time>2026-04-04T12:52:35.001Z</time></trkpt><trkpt lat="42.68375173201832" lon="2.875665151899613"><ele>40.0</ele><time>2026-04-04T12:52:36.001Z</time></trkpt><trkpt lat="42.68363831992528" lon="2.8757374876818713"><ele>40.0</ele><time>2026-04-04T12:52:37.001Z</time></trkpt><trkpt lat="42.68351805083646" lon="2.875813924907663"><ele>40.0</ele><time>2026-04-04T12:52:38.001Z</time></trkpt><trkpt lat="42.68339742597854" lon="2.875894493895234"><ele>39.75</ele><time>2026-04-04T12:52:39.001Z</time></trkpt><trkpt lat="42.683294638357275" lon="2.876011659968472"><ele>39.5</ele><time>2026-04-04T12:52:40.001Z</time></trkpt><trkpt lat="42.68318823876511" lon="2.8760676609920606"><ele>39.25</ele><time>2026-04-04T12:52:41.001Z</time></trkpt><trkpt lat="42.68309266000059" lon="2.8761273809484598"><ele>39.0</ele><time>2026-04-04T12:52:42.001Z</time></trkpt><trkpt lat="42.682995578933514" lon="2.876180566037616"><ele>39.0</ele><time>2026-04-04T12:52:43.001Z</time></trkpt><trkpt lat="42.682911776229446" lon="2.876241984350259"><ele>39.0</ele><time>2026-04-04T12:52:44.001Z</time></trkpt><trkpt lat="42.68283495556543" lon="2.876306781127123"><ele>39.0</ele><time>2026-04-04T12:52:45.001Z</time></trkpt><trkpt lat="42.682762211659295" lon="2.8763711627938604"><ele>39.0</ele><time>2026-04-04T12:52:46.001Z</time></trkpt><trkpt lat="42.68269856541075" lon="2.8764386192965627"><ele>39.0</ele><time>2026-04-04T12:52:47.001Z</time></trkpt><trkpt lat="42.68263101151144" lon="2.876519979899479"><ele>39.0</ele><time>2026-04-04T12:52:48.001Z</time></trkpt><trkpt lat="42.68254404332501" lon="2.876591820253707"><ele>39.0</ele><time>2026-04-04T12:52:49.001Z</time></trkpt><trkpt lat="42.68244366940438" lon="2.8766246165442677"><ele>39.0</ele><time>2026-04-04T12:52:50.001Z</time></trkpt><trkpt lat="42.68232760742684" lon="2.876622013320794"><ele>39.0</ele><time>2026-04-04T12:52:51.001Z</time></trkpt><trkpt lat="42.682238548775075" lon="2.87662988813711"><ele>39.0</ele><time>2026-04-04T12:52:52.001Z</time></trkpt><trkpt lat="42.682140250372356" lon="2.876651712999473"><ele>39.0</ele><time>2026-04-04T12:52:53.001Z</time></trkpt><trkpt lat="42.682049293607115" lon="2.8767154339834065"><ele>39.0</ele><time>2026-04-04T12:52:54.001Z</time></trkpt><trkpt lat="42.68198533509729" lon="2.876819027943776"><ele>39.0</ele><time>2026-04-04T12:52:55.001Z</time></trkpt><trkpt lat="42.68194917059213" lon="2.8769492092034077"><ele>39.0</ele><time>2026-04-04T12:52:56.001Z</time></trkpt><trkpt lat="42.68193780277795" lon="2.877107543222252"><ele>39.0</ele><time>2026-04-04T12:52:57.001Z</time></trkpt><trkpt lat="42.68193718507438" lon="2.877272556676631"><ele>39.0</ele><time>2026-04-04T12:52:58.001Z</time></trkpt><trkpt lat="42.68190536708543" lon="2.877419191052364"><ele>39.25</ele><time>2026-04-04T12:52:59.001Z</time></trkpt><trkpt lat="42.68184215258878" lon="2.877542069925652"><ele>39.5</ele><time>2026-04-04T12:53:00.001Z</time></trkpt><trkpt lat="42.68175785383933" lon="2.8776505103447705"><ele>39.75</ele><time>2026-04-04T12:53:01.001Z</time></trkpt><trkpt lat="42.68166565096464" lon="2.8777553343602293"><ele>40.0</ele><time>2026-04-04T12:53:02.001Z</time></trkpt><trkpt lat="42.68158312711673" lon="2.877860478010825"><ele>40.0</ele><time>2026-04-04T12:53:03Z</time></trkpt><trkpt lat="42.68150689086172" lon="2.877954361380566"><ele>40.0</ele><time>2026-04-04T12:53:04Z</time></trkpt><trkpt lat="42.68143719514311" lon="2.8780394443188126"><ele>40.0</ele><time>2026-04-04T12:53:05Z</time></trkpt><trkpt lat="42.68136839227229" lon="2.87811220543068"><ele>40.0</ele><time>2026-04-04T12:53:06Z</time></trkpt><trkpt lat="42.68130357007262" lon="2.8781762041544554"><ele>40.0</ele><time>2026-04-04T12:53:07Z</time></trkpt><trkpt lat="42.68123424111362" lon="2.8782437830055874"><ele>40.0</ele><time>2026-04-04T12:53:08Z</time></trkpt><trkpt lat="42.68116981000699" lon="2.878316149879678"><ele>40.0</ele><time>2026-04-04T12:53:09Z</time></trkpt><trkpt lat="42.681104084721696" lon="2.878392187022386"><ele>40.0</ele><time>2026-04-04T12:53:10Z</time></trkpt><trkpt lat="42.68103479915168" lon="2.8784638977706316"><ele>40.0</ele><time>2026-04-04T12:53:11Z</time></trkpt><trkpt lat="42.68096450734592" lon="2.8785332697524253"><ele>40.0</ele><time>2026-04-04T12:53:12Z</time></trkpt><trkpt lat="42.68089202368572" lon="2.878600751779235"><ele>40.0</ele><time>2026-04-04T12:53:13Z</time></trkpt><trkpt lat="42.68082034898452" lon="2.8786681701730306"><ele>40.0</ele><time>2026-04-04T12:53:14Z</time></trkpt><trkpt lat="42.68074957986723" lon="2.8787350020502136"><ele>39.5</ele><time>2026-04-04T12:53:15Z</time></trkpt><trkpt lat="42.68067538795943" lon="2.8788024191428354"><ele>39.0</ele><time>2026-04-04T12:53:16Z</time></trkpt><trkpt lat="42.6805988924209" lon="2.878864986306094"><ele>38.5</ele><time>2026-04-04T12:53:17Z</time></trkpt><trkpt lat="42.68052397570372" lon="2.8789233439696016"><ele>38.0</ele><time>2026-04-04T12:53:18Z</time></trkpt><trkpt lat="42.68044738501675" lon="2.8789834276275243"><ele>37.5</ele><time>2026-04-04T12:53:19Z</time></trkpt><trkpt lat="42.680372232783064" lon="2.8790448189851134"><ele>37.0</ele><time>2026-04-04T12:53:20Z</time></trkpt><trkpt lat="42.68029686186022" lon="2.879105217374944"><ele>37.16666666666667</ele><time>2026-04-04T12:53:21Z</time></trkpt><trkpt lat="42.68021943432383" lon="2.879165386565386"><ele>37.333333333333336</ele><time>2026-04-04T12:53:22Z</time></trkpt><trkpt lat="42.68014477386327" lon="2.8792219487515607"><ele>37.5</ele><time>2026-04-04T12:53:23Z</time></trkpt><trkpt lat="42.680067932304695" lon="2.879280281086817"><ele>37.666666666666664</ele><time>2026-04-04T12:53:24Z</time></trkpt><trkpt lat="42.67998693445433" lon="2.8793298754737515"><ele>37.83333333333333</ele><time>2026-04-04T12:53:25Z</time></trkpt><trkpt lat="42.67991095356836" lon="2.8793866167007427"><ele>38.0</ele><time>2026-04-04T12:53:26Z</time></trkpt><trkpt lat="42.6798326408003" lon="2.8794385439157986"><ele>38.33333333333333</ele><time>2026-04-04T12:53:27Z</time></trkpt><trkpt lat="42.67975730578522" lon="2.8795020041619637"><ele>38.666666666666664</ele><time>2026-04-04T12:53:28Z</time></trkpt><trkpt lat="42.67967928518485" lon="2.8795493891890285"><ele>39.0</ele><time>2026-04-04T12:53:29Z</time></trkpt><trkpt lat="42.679604233873285" lon="2.879600575698731"><ele>39.333333333333336</ele><time>2026-04-04T12:53:30Z</time></trkpt><trkpt lat="42.679525151869555" lon="2.8796585411158673"><ele>39.66666666666667</ele><time>2026-04-04T12:53:31Z</time></trkpt><trkpt lat="42.679448272539716" lon="2.8797135039685546"><ele>40.0</ele><time>2026-04-04T12:53:32Z</time></trkpt><trkpt lat="42.679365896430255" lon="2.8797739538467226"><ele>40.0</ele><time>2026-04-04T12:53:33Z</time></trkpt><trkpt lat="42.67928502996492" lon="2.879839364545254"><ele>40.0</ele><time>2026-04-04T12:53:34Z</time></trkpt><trkpt lat="42.679197283589765" lon="2.8799083700036334"><ele>40.0</ele><time>2026-04-04T12:53:35Z</time></trkpt><trkpt lat="42.67911614036112" lon="2.8799760139958264"><ele>40.0</ele><time>2026-04-04T12:53:36Z</time></trkpt><trkpt lat="42.679035898754705" lon="2.8800405087273555"><ele>40.0</ele><time>2026-04-04T12:53:37Z</time></trkpt><trkpt lat="42.67895567137759" lon="2.880103765867893"><ele>40.0</ele><time>2026-04-04T12:53:38Z</time></trkpt><trkpt lat="42.67889982083046" lon="2.8801559784447126"><ele>40.0</ele><time>2026-04-04T12:53:39Z</time></trkpt><trkpt lat="42.678843169089724" lon="2.880206242723143"><ele>40.0</ele><time>2026-04-04T12:53:40Z</time></trkpt><trkpt lat="42.678788941106625" lon="2.8802591836322464"><ele>40.0</ele><time>2026-04-04T12:53:41Z</time></trkpt><trkpt lat="42.678730387543744" lon="2.880317427832525"><ele>40.0</ele><time>2026-04-04T12:53:42Z</time></trkpt><trkpt lat="42.67867796485531" lon="2.8803659300040665"><ele>40.0</ele><time>2026-04-04T12:53:43Z</time></trkpt><trkpt lat="42.678598784473756" lon="2.880442240722328"><ele>40.0</ele><time>2026-04-04T12:53:45Z</time></trkpt><trkpt lat="42.678499479436795" lon="2.8805257697088504"><ele>40.5</ele><time>2026-04-04T12:53:47Z</time></trkpt><trkpt lat="42.67843577186955" lon="2.8805443420257655"><ele>41.0</ele><time>2026-04-04T12:53:48Z</time></trkpt><trkpt lat="42.67831374637098" lon="2.880541079463016"><ele>41.5</ele><time>2026-04-04T12:53:50Z</time></trkpt><trkpt lat="42.67824685701825" lon="2.880520070401791"><ele>42.0</ele><time>2026-04-04T12:53:51Z</time></trkpt><trkpt lat="42.67818368101273" lon="2.8805194844248247"><ele>42.5</ele><time>2026-04-04T12:53:52Z</time></trkpt><trkpt lat="42.67807967980685" lon="2.8806048295442475"><ele>43.0</ele><time>2026-04-04T12:53:54Z</time></trkpt><trkpt lat="42.67804104076916" lon="2.880681054673539"><ele>43.00000000000001</ele><time>2026-04-04T12:53:55Z</time></trkpt><trkpt lat="42.678015241375704" lon="2.8807652205676777"><ele>43.0</ele><time>2026-04-04T12:53:56Z</time></trkpt><trkpt lat="42.678000888087446" lon="2.8808505823422506"><ele>43.0</ele><time>2026-04-04T12:53:57Z</time></trkpt><trkpt lat="42.67800273240736" lon="2.880980497521932"><ele>43.0</ele><time>2026-04-04T12:53:59Z</time></trkpt><trkpt lat="42.67800309502374" lon="2.8810903068986335"><ele>43.0</ele><time>2026-04-04T12:54:02Z</time></trkpt><trkpt lat="42.67798287993352" lon="2.8811734308005144"><ele>43.00000000000001</ele><time>2026-04-04T12:54:03Z</time></trkpt><trkpt lat="42.67791779683159" lon="2.88122452736453"><ele>43.0</ele><time>2026-04-04T12:54:05Z</time></trkpt><trkpt lat="42.67782568051297" lon="2.8813319406055506"><ele>43.0</ele><time>2026-04-04T12:54:07Z</time></trkpt><trkpt lat="42.677769400224385" lon="2.881392898599464"><ele>43.0</ele><time>2026-04-04T12:54:08Z</time></trkpt><trkpt lat="42.67770312599034" lon="2.8814567604041708"><ele>43.0</ele><time>2026-04-04T12:54:09Z</time></trkpt><trkpt lat="42.677628728378" lon="2.8815376509768185"><ele>43.0</ele><time>2026-04-04T12:54:10Z</time></trkpt><trkpt lat="42.67757433302592" lon="2.8815992929263206"><ele>43.0</ele><time>2026-04-04T12:54:11Z</time></trkpt><trkpt lat="42.67751597729776" lon="2.8816605600333287"><ele>43.0</ele><time>2026-04-04T12:54:12Z</time></trkpt><trkpt lat="42.677454435919365" lon="2.8817202409798566"><ele>43.66666666666667</ele><time>2026-04-04T12:54:13Z</time></trkpt><trkpt lat="42.67739025640152" lon="2.8817870905126344"><ele>44.333333333333336</ele><time>2026-04-04T12:54:14Z</time></trkpt><trkpt lat="42.67732934711494" lon="2.881860461110181"><ele>45.0</ele><time>2026-04-04T12:54:15Z</time></trkpt><trkpt lat="42.6772674628146" lon="2.881935072636705"><ele>45.666666666666664</ele><time>2026-04-04T12:54:16Z</time></trkpt><trkpt lat="42.67720419005949" lon="2.8820036314964734"><ele>46.33333333333333</ele><time>2026-04-04T12:54:17Z</time></trkpt><trkpt lat="42.67714223048668" lon="2.8820687407001317"><ele>47.0</ele><time>2026-04-04T12:54:18Z</time></trkpt><trkpt lat="42.67708364876449" lon="2.882137160527333"><ele>47.0</ele><time>2026-04-04T12:54:19Z</time></trkpt><trkpt lat="42.6770248272212" lon="2.882203661839084"><ele>47.0</ele><time>2026-04-04T12:54:20Z</time></trkpt><trkpt lat="42.67696279409174" lon="2.8822641456016163"><ele>47.0</ele><time>2026-04-04T12:54:21Z</time></trkpt><trkpt lat="42.6768964612865" lon="2.882331856453828"><ele>47.0</ele><time>2026-04-04T12:54:22Z</time></trkpt><trkpt lat="42.67683720222253" lon="2.8823973771751112"><ele>47.0</ele><time>2026-04-04T12:54:23Z</time></trkpt><trkpt lat="42.67677820592785" lon="2.882461896326442"><ele>47.0</ele><time>2026-04-04T12:54:24Z</time></trkpt><trkpt lat="42.67671169964571" lon="2.882526876758072"><ele>47.5</ele><time>2026-04-04T12:54:25Z</time></trkpt><trkpt lat="42.67664585721755" lon="2.8825927997133918"><ele>48.0</ele><time>2026-04-04T12:54:26Z</time></trkpt><trkpt lat="42.676581648726504" lon="2.882656638981361"><ele>48.5</ele><time>2026-04-04T12:54:27Z</time></trkpt><trkpt lat="42.67652042807299" lon="2.882721874625735"><ele>49.0</ele><time>2026-04-04T12:54:28Z</time></trkpt><trkpt lat="42.67645650895619" lon="2.8827804439950535"><ele>49.50000000000001</ele><time>2026-04-04T12:54:29Z</time></trkpt><trkpt lat="42.676395832046396" lon="2.8828387413124"><ele>50.0</ele><time>2026-04-04T12:54:30Z</time></trkpt><trkpt lat="42.676335146221845" lon="2.8829087293732467"><ele>50.00000000000001</ele><time>2026-04-04T12:54:31Z</time></trkpt><trkpt lat="42.676271524430064" lon="2.882975038250622"><ele>50.0</ele><time>2026-04-04T12:54:32Z</time></trkpt><trkpt lat="42.6762063443107" lon="2.883041955954155"><ele>50.0</ele><time>2026-04-04T12:54:33Z</time></trkpt><trkpt lat="42.67614488314309" lon="2.883111485047511"><ele>50.0</ele><time>2026-04-04T12:54:34Z</time></trkpt><trkpt lat="42.67608325035006" lon="2.8831830106317864"><ele>50.00000000000001</ele><time>2026-04-04T12:54:35Z</time></trkpt><trkpt lat="42.676020147071526" lon="2.883257133948231"><ele>50.0</ele><time>2026-04-04T12:54:36Z</time></trkpt><trkpt lat="42.67595958444399" lon="2.8833368345378383"><ele>50.333333333333336</ele><time>2026-04-04T12:54:37Z</time></trkpt><trkpt lat="42.67590254008223" lon="2.8834138799146594"><ele>50.66666666666667</ele><time>2026-04-04T12:54:38Z</time></trkpt><trkpt lat="42.675848294637476" lon="2.883488644750178"><ele>51.0</ele><time>2026-04-04T12:54:39Z</time></trkpt><trkpt lat="42.675794766603595" lon="2.883561688526002"><ele>51.33333333333333</ele><time>2026-04-04T12:54:40Z</time></trkpt><trkpt lat="42.67573770363321" lon="2.8836407535716515"><ele>51.666666666666664</ele><time>2026-04-04T12:54:41Z</time></trkpt><trkpt lat="42.67567980706115" lon="2.883733093023148"><ele>52.0</ele><time>2026-04-04T12:54:42Z</time></trkpt><trkpt lat="42.67561689177504" lon="2.883827849379695"><ele>51.166666666666664</ele><time>2026-04-04T12:54:43Z</time></trkpt><trkpt lat="42.67556130347546" lon="2.883915194400565"><ele>50.33333333333333</ele><time>2026-04-04T12:54:44Z</time></trkpt><trkpt lat="42.67550829212036" lon="2.8840005060625793"><ele>49.5</ele><time>2026-04-04T12:54:45Z</time></trkpt><trkpt lat="42.67545696670854" lon="2.8840853196191354"><ele>48.666666666666664</ele><time>2026-04-04T12:54:46Z</time></trkpt><trkpt lat="42.67540802711606" lon="2.884175132777858"><ele>47.83333333333333</ele><time>2026-04-04T12:54:47Z</time></trkpt><trkpt lat="42.67535901446229" lon="2.88426908591484"><ele>47.0</ele><time>2026-04-04T12:54:48Z</time></trkpt><trkpt lat="42.67530762295399" lon="2.884362246241053"><ele>47.5</ele><time>2026-04-04T12:54:49Z</time></trkpt><trkpt lat="42.675258593118485" lon="2.884455438265913"><ele>48.0</ele><time>2026-04-04T12:54:50Z</time></trkpt><trkpt lat="42.675216870674156" lon="2.884553385971825"><ele>48.5</ele><time>2026-04-04T12:54:51Z</time></trkpt><trkpt lat="42.675173220617324" lon="2.884655910790791"><ele>49.0</ele><time>2026-04-04T12:54:52Z</time></trkpt><trkpt lat="42.675127612473446" lon="2.8847573749846873"><ele>49.50000000000001</ele><time>2026-04-04T12:54:53Z</time></trkpt><trkpt lat="42.67508742344502" lon="2.8848630678996394"><ele>50.0</ele><time>2026-04-04T12:54:54Z</time></trkpt><trkpt lat="42.67504347639884" lon="2.8849623868950323"><ele>50.00000000000001</ele><time>2026-04-04T12:54:55Z</time></trkpt><trkpt lat="42.67500406855185" lon="2.8850667232458354"><ele>50.0</ele><time>2026-04-04T12:54:56Z</time></trkpt><trkpt lat="42.67496489685" lon="2.8851682182729346"><ele>50.0</ele><time>2026-04-04T12:54:57Z</time></trkpt><trkpt lat="42.674929175054416" lon="2.8852587607839255"><ele>50.0</ele><time>2026-04-04T12:54:58Z</time></trkpt><trkpt lat="42.67489530094406" lon="2.8853476542938896"><ele>50.00000000000001</ele><time>2026-04-04T12:54:59Z</time></trkpt><trkpt lat="42.6748563056216" lon="2.8854376300471136"><ele>50.0</ele><time>2026-04-04T12:55:00Z</time></trkpt><trkpt lat="42.67481844529653" lon="2.885524826858881"><ele>49.66666666666667</ele><time>2026-04-04T12:55:01Z</time></trkpt><trkpt lat="42.674781330466146" lon="2.8856176745073734"><ele>49.333333333333336</ele><time>2026-04-04T12:55:02Z</time></trkpt><trkpt lat="42.674747424340694" lon="2.8857069714987023"><ele>49.0</ele><time>2026-04-04T12:55:03Z</time></trkpt><trkpt lat="42.67470999816102" lon="2.8858014028463788"><ele>48.66666666666667</ele><time>2026-04-04T12:55:04Z</time></trkpt><trkpt lat="42.67467402139036" lon="2.8858962108359405"><ele>48.333333333333336</ele><time>2026-04-04T12:55:05Z</time></trkpt><trkpt lat="42.67463909821169" lon="2.88599447215152"><ele>48.0</ele><time>2026-04-04T12:55:06Z</time></trkpt><trkpt lat="42.674600958354084" lon="2.8860934487024816"><ele>48.0</ele><time>2026-04-04T12:55:07Z</time></trkpt><trkpt lat="42.67455452713023" lon="2.886200523060537"><ele>48.0</ele><time>2026-04-04T12:55:08Z</time></trkpt><trkpt lat="42.6745138124203" lon="2.8863013640105866"><ele>48.0</ele><time>2026-04-04T12:55:09Z</time></trkpt><trkpt lat="42.67446994795067" lon="2.8863940259172334"><ele>48.0</ele><time>2026-04-04T12:55:10Z</time></trkpt><trkpt lat="42.6744381052302" lon="2.886495761699731"><ele>48.0</ele><time>2026-04-04T12:55:11Z</time></trkpt><trkpt lat="42.674401503874726" lon="2.8865931741143096"><ele>48.0</ele><time>2026-04-04T12:55:12Z</time></trkpt><trkpt lat="42.6743555553959" lon="2.886690487002804"><ele>48.166666666666664</ele><time>2026-04-04T12:55:13Z</time></trkpt><trkpt lat="42.67431519083571" lon="2.8867896545830516"><ele>48.33333333333333</ele><time>2026-04-04T12:55:14Z</time></trkpt><trkpt lat="42.67427808511423" lon="2.8868937657709304"><ele>48.5</ele><time>2026-04-04T12:55:15Z</time></trkpt><trkpt lat="42.674237643343155" lon="2.8869980568809503"><ele>48.666666666666664</ele><time>2026-04-04T12:55:16Z</time></trkpt><trkpt lat="42.67420063045654" lon="2.887083843948645"><ele>48.83333333333333</ele><time>2026-04-04T12:55:17Z</time></trkpt><trkpt lat="42.67413606645303" lon="2.8872115031101693"><ele>49.0</ele><time>2026-04-04T12:55:19Z</time></trkpt><trkpt lat="42.67406972447341" lon="2.887313427557447"><ele>48.99999999999999</ele><time>2026-04-04T12:55:21Z</time></trkpt><trkpt lat="42.67401413343839" lon="2.887392971497349"><ele>49.0</ele><time>2026-04-04T12:55:24Z</time></trkpt><trkpt lat="42.67393618235775" lon="2.887446882869145"><ele>49.0</ele><time>2026-04-04T12:55:27Z</time></trkpt><trkpt lat="42.67386238920294" lon="2.8874828301736"><ele>49.0</ele><time>2026-04-04T12:55:28Z</time></trkpt><trkpt lat="42.673769704114164" lon="2.8875094274584843"><ele>48.99999999999999</ele><time>2026-04-04T12:55:29Z</time></trkpt><trkpt lat="42.67367205559195" lon="2.8875377588465745"><ele>49.0</ele><time>2026-04-04T12:55:31Z</time></trkpt><trkpt lat="42.67358970744959" lon="2.887522670772695"><ele>49.400000000000006</ele><time>2026-04-04T12:55:32Z</time></trkpt><trkpt lat="42.67349936903727" lon="2.887469734426304"><ele>49.8</ele><time>2026-04-04T12:55:33Z</time></trkpt><trkpt lat="42.67340428458129" lon="2.887389548303015"><ele>50.2</ele><time>2026-04-04T12:55:34Z</time></trkpt><trkpt lat="42.673315091968476" lon="2.887302326223405"><ele>50.599999999999994</ele><time>2026-04-04T12:55:35Z</time></trkpt><trkpt lat="42.6732158089734" lon="2.8872243702025955"><ele>51.0</ele><time>2026-04-04T12:55:36Z</time></trkpt><trkpt lat="42.67310918933598" lon="2.8871404988891323"><ele>51.0</ele><time>2026-04-04T12:55:37Z</time></trkpt><trkpt lat="42.67300493170887" lon="2.887061811838535"><ele>51.0</ele><time>2026-04-04T12:55:38Z</time></trkpt><trkpt lat="42.6729024316337" lon="2.886990575193472"><ele>51.0</ele><time>2026-04-04T12:55:39Z</time></trkpt><trkpt lat="42.67279126576251" lon="2.8869095766248445"><ele>51.0</ele><time>2026-04-04T12:55:40Z</time></trkpt><trkpt lat="42.67268150971117" lon="2.886826010445854"><ele>52.25</ele><time>2026-04-04T12:55:41Z</time></trkpt><trkpt lat="42.672579807429216" lon="2.88674493945625"><ele>53.5</ele><time>2026-04-04T12:55:42Z</time></trkpt><trkpt lat="42.67247628394316" lon="2.8866675316167467"><ele>54.75</ele><time>2026-04-04T12:55:43Z</time></trkpt><trkpt lat="42.67236543745237" lon="2.886583604961106"><ele>56.0</ele><time>2026-04-04T12:55:44Z</time></trkpt><trkpt lat="42.672248369908175" lon="2.8864987000997573"><ele>56.0</ele><time>2026-04-04T12:55:45Z</time></trkpt><trkpt lat="42.67213845027279" lon="2.886406253707328"><ele>56.0</ele><time>2026-04-04T12:55:46Z</time></trkpt><trkpt lat="42.67202481505137" lon="2.8863116447011583"><ele>56.0</ele><time>2026-04-04T12:55:47Z</time></trkpt><trkpt lat="42.67190960504902" lon="2.8862209513139754"><ele>56.0</ele><time>2026-04-04T12:55:48Z</time></trkpt><trkpt lat="42.671785007503345" lon="2.886127311299538"><ele>56.75</ele><time>2026-04-04T12:55:49Z</time></trkpt><trkpt lat="42.67164414559436" lon="2.8860215140454146"><ele>57.5</ele><time>2026-04-04T12:55:50Z</time></trkpt><trkpt lat="42.67151779878036" lon="2.885922551428956"><ele>58.25</ele><time>2026-04-04T12:55:51Z</time></trkpt><trkpt lat="42.67140827020193" lon="2.8858404551014547"><ele>59.0</ele><time>2026-04-04T12:55:52Z</time></trkpt><trkpt lat="42.671317552448535" lon="2.8857766485829353"><ele>59.400000000000006</ele><time>2026-04-04T12:55:53Z</time></trkpt><trkpt lat="42.67122955747653" lon="2.8856987769899294"><ele>59.800000000000004</ele><time>2026-04-04T12:55:54Z</time></trkpt><trkpt lat="42.67113932754857" lon="2.8856238372335627"><ele>60.199999999999996</ele><time>2026-04-04T12:55:55Z</time></trkpt><trkpt lat="42.671042204448824" lon="2.88554478256345"><ele>60.599999999999994</ele><time>2026-04-04T12:55:56Z</time></trkpt><trkpt lat="42.670937888204655" lon="2.885459388426511"><ele>61.0</ele><time>2026-04-04T12:55:57Z</time></trkpt><trkpt lat="42.67083766685488" lon="2.8853847971015125"><ele>62.25</ele><time>2026-04-04T12:55:58Z</time></trkpt><trkpt lat="42.670740617139074" lon="2.8853127863083268"><ele>63.5</ele><time>2026-04-04T12:55:59Z</time></trkpt><trkpt lat="42.670641597270645" lon="2.885241770863432"><ele>64.75</ele><time>2026-04-04T12:56:00Z</time></trkpt><trkpt lat="42.670542623600014" lon="2.885166552404276"><ele>66.0</ele><time>2026-04-04T12:56:01Z</time></trkpt><trkpt lat="42.670429690960155" lon="2.885120747028224"><ele>65.75</ele><time>2026-04-04T12:56:02Z</time></trkpt><trkpt lat="42.67031793127748" lon="2.8850575715511364"><ele>65.5</ele><time>2026-04-04T12:56:03Z</time></trkpt><trkpt lat="42.67019695681895" lon="2.8849929390375624"><ele>65.25</ele><time>2026-04-04T12:56:04Z</time></trkpt><trkpt lat="42.67006966305361" lon="2.884930222469193"><ele>65.0</ele><time>2026-04-04T12:56:05Z</time></trkpt><trkpt lat="42.66994485792702" lon="2.8848688131775146"><ele>65.0</ele><time>2026-04-04T12:56:06Z</time></trkpt><trkpt lat="42.66982385298527" lon="2.8847936643714474"><ele>65.0</ele><time>2026-04-04T12:56:07Z</time></trkpt><trkpt lat="42.66969606389874" lon="2.8847456084288607"><ele>65.0</ele><time>2026-04-04T12:56:08Z</time></trkpt><trkpt lat="42.66956607782165" lon="2.8846954801667857"><ele>65.0</ele><time>2026-04-04T12:56:09Z</time></trkpt><trkpt lat="42.669439774928385" lon="2.884642105862782"><ele>64.25</ele><time>2026-04-04T12:56:10Z</time></trkpt><trkpt lat="42.6693108674403" lon="2.884593694311358"><ele>63.5</ele><time>2026-04-04T12:56:11Z</time></trkpt><trkpt lat="42.66918435973439" lon="2.8845461074215324"><ele>62.75</ele><time>2026-04-04T12:56:12Z</time></trkpt><trkpt lat="42.66906337772335" lon="2.8845020551329843"><ele>62.0</ele><time>2026-04-04T12:56:13Z</time></trkpt><trkpt lat="42.668946738868996" lon="2.884463139114124"><ele>62.0</ele><time>2026-04-04T12:56:14Z</time></trkpt><trkpt lat="42.668835626914614" lon="2.8844255130107794"><ele>62.0</ele><time>2026-04-04T12:56:15Z</time></trkpt><trkpt lat="42.66872747828984" lon="2.8843863446302995"><ele>62.0</ele><time>2026-04-04T12:56:16Z</time></trkpt><trkpt lat="42.66861582252913" lon="2.884358435290263"><ele>62.0</ele><time>2026-04-04T12:56:17Z</time></trkpt><trkpt lat="42.66850216314984" lon="2.8843382555378065"><ele>61.75</ele><time>2026-04-04T12:56:18Z</time></trkpt><trkpt lat="42.66838572491841" lon="2.8843057133500154"><ele>61.5</ele><time>2026-04-04T12:56:19Z</time></trkpt><trkpt lat="42.66826676695445" lon="2.884283520254537"><ele>61.25</ele><time>2026-04-04T12:56:20Z</time></trkpt><trkpt lat="42.668146929290884" lon="2.8842663947488627"><ele>61.0</ele><time>2026-04-04T12:56:21Z</time></trkpt><trkpt lat="42.66803313258113" lon="2.884237981295789"><ele>61.0</ele><time>2026-04-04T12:56:22Z</time></trkpt><trkpt lat="42.66792476684758" lon="2.88422094267945"><ele>60.99999999999999</ele><time>2026-04-04T12:56:23Z</time></trkpt><trkpt lat="42.66781978937639" lon="2.8842091917130888"><ele>60.99999999999999</ele><time>2026-04-04T12:56:24Z</time></trkpt><trkpt lat="42.66771769337609" lon="2.8841848985053153"><ele>61.0</ele><time>2026-04-04T12:56:25Z</time></trkpt><trkpt lat="42.66761896190541" lon="2.8841912565917727"><ele>61.0</ele><time>2026-04-04T12:56:26Z</time></trkpt><trkpt lat="42.66752300586077" lon="2.88417892787624"><ele>60.25</ele><time>2026-04-04T12:56:27Z</time></trkpt><trkpt lat="42.66742342433278" lon="2.8841673770952783"><ele>59.5</ele><time>2026-04-04T12:56:28Z</time></trkpt><trkpt lat="42.66731969474372" lon="2.8841529338552347"><ele>58.75</ele><time>2026-04-04T12:56:29Z</time></trkpt><trkpt lat="42.667246654093674" lon="2.883975066371619"><ele>58.0</ele><time>2026-04-04T12:56:30Z</time></trkpt><trkpt lat="42.6671928292832" lon="2.883848055297611"><ele>58.0</ele><time>2026-04-04T12:56:31Z</time></trkpt><trkpt lat="42.667159969613316" lon="2.8837007527463063"><ele>58.0</ele><time>2026-04-04T12:56:32Z</time></trkpt><trkpt lat="42.667160602440156" lon="2.8835661254734033"><ele>58.0</ele><time>2026-04-04T12:56:33Z</time></trkpt><trkpt lat="42.6671817565397" lon="2.8834589363308494"><ele>58.0</ele><time>2026-04-04T12:56:34Z</time></trkpt><trkpt lat="42.66720759170492" lon="2.8833726410661713"><ele>58.0</ele><time>2026-04-04T12:56:35Z</time></trkpt><trkpt lat="42.66724840874381" lon="2.8832565687251748"><ele>58.4</ele><time>2026-04-04T12:56:37Z</time></trkpt><trkpt lat="42.66729037870155" lon="2.8831923350251802"><ele>58.8</ele><time>2026-04-04T12:56:39Z</time></trkpt><trkpt lat="42.6673578050355" lon="2.8831273648087574"><ele>59.2</ele><time>2026-04-04T12:56:41Z</time></trkpt><trkpt lat="42.66744761753569" lon="2.883037240866274"><ele>59.6</ele><time>2026-04-04T12:56:43Z</time></trkpt><trkpt lat="42.6675224632832" lon="2.8829417998008533"><ele>60.0</ele><time>2026-04-04T12:56:45Z</time></trkpt><trkpt lat="42.667644659155165" lon="2.8830827423862644"><ele>60.0</ele><time>2026-04-04T12:56:47Z</time></trkpt><trkpt lat="42.66769421559391" lon="2.8831415534227958"><ele>60.0</ele><time>2026-04-04T12:56:48Z</time></trkpt><trkpt lat="42.667690595122295" lon="2.8832566151774395"><ele>60.0</ele><time>2026-04-04T12:56:49Z</time></trkpt><trkpt lat="42.6676374637896" lon="2.8833564983552957"><ele>60.0</ele><time>2026-04-04T12:56:50Z</time></trkpt><trkpt lat="42.66759466844387" lon="2.88345620518214"><ele>60.0</ele><time>2026-04-04T12:56:51Z</time></trkpt><trkpt lat="42.667554235127874" lon="2.883559375074274"><ele>60.0</ele><time>2026-04-04T12:56:52Z</time></trkpt><trkpt lat="42.66752396018321" lon="2.8836491111756883"><ele>60.166666666666664</ele><time>2026-04-04T12:56:53Z</time></trkpt><trkpt lat="42.66750920501843" lon="2.883740148746719"><ele>60.33333333333333</ele><time>2026-04-04T12:56:54Z</time></trkpt><trkpt lat="42.667520980637896" lon="2.8838337089530994"><ele>60.5</ele><time>2026-04-04T12:56:55Z</time></trkpt><trkpt lat="42.66756127218424" lon="2.8839148892293807"><ele>60.666666666666664</ele><time>2026-04-04T12:56:56Z</time></trkpt><trkpt lat="42.66761918666881" lon="2.883963988220281"><ele>60.83333333333333</ele><time>2026-04-04T12:56:57Z</time></trkpt><trkpt lat="42.66769648711693" lon="2.883986923716263"><ele>61.0</ele><time>2026-04-04T12:56:58Z</time></trkpt><trkpt lat="42.667789821522824" lon="2.8839723281810445"><ele>60.99999999999999</ele><time>2026-04-04T12:56:59Z</time></trkpt><trkpt lat="42.6678809759413" lon="2.883983979476102"><ele>61.0</ele><time>2026-04-04T12:57:00Z</time></trkpt><trkpt lat="42.66794979693343" lon="2.884029018583716"><ele>61.0</ele><time>2026-04-04T12:57:01Z</time></trkpt><trkpt lat="42.66802597126881" lon="2.8840541428434863"><ele>61.0</ele><time>2026-04-04T12:57:02Z</time></trkpt><trkpt lat="42.66810294809851" lon="2.884074736977299"><ele>60.99999999999999</ele><time>2026-04-04T12:57:03Z</time></trkpt><trkpt lat="42.668180222988624" lon="2.884097308816936"><ele>61.0</ele><time>2026-04-04T12:57:04Z</time></trkpt><trkpt lat="42.668255305612" lon="2.884124813628785"><ele>60.99999999999999</ele><time>2026-04-04T12:57:05Z</time></trkpt><trkpt lat="42.66832934088483" lon="2.884147038570658"><ele>61.0</ele><time>2026-04-04T12:57:06Z</time></trkpt><trkpt lat="42.66840257131872" lon="2.8841679351643394"><ele>61.0</ele><time>2026-04-04T12:57:07Z</time></trkpt><trkpt lat="42.66847514967494" lon="2.8841892382751695"><ele>61.0</ele><time>2026-04-04T12:57:08Z</time></trkpt><trkpt lat="42.668538311098125" lon="2.8842108583491957"><ele>60.99999999999999</ele><time>2026-04-04T12:57:09Z</time></trkpt><trkpt lat="42.66864606653649" lon="2.88422970410865"><ele>61.0</ele><time>2026-04-04T12:57:11Z</time></trkpt><trkpt lat="42.668691095964775" lon="2.884027235498536"><ele>61.33333333333333</ele><time>2026-04-04T12:57:14Z</time></trkpt><trkpt lat="42.6686981973826" lon="2.8839328730374914"><ele>61.666666666666664</ele><time>2026-04-04T12:57:15Z</time></trkpt><trkpt lat="42.668691621370165" lon="2.8837790042425047"><ele>62.0</ele><time>2026-04-04T12:57:17Z</time></trkpt><trkpt lat="42.66869754029885" lon="2.883652791656745"><ele>62.33333333333333</ele><time>2026-04-04T12:57:19Z</time></trkpt><trkpt lat="42.668684831766285" lon="2.8835558219701127"><ele>62.666666666666664</ele><time>2026-04-04T12:57:21Z</time></trkpt><trkpt lat="42.6686837996967" lon="2.8834658236148067"><ele>63.0</ele><time>2026-04-04T12:57:25Z</time></trkpt><trkpt lat="42.66867947374989" lon="2.883369978372427"><ele>62.599999999999994</ele><time>2026-04-04T12:57:30Z</time></trkpt><trkpt lat="42.668568327834194" lon="2.883373056421862"><ele>62.199999999999996</ele><time>2026-04-04T12:57:33Z</time></trkpt><trkpt lat="42.668493050903116" lon="2.883360736917161"><ele>61.8</ele><time>2026-04-04T12:57:35Z</time></trkpt><trkpt lat="42.6684221616029" lon="2.883364846435587"><ele>61.4</ele><time>2026-04-04T12:57:37Z</time></trkpt><trkpt lat="42.66835533614877" lon="2.8833687203682303"><ele>61.0</ele><time>2026-04-04T12:57:39Z</time></trkpt><trkpt lat="42.66829636506243" lon="2.883602797195553"><ele>61.0</ele><time>2026-04-04T12:57:40Z</time></trkpt><trkpt lat="42.66836308287108" lon="2.8837262189706827"><ele>61.0</ele><time>2026-04-04T12:57:42Z</time></trkpt><trkpt lat="42.6683460840261" lon="2.8838263481310955"><ele>61.0</ele><time>2026-04-04T12:57:45Z</time></trkpt><trkpt lat="42.668980582965204" lon="2.8847706981256245"><ele>61.25</ele><time>2026-04-04T13:01:11Z</time></trkpt><trkpt lat="42.669093446896625" lon="2.884801567371952"><ele>61.5</ele><time>2026-04-04T13:01:12Z</time></trkpt><trkpt lat="42.66921178171177" lon="2.884829503723345"><ele>61.75</ele><time>2026-04-04T13:01:13Z</time></trkpt><trkpt lat="42.66934027690427" lon="2.8848349392748145"><ele>62.0</ele><time>2026-04-04T13:01:14Z</time></trkpt><trkpt lat="42.669464208673354" lon="2.8848952023689285"><ele>62.75</ele><time>2026-04-04T13:01:15Z</time></trkpt><trkpt lat="42.66958254627244" lon="2.8849437784209457"><ele>63.5</ele><time>2026-04-04T13:01:16Z</time></trkpt><trkpt lat="42.669698579533865" lon="2.8849879092033506"><ele>64.25</ele><time>2026-04-04T13:01:17Z</time></trkpt><trkpt lat="42.6698269535839" lon="2.885026721204657"><ele>65.0</ele><time>2026-04-04T13:01:18Z</time></trkpt><trkpt lat="42.66994988734381" lon="2.8850747207504464"><ele>65.25</ele><time>2026-04-04T13:01:19Z</time></trkpt><trkpt lat="42.67006802288839" lon="2.8851278142908696"><ele>65.5</ele><time>2026-04-04T13:01:20Z</time></trkpt><trkpt lat="42.670183825486816" lon="2.885182836676434"><ele>65.75</ele><time>2026-04-04T13:01:21Z</time></trkpt><trkpt lat="42.67030018230002" lon="2.885246040916674"><ele>66.0</ele><time>2026-04-04T13:01:22Z</time></trkpt><trkpt lat="42.6704149447492" lon="2.8853174198997222"><ele>66.0</ele><time>2026-04-04T13:01:23Z</time></trkpt><trkpt lat="42.67052693956352" lon="2.88539325411729"><ele>66.0</ele><time>2026-04-04T13:01:24Z</time></trkpt><trkpt lat="42.67063051801961" lon="2.8854677134486195"><ele>66.0</ele><time>2026-04-04T13:01:25Z</time></trkpt><trkpt lat="42.670725205583025" lon="2.885541165143549"><ele>66.0</ele><time>2026-04-04T13:01:26Z</time></trkpt><trkpt lat="42.67082046772803" lon="2.885596965206442"><ele>66.0</ele><time>2026-04-04T13:01:27Z</time></trkpt><trkpt lat="42.67090975659498" lon="2.8856714890549564"><ele>66.0</ele><time>2026-04-04T13:01:28Z</time></trkpt><trkpt lat="42.67100301178839" lon="2.8857415997997338"><ele>66.0</ele><time>2026-04-04T13:01:29Z</time></trkpt><trkpt lat="42.67109533843634" lon="2.8858221351639135"><ele>66.0</ele><time>2026-04-04T13:01:30Z</time></trkpt><trkpt lat="42.671200695639854" lon="2.885910102925446"><ele>66.0</ele><time>2026-04-04T13:01:31Z</time></trkpt><trkpt lat="42.67130382440138" lon="2.88599324572352"><ele>64.6</ele><time>2026-04-04T13:01:32Z</time></trkpt><trkpt lat="42.671405346904756" lon="2.886068899280063"><ele>63.199999999999996</ele><time>2026-04-04T13:01:33Z</time></trkpt><trkpt lat="42.67150082412464" lon="2.886143986225477"><ele>61.800000000000004</ele><time>2026-04-04T13:01:34Z</time></trkpt><trkpt lat="42.671599055715724" lon="2.8862190655266184"><ele>60.400000000000006</ele><time>2026-04-04T13:01:35Z</time></trkpt><trkpt lat="42.671692701197145" lon="2.8862939933168636"><ele>59.0</ele><time>2026-04-04T13:01:36Z</time></trkpt><trkpt lat="42.6717814206563" lon="2.8863674603228913"><ele>59.0</ele><time>2026-04-04T13:01:37Z</time></trkpt><trkpt lat="42.67186973981758" lon="2.886434700646741"><ele>59.00000000000001</ele><time>2026-04-04T13:01:38Z</time></trkpt><trkpt lat="42.671957351549" lon="2.886498061756116"><ele>59.00000000000001</ele><time>2026-04-04T13:01:39Z</time></trkpt><trkpt lat="42.672042415604366" lon="2.886563829508406"><ele>59.0</ele><time>2026-04-04T13:01:40Z</time></trkpt><trkpt lat="42.67212697315874" lon="2.886624809538221"><ele>59.0</ele><time>2026-04-04T13:01:41Z</time></trkpt><trkpt lat="42.67220947695675" lon="2.8866875523789526"><ele>58.50000000000001</ele><time>2026-04-04T13:01:42Z</time></trkpt><trkpt lat="42.672288825992986" lon="2.8867487544628325"><ele>58.0</ele><time>2026-04-04T13:01:43Z</time></trkpt><trkpt lat="42.67236820093028" lon="2.886807448172025"><ele>57.5</ele><time>2026-04-04T13:01:44Z</time></trkpt><trkpt lat="42.67244251384609" lon="2.886872709625775"><ele>57.0</ele><time>2026-04-04T13:01:45Z</time></trkpt><trkpt lat="42.67251243181853" lon="2.886941625577381"><ele>56.50000000000001</ele><time>2026-04-04T13:01:46Z</time></trkpt><trkpt lat="42.67258987391522" lon="2.886983261677781"><ele>56.0</ele><time>2026-04-04T13:01:47Z</time></trkpt><trkpt lat="42.67266134713109" lon="2.8870407362508748"><ele>55.50000000000001</ele><time>2026-04-04T13:01:48Z</time></trkpt><trkpt lat="42.672730674189374" lon="2.887095043935651"><ele>55.0</ele><time>2026-04-04T13:01:49Z</time></trkpt><trkpt lat="42.672799562845974" lon="2.887147836116447"><ele>54.5</ele><time>2026-04-04T13:01:50Z</time></trkpt><trkpt lat="42.67286781468159" lon="2.887200140277598"><ele>54.0</ele><time>2026-04-04T13:01:51Z</time></trkpt><trkpt lat="42.672926918486986" lon="2.887270649472177"><ele>53.50000000000001</ele><time>2026-04-04T13:01:52Z</time></trkpt><trkpt lat="42.67299273246082" lon="2.887317842140801"><ele>53.0</ele><time>2026-04-04T13:01:53Z</time></trkpt><trkpt lat="42.67305989908832" lon="2.8873529334701225"><ele>52.66666666666667</ele><time>2026-04-04T13:01:54Z</time></trkpt><trkpt lat="42.67311322040404" lon="2.887418534619235"><ele>52.333333333333336</ele><time>2026-04-04T13:01:55Z</time></trkpt><trkpt lat="42.6731744925556" lon="2.887456425279143"><ele>52.0</ele><time>2026-04-04T13:01:56Z</time></trkpt><trkpt lat="42.67323225838611" lon="2.887506874757756"><ele>51.66666666666667</ele><time>2026-04-04T13:01:57Z</time></trkpt><trkpt lat="42.67329581890767" lon="2.8875331170353262"><ele>51.333333333333336</ele><time>2026-04-04T13:01:58Z</time></trkpt><trkpt lat="42.6733939751847" lon="2.8876181977877287"><ele>51.0</ele><time>2026-04-04T13:02:00Z</time></trkpt><trkpt lat="42.67348144016021" lon="2.8877128963525274"><ele>50.4</ele><time>2026-04-04T13:02:02Z</time></trkpt><trkpt lat="42.67355713604392" lon="2.8878260390500374"><ele>49.8</ele><time>2026-04-04T13:02:04Z</time></trkpt><trkpt lat="42.67360222104737" lon="2.8878998163245027"><ele>49.199999999999996</ele><time>2026-04-04T13:02:05Z</time></trkpt><trkpt lat="42.67362064007665" lon="2.888099249116241"><ele>48.599999999999994</ele><time>2026-04-04T13:02:07Z</time></trkpt><trkpt lat="42.67364519162381" lon="2.888186955504879"><ele>48.0</ele><time>2026-04-04T13:02:08Z</time></trkpt><trkpt lat="42.67368323759666" lon="2.888267170093117"><ele>48.0</ele><time>2026-04-04T13:02:09Z</time></trkpt><trkpt lat="42.67373365141286" lon="2.8883408319338337"><ele>48.0</ele><time>2026-04-04T13:02:10Z</time></trkpt><trkpt lat="42.67379806649084" lon="2.8884014177510604"><ele>48.0</ele><time>2026-04-04T13:02:11Z</time></trkpt><trkpt lat="42.67388093622742" lon="2.8884534677110887"><ele>48.0</ele><time>2026-04-04T13:02:12Z</time></trkpt><trkpt lat="42.67396208672972" lon="2.8884724818070264"><ele>48.0</ele><time>2026-04-04T13:02:13Z</time></trkpt><trkpt lat="42.67404267759432" lon="2.8884632877114242"><ele>48.0</ele><time>2026-04-04T13:02:14Z</time></trkpt><trkpt lat="42.67412027648554" lon="2.8884303791707078"><ele>48.0</ele><time>2026-04-04T13:02:15Z</time></trkpt><trkpt lat="42.67419470062532" lon="2.888393344073733"><ele>48.0</ele><time>2026-04-04T13:02:16Z</time></trkpt><trkpt lat="42.674281255146134" lon="2.8883686720689434"><ele>48.0</ele><time>2026-04-04T13:02:17Z</time></trkpt><trkpt lat="42.674362838163475" lon="2.888377983416347"><ele>48.0</ele><time>2026-04-04T13:02:18Z</time></trkpt><trkpt lat="42.67444029132287" lon="2.888409304581804"><ele>48.0</ele><time>2026-04-04T13:02:19Z</time></trkpt><trkpt lat="42.674510176774945" lon="2.8884607233520128"><ele>48.0</ele><time>2026-04-04T13:02:20Z</time></trkpt><trkpt lat="42.67457696941046" lon="2.888512376971554"><ele>47.599999999999994</ele><time>2026-04-04T13:02:21Z</time></trkpt><trkpt lat="42.674652156714046" lon="2.8885648260894197"><ele>47.199999999999996</ele><time>2026-04-04T13:02:22Z</time></trkpt><trkpt lat="42.67472607939006" lon="2.888622597402133"><ele>46.8</ele><time>2026-04-04T13:02:23Z</time></trkpt><trkpt lat="42.67480695485034" lon="2.888684331024139"><ele>46.4</ele><time>2026-04-04T13:02:24Z</time></trkpt><trkpt lat="42.67489999725944" lon="2.888755597553847"><ele>46.0</ele><time>2026-04-04T13:02:25Z</time></trkpt><trkpt lat="42.67499992531789" lon="2.8888261474000645"><ele>46.0</ele><time>2026-04-04T13:02:26Z</time></trkpt><trkpt lat="42.675105377274086" lon="2.8889063612199934"><ele>46.0</ele><time>2026-04-04T13:02:27Z</time></trkpt><trkpt lat="42.6752011336021" lon="2.8889831416712752"><ele>46.0</ele><time>2026-04-04T13:02:28Z</time></trkpt><trkpt lat="42.675296881567185" lon="2.889055686454891"><ele>46.0</ele><time>2026-04-04T13:02:29Z</time></trkpt><trkpt lat="42.67539613557602" lon="2.889134711244427"><ele>46.5</ele><time>2026-04-04T13:02:30Z</time></trkpt><trkpt lat="42.67550231392821" lon="2.8892229415425494"><ele>47.0</ele><time>2026-04-04T13:02:31Z</time></trkpt><trkpt lat="42.67561339281934" lon="2.8893253816466684"><ele>47.5</ele><time>2026-04-04T13:02:32Z</time></trkpt><trkpt lat="42.67573007347638" lon="2.889433232103415"><ele>48.0</ele><time>2026-04-04T13:02:33Z</time></trkpt><trkpt lat="42.675871169519006" lon="2.8895328643405325"><ele>48.0</ele><time>2026-04-04T13:02:34Z</time></trkpt><trkpt lat="42.67605230688947" lon="2.8896505260313594"><ele>48.0</ele><time>2026-04-04T13:02:35Z</time></trkpt><trkpt lat="42.676102726903956" lon="2.8897213627282796"><ele>48.0</ele><time>2026-04-04T13:02:36Z</time></trkpt><trkpt lat="42.67618908240394" lon="2.8897995258056413"><ele>48.0</ele><time>2026-04-04T13:02:37Z</time></trkpt><trkpt lat="42.67631059875547" lon="2.8898961495196605"><ele>48.2</ele><time>2026-04-04T13:02:38Z</time></trkpt><trkpt lat="42.67640498739146" lon="2.889972178803431"><ele>48.4</ele><time>2026-04-04T13:02:39Z</time></trkpt><trkpt lat="42.67649487909156" lon="2.890042229012398"><ele>48.6</ele><time>2026-04-04T13:02:40Z</time></trkpt><trkpt lat="42.676576777845185" lon="2.890106572720479"><ele>48.800000000000004</ele><time>2026-04-04T13:02:41Z</time></trkpt><trkpt lat="42.6766543821788" lon="2.8901738370375645"><ele>49.0</ele><time>2026-04-04T13:02:42Z</time></trkpt><trkpt lat="42.67672885078758" lon="2.8902404318564607"><ele>49.0</ele><time>2026-04-04T13:02:43Z</time></trkpt><trkpt lat="42.67680990166166" lon="2.890301587867771"><ele>49.0</ele><time>2026-04-04T13:02:44Z</time></trkpt><trkpt lat="42.67689391425462" lon="2.890362696228276"><ele>49.0</ele><time>2026-04-04T13:02:45Z</time></trkpt><trkpt lat="42.676974362785735" lon="2.8904286168965467"><ele>49.0</ele><time>2026-04-04T13:02:46Z</time></trkpt><trkpt lat="42.67705060394754" lon="2.8904952031528586"><ele>49.0</ele><time>2026-04-04T13:02:47Z</time></trkpt><trkpt lat="42.67712762801196" lon="2.8905561284392016"><ele>48.83333333333333</ele><time>2026-04-04T13:02:48Z</time></trkpt><trkpt lat="42.67720080463644" lon="2.8906121649759187"><ele>48.666666666666664</ele><time>2026-04-04T13:02:49Z</time></trkpt><trkpt lat="42.67727482524662" lon="2.8906719174443007"><ele>48.5</ele><time>2026-04-04T13:02:50Z</time></trkpt><trkpt lat="42.677342522642675" lon="2.890723678562801"><ele>48.33333333333333</ele><time>2026-04-04T13:02:51Z</time></trkpt><trkpt lat="42.67740819383097" lon="2.8907701830472337"><ele>48.166666666666664</ele><time>2026-04-04T13:02:52Z</time></trkpt><trkpt lat="42.67747002550249" lon="2.890817116575626"><ele>48.0</ele><time>2026-04-04T13:02:53Z</time></trkpt><trkpt lat="42.67752905961664" lon="2.8908611059319997"><ele>48.2</ele><time>2026-04-04T13:02:54Z</time></trkpt><trkpt lat="42.67762359576737" lon="2.890937864073289"><ele>48.4</ele><time>2026-04-04T13:02:56Z</time></trkpt><trkpt lat="42.67771304032975" lon="2.891016123111691"><ele>48.6</ele><time>2026-04-04T13:02:58Z</time></trkpt><trkpt lat="42.677802984944805" lon="2.8910934534524304"><ele>48.800000000000004</ele><time>2026-04-04T13:03:00Z</time></trkpt><trkpt lat="42.6778999668056" lon="2.891171499044493"><ele>49.0</ele><time>2026-04-04T13:03:02Z</time></trkpt><trkpt lat="42.678002174902076" lon="2.891262891195631"><ele>48.99999999999999</ele><time>2026-04-04T13:03:04Z</time></trkpt><trkpt lat="42.67806053617152" lon="2.891323543371334"><ele>49.0</ele><time>2026-04-04T13:03:05Z</time></trkpt><trkpt lat="42.678110192480155" lon="2.891376640179801"><ele>49.0</ele><time>2026-04-04T13:03:06Z</time></trkpt><trkpt lat="42.67816681965912" lon="2.8914651994705234"><ele>49.0</ele><time>2026-04-04T13:03:08Z</time></trkpt><trkpt lat="42.67821140322234" lon="2.891544844441008"><ele>48.99999999999999</ele><time>2026-04-04T13:03:10Z</time></trkpt><trkpt lat="42.67825143050718" lon="2.891650965804719"><ele>49.0</ele><time>2026-04-04T13:03:12Z</time></trkpt><trkpt lat="42.67830630189279" lon="2.891783287532556"><ele>48.83333333333333</ele><time>2026-04-04T13:03:14Z</time></trkpt><trkpt lat="42.67836044115802" lon="2.8918308830282555"><ele>48.666666666666664</ele><time>2026-04-04T13:03:15Z</time></trkpt><trkpt lat="42.678488806657" lon="2.8918565309374618"><ele>48.5</ele><time>2026-04-04T13:03:17Z</time></trkpt><trkpt lat="42.67856140910118" lon="2.8918471583795644"><ele>48.33333333333333</ele><time>2026-04-04T13:03:18Z</time></trkpt><trkpt lat="42.67862886174202" lon="2.8918448416722384"><ele>48.166666666666664</ele><time>2026-04-04T13:03:19Z</time></trkpt><trkpt lat="42.67869872566158" lon="2.891853232772806"><ele>48.0</ele><time>2026-04-04T13:03:20Z</time></trkpt><trkpt lat="42.67876919494778" lon="2.8918823758043377"><ele>47.8</ele><time>2026-04-04T13:03:21Z</time></trkpt><trkpt lat="42.6788384040656" lon="2.8919320947921126"><ele>47.599999999999994</ele><time>2026-04-04T13:03:22Z</time></trkpt><trkpt lat="42.67890605134574" lon="2.89200062774692"><ele>47.400000000000006</ele><time>2026-04-04T13:03:23Z</time></trkpt><trkpt lat="42.67899039978747" lon="2.8920722114646944"><ele>47.2</ele><time>2026-04-04T13:03:24Z</time></trkpt><trkpt lat="42.67907467080484" lon="2.892136350697041"><ele>47.0</ele><time>2026-04-04T13:03:25Z</time></trkpt><trkpt lat="42.67915851652794" lon="2.8921949925719517"><ele>47.0</ele><time>2026-04-04T13:03:26Z</time></trkpt><trkpt lat="42.6792438977719" lon="2.89226137575602"><ele>47.0</ele><time>2026-04-04T13:03:27Z</time></trkpt><trkpt lat="42.679330619443896" lon="2.892331969361474"><ele>47.0</ele><time>2026-04-04T13:03:28Z</time></trkpt><trkpt lat="42.67941546696447" lon="2.8924022197589374"><ele>47.0</ele><time>2026-04-04T13:03:29Z</time></trkpt><trkpt lat="42.679506192061424" lon="2.892469659209924"><ele>47.0</ele><time>2026-04-04T13:03:30Z</time></trkpt><trkpt lat="42.67958987104963" lon="2.892545440565684"><ele>47.400000000000006</ele><time>2026-04-04T13:03:31Z</time></trkpt><trkpt lat="42.67967415672061" lon="2.892615439200109"><ele>47.800000000000004</ele><time>2026-04-04T13:03:32Z</time></trkpt><trkpt lat="42.679763273914354" lon="2.8926858470623276"><ele>48.2</ele><time>2026-04-04T13:03:33Z</time></trkpt><trkpt lat="42.67985123305498" lon="2.8927527892007103"><ele>48.6</ele><time>2026-04-04T13:03:34Z</time></trkpt><trkpt lat="42.6799378689562" lon="2.892823726326229"><ele>49.0</ele><time>2026-04-04T13:03:35Z</time></trkpt><trkpt lat="42.680021393269634" lon="2.8928961437815723"><ele>49.0</ele><time>2026-04-04T13:03:36Z</time></trkpt><trkpt lat="42.68011519605494" lon="2.8929755234806778"><ele>49.0</ele><time>2026-04-04T13:03:37Z</time></trkpt><trkpt lat="42.680218773272095" lon="2.8930528019010286"><ele>49.0</ele><time>2026-04-04T13:03:38Z</time></trkpt><trkpt lat="42.68031246373675" lon="2.89312534599123"><ele>49.0</ele><time>2026-04-04T13:03:39Z</time></trkpt><trkpt lat="42.680398675084916" lon="2.893197036406139"><ele>49.0</ele><time>2026-04-04T13:03:40Z</time></trkpt><trkpt lat="42.68047943852109" lon="2.8932580353301236"><ele>48.99999999999999</ele><time>2026-04-04T13:03:41Z</time></trkpt><trkpt lat="42.68055195252868" lon="2.893315480892572"><ele>49.0</ele><time>2026-04-04T13:03:42Z</time></trkpt><trkpt lat="42.68061460937619" lon="2.8933709879091842"><ele>49.0</ele><time>2026-04-04T13:03:43Z</time></trkpt><trkpt lat="42.680679406575095" lon="2.8934216622219124"><ele>49.0</ele><time>2026-04-04T13:03:44Z</time></trkpt><trkpt lat="42.680743358557415" lon="2.8934737456907027"><ele>48.99999999999999</ele><time>2026-04-04T13:03:45Z</time></trkpt><trkpt lat="42.68080772561347" lon="2.893524137902387"><ele>49.0</ele><time>2026-04-04T13:03:46Z</time></trkpt><trkpt lat="42.6809087238421" lon="2.8936074086335917"><ele>49.400000000000006</ele><time>2026-04-04T13:03:48Z</time></trkpt><trkpt lat="42.68098772249679" lon="2.893686005986357"><ele>49.8</ele><time>2026-04-04T13:03:50Z</time></trkpt><trkpt lat="42.6810269054583" lon="2.8937614689242697"><ele>50.2</ele><time>2026-04-04T13:03:52Z</time></trkpt><trkpt lat="42.68105324026385" lon="2.8938570719083074"><ele>50.599999999999994</ele><time>2026-04-04T13:03:55Z</time></trkpt><trkpt lat="42.681097424038896" lon="2.8939711138844553"><ele>51.0</ele><time>2026-04-04T13:03:57Z</time></trkpt><trkpt lat="42.68119304146371" lon="2.8940686863182195"><ele>52.199999999999996</ele><time>2026-04-04T13:03:59Z</time></trkpt><trkpt lat="42.6812808277869" lon="2.8941122745473407"><ele>53.4</ele><time>2026-04-04T13:04:00Z</time></trkpt><trkpt lat="42.68136429059019" lon="2.894112480030467"><ele>54.6</ele><time>2026-04-04T13:04:01Z</time></trkpt><trkpt lat="42.68145442845226" lon="2.8941095743004306"><ele>55.8</ele><time>2026-04-04T13:04:02Z</time></trkpt><trkpt lat="42.68155182815531" lon="2.8941322517189807"><ele>57.0</ele><time>2026-04-04T13:04:03Z</time></trkpt><trkpt lat="42.68165067786793" lon="2.894181961991694"><ele>57.25</ele><time>2026-04-04T13:04:04Z</time></trkpt><trkpt lat="42.68175264866989" lon="2.894259952782301"><ele>57.5</ele><time>2026-04-04T13:04:05Z</time></trkpt><trkpt lat="42.68183614986072" lon="2.8943251082133856"><ele>57.75</ele><time>2026-04-04T13:04:06Z</time></trkpt><trkpt lat="42.68194026094328" lon="2.8944102765242032"><ele>58.0</ele><time>2026-04-04T13:04:07Z</time></trkpt><trkpt lat="42.68204455629714" lon="2.894492917205994"><ele>58.75</ele><time>2026-04-04T13:04:08Z</time></trkpt><trkpt lat="42.68215370137729" lon="2.894578728248701"><ele>59.5</ele><time>2026-04-04T13:04:09Z</time></trkpt><trkpt lat="42.682259232664144" lon="2.8946653780839213"><ele>60.25</ele><time>2026-04-04T13:04:10Z</time></trkpt><trkpt lat="42.682366071121" lon="2.894754595450763"><ele>61.0</ele><time>2026-04-04T13:04:11Z</time></trkpt><trkpt lat="42.68247382820656" lon="2.894839098076692"><ele>61.0</ele><time>2026-04-04T13:04:12Z</time></trkpt><trkpt lat="42.68258171298508" lon="2.8949233133080434"><ele>61.0</ele><time>2026-04-04T13:04:13Z</time></trkpt><trkpt lat="42.68270415891808" lon="2.895028598745547"><ele>61.0</ele><time>2026-04-04T13:04:14Z</time></trkpt><trkpt lat="42.68285177913735" lon="2.8951439279721574"><ele>61.0</ele><time>2026-04-04T13:04:15Z</time></trkpt><trkpt lat="42.68302291786038" lon="2.8952758462263075"><ele>59.33333333333333</ele><time>2026-04-04T13:04:16Z</time></trkpt><trkpt lat="42.68320587930795" lon="2.895427783744307"><ele>57.66666666666667</ele><time>2026-04-04T13:04:17Z</time></trkpt><trkpt lat="42.68338316412297" lon="2.8955702188567303"><ele>56.0</ele><time>2026-04-04T13:04:18Z</time></trkpt><trkpt lat="42.683542986700516" lon="2.895696460194091"><ele>55.333333333333336</ele><time>2026-04-04T13:04:19Z</time></trkpt><trkpt lat="42.683697908654025" lon="2.8958062693234763"><ele>54.66666666666667</ele><time>2026-04-04T13:04:20Z</time></trkpt><trkpt lat="42.68384543182523" lon="2.8959007879789076"><ele>54.0</ele><time>2026-04-04T13:04:21Z</time></trkpt><trkpt lat="42.68399047869403" lon="2.8959742031746853"><ele>53.5</ele><time>2026-04-04T13:04:22Z</time></trkpt><trkpt lat="42.684132244682" lon="2.896037610774353"><ele>53.0</ele><time>2026-04-04T13:04:23Z</time></trkpt><trkpt lat="42.68427065424028" lon="2.896090746418129"><ele>52.5</ele><time>2026-04-04T13:04:24Z</time></trkpt><trkpt lat="42.68440418662492" lon="2.8961382471689894"><ele>52.0</ele><time>2026-04-04T13:04:25Z</time></trkpt><trkpt lat="42.68453299910965" lon="2.8961811923525507"><ele>52.0</ele><time>2026-04-04T13:04:26Z</time></trkpt><trkpt lat="42.68466074716947" lon="2.8962195984614114"><ele>52.0</ele><time>2026-04-04T13:04:27Z</time></trkpt><trkpt lat="42.68479016065908" lon="2.896253570262356"><ele>52.0</ele><time>2026-04-04T13:04:28Z</time></trkpt><trkpt lat="42.68493347199068" lon="2.8962568637780373"><ele>52.0</ele><time>2026-04-04T13:04:29Z</time></trkpt><trkpt lat="42.68506439226562" lon="2.89625650184268"><ele>52.0</ele><time>2026-04-04T13:04:30Z</time></trkpt><trkpt lat="42.685187160811225" lon="2.8962561733844225"><ele>52.0</ele><time>2026-04-04T13:04:31Z</time></trkpt><trkpt lat="42.68530562754028" lon="2.896258212121889"><ele>52.0</ele><time>2026-04-04T13:04:32Z</time></trkpt><trkpt lat="42.68542872750113" lon="2.8962553238165714"><ele>52.0</ele><time>2026-04-04T13:04:33Z</time></trkpt><trkpt lat="42.685556503717876" lon="2.8962434272813797"><ele>51.5</ele><time>2026-04-04T13:04:34Z</time></trkpt><trkpt lat="42.68569406581908" lon="2.896228789326934"><ele>51.0</ele><time>2026-04-04T13:04:35Z</time></trkpt><trkpt lat="42.68582075347597" lon="2.8962040921649197"><ele>50.5</ele><time>2026-04-04T13:04:36Z</time></trkpt><trkpt lat="42.6859420497425" lon="2.896172242917754"><ele>50.0</ele><time>2026-04-04T13:04:37Z</time></trkpt><trkpt lat="42.686064519455485" lon="2.896128218881662"><ele>49.2</ele><time>2026-04-04T13:04:38Z</time></trkpt><trkpt lat="42.686179665901534" lon="2.8960870303006225"><ele>48.4</ele><time>2026-04-04T13:04:39Z</time></trkpt><trkpt lat="42.68629005965691" lon="2.896047213116415"><ele>47.599999999999994</ele><time>2026-04-04T13:04:40Z</time></trkpt><trkpt lat="42.68639556695161" lon="2.8960040089147343"><ele>46.8</ele><time>2026-04-04T13:04:41Z</time></trkpt><trkpt lat="42.68649631326049" lon="2.895960589921803"><ele>46.0</ele><time>2026-04-04T13:04:42Z</time></trkpt><trkpt lat="42.68659250036855" lon="2.895920282388469"><ele>46.199999999999996</ele><time>2026-04-04T13:04:43Z</time></trkpt><trkpt lat="42.68668600060013" lon="2.8958813030592245"><ele>46.4</ele><time>2026-04-04T13:04:44Z</time></trkpt><trkpt lat="42.68677893826802" lon="2.8958401772169773"><ele>46.6</ele><time>2026-04-04T13:04:45Z</time></trkpt><trkpt lat="42.68686754584752" lon="2.8957952220598173"><ele>46.8</ele><time>2026-04-04T13:04:46Z</time></trkpt><trkpt lat="42.686953532291554" lon="2.8957531975651642"><ele>47.0</ele><time>2026-04-04T13:04:47Z</time></trkpt><trkpt lat="42.68705270345629" lon="2.8956983117767408"><ele>46.25</ele><time>2026-04-04T13:04:48Z</time></trkpt><trkpt lat="42.68716340441088" lon="2.895627874481703"><ele>45.5</ele><time>2026-04-04T13:04:49Z</time></trkpt><trkpt lat="42.68727922383171" lon="2.8955560474178568"><ele>44.75</ele><time>2026-04-04T13:04:50Z</time></trkpt><trkpt lat="42.68741029566007" lon="2.895481879425796"><ele>44.0</ele><time>2026-04-04T13:04:51Z</time></trkpt><trkpt lat="42.687535980968576" lon="2.895415899683631"><ele>44.0</ele><time>2026-04-04T13:04:52Z</time></trkpt><trkpt lat="42.687661130455915" lon="2.8953522690903717"><ele>44.0</ele><time>2026-04-04T13:04:53Z</time></trkpt><trkpt lat="42.68777461267774" lon="2.8952956515495134"><ele>44.0</ele><time>2026-04-04T13:04:54Z</time></trkpt><trkpt lat="42.687884710016235" lon="2.89525065255457"><ele>44.0</ele><time>2026-04-04T13:04:55Z</time></trkpt><trkpt lat="42.68798823567098" lon="2.895211891196189"><ele>43.666666666666664</ele><time>2026-04-04T13:04:56Z</time></trkpt><trkpt lat="42.68807884441639" lon="2.895174950320856"><ele>43.33333333333333</ele><time>2026-04-04T13:04:57Z</time></trkpt><trkpt lat="42.6881573883534" lon="2.8951396019638036"><ele>43.0</ele><time>2026-04-04T13:04:58Z</time></trkpt><trkpt lat="42.68822306747701" lon="2.89510510324877"><ele>42.666666666666664</ele><time>2026-04-04T13:04:59Z</time></trkpt><trkpt lat="42.68828360112852" lon="2.895073367399446"><ele>42.333333333333336</ele><time>2026-04-04T13:05:00Z</time></trkpt><trkpt lat="42.68840096498611" lon="2.895034294216962"><ele>42.0</ele><time>2026-04-04T13:05:02Z</time></trkpt><trkpt lat="42.68848224894575" lon="2.895044109323077"><ele>42.0</ele><time>2026-04-04T13:05:03Z</time></trkpt><trkpt lat="42.68856575646236" lon="2.8950733721221065"><ele>42.0</ele><time>2026-04-04T13:05:04Z</time></trkpt><trkpt lat="42.68864748576976" lon="2.8950528959898327"><ele>42.0</ele><time>2026-04-04T13:05:05Z</time></trkpt><trkpt lat="42.68871502267557" lon="2.8949907575700125"><ele>42.0</ele><time>2026-04-04T13:05:06Z</time></trkpt><trkpt lat="42.68876875117053" lon="2.894905126660693"><ele>42.0</ele><time>2026-04-04T13:05:07Z</time></trkpt><trkpt lat="42.6888173095311" lon="2.894823761686321"><ele>42.0</ele><time>2026-04-04T13:05:08Z</time></trkpt><trkpt lat="42.688875615338404" lon="2.894760182887753"><ele>41.833333333333336</ele><time>2026-04-04T13:05:09Z</time></trkpt><trkpt lat="42.6889402775514" lon="2.894711470120541"><ele>41.666666666666664</ele><time>2026-04-04T13:05:10Z</time></trkpt><trkpt lat="42.68902050993615" lon="2.8946654014356956"><ele>41.5</ele><time>2026-04-04T13:05:11Z</time></trkpt><trkpt lat="42.689094698055705" lon="2.8946270211845557"><ele>41.33333333333333</ele><time>2026-04-04T13:05:12Z</time></trkpt><trkpt lat="42.689170302019136" lon="2.8945858760631604"><ele>41.166666666666664</ele><time>2026-04-04T13:05:13Z</time></trkpt><trkpt lat="42.68923325709386" lon="2.8945457454419903"><ele>41.0</ele><time>2026-04-04T13:05:14Z</time></trkpt><trkpt lat="42.68930258462511" lon="2.89450247148595"><ele>41.0</ele><time>2026-04-04T13:05:15Z</time></trkpt><trkpt lat="42.68936577178592" lon="2.8944664484184264"><ele>41.0</ele><time>2026-04-04T13:05:16Z</time></trkpt><trkpt lat="42.68943170762346" lon="2.8944270350700534"><ele>41.0</ele><time>2026-04-04T13:05:17Z</time></trkpt><trkpt lat="42.68949928206269" lon="2.894387605589778"><ele>41.0</ele><time>2026-04-04T13:05:18Z</time></trkpt><trkpt lat="42.689574466415515" lon="2.894344466042765"><ele>41.0</ele><time>2026-04-04T13:05:19Z</time></trkpt><trkpt lat="42.68965135821772" lon="2.894292496640923"><ele>41.0</ele><time>2026-04-04T13:05:20Z</time></trkpt><trkpt lat="42.68973358049952" lon="2.894259783319528"><ele>40.83333333333333</ele><time>2026-04-04T13:05:21Z</time></trkpt><trkpt lat="42.6898089138756" lon="2.8942298491930485"><ele>40.666666666666664</ele><time>2026-04-04T13:05:22Z</time></trkpt><trkpt lat="42.6898918482506" lon="2.894189865222605"><ele>40.5</ele><time>2026-04-04T13:05:23Z</time></trkpt><trkpt lat="42.689974875143534" lon="2.8941665074035665"><ele>40.333333333333336</ele><time>2026-04-04T13:05:24Z</time></trkpt><trkpt lat="42.69004732191928" lon="2.894130639976654"><ele>40.16666666666667</ele><time>2026-04-04T13:05:25Z</time></trkpt><trkpt lat="42.690111231203815" lon="2.894084104628382"><ele>40.0</ele><time>2026-04-04T13:05:26Z</time></trkpt><trkpt lat="42.69017222050766" lon="2.894054702852977"><ele>40.0</ele><time>2026-04-04T13:05:27Z</time></trkpt><trkpt lat="42.690232981533796" lon="2.894020657349879"><ele>40.0</ele><time>2026-04-04T13:05:28Z</time></trkpt><trkpt lat="42.69028743256653" lon="2.893977408825464"><ele>40.0</ele><time>2026-04-04T13:05:29Z</time></trkpt><trkpt lat="42.69034921772929" lon="2.8939360166186705"><ele>40.0</ele><time>2026-04-04T13:05:30Z</time></trkpt><trkpt lat="42.69040905339891" lon="2.89390764386126"><ele>40.0</ele><time>2026-04-04T13:05:31Z</time></trkpt><trkpt lat="42.69046819811321" lon="2.8938778457513834"><ele>40.0</ele><time>2026-04-04T13:05:32Z</time></trkpt><trkpt lat="42.69052983877615" lon="2.8938453463809597"><ele>40.0</ele><time>2026-04-04T13:05:33Z</time></trkpt><trkpt lat="42.6905859015188" lon="2.8938056565899557"><ele>41.0</ele><time>2026-04-04T13:05:34Z</time></trkpt><trkpt lat="42.69069473490871" lon="2.8937564612802595"><ele>42.0</ele><time>2026-04-04T13:05:36Z</time></trkpt><trkpt lat="42.690799650356034" lon="2.893692384612501"><ele>43.0</ele><time>2026-04-04T13:05:38Z</time></trkpt><trkpt lat="42.69089924990368" lon="2.8936329569167074"><ele>44.0</ele><time>2026-04-04T13:05:40Z</time></trkpt><trkpt lat="42.69101588728861" lon="2.89357253417892"><ele>43.800000000000004</ele><time>2026-04-04T13:05:42Z</time></trkpt><trkpt lat="42.69111393130215" lon="2.8935256433114973"><ele>43.6</ele><time>2026-04-04T13:05:44Z</time></trkpt><trkpt lat="42.6912103308337" lon="2.893496085838002"><ele>43.4</ele><time>2026-04-04T13:05:46Z</time></trkpt><trkpt lat="42.69127799642812" lon="2.8934507856672664"><ele>43.2</ele><time>2026-04-04T13:05:48Z</time></trkpt><trkpt lat="42.69134900458113" lon="2.8933984138127173"><ele>43.0</ele><time>2026-04-04T13:05:51Z</time></trkpt><trkpt lat="42.6914893079797" lon="2.893326447075165"><ele>43.0</ele><time>2026-04-04T13:06:15Z</time></trkpt><trkpt lat="42.691566846891014" lon="2.8932771199805005"><ele>43.0</ele><time>2026-04-04T13:06:16Z</time></trkpt><trkpt lat="42.69164389730711" lon="2.8932022727187987"><ele>43.0</ele><time>2026-04-04T13:06:17Z</time></trkpt><trkpt lat="42.69171641483037" lon="2.893111277230056"><ele>43.0</ele><time>2026-04-04T13:06:18Z</time></trkpt><trkpt lat="42.69179137196581" lon="2.8930048025641844"><ele>43.0</ele><time>2026-04-04T13:06:19Z</time></trkpt><trkpt lat="42.69187510753561" lon="2.8928934856801307"><ele>43.8</ele><time>2026-04-04T13:06:20Z</time></trkpt><trkpt lat="42.69196283004687" lon="2.8927774805585256"><ele>44.599999999999994</ele><time>2026-04-04T13:06:21Z</time></trkpt><trkpt lat="42.692042986237574" lon="2.8926695825875837"><ele>45.400000000000006</ele><time>2026-04-04T13:06:22Z</time></trkpt><trkpt lat="42.692118978536584" lon="2.892569740230344"><ele>46.2</ele><time>2026-04-04T13:06:23Z</time></trkpt><trkpt lat="42.69219332728393" lon="2.892466280320629"><ele>47.0</ele><time>2026-04-04T13:06:24Z</time></trkpt><trkpt lat="42.69226608279913" lon="2.8923733418373656"><ele>47.0</ele><time>2026-04-04T13:06:25Z</time></trkpt><trkpt lat="42.692340970384464" lon="2.892278890750876"><ele>47.0</ele><time>2026-04-04T13:06:26Z</time></trkpt><trkpt lat="42.69241251175975" lon="2.892182860507556"><ele>47.0</ele><time>2026-04-04T13:06:27Z</time></trkpt><trkpt lat="42.6924736322505" lon="2.8920946442472855"><ele>47.0</ele><time>2026-04-04T13:06:28Z</time></trkpt><trkpt lat="42.69253929022399" lon="2.8920069689124817"><ele>47.0</ele><time>2026-04-04T13:06:29Z</time></trkpt><trkpt lat="42.6926017852791" lon="2.891922999540558"><ele>47.0</ele><time>2026-04-04T13:06:30Z</time></trkpt><trkpt lat="42.692672057163826" lon="2.8918312613325172"><ele>47.0</ele><time>2026-04-04T13:06:31Z</time></trkpt><trkpt lat="42.69273652061523" lon="2.89174459053353"><ele>47.0</ele><time>2026-04-04T13:06:32Z</time></trkpt><trkpt lat="42.69280101972106" lon="2.8916530844493815"><ele>47.0</ele><time>2026-04-04T13:06:33Z</time></trkpt><trkpt lat="42.692866775208074" lon="2.891588476319487"><ele>47.0</ele><time>2026-04-04T13:06:34Z</time></trkpt><trkpt lat="42.69292926057238" lon="2.8915047482793677"><ele>46.714285714285715</ele><time>2026-04-04T13:06:35Z</time></trkpt><trkpt lat="42.69297892237246" lon="2.8914382033332737"><ele>46.42857142857143</ele><time>2026-04-04T13:06:36Z</time></trkpt><trkpt lat="42.693017580156464" lon="2.891356773403524"><ele>46.14285714285714</ele><time>2026-04-04T13:06:37Z</time></trkpt><trkpt lat="42.69306740860359" lon="2.8912934967719415"><ele>45.85714285714286</ele><time>2026-04-04T13:06:38Z</time></trkpt><trkpt lat="42.69312582350512" lon="2.8912413613962396"><ele>45.57142857142858</ele><time>2026-04-04T13:06:39Z</time></trkpt><trkpt lat="42.69317763323068" lon="2.891171938334728"><ele>45.285714285714285</ele><time>2026-04-04T13:06:40Z</time></trkpt><trkpt lat="42.6932310375777" lon="2.8911003785344596"><ele>45.0</ele><time>2026-04-04T13:06:41Z</time></trkpt><trkpt lat="42.69328695617192" lon="2.8910254497045127"><ele>45.0</ele><time>2026-04-04T13:06:42Z</time></trkpt><trkpt lat="42.693339649653495" lon="2.890935786335022"><ele>45.0</ele><time>2026-04-04T13:06:43Z</time></trkpt><trkpt lat="42.69339888584844" lon="2.8908604026551217"><ele>45.0</ele><time>2026-04-04T13:06:44Z</time></trkpt><trkpt lat="42.69345542798222" lon="2.890785361321978"><ele>45.0</ele><time>2026-04-04T13:06:45Z</time></trkpt><trkpt lat="42.69351104507434" lon="2.890711900713022"><ele>45.0</ele><time>2026-04-04T13:06:46Z</time></trkpt><trkpt lat="42.69356956049587" lon="2.8906369001003616"><ele>45.0</ele><time>2026-04-04T13:06:47Z</time></trkpt><trkpt lat="42.69363030633832" lon="2.8905541373061285"><ele>44.4</ele><time>2026-04-04T13:06:48Z</time></trkpt><trkpt lat="42.69369602242913" lon="2.890463818557713"><ele>43.8</ele><time>2026-04-04T13:06:49Z</time></trkpt><trkpt lat="42.693766454320546" lon="2.8903749928647113"><ele>43.2</ele><time>2026-04-04T13:06:50Z</time></trkpt><trkpt lat="42.69383751364285" lon="2.8902851233743574"><ele>42.6</ele><time>2026-04-04T13:06:51Z</time></trkpt><trkpt lat="42.693913074467055" lon="2.890187994298838"><ele>42.0</ele><time>2026-04-04T13:06:52Z</time></trkpt><trkpt lat="42.69398378396918" lon="2.8900844984991476"><ele>42.0</ele><time>2026-04-04T13:06:53Z</time></trkpt><trkpt lat="42.69406087393769" lon="2.889980645749493"><ele>42.0</ele><time>2026-04-04T13:06:54Z</time></trkpt><trkpt lat="42.694136134737654" lon="2.8898813858756958"><ele>42.0</ele><time>2026-04-04T13:06:55Z</time></trkpt><trkpt lat="42.694212110380924" lon="2.889784056531527"><ele>42.0</ele><time>2026-04-04T13:06:56Z</time></trkpt><trkpt lat="42.69428865383632" lon="2.889686608707347"><ele>42.0</ele><time>2026-04-04T13:06:57Z</time></trkpt><trkpt lat="42.69435692252267" lon="2.8895976191981263"><ele>41.333333333333336</ele><time>2026-04-04T13:06:58Z</time></trkpt><trkpt lat="42.69442754110245" lon="2.8895052171283653"><ele>40.666666666666664</ele><time>2026-04-04T13:06:59Z</time></trkpt><trkpt lat="42.69449399137739" lon="2.8894195712904516"><ele>40.0</ele><time>2026-04-04T13:07:00Z</time></trkpt><trkpt lat="42.69455264986367" lon="2.8893397241209366"><ele>39.33333333333333</ele><time>2026-04-04T13:07:01Z</time></trkpt><trkpt lat="42.69460885994496" lon="2.8892627552391574"><ele>38.666666666666664</ele><time>2026-04-04T13:07:02Z</time></trkpt><trkpt lat="42.69466091766182" lon="2.889201094956721"><ele>38.0</ele><time>2026-04-04T13:07:03Z</time></trkpt><trkpt lat="42.69473527754943" lon="2.889174587239616"><ele>38.0</ele><time>2026-04-04T13:07:04Z</time></trkpt><trkpt lat="42.694810365317736" lon="2.8891294073476503"><ele>38.0</ele><time>2026-04-04T13:07:05Z</time></trkpt><trkpt lat="42.69489062000067" lon="2.889084379459514"><ele>38.0</ele><time>2026-04-04T13:07:06Z</time></trkpt><trkpt lat="42.69498819212556" lon="2.8890337209687162"><ele>38.0</ele><time>2026-04-04T13:07:07Z</time></trkpt><trkpt lat="42.69508377889488" lon="2.8889862072632977"><ele>38.0</ele><time>2026-04-04T13:07:08Z</time></trkpt><trkpt lat="42.695176225175516" lon="2.8889210376057397"><ele>37.4</ele><time>2026-04-04T13:07:09Z</time></trkpt><trkpt lat="42.695283966059506" lon="2.8888756282010086"><ele>36.8</ele><time>2026-04-04T13:07:10Z</time></trkpt><trkpt lat="42.695387610063705" lon="2.8888231699222886"><ele>36.2</ele><time>2026-04-04T13:07:11Z</time></trkpt><trkpt lat="42.69548843327358" lon="2.8887743027298467"><ele>35.6</ele><time>2026-04-04T13:07:12Z</time></trkpt><trkpt lat="42.69558339565004" lon="2.888724459149439"><ele>35.0</ele><time>2026-04-04T13:07:13Z</time></trkpt><trkpt lat="42.695682265879455" lon="2.8886781715749517"><ele>35.0</ele><time>2026-04-04T13:07:14Z</time></trkpt><trkpt lat="42.69578596175516" lon="2.888635794262814"><ele>35.0</ele><time>2026-04-04T13:07:15Z</time></trkpt><trkpt lat="42.69588939216596" lon="2.888581420350312"><ele>35.0</ele><time>2026-04-04T13:07:16Z</time></trkpt><trkpt lat="42.69598336149498" lon="2.8885375954166994"><ele>35.0</ele><time>2026-04-04T13:07:17Z</time></trkpt><trkpt lat="42.69607518270486" lon="2.888497379221052"><ele>35.0</ele><time>2026-04-04T13:07:18Z</time></trkpt><trkpt lat="42.69617150150885" lon="2.888449028876725"><ele>35.166666666666664</ele><time>2026-04-04T13:07:19Z</time></trkpt><trkpt lat="42.69625927190808" lon="2.888405998984111"><ele>35.33333333333333</ele><time>2026-04-04T13:07:20Z</time></trkpt><trkpt lat="42.6963429411656" lon="2.88836747814729"><ele>35.5</ele><time>2026-04-04T13:07:21Z</time></trkpt><trkpt lat="42.69641932659585" lon="2.8883284318324747"><ele>35.666666666666664</ele><time>2026-04-04T13:07:22Z</time></trkpt><trkpt lat="42.69648675545648" lon="2.8882983618412807"><ele>35.833333333333336</ele><time>2026-04-04T13:07:23Z</time></trkpt><trkpt lat="42.69659496120727" lon="2.8882487468382534"><ele>36.0</ele><time>2026-04-04T13:07:25Z</time></trkpt><trkpt lat="42.696655876863794" lon="2.8882107806598305"><ele>36.0</ele><time>2026-04-04T13:07:27Z</time></trkpt><trkpt lat="42.69671863131915" lon="2.8882018956783413"><ele>36.0</ele><time>2026-04-04T13:07:36Z</time></trkpt><trkpt lat="42.69684627327262" lon="2.8881488695902693"><ele>36.0</ele><time>2026-04-04T13:07:38Z</time></trkpt><trkpt lat="42.696949942291795" lon="2.8880807216211086"><ele>36.0</ele><time>2026-04-04T13:07:39Z</time></trkpt><trkpt lat="42.69709644749122" lon="2.8880086440095645"><ele>35.833333333333336</ele><time>2026-04-04T13:07:40Z</time></trkpt><trkpt lat="42.69715444533739" lon="2.8879745563044703"><ele>35.666666666666664</ele><time>2026-04-04T13:07:42Z</time></trkpt><trkpt lat="42.69723140292835" lon="2.887937278342607"><ele>35.5</ele><time>2026-04-04T13:07:43Z</time></trkpt><trkpt lat="42.697311868351704" lon="2.887895812940448"><ele>35.33333333333333</ele><time>2026-04-04T13:07:44Z</time></trkpt><trkpt lat="42.697389112817454" lon="2.8878582240340855"><ele>35.166666666666664</ele><time>2026-04-04T13:07:45Z</time></trkpt><trkpt lat="42.69745894358088" lon="2.8878248814697693"><ele>35.0</ele><time>2026-04-04T13:07:46Z</time></trkpt><trkpt lat="42.69753217569448" lon="2.8877875514177647"><ele>35.0</ele><time>2026-04-04T13:07:47Z</time></trkpt><trkpt lat="42.69760406176726" lon="2.8877458570507866"><ele>35.0</ele><time>2026-04-04T13:07:48Z</time></trkpt><trkpt lat="42.697687524536796" lon="2.8877100513458607"><ele>35.0</ele><time>2026-04-04T13:07:49Z</time></trkpt><trkpt lat="42.697790693013154" lon="2.8876732948475126"><ele>35.0</ele><time>2026-04-04T13:07:50Z</time></trkpt><trkpt lat="42.697877692282454" lon="2.8876411892533627"><ele>35.0</ele><time>2026-04-04T13:07:51Z</time></trkpt><trkpt lat="42.69795746736057" lon="2.887618720658535"><ele>35.0</ele><time>2026-04-04T13:07:52Z</time></trkpt><trkpt lat="42.698032025690395" lon="2.887599172587376"><ele>35.6</ele><time>2026-04-04T13:07:53Z</time></trkpt><trkpt lat="42.69809734938242" lon="2.8875761227157057"><ele>36.2</ele><time>2026-04-04T13:07:54Z</time></trkpt><trkpt lat="42.6981646547992" lon="2.8875421460929056"><ele>36.8</ele><time>2026-04-04T13:07:55Z</time></trkpt><trkpt lat="42.698276880796406" lon="2.887485646267845"><ele>37.4</ele><time>2026-04-04T13:07:57Z</time></trkpt><trkpt lat="42.69840193800047" lon="2.8874193581811642"><ele>38.0</ele><time>2026-04-04T13:07:59Z</time></trkpt><trkpt lat="42.698473267674544" lon="2.8873818775036164"><ele>38.0</ele><time>2026-04-04T13:08:00Z</time></trkpt><trkpt lat="42.69855392853691" lon="2.88733509828308"><ele>38.0</ele><time>2026-04-04T13:08:01Z</time></trkpt><trkpt lat="42.698629290685034" lon="2.88727962730987"><ele>38.0</ele><time>2026-04-04T13:08:02Z</time></trkpt><trkpt lat="42.69870855564961" lon="2.88722683217729"><ele>38.0</ele><time>2026-04-04T13:08:03Z</time></trkpt><trkpt lat="42.6987924596211" lon="2.887177585348348"><ele>38.0</ele><time>2026-04-04T13:08:04Z</time></trkpt><trkpt lat="42.69891017022741" lon="2.8871379683913023"><ele>38.4</ele><time>2026-04-04T13:08:05Z</time></trkpt><trkpt lat="42.6990039354977" lon="2.8870891218858645"><ele>38.8</ele><time>2026-04-04T13:08:06Z</time></trkpt><trkpt lat="42.69909415584281" lon="2.88704484238984"><ele>39.2</ele><time>2026-04-04T13:08:07Z</time></trkpt><trkpt lat="42.69917472161088" lon="2.887000381761936"><ele>39.6</ele><time>2026-04-04T13:08:08Z</time></trkpt><trkpt lat="42.69925960638508" lon="2.886954982753642"><ele>40.0</ele><time>2026-04-04T13:08:09Z</time></trkpt><trkpt lat="42.69935471014394" lon="2.886913719030556"><ele>39.5</ele><time>2026-04-04T13:08:10Z</time></trkpt><trkpt lat="42.699443121113745" lon="2.8868672357971157"><ele>39.0</ele><time>2026-04-04T13:08:11Z</time></trkpt><trkpt lat="42.699523391856225" lon="2.8868313689447405"><ele>38.5</ele><time>2026-04-04T13:08:12Z</time></trkpt><trkpt lat="42.69958409973366" lon="2.886800455285528"><ele>38.0</ele><time>2026-04-04T13:08:13Z</time></trkpt><trkpt lat="42.699663721213334" lon="2.8867634975023475"><ele>37.5</ele><time>2026-04-04T13:08:15Z</time></trkpt><trkpt lat="42.699730730760436" lon="2.8867210567713784"><ele>37.0</ele><time>2026-04-04T13:08:20Z</time></trkpt><trkpt lat="42.69984043705057" lon="2.8866681449739366"><ele>36.800000000000004</ele><time>2026-04-04T13:08:22Z</time></trkpt><trkpt lat="42.69993817986901" lon="2.886630263938333"><ele>36.6</ele><time>2026-04-04T13:08:23Z</time></trkpt><trkpt lat="42.70001982248097" lon="2.8865905596347874"><ele>36.400000000000006</ele><time>2026-04-04T13:08:24Z</time></trkpt><trkpt lat="42.700120660683815" lon="2.886546448427606"><ele>36.2</ele><time>2026-04-04T13:08:25Z</time></trkpt><trkpt lat="42.700253222513474" lon="2.8864985744750715"><ele>36.0</ele><time>2026-04-04T13:08:26Z</time></trkpt><trkpt lat="42.70038293967662" lon="2.8864483589668635"><ele>35.0</ele><time>2026-04-04T13:08:27Z</time></trkpt><trkpt lat="42.70051685636597" lon="2.8863931083376957"><ele>34.0</ele><time>2026-04-04T13:08:28Z</time></trkpt><trkpt lat="42.700665872213925" lon="2.8863157802481236"><ele>33.0</ele><time>2026-04-04T13:08:29Z</time></trkpt><trkpt lat="42.70080457836185" lon="2.886243934914823"><ele>32.0</ele><time>2026-04-04T13:08:30Z</time></trkpt><trkpt lat="42.70096085678807" lon="2.886168800226296"><ele>30.75</ele><time>2026-04-04T13:08:31Z</time></trkpt><trkpt lat="42.70110142096626" lon="2.8861031693596266"><ele>29.5</ele><time>2026-04-04T13:08:32Z</time></trkpt><trkpt lat="42.70123922242868" lon="2.8860389404770204"><ele>28.25</ele><time>2026-04-04T13:08:33Z</time></trkpt><trkpt lat="42.70138276563411" lon="2.8859739136704787"><ele>27.0</ele><time>2026-04-04T13:08:34Z</time></trkpt><trkpt lat="42.70152557680686" lon="2.8859070216155422"><ele>27.0</ele><time>2026-04-04T13:08:35Z</time></trkpt><trkpt lat="42.701676406595126" lon="2.885832404124455"><ele>27.0</ele><time>2026-04-04T13:08:36Z</time></trkpt><trkpt lat="42.701823836331684" lon="2.8857558945511332"><ele>27.0</ele><time>2026-04-04T13:08:37Z</time></trkpt><trkpt lat="42.70197618893624" lon="2.885671920584364"><ele>27.0</ele><time>2026-04-04T13:08:38Z</time></trkpt><trkpt lat="42.70212891009695" lon="2.8855886533381034"><ele>27.0</ele><time>2026-04-04T13:08:39Z</time></trkpt><trkpt lat="42.7022735679117" lon="2.8855130936335605"><ele>27.0</ele><time>2026-04-04T13:08:40Z</time></trkpt><trkpt lat="42.702416618915606" lon="2.8854355924544737"><ele>27.0</ele><time>2026-04-04T13:08:41Z</time></trkpt><trkpt lat="42.702560689002" lon="2.8853565840763715"><ele>27.0</ele><time>2026-04-04T13:08:42Z</time></trkpt><trkpt lat="42.70270565207619" lon="2.885278956071022"><ele>27.0</ele><time>2026-04-04T13:08:43Z</time></trkpt><trkpt lat="42.702872822311356" lon="2.885194657465252"><ele>28.666666666666664</ele><time>2026-04-04T13:08:44Z</time></trkpt><trkpt lat="42.70304653515868" lon="2.885101802368707"><ele>30.333333333333332</ele><time>2026-04-04T13:08:45Z</time></trkpt><trkpt lat="42.70322816932825" lon="2.8850000426466265"><ele>32.0</ele><time>2026-04-04T13:08:46Z</time></trkpt><trkpt lat="42.7034116005668" lon="2.884895677866381"><ele>32.0</ele><time>2026-04-04T13:08:47Z</time></trkpt><trkpt lat="42.70357730794946" lon="2.8848007661706156"><ele>32.0</ele><time>2026-04-04T13:08:48Z</time></trkpt><trkpt lat="42.70372651298289" lon="2.884718931016031"><ele>32.0</ele><time>2026-04-04T13:08:49Z</time></trkpt><trkpt lat="42.70386950124982" lon="2.884638663649895"><ele>32.0</ele><time>2026-04-04T13:08:50Z</time></trkpt><trkpt lat="42.70400782224299" lon="2.8845562150555812"><ele>32.0</ele><time>2026-04-04T13:08:51Z</time></trkpt><trkpt lat="42.7041422162938" lon="2.8844773952805713"><ele>32.0</ele><time>2026-04-04T13:08:52Z</time></trkpt><trkpt lat="42.70427022700002" lon="2.8844037645616853"><ele>32.0</ele><time>2026-04-04T13:08:53Z</time></trkpt><trkpt lat="42.704387407581756" lon="2.8843368423788665"><ele>31.75</ele><time>2026-04-04T13:08:54Z</time></trkpt><trkpt lat="42.70450702570005" lon="2.884268506179506"><ele>31.5</ele><time>2026-04-04T13:08:55Z</time></trkpt><trkpt lat="42.704616750369055" lon="2.884208890488966"><ele>31.25</ele><time>2026-04-04T13:08:56Z</time></trkpt><trkpt lat="42.70473070836654" lon="2.8841467552938407"><ele>31.0</ele><time>2026-04-04T13:08:57Z</time></trkpt><trkpt lat="42.704854516913386" lon="2.8840806496440314"><ele>30.8</ele><time>2026-04-04T13:08:58Z</time></trkpt><trkpt lat="42.70496409424819" lon="2.8840350185366663"><ele>30.6</ele><time>2026-04-04T13:08:59Z</time></trkpt><trkpt lat="42.705069733420814" lon="2.884014526023864"><ele>30.4</ele><time>2026-04-04T13:09:00Z</time></trkpt><trkpt lat="42.70516815686789" lon="2.8840102719064147"><ele>30.2</ele><time>2026-04-04T13:09:01Z</time></trkpt><trkpt lat="42.70526234359891" lon="2.8840119870213745"><ele>30.0</ele><time>2026-04-04T13:09:02Z</time></trkpt><trkpt lat="42.705347020361835" lon="2.8840219769198945"><ele>30.0</ele><time>2026-04-04T13:09:03Z</time></trkpt><trkpt lat="42.705426045064904" lon="2.8840486544955133"><ele>30.0</ele><time>2026-04-04T13:09:04Z</time></trkpt><trkpt lat="42.70549355259082" lon="2.8840906062978666"><ele>30.0</ele><time>2026-04-04T13:09:05Z</time></trkpt><trkpt lat="42.70556004362327" lon="2.88414586812881"><ele>30.0</ele><time>2026-04-04T13:09:06Z</time></trkpt><trkpt lat="42.705636530967865" lon="2.8842001685063283"><ele>30.0</ele><time>2026-04-04T13:09:07Z</time></trkpt><trkpt lat="42.70568998046248" lon="2.884300611235465"><ele>30.0</ele><time>2026-04-04T13:09:08Z</time></trkpt><trkpt lat="42.70570855740248" lon="2.8844377889567396"><ele>30.0</ele><time>2026-04-04T13:09:09Z</time></trkpt><trkpt lat="42.70574295421685" lon="2.884543701401646"><ele>30.0</ele><time>2026-04-04T13:09:10Z</time></trkpt><trkpt lat="42.705804762937575" lon="2.8846035802658214"><ele>30.0</ele><time>2026-04-04T13:09:11Z</time></trkpt><trkpt lat="42.70585222413617" lon="2.884674010230061"><ele>30.0</ele><time>2026-04-04T13:09:12Z</time></trkpt><trkpt lat="42.70584495914881" lon="2.884785194920255"><ele>30.0</ele><time>2026-04-04T13:09:13Z</time></trkpt><trkpt lat="42.705803471358166" lon="2.884938933808862"><ele>30.0</ele><time>2026-04-04T13:09:15Z</time></trkpt><trkpt lat="42.70571880938057" lon="2.885016965052368"><ele>30.0</ele><time>2026-04-04T13:09:17Z</time></trkpt><trkpt lat="42.70562589069754" lon="2.884876470767642"><ele>30.0</ele><time>2026-04-04T13:09:20Z</time></trkpt><trkpt lat="42.705574311163765" lon="2.88476106864259"><ele>30.0</ele><time>2026-04-04T13:09:22Z</time></trkpt><trkpt lat="42.70548455756149" lon="2.8847976656261105"><ele>30.0</ele><time>2026-04-04T13:09:23Z</time></trkpt><trkpt lat="42.70537058773737" lon="2.8848491637241804"><ele>30.0</ele><time>2026-04-04T13:09:25Z</time></trkpt><trkpt lat="42.705255529527776" lon="2.884905506092379"><ele>30.0</ele><time>2026-04-04T13:09:27Z</time></trkpt><trkpt lat="42.70514446498175" lon="2.8849734695918725"><ele>30.0</ele><time>2026-04-04T13:09:29Z</time></trkpt><trkpt lat="42.70503268157549" lon="2.885024352736324"><ele>30.0</ele><time>2026-04-04T13:09:31Z</time></trkpt><trkpt lat="42.704912787613445" lon="2.8850931292038187"><ele>30.333333333333332</ele><time>2026-04-04T13:09:33Z</time></trkpt><trkpt lat="42.70485125234196" lon="2.8851324658338116"><ele>30.666666666666664</ele><time>2026-04-04T13:09:34Z</time></trkpt><trkpt lat="42.70474607221119" lon="2.885189436512165"><ele>31.0</ele><time>2026-04-04T13:09:36Z</time></trkpt><trkpt lat="42.70464112096243" lon="2.885248386226722"><ele>31.333333333333332</ele><time>2026-04-04T13:09:38Z</time></trkpt><trkpt lat="42.7045640039633" lon="2.885287650767112"><ele>31.666666666666664</ele><time>2026-04-04T13:09:40Z</time></trkpt><trkpt lat="42.704505836044866" lon="2.8853385616107805"><ele>32.0</ele><time>2026-04-04T13:09:43Z</time></trkpt><trkpt lat="42.70441224293386" lon="2.885372524130674"><ele>32.4</ele><time>2026-04-04T13:09:47Z</time></trkpt><trkpt lat="42.70434635687288" lon="2.8854410144679012"><ele>32.800000000000004</ele><time>2026-04-04T13:11:37Z</time></trkpt><trkpt lat="42.70426230371863" lon="2.8854861940670316"><ele>33.2</ele><time>2026-04-04T13:11:39Z</time></trkpt><trkpt lat="42.7041594786147" lon="2.885540459111308"><ele>33.6</ele><time>2026-04-04T13:11:41Z</time></trkpt><trkpt lat="42.704079399436246" lon="2.885573057108269"><ele>34.0</ele><time>2026-04-04T13:11:43Z</time></trkpt><trkpt lat="42.703989877875635" lon="2.8856213622822597"><ele>34.0</ele><time>2026-04-04T13:11:45Z</time></trkpt><trkpt lat="42.703870394680706" lon="2.885687876374675"><ele>34.0</ele><time>2026-04-04T13:11:47Z</time></trkpt><trkpt lat="42.703807393628026" lon="2.885708734274728"><ele>34.0</ele><time>2026-04-04T13:11:48Z</time></trkpt><trkpt lat="42.70373896721121" lon="2.885763666636734"><ele>34.0</ele><time>2026-04-04T13:11:50Z</time></trkpt><trkpt lat="42.70367461081468" lon="2.885783301233997"><ele>34.0</ele><time>2026-04-04T13:11:53Z</time></trkpt><trkpt lat="42.703584102038036" lon="2.8855889785147046"><ele>33.6</ele><time>2026-04-04T13:11:58Z</time></trkpt><trkpt lat="42.70353097704727" lon="2.8854822649598733"><ele>33.2</ele><time>2026-04-04T13:12:00Z</time></trkpt><trkpt lat="42.70350131297116" lon="2.885354174331753"><ele>32.800000000000004</ele><time>2026-04-04T13:12:02Z</time></trkpt><trkpt lat="42.70348233341314" lon="2.8852464709440846"><ele>32.4</ele><time>2026-04-04T13:12:04Z</time></trkpt><trkpt lat="42.70356982031887" lon="2.885154632007285"><ele>32.0</ele><time>2026-04-04T13:12:05Z</time></trkpt><trkpt lat="42.70368681706428" lon="2.8850808496907683"><ele>32.0</ele><time>2026-04-04T13:12:07Z</time></trkpt><trkpt lat="42.70375266160158" lon="2.885043773449187"><ele>31.999999999999996</ele><time>2026-04-04T13:12:08Z</time></trkpt><trkpt lat="42.70382292054638" lon="2.8849990305872435"><ele>32.0</ele><time>2026-04-04T13:12:09Z</time></trkpt><trkpt lat="42.70388621613836" lon="2.8849653271132087"><ele>32.0</ele><time>2026-04-04T13:12:10Z</time></trkpt><trkpt lat="42.703954955118554" lon="2.8849276381736484"><ele>31.999999999999996</ele><time>2026-04-04T13:12:11Z</time></trkpt><trkpt lat="42.70401357159783" lon="2.8848866835647318"><ele>32.0</ele><time>2026-04-04T13:12:12Z</time></trkpt><trkpt lat="42.70407145208607" lon="2.8848504400437083"><ele>32.0</ele><time>2026-04-04T13:12:13Z</time></trkpt><trkpt lat="42.70413087574" lon="2.8848072604247017"><ele>31.999999999999996</ele><time>2026-04-04T13:12:14Z</time></trkpt><trkpt lat="42.70419683749529" lon="2.884767057398722"><ele>32.0</ele><time>2026-04-04T13:12:15Z</time></trkpt><trkpt lat="42.7042697956159" lon="2.884725586644484"><ele>32.0</ele><time>2026-04-04T13:12:16Z</time></trkpt><trkpt lat="42.7043438179774" lon="2.8846832465086316"><ele>32.0</ele><time>2026-04-04T13:12:17Z</time></trkpt><trkpt lat="42.70441614705203" lon="2.8846431498460037"><ele>31.999999999999996</ele><time>2026-04-04T13:12:18Z</time></trkpt><trkpt lat="42.70449393510109" lon="2.884601478467153"><ele>32.0</ele><time>2026-04-04T13:12:19Z</time></trkpt><trkpt lat="42.70456815580376" lon="2.8845565995112477"><ele>31.833333333333332</ele><time>2026-04-04T13:12:20Z</time></trkpt><trkpt lat="42.70464228260229" lon="2.88451083133649"><ele>31.666666666666664</ele><time>2026-04-04T13:12:21Z</time></trkpt><trkpt lat="42.7047146284524" lon="2.8844698817397365"><ele>31.5</ele><time>2026-04-04T13:12:22Z</time></trkpt><trkpt lat="42.70479067650335" lon="2.8844269908506845"><ele>31.333333333333336</ele><time>2026-04-04T13:12:23Z</time></trkpt><trkpt lat="42.70485832556984" lon="2.884384960623371"><ele>31.166666666666668</ele><time>2026-04-04T13:12:24Z</time></trkpt><trkpt lat="42.704927853173075" lon="2.884342962184142"><ele>31.0</ele><time>2026-04-04T13:12:25Z</time></trkpt><trkpt lat="42.70499781589548" lon="2.8842995477552846"><ele>30.857142857142858</ele><time>2026-04-04T13:12:26Z</time></trkpt><trkpt lat="42.70506873127182" lon="2.884254525934364"><ele>30.714285714285715</ele><time>2026-04-04T13:12:27Z</time></trkpt><trkpt lat="42.705134163829555" lon="2.88422796198518"><ele>30.571428571428573</ele><time>2026-04-04T13:12:28Z</time></trkpt><trkpt lat="42.705197797001645" lon="2.8842211028334437"><ele>30.42857142857143</ele><time>2026-04-04T13:12:29Z</time></trkpt><trkpt lat="42.70526627507082" lon="2.88423729409002"><ele>30.285714285714285</ele><time>2026-04-04T13:12:30Z</time></trkpt><trkpt lat="42.70532398126189" lon="2.884284823642205"><ele>30.142857142857146</ele><time>2026-04-04T13:12:31Z</time></trkpt><trkpt lat="42.705371878004605" lon="2.884368954731646"><ele>30.0</ele><time>2026-04-04T13:12:32Z</time></trkpt><trkpt lat="42.70540500014775" lon="2.8844483145341266"><ele>30.0</ele><time>2026-04-04T13:12:33Z</time></trkpt><trkpt lat="42.70547248707748" lon="2.884574385928213"><ele>30.0</ele><time>2026-04-04T13:12:35Z</time></trkpt><trkpt lat="42.70551816466889" lon="2.8846858173321004"><ele>30.0</ele><time>2026-04-04T13:12:37Z</time></trkpt><trkpt lat="42.705413602368274" lon="2.8848396219146526"><ele>30.0</ele><time>2026-04-04T13:12:41Z</time></trkpt><trkpt lat="42.705317960825695" lon="2.884880891931312"><ele>30.166666666666668</ele><time>2026-04-04T13:12:43Z</time></trkpt><trkpt lat="42.7052115339695" lon="2.884936762728583"><ele>30.333333333333336</ele><time>2026-04-04T13:12:45Z</time></trkpt><trkpt lat="42.70513084447432" lon="2.8849836107928524"><ele>30.5</ele><time>2026-04-04T13:12:46Z</time></trkpt><trkpt lat="42.70505840791205" lon="2.885020417170856"><ele>30.666666666666668</ele><time>2026-04-04T13:12:47Z</time></trkpt><trkpt lat="42.70498943138804" lon="2.8850478859812245"><ele>30.833333333333336</ele><time>2026-04-04T13:12:49Z</time></trkpt><trkpt lat="42.70496034807387" lon="2.885125893023784"><ele>31.0</ele><time>2026-04-04T13:12:54Z</time></trkpt><trkpt lat="42.704918502029145" lon="2.8850041830255893"><ele>31.0</ele><time>2026-04-04T13:17:54Z</time></trkpt></trkseg></trk></gpx>